<?xml version="1.0" encoding="UTF-8" standalone="no" ?>
<gpx xmlns="http://www.topografix.com/GPX/1/1" xmlns:xsi="http://www.w3.org/2001/XMLSchema-instance" xsi:schemaLocation="http://www.topografix.com/GPX/1/1 http://www.topografix.com/GPX/1/1/gpx.xsd" version="1.1" creator="VisuGPX - https://www.visugpx.com">
  <metadata>
    <name>Lyon à la Méiterrannée</name>
    <desc><![CDATA[Descente du Rhône de Vernaison à la Méditerrannée en SUP]]></desc>
  </metadata>
  <trk>
    <name><![CDATA[Lyon - Med_course on GPSies.com]]></name>
    <trkseg>
      <trkpt lat="45.64558" lon="4.81553">
        <ele>160</ele>
        <time>2017-02-17T11:27:24Z</time>
      </trkpt>
      <trkpt lat="45.64516" lon="4.81504">
        <ele>158</ele>
        <time>2017-02-17T11:27:51Z</time>
      </trkpt>
      <trkpt lat="45.64475" lon="4.81454">
        <ele>155</ele>
        <time>2017-02-17T11:28:18Z</time>
      </trkpt>
      <trkpt lat="45.64433" lon="4.81405">
        <ele>156</ele>
        <time>2017-02-17T11:28:45Z</time>
      </trkpt>
      <trkpt lat="45.64392" lon="4.81356">
        <ele>156</ele>
        <time>2017-02-17T11:29:12Z</time>
      </trkpt>
      <trkpt lat="45.6435" lon="4.81306">
        <ele>157</ele>
        <time>2017-02-17T11:29:39Z</time>
      </trkpt>
      <trkpt lat="45.64309" lon="4.81257">
        <ele>157</ele>
        <time>2017-02-17T11:30:06Z</time>
      </trkpt>
      <trkpt lat="45.64252" lon="4.81223">
        <ele>159</ele>
        <time>2017-02-17T11:30:37Z</time>
      </trkpt>
      <trkpt lat="45.64195" lon="4.81188">
        <ele>159</ele>
        <time>2017-02-17T11:31:08Z</time>
      </trkpt>
      <trkpt lat="45.64138" lon="4.81154">
        <ele>158</ele>
        <time>2017-02-17T11:31:39Z</time>
      </trkpt>
      <trkpt lat="45.64081" lon="4.8112">
        <ele>157</ele>
        <time>2017-02-17T11:32:09Z</time>
      </trkpt>
      <trkpt lat="45.64024" lon="4.81085">
        <ele>156</ele>
        <time>2017-02-17T11:32:40Z</time>
      </trkpt>
      <trkpt lat="45.63967" lon="4.81051">
        <ele>155</ele>
        <time>2017-02-17T11:33:11Z</time>
      </trkpt>
      <trkpt lat="45.6391" lon="4.81017">
        <ele>157</ele>
        <time>2017-02-17T11:33:42Z</time>
      </trkpt>
      <trkpt lat="45.63853" lon="4.80982">
        <ele>157</ele>
        <time>2017-02-17T11:34:13Z</time>
      </trkpt>
      <trkpt lat="45.63792" lon="4.80956">
        <ele>155</ele>
        <time>2017-02-17T11:34:45Z</time>
      </trkpt>
      <trkpt lat="45.63731" lon="4.8093">
        <ele>157</ele>
        <time>2017-02-17T11:35:17Z</time>
      </trkpt>
      <trkpt lat="45.63671" lon="4.80903">
        <ele>155</ele>
        <time>2017-02-17T11:35:49Z</time>
      </trkpt>
      <trkpt lat="45.6361" lon="4.80877">
        <ele>155</ele>
        <time>2017-02-17T11:36:20Z</time>
      </trkpt>
      <trkpt lat="45.63549" lon="4.80851">
        <ele>157</ele>
        <time>2017-02-17T11:36:52Z</time>
      </trkpt>
      <trkpt lat="45.63488" lon="4.80825">
        <ele>158</ele>
        <time>2017-02-17T11:37:24Z</time>
      </trkpt>
      <trkpt lat="45.63428" lon="4.80798">
        <ele>157</ele>
        <time>2017-02-17T11:37:56Z</time>
      </trkpt>
      <trkpt lat="45.63367" lon="4.80772">
        <ele>156</ele>
        <time>2017-02-17T11:38:27Z</time>
      </trkpt>
      <trkpt lat="45.63312" lon="4.80766">
        <ele>156</ele>
        <time>2017-02-17T11:38:55Z</time>
      </trkpt>
      <trkpt lat="45.63258" lon="4.80761">
        <ele>156</ele>
        <time>2017-02-17T11:39:22Z</time>
      </trkpt>
      <trkpt lat="45.63203" lon="4.80755">
        <ele>156</ele>
        <time>2017-02-17T11:39:49Z</time>
      </trkpt>
      <trkpt lat="45.63149" lon="4.80749">
        <ele>156</ele>
        <time>2017-02-17T11:40:17Z</time>
      </trkpt>
      <trkpt lat="45.63094" lon="4.80743">
        <ele>155</ele>
        <time>2017-02-17T11:40:44Z</time>
      </trkpt>
      <trkpt lat="45.6304" lon="4.80738">
        <ele>155</ele>
        <time>2017-02-17T11:41:11Z</time>
      </trkpt>
      <trkpt lat="45.62984" lon="4.80737">
        <ele>157</ele>
        <time>2017-02-17T11:41:39Z</time>
      </trkpt>
      <trkpt lat="45.62928" lon="4.80736">
        <ele>156</ele>
        <time>2017-02-17T11:42:07Z</time>
      </trkpt>
      <trkpt lat="45.62872" lon="4.80735">
        <ele>156</ele>
        <time>2017-02-17T11:42:35Z</time>
      </trkpt>
      <trkpt lat="45.62816" lon="4.80734">
        <ele>157</ele>
        <time>2017-02-17T11:43:03Z</time>
      </trkpt>
      <trkpt lat="45.6276" lon="4.80733">
        <ele>156</ele>
        <time>2017-02-17T11:43:31Z</time>
      </trkpt>
      <trkpt lat="45.62702" lon="4.80735">
        <ele>155</ele>
        <time>2017-02-17T11:44:00Z</time>
      </trkpt>
      <trkpt lat="45.62643" lon="4.80737">
        <ele>155</ele>
        <time>2017-02-17T11:44:30Z</time>
      </trkpt>
      <trkpt lat="45.62584" lon="4.80739">
        <ele>155</ele>
        <time>2017-02-17T11:44:59Z</time>
      </trkpt>
      <trkpt lat="45.62526" lon="4.80741">
        <ele>155</ele>
        <time>2017-02-17T11:45:29Z</time>
      </trkpt>
      <trkpt lat="45.62467" lon="4.80743">
        <ele>155</ele>
        <time>2017-02-17T11:45:58Z</time>
      </trkpt>
      <trkpt lat="45.62408" lon="4.80744">
        <ele>155</ele>
        <time>2017-02-17T11:46:27Z</time>
      </trkpt>
      <trkpt lat="45.62349" lon="4.80746">
        <ele>155</ele>
        <time>2017-02-17T11:46:57Z</time>
      </trkpt>
      <trkpt lat="45.62294" lon="4.80733">
        <ele>155</ele>
        <time>2017-02-17T11:47:25Z</time>
      </trkpt>
      <trkpt lat="45.62239" lon="4.80721">
        <ele>155</ele>
        <time>2017-02-17T11:47:52Z</time>
      </trkpt>
      <trkpt lat="45.62184" lon="4.80708">
        <ele>155</ele>
        <time>2017-02-17T11:48:20Z</time>
      </trkpt>
      <trkpt lat="45.62136" lon="4.80682">
        <ele>156</ele>
        <time>2017-02-17T11:48:46Z</time>
      </trkpt>
      <trkpt lat="45.62087" lon="4.80656">
        <ele>152</ele>
        <time>2017-02-17T11:49:12Z</time>
      </trkpt>
      <trkpt lat="45.62038" lon="4.8063">
        <ele>151</ele>
        <time>2017-02-17T11:49:38Z</time>
      </trkpt>
      <trkpt lat="45.6199" lon="4.80605">
        <ele>155</ele>
        <time>2017-02-17T11:50:04Z</time>
      </trkpt>
      <trkpt lat="45.61941" lon="4.80579">
        <ele>156</ele>
        <time>2017-02-17T11:50:30Z</time>
      </trkpt>
      <trkpt lat="45.61889" lon="4.8053">
        <ele>156</ele>
        <time>2017-02-17T11:51:01Z</time>
      </trkpt>
      <trkpt lat="45.61837" lon="4.8048">
        <ele>157</ele>
        <time>2017-02-17T11:51:32Z</time>
      </trkpt>
      <trkpt lat="45.61786" lon="4.80431">
        <ele>157</ele>
        <time>2017-02-17T11:52:04Z</time>
      </trkpt>
      <trkpt lat="45.61734" lon="4.80381">
        <ele>155</ele>
        <time>2017-02-17T11:52:35Z</time>
      </trkpt>
      <trkpt lat="45.61684" lon="4.80349">
        <ele>156</ele>
        <time>2017-02-17T11:53:02Z</time>
      </trkpt>
      <trkpt lat="45.61634" lon="4.80316">
        <ele>159</ele>
        <time>2017-02-17T11:53:30Z</time>
      </trkpt>
      <trkpt lat="45.61584" lon="4.80283">
        <ele>158</ele>
        <time>2017-02-17T11:53:57Z</time>
      </trkpt>
      <trkpt lat="45.61524" lon="4.80259">
        <ele>155</ele>
        <time>2017-02-17T11:54:29Z</time>
      </trkpt>
      <trkpt lat="45.61464" lon="4.80236">
        <ele>155</ele>
        <time>2017-02-17T11:55:00Z</time>
      </trkpt>
      <trkpt lat="45.61404" lon="4.80212">
        <ele>155</ele>
        <time>2017-02-17T11:55:31Z</time>
      </trkpt>
      <trkpt lat="45.61344" lon="4.80188">
        <ele>155</ele>
        <time>2017-02-17T11:56:02Z</time>
      </trkpt>
      <trkpt lat="45.61297" lon="4.80171">
        <ele>155</ele>
        <time>2017-02-17T11:56:26Z</time>
      </trkpt>
      <trkpt lat="45.61251" lon="4.80154">
        <ele>155</ele>
        <time>2017-02-17T11:56:50Z</time>
      </trkpt>
      <trkpt lat="45.61204" lon="4.80137">
        <ele>155</ele>
        <time>2017-02-17T11:57:14Z</time>
      </trkpt>
      <trkpt lat="45.61158" lon="4.8012">
        <ele>155</ele>
        <time>2017-02-17T11:57:38Z</time>
      </trkpt>
      <trkpt lat="45.61099" lon="4.80107">
        <ele>156</ele>
        <time>2017-02-17T11:58:08Z</time>
      </trkpt>
      <trkpt lat="45.6104" lon="4.80094">
        <ele>156</ele>
        <time>2017-02-17T11:58:37Z</time>
      </trkpt>
      <trkpt lat="45.60987" lon="4.80061">
        <ele>155</ele>
        <time>2017-02-17T11:59:06Z</time>
      </trkpt>
      <trkpt lat="45.60934" lon="4.80028">
        <ele>155</ele>
        <time>2017-02-17T11:59:36Z</time>
      </trkpt>
      <trkpt lat="45.6088" lon="4.79995">
        <ele>155</ele>
        <time>2017-02-17T12:00:05Z</time>
      </trkpt>
      <trkpt lat="45.60827" lon="4.79962">
        <ele>155</ele>
        <time>2017-02-17T12:00:34Z</time>
      </trkpt>
      <trkpt lat="45.60774" lon="4.79929">
        <ele>155</ele>
        <time>2017-02-17T12:01:03Z</time>
      </trkpt>
      <trkpt lat="45.6072" lon="4.79897">
        <ele>155</ele>
        <time>2017-02-17T12:01:32Z</time>
      </trkpt>
      <trkpt lat="45.60667" lon="4.79864">
        <ele>156</ele>
        <time>2017-02-17T12:02:01Z</time>
      </trkpt>
      <trkpt lat="45.60614" lon="4.79831">
        <ele>157</ele>
        <time>2017-02-17T12:02:30Z</time>
      </trkpt>
      <trkpt lat="45.6056" lon="4.79798">
        <ele>155</ele>
        <time>2017-02-17T12:02:59Z</time>
      </trkpt>
      <trkpt lat="45.60515" lon="4.79746">
        <ele>155</ele>
        <time>2017-02-17T12:03:28Z</time>
      </trkpt>
      <trkpt lat="45.6047" lon="4.79695">
        <ele>156</ele>
        <time>2017-02-17T12:03:57Z</time>
      </trkpt>
      <trkpt lat="45.60425" lon="4.79643">
        <ele>156</ele>
        <time>2017-02-17T12:04:26Z</time>
      </trkpt>
      <trkpt lat="45.6038" lon="4.79592">
        <ele>157</ele>
        <time>2017-02-17T12:04:55Z</time>
      </trkpt>
      <trkpt lat="45.60332" lon="4.79538">
        <ele>157</ele>
        <time>2017-02-17T12:05:25Z</time>
      </trkpt>
      <trkpt lat="45.60283" lon="4.79484">
        <ele>155</ele>
        <time>2017-02-17T12:05:56Z</time>
      </trkpt>
      <trkpt lat="45.60235" lon="4.7943">
        <ele>157</ele>
        <time>2017-02-17T12:06:27Z</time>
      </trkpt>
      <trkpt lat="45.60186" lon="4.79376">
        <ele>160</ele>
        <time>2017-02-17T12:06:58Z</time>
      </trkpt>
      <trkpt lat="45.60138" lon="4.79322">
        <ele>155</ele>
        <time>2017-02-17T12:07:28Z</time>
      </trkpt>
      <trkpt lat="45.60089" lon="4.79268">
        <ele>158</ele>
        <time>2017-02-17T12:07:59Z</time>
      </trkpt>
      <trkpt lat="45.60041" lon="4.79214">
        <ele>165</ele>
        <time>2017-02-17T12:08:30Z</time>
      </trkpt>
      <trkpt lat="45.59986" lon="4.79176">
        <ele>158</ele>
        <time>2017-02-17T12:09:00Z</time>
      </trkpt>
      <trkpt lat="45.59932" lon="4.79138">
        <ele>155</ele>
        <time>2017-02-17T12:09:31Z</time>
      </trkpt>
      <trkpt lat="45.59877" lon="4.791">
        <ele>157</ele>
        <time>2017-02-17T12:10:01Z</time>
      </trkpt>
      <trkpt lat="45.59823" lon="4.79062">
        <ele>158</ele>
        <time>2017-02-17T12:10:31Z</time>
      </trkpt>
      <trkpt lat="45.59769" lon="4.79024">
        <ele>159</ele>
        <time>2017-02-17T12:11:02Z</time>
      </trkpt>
      <trkpt lat="45.59714" lon="4.78986">
        <ele>161</ele>
        <time>2017-02-17T12:11:32Z</time>
      </trkpt>
      <trkpt lat="45.5966" lon="4.78948">
        <ele>159</ele>
        <time>2017-02-17T12:12:02Z</time>
      </trkpt>
      <trkpt lat="45.59605" lon="4.78909">
        <ele>156</ele>
        <time>2017-02-17T12:12:33Z</time>
      </trkpt>
      <trkpt lat="45.59561" lon="4.78856">
        <ele>157</ele>
        <time>2017-02-17T12:13:01Z</time>
      </trkpt>
      <trkpt lat="45.59518" lon="4.78803">
        <ele>158</ele>
        <time>2017-02-17T12:13:30Z</time>
      </trkpt>
      <trkpt lat="45.59474" lon="4.7875">
        <ele>158</ele>
        <time>2017-02-17T12:13:59Z</time>
      </trkpt>
      <trkpt lat="45.5943" lon="4.78696">
        <ele>158</ele>
        <time>2017-02-17T12:14:28Z</time>
      </trkpt>
      <trkpt lat="45.59386" lon="4.78643">
        <ele>155</ele>
        <time>2017-02-17T12:14:57Z</time>
      </trkpt>
      <trkpt lat="45.59354" lon="4.78568">
        <ele>156</ele>
        <time>2017-02-17T12:15:28Z</time>
      </trkpt>
      <trkpt lat="45.59322" lon="4.78492">
        <ele>156</ele>
        <time>2017-02-17T12:15:59Z</time>
      </trkpt>
      <trkpt lat="45.59289" lon="4.78417">
        <ele>155</ele>
        <time>2017-02-17T12:16:30Z</time>
      </trkpt>
      <trkpt lat="45.59257" lon="4.78341">
        <ele>155</ele>
        <time>2017-02-17T12:17:01Z</time>
      </trkpt>
      <trkpt lat="45.59225" lon="4.78266">
        <ele>155</ele>
        <time>2017-02-17T12:17:32Z</time>
      </trkpt>
      <trkpt lat="45.59193" lon="4.7819">
        <ele>155</ele>
        <time>2017-02-17T12:18:03Z</time>
      </trkpt>
      <trkpt lat="45.59161" lon="4.78116">
        <ele>157</ele>
        <time>2017-02-17T12:18:34Z</time>
      </trkpt>
      <trkpt lat="45.59127" lon="4.78055">
        <ele>159</ele>
        <time>2017-02-17T12:19:01Z</time>
      </trkpt>
      <trkpt lat="45.59094" lon="4.77994">
        <ele>158</ele>
        <time>2017-02-17T12:19:28Z</time>
      </trkpt>
      <trkpt lat="45.5906" lon="4.77933">
        <ele>156</ele>
        <time>2017-02-17T12:19:55Z</time>
      </trkpt>
      <trkpt lat="45.59027" lon="4.77872">
        <ele>156</ele>
        <time>2017-02-17T12:20:22Z</time>
      </trkpt>
      <trkpt lat="45.58993" lon="4.77811">
        <ele>155</ele>
        <time>2017-02-17T12:20:49Z</time>
      </trkpt>
      <trkpt lat="45.5896" lon="4.77751">
        <ele>155</ele>
        <time>2017-02-17T12:21:16Z</time>
      </trkpt>
      <trkpt lat="45.58911" lon="4.77737">
        <ele>154</ele>
        <time>2017-02-17T12:21:41Z</time>
      </trkpt>
      <trkpt lat="45.58862" lon="4.77723">
        <ele>154</ele>
        <time>2017-02-17T12:22:06Z</time>
      </trkpt>
      <trkpt lat="45.58813" lon="4.77709">
        <ele>154</ele>
        <time>2017-02-17T12:22:31Z</time>
      </trkpt>
      <trkpt lat="45.58764" lon="4.77695">
        <ele>154</ele>
        <time>2017-02-17T12:22:56Z</time>
      </trkpt>
      <trkpt lat="45.58702" lon="4.77705">
        <ele>154</ele>
        <time>2017-02-17T12:23:27Z</time>
      </trkpt>
      <trkpt lat="45.5864" lon="4.77714">
        <ele>154</ele>
        <time>2017-02-17T12:23:59Z</time>
      </trkpt>
      <trkpt lat="45.58578" lon="4.77724">
        <ele>154</ele>
        <time>2017-02-17T12:24:30Z</time>
      </trkpt>
      <trkpt lat="45.58515" lon="4.77734">
        <ele>154</ele>
        <time>2017-02-17T12:25:01Z</time>
      </trkpt>
      <trkpt lat="45.5846" lon="4.77777">
        <ele>154</ele>
        <time>2017-02-17T12:25:33Z</time>
      </trkpt>
      <trkpt lat="45.58404" lon="4.77819">
        <ele>154</ele>
        <time>2017-02-17T12:26:05Z</time>
      </trkpt>
      <trkpt lat="45.58348" lon="4.77862">
        <ele>153</ele>
        <time>2017-02-17T12:26:36Z</time>
      </trkpt>
      <trkpt lat="45.58293" lon="4.77905">
        <ele>154</ele>
        <time>2017-02-17T12:27:08Z</time>
      </trkpt>
      <trkpt lat="45.58237" lon="4.77948">
        <ele>154</ele>
        <time>2017-02-17T12:27:40Z</time>
      </trkpt>
      <trkpt lat="45.58182" lon="4.77991">
        <ele>153</ele>
        <time>2017-02-17T12:28:11Z</time>
      </trkpt>
      <trkpt lat="45.58146" lon="4.78057">
        <ele>153</ele>
        <time>2017-02-17T12:28:40Z</time>
      </trkpt>
      <trkpt lat="45.58111" lon="4.78123">
        <ele>153</ele>
        <time>2017-02-17T12:29:10Z</time>
      </trkpt>
      <trkpt lat="45.58075" lon="4.7819">
        <ele>153</ele>
        <time>2017-02-17T12:29:39Z</time>
      </trkpt>
      <trkpt lat="45.5804" lon="4.78256">
        <ele>153</ele>
        <time>2017-02-17T12:30:08Z</time>
      </trkpt>
      <trkpt lat="45.58005" lon="4.78322">
        <ele>151</ele>
        <time>2017-02-17T12:30:37Z</time>
      </trkpt>
      <trkpt lat="45.5798" lon="4.78401">
        <ele>152</ele>
        <time>2017-02-17T12:31:08Z</time>
      </trkpt>
      <trkpt lat="45.57956" lon="4.78481">
        <ele>152</ele>
        <time>2017-02-17T12:31:38Z</time>
      </trkpt>
      <trkpt lat="45.57931" lon="4.78561">
        <ele>152</ele>
        <time>2017-02-17T12:32:09Z</time>
      </trkpt>
      <trkpt lat="45.57907" lon="4.78641">
        <ele>153</ele>
        <time>2017-02-17T12:32:39Z</time>
      </trkpt>
      <trkpt lat="45.57883" lon="4.7872">
        <ele>152</ele>
        <time>2017-02-17T12:33:10Z</time>
      </trkpt>
      <trkpt lat="45.57858" lon="4.788">
        <ele>153</ele>
        <time>2017-02-17T12:33:40Z</time>
      </trkpt>
      <trkpt lat="45.57834" lon="4.7888">
        <ele>154</ele>
        <time>2017-02-17T12:34:11Z</time>
      </trkpt>
      <trkpt lat="45.5781" lon="4.7896">
        <ele>153</ele>
        <time>2017-02-17T12:34:41Z</time>
      </trkpt>
      <trkpt lat="45.57785" lon="4.7904">
        <ele>152</ele>
        <time>2017-02-17T12:35:12Z</time>
      </trkpt>
      <trkpt lat="45.57761" lon="4.79119">
        <ele>153</ele>
        <time>2017-02-17T12:35:42Z</time>
      </trkpt>
      <trkpt lat="45.57736" lon="4.79199">
        <ele>153</ele>
        <time>2017-02-17T12:36:13Z</time>
      </trkpt>
      <trkpt lat="45.57712" lon="4.79279">
        <ele>152</ele>
        <time>2017-02-17T12:36:43Z</time>
      </trkpt>
      <trkpt lat="45.57688" lon="4.79359">
        <ele>157</ele>
        <time>2017-02-17T12:37:14Z</time>
      </trkpt>
      <trkpt lat="45.57663" lon="4.79438">
        <ele>154</ele>
        <time>2017-02-17T12:37:44Z</time>
      </trkpt>
      <trkpt lat="45.57639" lon="4.79518">
        <ele>152</ele>
        <time>2017-02-17T12:38:15Z</time>
      </trkpt>
      <trkpt lat="45.57615" lon="4.79598">
        <ele>152</ele>
        <time>2017-02-17T12:38:45Z</time>
      </trkpt>
      <trkpt lat="45.5759" lon="4.79678">
        <ele>155</ele>
        <time>2017-02-17T12:39:16Z</time>
      </trkpt>
      <trkpt lat="45.57566" lon="4.79758">
        <ele>153</ele>
        <time>2017-02-17T12:39:46Z</time>
      </trkpt>
      <trkpt lat="45.57541" lon="4.79837">
        <ele>152</ele>
        <time>2017-02-17T12:40:17Z</time>
      </trkpt>
      <trkpt lat="45.57518" lon="4.79914">
        <ele>152</ele>
        <time>2017-02-17T12:40:47Z</time>
      </trkpt>
      <trkpt lat="45.57496" lon="4.79992">
        <ele>154</ele>
        <time>2017-02-17T12:41:16Z</time>
      </trkpt>
      <trkpt lat="45.57474" lon="4.8007">
        <ele>152</ele>
        <time>2017-02-17T12:41:46Z</time>
      </trkpt>
      <trkpt lat="45.57452" lon="4.80148">
        <ele>152</ele>
        <time>2017-02-17T12:42:15Z</time>
      </trkpt>
      <trkpt lat="45.57431" lon="4.80226">
        <ele>153</ele>
        <time>2017-02-17T12:42:45Z</time>
      </trkpt>
      <trkpt lat="45.57409" lon="4.80303">
        <ele>153</ele>
        <time>2017-02-17T12:43:14Z</time>
      </trkpt>
      <trkpt lat="45.57387" lon="4.80381">
        <ele>152</ele>
        <time>2017-02-17T12:43:44Z</time>
      </trkpt>
      <trkpt lat="45.57365" lon="4.80459">
        <ele>152</ele>
        <time>2017-02-17T12:44:13Z</time>
      </trkpt>
      <trkpt lat="45.57344" lon="4.80536">
        <ele>154</ele>
        <time>2017-02-17T12:44:42Z</time>
      </trkpt>
      <trkpt lat="45.57312" lon="4.80611">
        <ele>153</ele>
        <time>2017-02-17T12:45:13Z</time>
      </trkpt>
      <trkpt lat="45.5728" lon="4.80686">
        <ele>152</ele>
        <time>2017-02-17T12:45:44Z</time>
      </trkpt>
      <trkpt lat="45.57248" lon="4.80761">
        <ele>152</ele>
        <time>2017-02-17T12:46:14Z</time>
      </trkpt>
      <trkpt lat="45.57216" lon="4.80836">
        <ele>153</ele>
        <time>2017-02-17T12:46:45Z</time>
      </trkpt>
      <trkpt lat="45.57185" lon="4.80911">
        <ele>166</ele>
        <time>2017-02-17T12:47:16Z</time>
      </trkpt>
      <trkpt lat="45.57153" lon="4.80986">
        <ele>151</ele>
        <time>2017-02-17T12:47:47Z</time>
      </trkpt>
      <trkpt lat="45.57121" lon="4.8106">
        <ele>151</ele>
        <time>2017-02-17T12:48:17Z</time>
      </trkpt>
      <trkpt lat="45.57074" lon="4.81109">
        <ele>151</ele>
        <time>2017-02-17T12:48:47Z</time>
      </trkpt>
      <trkpt lat="45.57027" lon="4.81159">
        <ele>151</ele>
        <time>2017-02-17T12:49:16Z</time>
      </trkpt>
      <trkpt lat="45.5698" lon="4.81208">
        <ele>151</ele>
        <time>2017-02-17T12:49:45Z</time>
      </trkpt>
      <trkpt lat="45.56933" lon="4.81258">
        <ele>150</ele>
        <time>2017-02-17T12:50:14Z</time>
      </trkpt>
      <trkpt lat="45.56886" lon="4.81308">
        <ele>150</ele>
        <time>2017-02-17T12:50:44Z</time>
      </trkpt>
      <trkpt lat="45.56839" lon="4.81357">
        <ele>150</ele>
        <time>2017-02-17T12:51:13Z</time>
      </trkpt>
      <trkpt lat="45.56792" lon="4.81407">
        <ele>150</ele>
        <time>2017-02-17T12:51:42Z</time>
      </trkpt>
      <trkpt lat="45.56745" lon="4.81456">
        <ele>150</ele>
        <time>2017-02-17T12:52:12Z</time>
      </trkpt>
      <trkpt lat="45.56698" lon="4.81506">
        <ele>150</ele>
        <time>2017-02-17T12:52:41Z</time>
      </trkpt>
      <trkpt lat="45.56642" lon="4.81541">
        <ele>150</ele>
        <time>2017-02-17T12:53:11Z</time>
      </trkpt>
      <trkpt lat="45.56587" lon="4.81576">
        <ele>150</ele>
        <time>2017-02-17T12:53:42Z</time>
      </trkpt>
      <trkpt lat="45.56532" lon="4.81611">
        <ele>150</ele>
        <time>2017-02-17T12:54:12Z</time>
      </trkpt>
      <trkpt lat="45.56476" lon="4.81646">
        <ele>150</ele>
        <time>2017-02-17T12:54:42Z</time>
      </trkpt>
      <trkpt lat="45.56421" lon="4.81681">
        <ele>150</ele>
        <time>2017-02-17T12:55:13Z</time>
      </trkpt>
      <trkpt lat="45.56365" lon="4.81717">
        <ele>150</ele>
        <time>2017-02-17T12:55:43Z</time>
      </trkpt>
      <trkpt lat="45.5631" lon="4.81752">
        <ele>150</ele>
        <time>2017-02-17T12:56:13Z</time>
      </trkpt>
      <trkpt lat="45.56254" lon="4.81787">
        <ele>150</ele>
        <time>2017-02-17T12:56:44Z</time>
      </trkpt>
      <trkpt lat="45.56199" lon="4.81822">
        <ele>150</ele>
        <time>2017-02-17T12:57:14Z</time>
      </trkpt>
      <trkpt lat="45.56143" lon="4.81857">
        <ele>150</ele>
        <time>2017-02-17T12:57:44Z</time>
      </trkpt>
      <trkpt lat="45.56088" lon="4.81892">
        <ele>150</ele>
        <time>2017-02-17T12:58:15Z</time>
      </trkpt>
      <trkpt lat="45.56033" lon="4.81933">
        <ele>150</ele>
        <time>2017-02-17T12:58:46Z</time>
      </trkpt>
      <trkpt lat="45.55978" lon="4.81974">
        <ele>150</ele>
        <time>2017-02-17T12:59:17Z</time>
      </trkpt>
      <trkpt lat="45.55922" lon="4.82015">
        <ele>150</ele>
        <time>2017-02-17T12:59:48Z</time>
      </trkpt>
      <trkpt lat="45.55867" lon="4.82056">
        <ele>150</ele>
        <time>2017-02-17T13:00:19Z</time>
      </trkpt>
      <trkpt lat="45.55812" lon="4.82097">
        <ele>150</ele>
        <time>2017-02-17T13:00:50Z</time>
      </trkpt>
      <trkpt lat="45.55757" lon="4.82138">
        <ele>150</ele>
        <time>2017-02-17T13:01:21Z</time>
      </trkpt>
      <trkpt lat="45.55702" lon="4.82179">
        <ele>150</ele>
        <time>2017-02-17T13:01:53Z</time>
      </trkpt>
      <trkpt lat="45.55646" lon="4.8222">
        <ele>150</ele>
        <time>2017-02-17T13:02:24Z</time>
      </trkpt>
      <trkpt lat="45.55591" lon="4.82261">
        <ele>150</ele>
        <time>2017-02-17T13:02:55Z</time>
      </trkpt>
      <trkpt lat="45.55536" lon="4.82302">
        <ele>150</ele>
        <time>2017-02-17T13:03:26Z</time>
      </trkpt>
      <trkpt lat="45.55481" lon="4.82343">
        <ele>150</ele>
        <time>2017-02-17T13:03:57Z</time>
      </trkpt>
      <trkpt lat="45.55432" lon="4.82394">
        <ele>150</ele>
        <time>2017-02-17T13:04:27Z</time>
      </trkpt>
      <trkpt lat="45.55383" lon="4.82444">
        <ele>150</ele>
        <time>2017-02-17T13:04:58Z</time>
      </trkpt>
      <trkpt lat="45.55334" lon="4.82495">
        <ele>150</ele>
        <time>2017-02-17T13:05:28Z</time>
      </trkpt>
      <trkpt lat="45.55285" lon="4.82546">
        <ele>150</ele>
        <time>2017-02-17T13:05:58Z</time>
      </trkpt>
      <trkpt lat="45.55237" lon="4.82597">
        <ele>150</ele>
        <time>2017-02-17T13:06:28Z</time>
      </trkpt>
      <trkpt lat="45.55188" lon="4.82648">
        <ele>150</ele>
        <time>2017-02-17T13:06:59Z</time>
      </trkpt>
      <trkpt lat="45.55139" lon="4.82698">
        <ele>150</ele>
        <time>2017-02-17T13:07:29Z</time>
      </trkpt>
      <trkpt lat="45.5509" lon="4.82749">
        <ele>149</ele>
        <time>2017-02-17T13:07:59Z</time>
      </trkpt>
      <trkpt lat="45.55041" lon="4.828">
        <ele>149</ele>
        <time>2017-02-17T13:08:29Z</time>
      </trkpt>
      <trkpt lat="45.54992" lon="4.82851">
        <ele>149</ele>
        <time>2017-02-17T13:09:00Z</time>
      </trkpt>
      <trkpt lat="45.54944" lon="4.82902">
        <ele>146</ele>
        <time>2017-02-17T13:09:30Z</time>
      </trkpt>
      <trkpt lat="45.54895" lon="4.82952">
        <ele>149</ele>
        <time>2017-02-17T13:10:00Z</time>
      </trkpt>
      <trkpt lat="45.54855" lon="4.83014">
        <ele>152</ele>
        <time>2017-02-17T13:10:30Z</time>
      </trkpt>
      <trkpt lat="45.54814" lon="4.83076">
        <ele>148</ele>
        <time>2017-02-17T13:10:59Z</time>
      </trkpt>
      <trkpt lat="45.54774" lon="4.83138">
        <ele>148</ele>
        <time>2017-02-17T13:11:29Z</time>
      </trkpt>
      <trkpt lat="45.54734" lon="4.83199">
        <ele>148</ele>
        <time>2017-02-17T13:11:58Z</time>
      </trkpt>
      <trkpt lat="45.54694" lon="4.83261">
        <ele>148</ele>
        <time>2017-02-17T13:12:28Z</time>
      </trkpt>
      <trkpt lat="45.54653" lon="4.83323">
        <ele>148</ele>
        <time>2017-02-17T13:12:58Z</time>
      </trkpt>
      <trkpt lat="45.54613" lon="4.83385">
        <ele>148</ele>
        <time>2017-02-17T13:13:27Z</time>
      </trkpt>
      <trkpt lat="45.54573" lon="4.83447">
        <ele>148</ele>
        <time>2017-02-17T13:13:57Z</time>
      </trkpt>
      <trkpt lat="45.54532" lon="4.83508">
        <ele>148</ele>
        <time>2017-02-17T13:14:26Z</time>
      </trkpt>
      <trkpt lat="45.54492" lon="4.8357">
        <ele>148</ele>
        <time>2017-02-17T13:14:56Z</time>
      </trkpt>
      <trkpt lat="45.54452" lon="4.83632">
        <ele>148</ele>
        <time>2017-02-17T13:15:26Z</time>
      </trkpt>
      <trkpt lat="45.54412" lon="4.83694">
        <ele>148</ele>
        <time>2017-02-17T13:15:55Z</time>
      </trkpt>
      <trkpt lat="45.54372" lon="4.83755">
        <ele>148</ele>
        <time>2017-02-17T13:16:25Z</time>
      </trkpt>
      <trkpt lat="45.54354" lon="4.83837">
        <ele>148</ele>
        <time>2017-02-17T13:16:55Z</time>
      </trkpt>
      <trkpt lat="45.54336" lon="4.8392">
        <ele>148</ele>
        <time>2017-02-17T13:17:25Z</time>
      </trkpt>
      <trkpt lat="45.54319" lon="4.84002">
        <ele>148</ele>
        <time>2017-02-17T13:17:55Z</time>
      </trkpt>
      <trkpt lat="45.54301" lon="4.84084">
        <ele>148</ele>
        <time>2017-02-17T13:18:26Z</time>
      </trkpt>
      <trkpt lat="45.54283" lon="4.84167">
        <ele>148</ele>
        <time>2017-02-17T13:18:56Z</time>
      </trkpt>
      <trkpt lat="45.54266" lon="4.84249">
        <ele>148</ele>
        <time>2017-02-17T13:19:26Z</time>
      </trkpt>
      <trkpt lat="45.54248" lon="4.84332">
        <ele>153</ele>
        <time>2017-02-17T13:19:56Z</time>
      </trkpt>
      <trkpt lat="45.5423" lon="4.84414">
        <ele>150</ele>
        <time>2017-02-17T13:20:27Z</time>
      </trkpt>
      <trkpt lat="45.54212" lon="4.84497">
        <ele>158</ele>
        <time>2017-02-17T13:20:57Z</time>
      </trkpt>
      <trkpt lat="45.54195" lon="4.84579">
        <ele>164</ele>
        <time>2017-02-17T13:21:27Z</time>
      </trkpt>
      <trkpt lat="45.54177" lon="4.84662">
        <ele>154</ele>
        <time>2017-02-17T13:21:57Z</time>
      </trkpt>
      <trkpt lat="45.54159" lon="4.84744">
        <ele>151</ele>
        <time>2017-02-17T13:22:28Z</time>
      </trkpt>
      <trkpt lat="45.54141" lon="4.84826">
        <ele>149</ele>
        <time>2017-02-17T13:22:58Z</time>
      </trkpt>
      <trkpt lat="45.54124" lon="4.84909">
        <ele>148</ele>
        <time>2017-02-17T13:23:28Z</time>
      </trkpt>
      <trkpt lat="45.54106" lon="4.84991">
        <ele>148</ele>
        <time>2017-02-17T13:23:58Z</time>
      </trkpt>
      <trkpt lat="45.54088" lon="4.85074">
        <ele>148</ele>
        <time>2017-02-17T13:24:28Z</time>
      </trkpt>
      <trkpt lat="45.5407" lon="4.85156">
        <ele>148</ele>
        <time>2017-02-17T13:24:59Z</time>
      </trkpt>
      <trkpt lat="45.54053" lon="4.85235">
        <ele>148</ele>
        <time>2017-02-17T13:25:29Z</time>
      </trkpt>
      <trkpt lat="45.54031" lon="4.85316">
        <ele>148</ele>
        <time>2017-02-17T13:25:59Z</time>
      </trkpt>
      <trkpt lat="45.54009" lon="4.85396">
        <ele>148</ele>
        <time>2017-02-17T13:26:30Z</time>
      </trkpt>
      <trkpt lat="45.53987" lon="4.85477">
        <ele>149</ele>
        <time>2017-02-17T13:27:00Z</time>
      </trkpt>
      <trkpt lat="45.53965" lon="4.85558">
        <ele>148</ele>
        <time>2017-02-17T13:27:30Z</time>
      </trkpt>
      <trkpt lat="45.53943" lon="4.85638">
        <ele>148</ele>
        <time>2017-02-17T13:28:01Z</time>
      </trkpt>
      <trkpt lat="45.53921" lon="4.85719">
        <ele>149</ele>
        <time>2017-02-17T13:28:31Z</time>
      </trkpt>
      <trkpt lat="45.53899" lon="4.858">
        <ele>149</ele>
        <time>2017-02-17T13:29:01Z</time>
      </trkpt>
      <trkpt lat="45.53877" lon="4.8588">
        <ele>148</ele>
        <time>2017-02-17T13:29:32Z</time>
      </trkpt>
      <trkpt lat="45.53855" lon="4.85961">
        <ele>148</ele>
        <time>2017-02-17T13:30:02Z</time>
      </trkpt>
      <trkpt lat="45.53833" lon="4.86042">
        <ele>148</ele>
        <time>2017-02-17T13:30:32Z</time>
      </trkpt>
      <trkpt lat="45.53811" lon="4.86122">
        <ele>148</ele>
        <time>2017-02-17T13:31:03Z</time>
      </trkpt>
      <trkpt lat="45.53789" lon="4.86203">
        <ele>148</ele>
        <time>2017-02-17T13:31:33Z</time>
      </trkpt>
      <trkpt lat="45.53767" lon="4.86284">
        <ele>148</ele>
        <time>2017-02-17T13:32:03Z</time>
      </trkpt>
      <trkpt lat="45.53745" lon="4.86364">
        <ele>148</ele>
        <time>2017-02-17T13:32:34Z</time>
      </trkpt>
      <trkpt lat="45.53723" lon="4.86445">
        <ele>149</ele>
        <time>2017-02-17T13:33:04Z</time>
      </trkpt>
      <trkpt lat="45.53702" lon="4.86523">
        <ele>148</ele>
        <time>2017-02-17T13:33:34Z</time>
      </trkpt>
      <trkpt lat="45.53664" lon="4.86592">
        <ele>148</ele>
        <time>2017-02-17T13:34:05Z</time>
      </trkpt>
      <trkpt lat="45.53625" lon="4.86661">
        <ele>148</ele>
        <time>2017-02-17T13:34:36Z</time>
      </trkpt>
      <trkpt lat="45.53587" lon="4.8673">
        <ele>148</ele>
        <time>2017-02-17T13:35:07Z</time>
      </trkpt>
      <trkpt lat="45.53549" lon="4.868">
        <ele>148</ele>
        <time>2017-02-17T13:35:38Z</time>
      </trkpt>
      <trkpt lat="45.53511" lon="4.86869">
        <ele>148</ele>
        <time>2017-02-17T13:36:09Z</time>
      </trkpt>
      <trkpt lat="45.53473" lon="4.86938">
        <ele>148</ele>
        <time>2017-02-17T13:36:40Z</time>
      </trkpt>
      <trkpt lat="45.53435" lon="4.87007">
        <ele>148</ele>
        <time>2017-02-17T13:37:11Z</time>
      </trkpt>
      <trkpt lat="45.53397" lon="4.87077">
        <ele>148</ele>
        <time>2017-02-17T13:37:41Z</time>
      </trkpt>
      <trkpt lat="45.53359" lon="4.87145">
        <ele>148</ele>
        <time>2017-02-17T13:38:12Z</time>
      </trkpt>
      <trkpt lat="45.53303" lon="4.87175">
        <ele>148</ele>
        <time>2017-02-17T13:38:42Z</time>
      </trkpt>
      <trkpt lat="45.53246" lon="4.87205">
        <ele>148</ele>
        <time>2017-02-17T13:39:12Z</time>
      </trkpt>
      <trkpt lat="45.5319" lon="4.87235">
        <ele>148</ele>
        <time>2017-02-17T13:39:43Z</time>
      </trkpt>
      <trkpt lat="45.53133" lon="4.87265">
        <ele>148</ele>
        <time>2017-02-17T13:40:13Z</time>
      </trkpt>
      <trkpt lat="45.5308" lon="4.87256">
        <ele>150</ele>
        <time>2017-02-17T13:40:40Z</time>
      </trkpt>
      <trkpt lat="45.53027" lon="4.87246">
        <ele>151</ele>
        <time>2017-02-17T13:41:07Z</time>
      </trkpt>
      <trkpt lat="45.52973" lon="4.87237">
        <ele>152</ele>
        <time>2017-02-17T13:41:34Z</time>
      </trkpt>
      <trkpt lat="45.5292" lon="4.87227">
        <ele>152</ele>
        <time>2017-02-17T13:42:01Z</time>
      </trkpt>
      <trkpt lat="45.52866" lon="4.87218">
        <ele>151</ele>
        <time>2017-02-17T13:42:28Z</time>
      </trkpt>
      <trkpt lat="45.52811" lon="4.87186">
        <ele>150</ele>
        <time>2017-02-17T13:42:57Z</time>
      </trkpt>
      <trkpt lat="45.52757" lon="4.87154">
        <ele>149</ele>
        <time>2017-02-17T13:43:27Z</time>
      </trkpt>
      <trkpt lat="45.52702" lon="4.87121">
        <ele>148</ele>
        <time>2017-02-17T13:43:56Z</time>
      </trkpt>
      <trkpt lat="45.52647" lon="4.87089">
        <ele>151</ele>
        <time>2017-02-17T13:44:26Z</time>
      </trkpt>
      <trkpt lat="45.52593" lon="4.87057">
        <ele>150</ele>
        <time>2017-02-17T13:44:55Z</time>
      </trkpt>
      <trkpt lat="45.52538" lon="4.87025">
        <ele>148</ele>
        <time>2017-02-17T13:45:25Z</time>
      </trkpt>
      <trkpt lat="45.52486" lon="4.86974">
        <ele>148</ele>
        <time>2017-02-17T13:45:57Z</time>
      </trkpt>
      <trkpt lat="45.52434" lon="4.86922">
        <ele>148</ele>
        <time>2017-02-17T13:46:28Z</time>
      </trkpt>
      <trkpt lat="45.52383" lon="4.86871">
        <ele>148</ele>
        <time>2017-02-17T13:47:00Z</time>
      </trkpt>
      <trkpt lat="45.52331" lon="4.8682">
        <ele>153</ele>
        <time>2017-02-17T13:47:31Z</time>
      </trkpt>
      <trkpt lat="45.52279" lon="4.86769">
        <ele>154</ele>
        <time>2017-02-17T13:48:03Z</time>
      </trkpt>
      <trkpt lat="45.52227" lon="4.86718">
        <ele>151</ele>
        <time>2017-02-17T13:48:34Z</time>
      </trkpt>
      <trkpt lat="45.52175" lon="4.86667">
        <ele>149</ele>
        <time>2017-02-17T13:49:06Z</time>
      </trkpt>
      <trkpt lat="45.52123" lon="4.86615">
        <ele>148</ele>
        <time>2017-02-17T13:49:37Z</time>
      </trkpt>
      <trkpt lat="45.52071" lon="4.86564">
        <ele>148</ele>
        <time>2017-02-17T13:50:09Z</time>
      </trkpt>
      <trkpt lat="45.52019" lon="4.86513">
        <ele>148</ele>
        <time>2017-02-17T13:50:41Z</time>
      </trkpt>
      <trkpt lat="45.51967" lon="4.86462">
        <ele>148</ele>
        <time>2017-02-17T13:51:12Z</time>
      </trkpt>
      <trkpt lat="45.51916" lon="4.86411">
        <ele>148</ele>
        <time>2017-02-17T13:51:44Z</time>
      </trkpt>
      <trkpt lat="45.51868" lon="4.86354">
        <ele>148</ele>
        <time>2017-02-17T13:52:15Z</time>
      </trkpt>
      <trkpt lat="45.5182" lon="4.86297">
        <ele>149</ele>
        <time>2017-02-17T13:52:46Z</time>
      </trkpt>
      <trkpt lat="45.51773" lon="4.86239">
        <ele>148</ele>
        <time>2017-02-17T13:53:17Z</time>
      </trkpt>
      <trkpt lat="45.51725" lon="4.86182">
        <ele>148</ele>
        <time>2017-02-17T13:53:48Z</time>
      </trkpt>
      <trkpt lat="45.51677" lon="4.86125">
        <ele>148</ele>
        <time>2017-02-17T13:54:20Z</time>
      </trkpt>
      <trkpt lat="45.5163" lon="4.86068">
        <ele>148</ele>
        <time>2017-02-17T13:54:51Z</time>
      </trkpt>
      <trkpt lat="45.51582" lon="4.86011">
        <ele>148</ele>
        <time>2017-02-17T13:55:22Z</time>
      </trkpt>
      <trkpt lat="45.51534" lon="4.85953">
        <ele>148</ele>
        <time>2017-02-17T13:55:53Z</time>
      </trkpt>
      <trkpt lat="45.51487" lon="4.85896">
        <ele>148</ele>
        <time>2017-02-17T13:56:24Z</time>
      </trkpt>
      <trkpt lat="45.51439" lon="4.85839">
        <ele>148</ele>
        <time>2017-02-17T13:56:55Z</time>
      </trkpt>
      <trkpt lat="45.51391" lon="4.85782">
        <ele>148</ele>
        <time>2017-02-17T13:57:27Z</time>
      </trkpt>
      <trkpt lat="45.51344" lon="4.85725">
        <ele>148</ele>
        <time>2017-02-17T13:57:58Z</time>
      </trkpt>
      <trkpt lat="45.51296" lon="4.85668">
        <ele>148</ele>
        <time>2017-02-17T13:58:29Z</time>
      </trkpt>
      <trkpt lat="45.51248" lon="4.8561">
        <ele>147</ele>
        <time>2017-02-17T13:59:00Z</time>
      </trkpt>
      <trkpt lat="45.51201" lon="4.85553">
        <ele>147</ele>
        <time>2017-02-17T13:59:31Z</time>
      </trkpt>
      <trkpt lat="45.51153" lon="4.85496">
        <ele>147</ele>
        <time>2017-02-17T14:00:02Z</time>
      </trkpt>
      <trkpt lat="45.51105" lon="4.85439">
        <ele>147</ele>
        <time>2017-02-17T14:00:34Z</time>
      </trkpt>
      <trkpt lat="45.51058" lon="4.85382">
        <ele>147</ele>
        <time>2017-02-17T14:01:05Z</time>
      </trkpt>
      <trkpt lat="45.5101" lon="4.85324">
        <ele>147</ele>
        <time>2017-02-17T14:01:36Z</time>
      </trkpt>
      <trkpt lat="45.50962" lon="4.85267">
        <ele>147</ele>
        <time>2017-02-17T14:02:07Z</time>
      </trkpt>
      <trkpt lat="45.50915" lon="4.8521">
        <ele>146</ele>
        <time>2017-02-17T14:02:38Z</time>
      </trkpt>
      <trkpt lat="45.50867" lon="4.85153">
        <ele>146</ele>
        <time>2017-02-17T14:03:09Z</time>
      </trkpt>
      <trkpt lat="45.50819" lon="4.85096">
        <ele>146</ele>
        <time>2017-02-17T14:03:41Z</time>
      </trkpt>
      <trkpt lat="45.50772" lon="4.85038">
        <ele>146</ele>
        <time>2017-02-17T14:04:12Z</time>
      </trkpt>
      <trkpt lat="45.50724" lon="4.84981">
        <ele>146</ele>
        <time>2017-02-17T14:04:43Z</time>
      </trkpt>
      <trkpt lat="45.50676" lon="4.84924">
        <ele>146</ele>
        <time>2017-02-17T14:05:14Z</time>
      </trkpt>
      <trkpt lat="45.50629" lon="4.84867">
        <ele>146</ele>
        <time>2017-02-17T14:05:45Z</time>
      </trkpt>
      <trkpt lat="45.50581" lon="4.8481">
        <ele>145</ele>
        <time>2017-02-17T14:06:17Z</time>
      </trkpt>
      <trkpt lat="45.50533" lon="4.84752">
        <ele>145</ele>
        <time>2017-02-17T14:06:48Z</time>
      </trkpt>
      <trkpt lat="45.50486" lon="4.84695">
        <ele>145</ele>
        <time>2017-02-17T14:07:19Z</time>
      </trkpt>
      <trkpt lat="45.50438" lon="4.84638">
        <ele>145</ele>
        <time>2017-02-17T14:07:50Z</time>
      </trkpt>
      <trkpt lat="45.5039" lon="4.84581">
        <ele>145</ele>
        <time>2017-02-17T14:08:21Z</time>
      </trkpt>
      <trkpt lat="45.50343" lon="4.84524">
        <ele>145</ele>
        <time>2017-02-17T14:08:52Z</time>
      </trkpt>
      <trkpt lat="45.50295" lon="4.84467">
        <ele>145</ele>
        <time>2017-02-17T14:09:24Z</time>
      </trkpt>
      <trkpt lat="45.50247" lon="4.84409">
        <ele>145</ele>
        <time>2017-02-17T14:09:55Z</time>
      </trkpt>
      <trkpt lat="45.502" lon="4.84352">
        <ele>145</ele>
        <time>2017-02-17T14:10:26Z</time>
      </trkpt>
      <trkpt lat="45.50152" lon="4.84295">
        <ele>145</ele>
        <time>2017-02-17T14:10:57Z</time>
      </trkpt>
      <trkpt lat="45.50105" lon="4.8424">
        <ele>145</ele>
        <time>2017-02-17T14:11:28Z</time>
      </trkpt>
      <trkpt lat="45.50079" lon="4.84158">
        <ele>145</ele>
        <time>2017-02-17T14:12:00Z</time>
      </trkpt>
      <trkpt lat="45.50053" lon="4.84076">
        <ele>145</ele>
        <time>2017-02-17T14:12:31Z</time>
      </trkpt>
      <trkpt lat="45.50027" lon="4.83994">
        <ele>145</ele>
        <time>2017-02-17T14:13:03Z</time>
      </trkpt>
      <trkpt lat="45.5" lon="4.83913">
        <ele>145</ele>
        <time>2017-02-17T14:13:34Z</time>
      </trkpt>
      <trkpt lat="45.49974" lon="4.83831">
        <ele>145</ele>
        <time>2017-02-17T14:14:06Z</time>
      </trkpt>
      <trkpt lat="45.49948" lon="4.83749">
        <ele>145</ele>
        <time>2017-02-17T14:14:37Z</time>
      </trkpt>
      <trkpt lat="45.49922" lon="4.83669">
        <ele>145</ele>
        <time>2017-02-17T14:15:09Z</time>
      </trkpt>
      <trkpt lat="45.49888" lon="4.83598">
        <ele>145</ele>
        <time>2017-02-17T14:15:39Z</time>
      </trkpt>
      <trkpt lat="45.49855" lon="4.83528">
        <ele>145</ele>
        <time>2017-02-17T14:16:09Z</time>
      </trkpt>
      <trkpt lat="45.49822" lon="4.83458">
        <ele>145</ele>
        <time>2017-02-17T14:16:38Z</time>
      </trkpt>
      <trkpt lat="45.49788" lon="4.83388">
        <ele>145</ele>
        <time>2017-02-17T14:17:08Z</time>
      </trkpt>
      <trkpt lat="45.49755" lon="4.83317">
        <ele>145</ele>
        <time>2017-02-17T14:17:38Z</time>
      </trkpt>
      <trkpt lat="45.49722" lon="4.83247">
        <ele>145</ele>
        <time>2017-02-17T14:18:08Z</time>
      </trkpt>
      <trkpt lat="45.49688" lon="4.83177">
        <ele>145</ele>
        <time>2017-02-17T14:18:37Z</time>
      </trkpt>
      <trkpt lat="45.49655" lon="4.83106">
        <ele>145</ele>
        <time>2017-02-17T14:19:07Z</time>
      </trkpt>
      <trkpt lat="45.49622" lon="4.83036">
        <ele>145</ele>
        <time>2017-02-17T14:19:37Z</time>
      </trkpt>
      <trkpt lat="45.49588" lon="4.82966">
        <ele>145</ele>
        <time>2017-02-17T14:20:07Z</time>
      </trkpt>
      <trkpt lat="45.49555" lon="4.82895">
        <ele>145</ele>
        <time>2017-02-17T14:20:37Z</time>
      </trkpt>
      <trkpt lat="45.49522" lon="4.82825">
        <ele>145</ele>
        <time>2017-02-17T14:21:06Z</time>
      </trkpt>
      <trkpt lat="45.49488" lon="4.82755">
        <ele>145</ele>
        <time>2017-02-17T14:21:36Z</time>
      </trkpt>
      <trkpt lat="45.49456" lon="4.82686">
        <ele>145</ele>
        <time>2017-02-17T14:22:06Z</time>
      </trkpt>
      <trkpt lat="45.49414" lon="4.82623">
        <ele>145</ele>
        <time>2017-02-17T14:22:36Z</time>
      </trkpt>
      <trkpt lat="45.49373" lon="4.82561">
        <ele>144</ele>
        <time>2017-02-17T14:23:06Z</time>
      </trkpt>
      <trkpt lat="45.49332" lon="4.82498">
        <ele>144</ele>
        <time>2017-02-17T14:23:36Z</time>
      </trkpt>
      <trkpt lat="45.4929" lon="4.82436">
        <ele>144</ele>
        <time>2017-02-17T14:24:07Z</time>
      </trkpt>
      <trkpt lat="45.49249" lon="4.82373">
        <ele>144</ele>
        <time>2017-02-17T14:24:37Z</time>
      </trkpt>
      <trkpt lat="45.49208" lon="4.8231">
        <ele>144</ele>
        <time>2017-02-17T14:25:07Z</time>
      </trkpt>
      <trkpt lat="45.49166" lon="4.82248">
        <ele>144</ele>
        <time>2017-02-17T14:25:37Z</time>
      </trkpt>
      <trkpt lat="45.49125" lon="4.82185">
        <ele>144</ele>
        <time>2017-02-17T14:26:07Z</time>
      </trkpt>
      <trkpt lat="45.49084" lon="4.82123">
        <ele>143</ele>
        <time>2017-02-17T14:26:37Z</time>
      </trkpt>
      <trkpt lat="45.49043" lon="4.8206">
        <ele>143</ele>
        <time>2017-02-17T14:27:08Z</time>
      </trkpt>
      <trkpt lat="45.49001" lon="4.81997">
        <ele>143</ele>
        <time>2017-02-17T14:27:38Z</time>
      </trkpt>
      <trkpt lat="45.4896" lon="4.81935">
        <ele>143</ele>
        <time>2017-02-17T14:28:08Z</time>
      </trkpt>
      <trkpt lat="45.48919" lon="4.81872">
        <ele>143</ele>
        <time>2017-02-17T14:28:38Z</time>
      </trkpt>
      <trkpt lat="45.48878" lon="4.81811">
        <ele>143</ele>
        <time>2017-02-17T14:29:08Z</time>
      </trkpt>
      <trkpt lat="45.48826" lon="4.81761">
        <ele>143</ele>
        <time>2017-02-17T14:29:40Z</time>
      </trkpt>
      <trkpt lat="45.48773" lon="4.81712">
        <ele>142</ele>
        <time>2017-02-17T14:30:11Z</time>
      </trkpt>
      <trkpt lat="45.48721" lon="4.81662">
        <ele>146</ele>
        <time>2017-02-17T14:30:42Z</time>
      </trkpt>
      <trkpt lat="45.48669" lon="4.81613">
        <ele>146</ele>
        <time>2017-02-17T14:31:14Z</time>
      </trkpt>
      <trkpt lat="45.48617" lon="4.81564">
        <ele>149</ele>
        <time>2017-02-17T14:31:45Z</time>
      </trkpt>
      <trkpt lat="45.48564" lon="4.81514">
        <ele>147</ele>
        <time>2017-02-17T14:32:16Z</time>
      </trkpt>
      <trkpt lat="45.48512" lon="4.81465">
        <ele>146</ele>
        <time>2017-02-17T14:32:48Z</time>
      </trkpt>
      <trkpt lat="45.4846" lon="4.81416">
        <ele>145</ele>
        <time>2017-02-17T14:33:19Z</time>
      </trkpt>
      <trkpt lat="45.48425" lon="4.81349">
        <ele>146</ele>
        <time>2017-02-17T14:33:49Z</time>
      </trkpt>
      <trkpt lat="45.4839" lon="4.81282">
        <ele>143</ele>
        <time>2017-02-17T14:34:18Z</time>
      </trkpt>
      <trkpt lat="45.48355" lon="4.81215">
        <ele>144</ele>
        <time>2017-02-17T14:34:47Z</time>
      </trkpt>
      <trkpt lat="45.4832" lon="4.81148">
        <ele>143</ele>
        <time>2017-02-17T14:35:17Z</time>
      </trkpt>
      <trkpt lat="45.48285" lon="4.81081">
        <ele>142</ele>
        <time>2017-02-17T14:35:46Z</time>
      </trkpt>
      <trkpt lat="45.48256" lon="4.81001">
        <ele>142</ele>
        <time>2017-02-17T14:36:17Z</time>
      </trkpt>
      <trkpt lat="45.48227" lon="4.80921">
        <ele>143</ele>
        <time>2017-02-17T14:36:49Z</time>
      </trkpt>
      <trkpt lat="45.48198" lon="4.80842">
        <ele>142</ele>
        <time>2017-02-17T14:37:20Z</time>
      </trkpt>
      <trkpt lat="45.48169" lon="4.80762">
        <ele>142</ele>
        <time>2017-02-17T14:37:52Z</time>
      </trkpt>
      <trkpt lat="45.4814" lon="4.80682">
        <ele>142</ele>
        <time>2017-02-17T14:38:24Z</time>
      </trkpt>
      <trkpt lat="45.48111" lon="4.80602">
        <ele>142</ele>
        <time>2017-02-17T14:38:55Z</time>
      </trkpt>
      <trkpt lat="45.48082" lon="4.80522">
        <ele>144</ele>
        <time>2017-02-17T14:39:27Z</time>
      </trkpt>
      <trkpt lat="45.48053" lon="4.80443">
        <ele>142</ele>
        <time>2017-02-17T14:39:58Z</time>
      </trkpt>
      <trkpt lat="45.48024" lon="4.80363">
        <ele>142</ele>
        <time>2017-02-17T14:40:30Z</time>
      </trkpt>
      <trkpt lat="45.47995" lon="4.80283">
        <ele>142</ele>
        <time>2017-02-17T14:41:01Z</time>
      </trkpt>
      <trkpt lat="45.47966" lon="4.80203">
        <ele>142</ele>
        <time>2017-02-17T14:41:33Z</time>
      </trkpt>
      <trkpt lat="45.47937" lon="4.80123">
        <ele>145</ele>
        <time>2017-02-17T14:42:04Z</time>
      </trkpt>
      <trkpt lat="45.47908" lon="4.80043">
        <ele>142</ele>
        <time>2017-02-17T14:42:36Z</time>
      </trkpt>
      <trkpt lat="45.47879" lon="4.79964">
        <ele>146</ele>
        <time>2017-02-17T14:43:07Z</time>
      </trkpt>
      <trkpt lat="45.4785" lon="4.79884">
        <ele>146</ele>
        <time>2017-02-17T14:43:39Z</time>
      </trkpt>
      <trkpt lat="45.47821" lon="4.79804">
        <ele>144</ele>
        <time>2017-02-17T14:44:11Z</time>
      </trkpt>
      <trkpt lat="45.47792" lon="4.79724">
        <ele>142</ele>
        <time>2017-02-17T14:44:42Z</time>
      </trkpt>
      <trkpt lat="45.47763" lon="4.79644">
        <ele>143</ele>
        <time>2017-02-17T14:45:14Z</time>
      </trkpt>
      <trkpt lat="45.47734" lon="4.79565">
        <ele>143</ele>
        <time>2017-02-17T14:45:45Z</time>
      </trkpt>
      <trkpt lat="45.47705" lon="4.79485">
        <ele>145</ele>
        <time>2017-02-17T14:46:17Z</time>
      </trkpt>
      <trkpt lat="45.47676" lon="4.79405">
        <ele>145</ele>
        <time>2017-02-17T14:46:48Z</time>
      </trkpt>
      <trkpt lat="45.47648" lon="4.79325">
        <ele>143</ele>
        <time>2017-02-17T14:47:20Z</time>
      </trkpt>
      <trkpt lat="45.47619" lon="4.79245">
        <ele>142</ele>
        <time>2017-02-17T14:47:51Z</time>
      </trkpt>
      <trkpt lat="45.4759" lon="4.79166">
        <ele>143</ele>
        <time>2017-02-17T14:48:23Z</time>
      </trkpt>
      <trkpt lat="45.47561" lon="4.79086">
        <ele>143</ele>
        <time>2017-02-17T14:48:54Z</time>
      </trkpt>
      <trkpt lat="45.47532" lon="4.79006">
        <ele>143</ele>
        <time>2017-02-17T14:49:26Z</time>
      </trkpt>
      <trkpt lat="45.47503" lon="4.78926">
        <ele>143</ele>
        <time>2017-02-17T14:49:57Z</time>
      </trkpt>
      <trkpt lat="45.47474" lon="4.78846">
        <ele>143</ele>
        <time>2017-02-17T14:50:29Z</time>
      </trkpt>
      <trkpt lat="45.47445" lon="4.78767">
        <ele>142</ele>
        <time>2017-02-17T14:51:01Z</time>
      </trkpt>
      <trkpt lat="45.47416" lon="4.78687">
        <ele>142</ele>
        <time>2017-02-17T14:51:32Z</time>
      </trkpt>
      <trkpt lat="45.47387" lon="4.78607">
        <ele>142</ele>
        <time>2017-02-17T14:52:04Z</time>
      </trkpt>
      <trkpt lat="45.47358" lon="4.78527">
        <ele>142</ele>
        <time>2017-02-17T14:52:35Z</time>
      </trkpt>
      <trkpt lat="45.47329" lon="4.78447">
        <ele>147</ele>
        <time>2017-02-17T14:53:07Z</time>
      </trkpt>
      <trkpt lat="45.47301" lon="4.78373">
        <ele>142</ele>
        <time>2017-02-17T14:53:38Z</time>
      </trkpt>
      <trkpt lat="45.47263" lon="4.78301">
        <ele>147</ele>
        <time>2017-02-17T14:54:10Z</time>
      </trkpt>
      <trkpt lat="45.47225" lon="4.7823">
        <ele>150</ele>
        <time>2017-02-17T14:54:41Z</time>
      </trkpt>
      <trkpt lat="45.47187" lon="4.78158">
        <ele>149</ele>
        <time>2017-02-17T14:55:13Z</time>
      </trkpt>
      <trkpt lat="45.47138" lon="4.78123">
        <ele>143</ele>
        <time>2017-02-17T14:55:40Z</time>
      </trkpt>
      <trkpt lat="45.47089" lon="4.78088">
        <ele>142</ele>
        <time>2017-02-17T14:56:08Z</time>
      </trkpt>
      <trkpt lat="45.4704" lon="4.78052">
        <ele>142</ele>
        <time>2017-02-17T14:56:35Z</time>
      </trkpt>
      <trkpt lat="45.46991" lon="4.78017">
        <ele>142</ele>
        <time>2017-02-17T14:57:03Z</time>
      </trkpt>
      <trkpt lat="45.46939" lon="4.78013">
        <ele>142</ele>
        <time>2017-02-17T14:57:29Z</time>
      </trkpt>
      <trkpt lat="45.46887" lon="4.78008">
        <ele>142</ele>
        <time>2017-02-17T14:57:55Z</time>
      </trkpt>
      <trkpt lat="45.46835" lon="4.78004">
        <ele>142</ele>
        <time>2017-02-17T14:58:21Z</time>
      </trkpt>
      <trkpt lat="45.46773" lon="4.78014">
        <ele>142</ele>
        <time>2017-02-17T14:58:52Z</time>
      </trkpt>
      <trkpt lat="45.46712" lon="4.78023">
        <ele>142</ele>
        <time>2017-02-17T14:59:23Z</time>
      </trkpt>
      <trkpt lat="45.46651" lon="4.78033">
        <ele>142</ele>
        <time>2017-02-17T14:59:54Z</time>
      </trkpt>
      <trkpt lat="45.4659" lon="4.78043">
        <ele>142</ele>
        <time>2017-02-17T15:00:25Z</time>
      </trkpt>
      <trkpt lat="45.46528" lon="4.78052">
        <ele>142</ele>
        <time>2017-02-17T15:00:55Z</time>
      </trkpt>
      <trkpt lat="45.46467" lon="4.78062">
        <ele>142</ele>
        <time>2017-02-17T15:01:26Z</time>
      </trkpt>
      <trkpt lat="45.46406" lon="4.78072">
        <ele>142</ele>
        <time>2017-02-17T15:01:57Z</time>
      </trkpt>
      <trkpt lat="45.46344" lon="4.78081">
        <ele>142</ele>
        <time>2017-02-17T15:02:28Z</time>
      </trkpt>
      <trkpt lat="45.463" lon="4.78088">
        <ele>142</ele>
        <time>2017-02-17T15:02:50Z</time>
      </trkpt>
      <trkpt lat="45.46256" lon="4.78096">
        <ele>142</ele>
        <time>2017-02-17T15:03:13Z</time>
      </trkpt>
      <trkpt lat="45.46212" lon="4.78103">
        <ele>142</ele>
        <time>2017-02-17T15:03:35Z</time>
      </trkpt>
      <trkpt lat="45.46156" lon="4.78064">
        <ele>142</ele>
        <time>2017-02-17T15:04:06Z</time>
      </trkpt>
      <trkpt lat="45.461" lon="4.78025">
        <ele>142</ele>
        <time>2017-02-17T15:04:37Z</time>
      </trkpt>
      <trkpt lat="45.4606" lon="4.77976">
        <ele>142</ele>
        <time>2017-02-17T15:05:03Z</time>
      </trkpt>
      <trkpt lat="45.4602" lon="4.77926">
        <ele>142</ele>
        <time>2017-02-17T15:05:30Z</time>
      </trkpt>
      <trkpt lat="45.45979" lon="4.77876">
        <ele>142</ele>
        <time>2017-02-17T15:05:57Z</time>
      </trkpt>
      <trkpt lat="45.45939" lon="4.77826">
        <ele>143</ele>
        <time>2017-02-17T15:06:24Z</time>
      </trkpt>
      <trkpt lat="45.45899" lon="4.77777">
        <ele>143</ele>
        <time>2017-02-17T15:06:50Z</time>
      </trkpt>
      <trkpt lat="45.45863" lon="4.77709">
        <ele>143</ele>
        <time>2017-02-17T15:07:20Z</time>
      </trkpt>
      <trkpt lat="45.45828" lon="4.77641">
        <ele>149</ele>
        <time>2017-02-17T15:07:50Z</time>
      </trkpt>
      <trkpt lat="45.45792" lon="4.77573">
        <ele>148</ele>
        <time>2017-02-17T15:08:20Z</time>
      </trkpt>
      <trkpt lat="45.45756" lon="4.77505">
        <ele>144</ele>
        <time>2017-02-17T15:08:49Z</time>
      </trkpt>
      <trkpt lat="45.45721" lon="4.77437">
        <ele>142</ele>
        <time>2017-02-17T15:09:19Z</time>
      </trkpt>
      <trkpt lat="45.45714" lon="4.77359">
        <ele>142</ele>
        <time>2017-02-17T15:09:47Z</time>
      </trkpt>
      <trkpt lat="45.45706" lon="4.7728">
        <ele>142</ele>
        <time>2017-02-17T15:10:15Z</time>
      </trkpt>
      <trkpt lat="45.45698" lon="4.77202">
        <ele>142</ele>
        <time>2017-02-17T15:10:43Z</time>
      </trkpt>
      <trkpt lat="45.45691" lon="4.77124">
        <ele>142</ele>
        <time>2017-02-17T15:11:10Z</time>
      </trkpt>
      <trkpt lat="45.45698" lon="4.77042">
        <ele>142</ele>
        <time>2017-02-17T15:11:40Z</time>
      </trkpt>
      <trkpt lat="45.45704" lon="4.76959">
        <ele>142</ele>
        <time>2017-02-17T15:12:09Z</time>
      </trkpt>
      <trkpt lat="45.45711" lon="4.76876">
        <ele>142</ele>
        <time>2017-02-17T15:12:38Z</time>
      </trkpt>
      <trkpt lat="45.45718" lon="4.76794">
        <ele>142</ele>
        <time>2017-02-17T15:13:07Z</time>
      </trkpt>
      <trkpt lat="45.45724" lon="4.76712">
        <ele>143</ele>
        <time>2017-02-17T15:13:36Z</time>
      </trkpt>
      <trkpt lat="45.45721" lon="4.76631">
        <ele>142</ele>
        <time>2017-02-17T15:14:05Z</time>
      </trkpt>
      <trkpt lat="45.45718" lon="4.7655">
        <ele>142</ele>
        <time>2017-02-17T15:14:33Z</time>
      </trkpt>
      <trkpt lat="45.45715" lon="4.7647">
        <ele>142</ele>
        <time>2017-02-17T15:15:02Z</time>
      </trkpt>
      <trkpt lat="45.45712" lon="4.76389">
        <ele>142</ele>
        <time>2017-02-17T15:15:30Z</time>
      </trkpt>
      <trkpt lat="45.45709" lon="4.76309">
        <ele>142</ele>
        <time>2017-02-17T15:15:58Z</time>
      </trkpt>
      <trkpt lat="45.45682" lon="4.76226">
        <ele>142</ele>
        <time>2017-02-17T15:16:30Z</time>
      </trkpt>
      <trkpt lat="45.45656" lon="4.76144">
        <ele>142</ele>
        <time>2017-02-17T15:17:02Z</time>
      </trkpt>
      <trkpt lat="45.45629" lon="4.76062">
        <ele>142</ele>
        <time>2017-02-17T15:17:34Z</time>
      </trkpt>
      <trkpt lat="45.45602" lon="4.75979">
        <ele>142</ele>
        <time>2017-02-17T15:18:06Z</time>
      </trkpt>
      <trkpt lat="45.45576" lon="4.75897">
        <ele>142</ele>
        <time>2017-02-17T15:18:38Z</time>
      </trkpt>
      <trkpt lat="45.45549" lon="4.75815">
        <ele>142</ele>
        <time>2017-02-17T15:19:10Z</time>
      </trkpt>
      <trkpt lat="45.45505" lon="4.7577">
        <ele>142</ele>
        <time>2017-02-17T15:19:37Z</time>
      </trkpt>
      <trkpt lat="45.45461" lon="4.75725">
        <ele>142</ele>
        <time>2017-02-17T15:20:04Z</time>
      </trkpt>
      <trkpt lat="45.45416" lon="4.7568">
        <ele>142</ele>
        <time>2017-02-17T15:20:32Z</time>
      </trkpt>
      <trkpt lat="45.45372" lon="4.75635">
        <ele>142</ele>
        <time>2017-02-17T15:20:59Z</time>
      </trkpt>
      <trkpt lat="45.45309" lon="4.7562">
        <ele>142</ele>
        <time>2017-02-17T15:21:31Z</time>
      </trkpt>
      <trkpt lat="45.45247" lon="4.75606">
        <ele>142</ele>
        <time>2017-02-17T15:22:02Z</time>
      </trkpt>
      <trkpt lat="45.45184" lon="4.75591">
        <ele>142</ele>
        <time>2017-02-17T15:22:34Z</time>
      </trkpt>
      <trkpt lat="45.45122" lon="4.75577">
        <ele>141</ele>
        <time>2017-02-17T15:23:06Z</time>
      </trkpt>
      <trkpt lat="45.45059" lon="4.75562">
        <ele>141</ele>
        <time>2017-02-17T15:23:37Z</time>
      </trkpt>
      <trkpt lat="45.44999" lon="4.75572">
        <ele>141</ele>
        <time>2017-02-17T15:24:08Z</time>
      </trkpt>
      <trkpt lat="45.44938" lon="4.75582">
        <ele>141</ele>
        <time>2017-02-17T15:24:38Z</time>
      </trkpt>
      <trkpt lat="45.44878" lon="4.75593">
        <ele>141</ele>
        <time>2017-02-17T15:25:08Z</time>
      </trkpt>
      <trkpt lat="45.44818" lon="4.75603">
        <ele>141</ele>
        <time>2017-02-17T15:25:39Z</time>
      </trkpt>
      <trkpt lat="45.44758" lon="4.75613">
        <ele>141</ele>
        <time>2017-02-17T15:26:09Z</time>
      </trkpt>
      <trkpt lat="45.44698" lon="4.75623">
        <ele>141</ele>
        <time>2017-02-17T15:26:39Z</time>
      </trkpt>
      <trkpt lat="45.44638" lon="4.75633">
        <ele>141</ele>
        <time>2017-02-17T15:27:10Z</time>
      </trkpt>
      <trkpt lat="45.44577" lon="4.75644">
        <ele>140</ele>
        <time>2017-02-17T15:27:40Z</time>
      </trkpt>
      <trkpt lat="45.4452" lon="4.75673">
        <ele>140</ele>
        <time>2017-02-17T15:28:10Z</time>
      </trkpt>
      <trkpt lat="45.44463" lon="4.75703">
        <ele>140</ele>
        <time>2017-02-17T15:28:41Z</time>
      </trkpt>
      <trkpt lat="45.44407" lon="4.75732">
        <ele>140</ele>
        <time>2017-02-17T15:29:11Z</time>
      </trkpt>
      <trkpt lat="45.4435" lon="4.75762">
        <ele>140</ele>
        <time>2017-02-17T15:29:41Z</time>
      </trkpt>
      <trkpt lat="45.44293" lon="4.75791">
        <ele>140</ele>
        <time>2017-02-17T15:30:11Z</time>
      </trkpt>
      <trkpt lat="45.44236" lon="4.75821">
        <ele>140</ele>
        <time>2017-02-17T15:30:42Z</time>
      </trkpt>
      <trkpt lat="45.44179" lon="4.7585">
        <ele>140</ele>
        <time>2017-02-17T15:31:12Z</time>
      </trkpt>
      <trkpt lat="45.44122" lon="4.7588">
        <ele>140</ele>
        <time>2017-02-17T15:31:42Z</time>
      </trkpt>
      <trkpt lat="45.44062" lon="4.75904">
        <ele>140</ele>
        <time>2017-02-17T15:32:14Z</time>
      </trkpt>
      <trkpt lat="45.44001" lon="4.75928">
        <ele>139</ele>
        <time>2017-02-17T15:32:45Z</time>
      </trkpt>
      <trkpt lat="45.4394" lon="4.75953">
        <ele>139</ele>
        <time>2017-02-17T15:33:17Z</time>
      </trkpt>
      <trkpt lat="45.4388" lon="4.75977">
        <ele>139</ele>
        <time>2017-02-17T15:33:48Z</time>
      </trkpt>
      <trkpt lat="45.43819" lon="4.76001">
        <ele>139</ele>
        <time>2017-02-17T15:34:20Z</time>
      </trkpt>
      <trkpt lat="45.43758" lon="4.76026">
        <ele>139</ele>
        <time>2017-02-17T15:34:52Z</time>
      </trkpt>
      <trkpt lat="45.43698" lon="4.76016">
        <ele>139</ele>
        <time>2017-02-17T15:35:22Z</time>
      </trkpt>
      <trkpt lat="45.43638" lon="4.76006">
        <ele>139</ele>
        <time>2017-02-17T15:35:52Z</time>
      </trkpt>
      <trkpt lat="45.43577" lon="4.75997">
        <ele>139</ele>
        <time>2017-02-17T15:36:22Z</time>
      </trkpt>
      <trkpt lat="45.43517" lon="4.75987">
        <ele>139</ele>
        <time>2017-02-17T15:36:53Z</time>
      </trkpt>
      <trkpt lat="45.43457" lon="4.75977">
        <ele>139</ele>
        <time>2017-02-17T15:37:23Z</time>
      </trkpt>
      <trkpt lat="45.43397" lon="4.75968">
        <ele>139</ele>
        <time>2017-02-17T15:37:53Z</time>
      </trkpt>
      <trkpt lat="45.43337" lon="4.75958">
        <ele>139</ele>
        <time>2017-02-17T15:38:24Z</time>
      </trkpt>
      <trkpt lat="45.43276" lon="4.75948">
        <ele>139</ele>
        <time>2017-02-17T15:38:54Z</time>
      </trkpt>
      <trkpt lat="45.43237" lon="4.75886">
        <ele>139</ele>
        <time>2017-02-17T15:39:23Z</time>
      </trkpt>
      <trkpt lat="45.43198" lon="4.75823">
        <ele>139</ele>
        <time>2017-02-17T15:39:53Z</time>
      </trkpt>
      <trkpt lat="45.4316" lon="4.7576">
        <ele>139</ele>
        <time>2017-02-17T15:40:22Z</time>
      </trkpt>
      <trkpt lat="45.43121" lon="4.75697">
        <ele>139</ele>
        <time>2017-02-17T15:40:52Z</time>
      </trkpt>
      <trkpt lat="45.43082" lon="4.75635">
        <ele>139</ele>
        <time>2017-02-17T15:41:21Z</time>
      </trkpt>
      <trkpt lat="45.43043" lon="4.75572">
        <ele>139</ele>
        <time>2017-02-17T15:41:50Z</time>
      </trkpt>
      <trkpt lat="45.43004" lon="4.75509">
        <ele>139</ele>
        <time>2017-02-17T15:42:20Z</time>
      </trkpt>
      <trkpt lat="45.42965" lon="4.75447">
        <ele>139</ele>
        <time>2017-02-17T15:42:49Z</time>
      </trkpt>
      <trkpt lat="45.42926" lon="4.75384">
        <ele>139</ele>
        <time>2017-02-17T15:43:19Z</time>
      </trkpt>
      <trkpt lat="45.42888" lon="4.75322">
        <ele>139</ele>
        <time>2017-02-17T15:43:48Z</time>
      </trkpt>
      <trkpt lat="45.42837" lon="4.75269">
        <ele>139</ele>
        <time>2017-02-17T15:44:19Z</time>
      </trkpt>
      <trkpt lat="45.42787" lon="4.75217">
        <ele>139</ele>
        <time>2017-02-17T15:44:51Z</time>
      </trkpt>
      <trkpt lat="45.42736" lon="4.75165">
        <ele>139</ele>
        <time>2017-02-17T15:45:22Z</time>
      </trkpt>
      <trkpt lat="45.42686" lon="4.75113">
        <ele>139</ele>
        <time>2017-02-17T15:45:53Z</time>
      </trkpt>
      <trkpt lat="45.42635" lon="4.7506">
        <ele>139</ele>
        <time>2017-02-17T15:46:24Z</time>
      </trkpt>
      <trkpt lat="45.42585" lon="4.75008">
        <ele>139</ele>
        <time>2017-02-17T15:46:56Z</time>
      </trkpt>
      <trkpt lat="45.42534" lon="4.74956">
        <ele>139</ele>
        <time>2017-02-17T15:47:27Z</time>
      </trkpt>
      <trkpt lat="45.42484" lon="4.74904">
        <ele>139</ele>
        <time>2017-02-17T15:47:58Z</time>
      </trkpt>
      <trkpt lat="45.42433" lon="4.74851">
        <ele>139</ele>
        <time>2017-02-17T15:48:29Z</time>
      </trkpt>
      <trkpt lat="45.42383" lon="4.74799">
        <ele>139</ele>
        <time>2017-02-17T15:49:01Z</time>
      </trkpt>
      <trkpt lat="45.42332" lon="4.74747">
        <ele>139</ele>
        <time>2017-02-17T15:49:32Z</time>
      </trkpt>
      <trkpt lat="45.42282" lon="4.74694">
        <ele>139</ele>
        <time>2017-02-17T15:50:03Z</time>
      </trkpt>
      <trkpt lat="45.42231" lon="4.74642">
        <ele>139</ele>
        <time>2017-02-17T15:50:34Z</time>
      </trkpt>
      <trkpt lat="45.42181" lon="4.7459">
        <ele>139</ele>
        <time>2017-02-17T15:51:06Z</time>
      </trkpt>
      <trkpt lat="45.4213" lon="4.74538">
        <ele>139</ele>
        <time>2017-02-17T15:51:37Z</time>
      </trkpt>
      <trkpt lat="45.42079" lon="4.74485">
        <ele>139</ele>
        <time>2017-02-17T15:52:08Z</time>
      </trkpt>
      <trkpt lat="45.42029" lon="4.74433">
        <ele>139</ele>
        <time>2017-02-17T15:52:39Z</time>
      </trkpt>
      <trkpt lat="45.41971" lon="4.74414">
        <ele>139</ele>
        <time>2017-02-17T15:53:09Z</time>
      </trkpt>
      <trkpt lat="45.41913" lon="4.74394">
        <ele>139</ele>
        <time>2017-02-17T15:53:39Z</time>
      </trkpt>
      <trkpt lat="45.41855" lon="4.74375">
        <ele>139</ele>
        <time>2017-02-17T15:54:09Z</time>
      </trkpt>
      <trkpt lat="45.41797" lon="4.74355">
        <ele>139</ele>
        <time>2017-02-17T15:54:39Z</time>
      </trkpt>
      <trkpt lat="45.41739" lon="4.74335">
        <ele>139</ele>
        <time>2017-02-17T15:55:09Z</time>
      </trkpt>
      <trkpt lat="45.41681" lon="4.74316">
        <ele>139</ele>
        <time>2017-02-17T15:55:38Z</time>
      </trkpt>
      <trkpt lat="45.41623" lon="4.74296">
        <ele>139</ele>
        <time>2017-02-17T15:56:08Z</time>
      </trkpt>
      <trkpt lat="45.41564" lon="4.74298">
        <ele>139</ele>
        <time>2017-02-17T15:56:38Z</time>
      </trkpt>
      <trkpt lat="45.41504" lon="4.74299">
        <ele>139</ele>
        <time>2017-02-17T15:57:07Z</time>
      </trkpt>
      <trkpt lat="45.41445" lon="4.74301">
        <ele>139</ele>
        <time>2017-02-17T15:57:37Z</time>
      </trkpt>
      <trkpt lat="45.41386" lon="4.74303">
        <ele>139</ele>
        <time>2017-02-17T15:58:07Z</time>
      </trkpt>
      <trkpt lat="45.41327" lon="4.74304">
        <ele>139</ele>
        <time>2017-02-17T15:58:36Z</time>
      </trkpt>
      <trkpt lat="45.41268" lon="4.74306">
        <ele>139</ele>
        <time>2017-02-17T15:59:06Z</time>
      </trkpt>
      <trkpt lat="45.41209" lon="4.74307">
        <ele>139</ele>
        <time>2017-02-17T15:59:35Z</time>
      </trkpt>
      <trkpt lat="45.4115" lon="4.74309">
        <ele>139</ele>
        <time>2017-02-17T16:00:05Z</time>
      </trkpt>
      <trkpt lat="45.41096" lon="4.74342">
        <ele>139</ele>
        <time>2017-02-17T16:00:34Z</time>
      </trkpt>
      <trkpt lat="45.41042" lon="4.74374">
        <ele>139</ele>
        <time>2017-02-17T16:01:03Z</time>
      </trkpt>
      <trkpt lat="45.40989" lon="4.74407">
        <ele>139</ele>
        <time>2017-02-17T16:01:32Z</time>
      </trkpt>
      <trkpt lat="45.40935" lon="4.74439">
        <ele>139</ele>
        <time>2017-02-17T16:02:02Z</time>
      </trkpt>
      <trkpt lat="45.40882" lon="4.74472">
        <ele>139</ele>
        <time>2017-02-17T16:02:31Z</time>
      </trkpt>
      <trkpt lat="45.40828" lon="4.74505">
        <ele>139</ele>
        <time>2017-02-17T16:03:00Z</time>
      </trkpt>
      <trkpt lat="45.40774" lon="4.74537">
        <ele>139</ele>
        <time>2017-02-17T16:03:29Z</time>
      </trkpt>
      <trkpt lat="45.40721" lon="4.7457">
        <ele>139</ele>
        <time>2017-02-17T16:03:58Z</time>
      </trkpt>
      <trkpt lat="45.40667" lon="4.74602">
        <ele>139</ele>
        <time>2017-02-17T16:04:28Z</time>
      </trkpt>
      <trkpt lat="45.40613" lon="4.74635">
        <ele>139</ele>
        <time>2017-02-17T16:04:57Z</time>
      </trkpt>
      <trkpt lat="45.40564" lon="4.74683">
        <ele>139</ele>
        <time>2017-02-17T16:05:27Z</time>
      </trkpt>
      <trkpt lat="45.40514" lon="4.74732">
        <ele>139</ele>
        <time>2017-02-17T16:05:57Z</time>
      </trkpt>
      <trkpt lat="45.40464" lon="4.7478">
        <ele>139</ele>
        <time>2017-02-17T16:06:27Z</time>
      </trkpt>
      <trkpt lat="45.40414" lon="4.74828">
        <ele>139</ele>
        <time>2017-02-17T16:06:57Z</time>
      </trkpt>
      <trkpt lat="45.40364" lon="4.74876">
        <ele>139</ele>
        <time>2017-02-17T16:07:27Z</time>
      </trkpt>
      <trkpt lat="45.40314" lon="4.74925">
        <ele>139</ele>
        <time>2017-02-17T16:07:58Z</time>
      </trkpt>
      <trkpt lat="45.40265" lon="4.74973">
        <ele>139</ele>
        <time>2017-02-17T16:08:28Z</time>
      </trkpt>
      <trkpt lat="45.40215" lon="4.75021">
        <ele>139</ele>
        <time>2017-02-17T16:08:58Z</time>
      </trkpt>
      <trkpt lat="45.40165" lon="4.75069">
        <ele>139</ele>
        <time>2017-02-17T16:09:28Z</time>
      </trkpt>
      <trkpt lat="45.40115" lon="4.75117">
        <ele>139</ele>
        <time>2017-02-17T16:09:58Z</time>
      </trkpt>
      <trkpt lat="45.40065" lon="4.75166">
        <ele>139</ele>
        <time>2017-02-17T16:10:28Z</time>
      </trkpt>
      <trkpt lat="45.40016" lon="4.75214">
        <ele>139</ele>
        <time>2017-02-17T16:10:59Z</time>
      </trkpt>
      <trkpt lat="45.39966" lon="4.75262">
        <ele>139</ele>
        <time>2017-02-17T16:11:29Z</time>
      </trkpt>
      <trkpt lat="45.39916" lon="4.7531">
        <ele>139</ele>
        <time>2017-02-17T16:11:59Z</time>
      </trkpt>
      <trkpt lat="45.39866" lon="4.75359">
        <ele>139</ele>
        <time>2017-02-17T16:12:29Z</time>
      </trkpt>
      <trkpt lat="45.39816" lon="4.75407">
        <ele>139</ele>
        <time>2017-02-17T16:12:59Z</time>
      </trkpt>
      <trkpt lat="45.39767" lon="4.75455">
        <ele>139</ele>
        <time>2017-02-17T16:13:29Z</time>
      </trkpt>
      <trkpt lat="45.3971" lon="4.75483">
        <ele>139</ele>
        <time>2017-02-17T16:13:59Z</time>
      </trkpt>
      <trkpt lat="45.39653" lon="4.75512">
        <ele>139</ele>
        <time>2017-02-17T16:14:30Z</time>
      </trkpt>
      <trkpt lat="45.39596" lon="4.7554">
        <ele>139</ele>
        <time>2017-02-17T16:15:00Z</time>
      </trkpt>
      <trkpt lat="45.39539" lon="4.75568">
        <ele>139</ele>
        <time>2017-02-17T16:15:30Z</time>
      </trkpt>
      <trkpt lat="45.39482" lon="4.75597">
        <ele>139</ele>
        <time>2017-02-17T16:16:00Z</time>
      </trkpt>
      <trkpt lat="45.39425" lon="4.75625">
        <ele>139</ele>
        <time>2017-02-17T16:16:31Z</time>
      </trkpt>
      <trkpt lat="45.39368" lon="4.75653">
        <ele>139</ele>
        <time>2017-02-17T16:17:01Z</time>
      </trkpt>
      <trkpt lat="45.39311" lon="4.75682">
        <ele>139</ele>
        <time>2017-02-17T16:17:31Z</time>
      </trkpt>
      <trkpt lat="45.39254" lon="4.7571">
        <ele>139</ele>
        <time>2017-02-17T16:18:01Z</time>
      </trkpt>
      <trkpt lat="45.39197" lon="4.75739">
        <ele>139</ele>
        <time>2017-02-17T16:18:31Z</time>
      </trkpt>
      <trkpt lat="45.3914" lon="4.75767">
        <ele>139</ele>
        <time>2017-02-17T16:19:02Z</time>
      </trkpt>
      <trkpt lat="45.39083" lon="4.75795">
        <ele>139</ele>
        <time>2017-02-17T16:19:32Z</time>
      </trkpt>
      <trkpt lat="45.39025" lon="4.75824">
        <ele>139</ele>
        <time>2017-02-17T16:20:02Z</time>
      </trkpt>
      <trkpt lat="45.38965" lon="4.75823">
        <ele>139</ele>
        <time>2017-02-17T16:20:32Z</time>
      </trkpt>
      <trkpt lat="45.38905" lon="4.75822">
        <ele>139</ele>
        <time>2017-02-17T16:21:02Z</time>
      </trkpt>
      <trkpt lat="45.38845" lon="4.75821">
        <ele>139</ele>
        <time>2017-02-17T16:21:33Z</time>
      </trkpt>
      <trkpt lat="45.38784" lon="4.7582">
        <ele>139</ele>
        <time>2017-02-17T16:22:03Z</time>
      </trkpt>
      <trkpt lat="45.38724" lon="4.75819">
        <ele>139</ele>
        <time>2017-02-17T16:22:33Z</time>
      </trkpt>
      <trkpt lat="45.38664" lon="4.75818">
        <ele>139</ele>
        <time>2017-02-17T16:23:03Z</time>
      </trkpt>
      <trkpt lat="45.38604" lon="4.75817">
        <ele>139</ele>
        <time>2017-02-17T16:23:33Z</time>
      </trkpt>
      <trkpt lat="45.38543" lon="4.75816">
        <ele>139</ele>
        <time>2017-02-17T16:24:03Z</time>
      </trkpt>
      <trkpt lat="45.38483" lon="4.75815">
        <ele>139</ele>
        <time>2017-02-17T16:24:34Z</time>
      </trkpt>
      <trkpt lat="45.38423" lon="4.75814">
        <ele>139</ele>
        <time>2017-02-17T16:25:04Z</time>
      </trkpt>
      <trkpt lat="45.38363" lon="4.75813">
        <ele>139</ele>
        <time>2017-02-17T16:25:34Z</time>
      </trkpt>
      <trkpt lat="45.38302" lon="4.75812">
        <ele>139</ele>
        <time>2017-02-17T16:26:04Z</time>
      </trkpt>
      <trkpt lat="45.38242" lon="4.75811">
        <ele>139</ele>
        <time>2017-02-17T16:26:34Z</time>
      </trkpt>
      <trkpt lat="45.38181" lon="4.75788">
        <ele>139</ele>
        <time>2017-02-17T16:27:06Z</time>
      </trkpt>
      <trkpt lat="45.3812" lon="4.75766">
        <ele>139</ele>
        <time>2017-02-17T16:27:37Z</time>
      </trkpt>
      <trkpt lat="45.38059" lon="4.75743">
        <ele>139</ele>
        <time>2017-02-17T16:28:09Z</time>
      </trkpt>
      <trkpt lat="45.37998" lon="4.75721">
        <ele>139</ele>
        <time>2017-02-17T16:28:40Z</time>
      </trkpt>
      <trkpt lat="45.37937" lon="4.75698">
        <ele>139</ele>
        <time>2017-02-17T16:29:12Z</time>
      </trkpt>
      <trkpt lat="45.37876" lon="4.75676">
        <ele>139</ele>
        <time>2017-02-17T16:29:43Z</time>
      </trkpt>
      <trkpt lat="45.37815" lon="4.75653">
        <ele>140</ele>
        <time>2017-02-17T16:30:15Z</time>
      </trkpt>
      <trkpt lat="45.37753" lon="4.75631">
        <ele>139</ele>
        <time>2017-02-17T16:30:46Z</time>
      </trkpt>
      <trkpt lat="45.37698" lon="4.75609">
        <ele>139</ele>
        <time>2017-02-17T16:31:15Z</time>
      </trkpt>
      <trkpt lat="45.37642" lon="4.75587">
        <ele>139</ele>
        <time>2017-02-17T16:31:44Z</time>
      </trkpt>
      <trkpt lat="45.37587" lon="4.75565">
        <ele>138</ele>
        <time>2017-02-17T16:32:13Z</time>
      </trkpt>
      <trkpt lat="45.37531" lon="4.75543">
        <ele>138</ele>
        <time>2017-02-17T16:32:42Z</time>
      </trkpt>
      <trkpt lat="45.37475" lon="4.75521">
        <ele>139</ele>
        <time>2017-02-17T16:33:11Z</time>
      </trkpt>
      <trkpt lat="45.3742" lon="4.75499">
        <ele>139</ele>
        <time>2017-02-17T16:33:40Z</time>
      </trkpt>
      <trkpt lat="45.37364" lon="4.75477">
        <ele>139</ele>
        <time>2017-02-17T16:34:09Z</time>
      </trkpt>
      <trkpt lat="45.37309" lon="4.75455">
        <ele>139</ele>
        <time>2017-02-17T16:34:37Z</time>
      </trkpt>
      <trkpt lat="45.37253" lon="4.75433">
        <ele>139</ele>
        <time>2017-02-17T16:35:06Z</time>
      </trkpt>
      <trkpt lat="45.37196" lon="4.75431">
        <ele>139</ele>
        <time>2017-02-17T16:35:35Z</time>
      </trkpt>
      <trkpt lat="45.37139" lon="4.75428">
        <ele>139</ele>
        <time>2017-02-17T16:36:03Z</time>
      </trkpt>
      <trkpt lat="45.37082" lon="4.75426">
        <ele>139</ele>
        <time>2017-02-17T16:36:32Z</time>
      </trkpt>
      <trkpt lat="45.37026" lon="4.75424">
        <ele>139</ele>
        <time>2017-02-17T16:37:00Z</time>
      </trkpt>
      <trkpt lat="45.36969" lon="4.75421">
        <ele>139</ele>
        <time>2017-02-17T16:37:28Z</time>
      </trkpt>
      <trkpt lat="45.36912" lon="4.75419">
        <ele>139</ele>
        <time>2017-02-17T16:37:57Z</time>
      </trkpt>
      <trkpt lat="45.36855" lon="4.75416">
        <ele>138</ele>
        <time>2017-02-17T16:38:25Z</time>
      </trkpt>
      <trkpt lat="45.36806" lon="4.75442">
        <ele>139</ele>
        <time>2017-02-17T16:38:52Z</time>
      </trkpt>
      <trkpt lat="45.36756" lon="4.75468">
        <ele>139</ele>
        <time>2017-02-17T16:39:18Z</time>
      </trkpt>
      <trkpt lat="45.36707" lon="4.75493">
        <ele>139</ele>
        <time>2017-02-17T16:39:44Z</time>
      </trkpt>
      <trkpt lat="45.36657" lon="4.75519">
        <ele>139</ele>
        <time>2017-02-17T16:40:11Z</time>
      </trkpt>
      <trkpt lat="45.36609" lon="4.75566">
        <ele>139</ele>
        <time>2017-02-17T16:40:40Z</time>
      </trkpt>
      <trkpt lat="45.36562" lon="4.75612">
        <ele>138</ele>
        <time>2017-02-17T16:41:09Z</time>
      </trkpt>
      <trkpt lat="45.36514" lon="4.75658">
        <ele>138</ele>
        <time>2017-02-17T16:41:38Z</time>
      </trkpt>
      <trkpt lat="45.36466" lon="4.75705">
        <ele>138</ele>
        <time>2017-02-17T16:42:07Z</time>
      </trkpt>
      <trkpt lat="45.36418" lon="4.75751">
        <ele>138</ele>
        <time>2017-02-17T16:42:36Z</time>
      </trkpt>
      <trkpt lat="45.36383" lon="4.75808">
        <ele>138</ele>
        <time>2017-02-17T16:43:02Z</time>
      </trkpt>
      <trkpt lat="45.36349" lon="4.75866">
        <ele>138</ele>
        <time>2017-02-17T16:43:29Z</time>
      </trkpt>
      <trkpt lat="45.36314" lon="4.75924">
        <ele>138</ele>
        <time>2017-02-17T16:43:55Z</time>
      </trkpt>
      <trkpt lat="45.3628" lon="4.75981">
        <ele>138</ele>
        <time>2017-02-17T16:44:22Z</time>
      </trkpt>
      <trkpt lat="45.36246" lon="4.76038">
        <ele>138</ele>
        <time>2017-02-17T16:44:49Z</time>
      </trkpt>
      <trkpt lat="45.36216" lon="4.76099">
        <ele>138</ele>
        <time>2017-02-17T16:45:15Z</time>
      </trkpt>
      <trkpt lat="45.36187" lon="4.7616">
        <ele>137</ele>
        <time>2017-02-17T16:45:40Z</time>
      </trkpt>
      <trkpt lat="45.36157" lon="4.7622">
        <ele>138</ele>
        <time>2017-02-17T16:46:06Z</time>
      </trkpt>
      <trkpt lat="45.36127" lon="4.76281">
        <ele>137</ele>
        <time>2017-02-17T16:46:32Z</time>
      </trkpt>
      <trkpt lat="45.36098" lon="4.76341">
        <ele>137</ele>
        <time>2017-02-17T16:46:58Z</time>
      </trkpt>
      <trkpt lat="45.36059" lon="4.76408">
        <ele>137</ele>
        <time>2017-02-17T16:47:29Z</time>
      </trkpt>
      <trkpt lat="45.3602" lon="4.76475">
        <ele>137</ele>
        <time>2017-02-17T16:48:00Z</time>
      </trkpt>
      <trkpt lat="45.3598" lon="4.76542">
        <ele>137</ele>
        <time>2017-02-17T16:48:30Z</time>
      </trkpt>
      <trkpt lat="45.35941" lon="4.76609">
        <ele>137</ele>
        <time>2017-02-17T16:49:01Z</time>
      </trkpt>
      <trkpt lat="45.35902" lon="4.76676">
        <ele>137</ele>
        <time>2017-02-17T16:49:32Z</time>
      </trkpt>
      <trkpt lat="45.35859" lon="4.76724">
        <ele>138</ele>
        <time>2017-02-17T16:49:59Z</time>
      </trkpt>
      <trkpt lat="45.35816" lon="4.76772">
        <ele>138</ele>
        <time>2017-02-17T16:50:27Z</time>
      </trkpt>
      <trkpt lat="45.35773" lon="4.76821">
        <ele>137</ele>
        <time>2017-02-17T16:50:54Z</time>
      </trkpt>
      <trkpt lat="45.3573" lon="4.76869">
        <ele>136</ele>
        <time>2017-02-17T16:51:21Z</time>
      </trkpt>
      <trkpt lat="45.3568" lon="4.76889">
        <ele>136</ele>
        <time>2017-02-17T16:51:47Z</time>
      </trkpt>
      <trkpt lat="45.35631" lon="4.76909">
        <ele>137</ele>
        <time>2017-02-17T16:52:13Z</time>
      </trkpt>
      <trkpt lat="45.35581" lon="4.76928">
        <ele>136</ele>
        <time>2017-02-17T16:52:39Z</time>
      </trkpt>
      <trkpt lat="45.35531" lon="4.76948">
        <ele>136</ele>
        <time>2017-02-17T16:53:05Z</time>
      </trkpt>
      <trkpt lat="45.35475" lon="4.76949">
        <ele>136</ele>
        <time>2017-02-17T16:53:33Z</time>
      </trkpt>
      <trkpt lat="45.35419" lon="4.7695">
        <ele>136</ele>
        <time>2017-02-17T16:54:01Z</time>
      </trkpt>
      <trkpt lat="45.35363" lon="4.76951">
        <ele>136</ele>
        <time>2017-02-17T16:54:29Z</time>
      </trkpt>
      <trkpt lat="45.35307" lon="4.76953">
        <ele>136</ele>
        <time>2017-02-17T16:54:57Z</time>
      </trkpt>
      <trkpt lat="45.35258" lon="4.76936">
        <ele>136</ele>
        <time>2017-02-17T16:55:22Z</time>
      </trkpt>
      <trkpt lat="45.35209" lon="4.7692">
        <ele>136</ele>
        <time>2017-02-17T16:55:48Z</time>
      </trkpt>
      <trkpt lat="45.3516" lon="4.76904">
        <ele>136</ele>
        <time>2017-02-17T16:56:13Z</time>
      </trkpt>
      <trkpt lat="45.3511" lon="4.76888">
        <ele>136</ele>
        <time>2017-02-17T16:56:38Z</time>
      </trkpt>
      <trkpt lat="45.35061" lon="4.76856">
        <ele>136</ele>
        <time>2017-02-17T16:57:05Z</time>
      </trkpt>
      <trkpt lat="45.35012" lon="4.76823">
        <ele>136</ele>
        <time>2017-02-17T16:57:32Z</time>
      </trkpt>
      <trkpt lat="45.34962" lon="4.7679">
        <ele>136</ele>
        <time>2017-02-17T16:58:00Z</time>
      </trkpt>
      <trkpt lat="45.34913" lon="4.76758">
        <ele>136</ele>
        <time>2017-02-17T16:58:27Z</time>
      </trkpt>
      <trkpt lat="45.34863" lon="4.76725">
        <ele>136</ele>
        <time>2017-02-17T16:58:54Z</time>
      </trkpt>
      <trkpt lat="45.3482" lon="4.76675">
        <ele>137</ele>
        <time>2017-02-17T16:59:22Z</time>
      </trkpt>
      <trkpt lat="45.34776" lon="4.76624">
        <ele>137</ele>
        <time>2017-02-17T16:59:50Z</time>
      </trkpt>
      <trkpt lat="45.34733" lon="4.76574">
        <ele>137</ele>
        <time>2017-02-17T17:00:19Z</time>
      </trkpt>
      <trkpt lat="45.34689" lon="4.76523">
        <ele>136</ele>
        <time>2017-02-17T17:00:47Z</time>
      </trkpt>
      <trkpt lat="45.34646" lon="4.76473">
        <ele>136</ele>
        <time>2017-02-17T17:01:15Z</time>
      </trkpt>
      <trkpt lat="45.34602" lon="4.76423">
        <ele>136</ele>
        <time>2017-02-17T17:01:43Z</time>
      </trkpt>
      <trkpt lat="45.34554" lon="4.76385">
        <ele>136</ele>
        <time>2017-02-17T17:02:10Z</time>
      </trkpt>
      <trkpt lat="45.34505" lon="4.76348">
        <ele>137</ele>
        <time>2017-02-17T17:02:38Z</time>
      </trkpt>
      <trkpt lat="45.34457" lon="4.76311">
        <ele>139</ele>
        <time>2017-02-17T17:03:06Z</time>
      </trkpt>
      <trkpt lat="45.34408" lon="4.76273">
        <ele>138</ele>
        <time>2017-02-17T17:03:33Z</time>
      </trkpt>
      <trkpt lat="45.34359" lon="4.76236">
        <ele>137</ele>
        <time>2017-02-17T17:04:01Z</time>
      </trkpt>
      <trkpt lat="45.34308" lon="4.76215">
        <ele>136</ele>
        <time>2017-02-17T17:04:28Z</time>
      </trkpt>
      <trkpt lat="45.34256" lon="4.76194">
        <ele>136</ele>
        <time>2017-02-17T17:04:55Z</time>
      </trkpt>
      <trkpt lat="45.34204" lon="4.76173">
        <ele>136</ele>
        <time>2017-02-17T17:05:22Z</time>
      </trkpt>
      <trkpt lat="45.34152" lon="4.76152">
        <ele>136</ele>
        <time>2017-02-17T17:05:49Z</time>
      </trkpt>
      <trkpt lat="45.341" lon="4.76131">
        <ele>136</ele>
        <time>2017-02-17T17:06:16Z</time>
      </trkpt>
      <trkpt lat="45.34042" lon="4.76123">
        <ele>136</ele>
        <time>2017-02-17T17:06:45Z</time>
      </trkpt>
      <trkpt lat="45.33985" lon="4.76115">
        <ele>136</ele>
        <time>2017-02-17T17:07:14Z</time>
      </trkpt>
      <trkpt lat="45.33927" lon="4.76107">
        <ele>136</ele>
        <time>2017-02-17T17:07:43Z</time>
      </trkpt>
      <trkpt lat="45.33869" lon="4.76099">
        <ele>136</ele>
        <time>2017-02-17T17:08:12Z</time>
      </trkpt>
      <trkpt lat="45.33812" lon="4.76097">
        <ele>135</ele>
        <time>2017-02-17T17:08:40Z</time>
      </trkpt>
      <trkpt lat="45.33755" lon="4.76095">
        <ele>136</ele>
        <time>2017-02-17T17:09:09Z</time>
      </trkpt>
      <trkpt lat="45.33699" lon="4.76093">
        <ele>136</ele>
        <time>2017-02-17T17:09:37Z</time>
      </trkpt>
      <trkpt lat="45.33642" lon="4.76091">
        <ele>136</ele>
        <time>2017-02-17T17:10:06Z</time>
      </trkpt>
      <trkpt lat="45.33585" lon="4.76089">
        <ele>137</ele>
        <time>2017-02-17T17:10:34Z</time>
      </trkpt>
      <trkpt lat="45.33528" lon="4.76087">
        <ele>136</ele>
        <time>2017-02-17T17:11:03Z</time>
      </trkpt>
      <trkpt lat="45.33471" lon="4.76085">
        <ele>136</ele>
        <time>2017-02-17T17:11:31Z</time>
      </trkpt>
      <trkpt lat="45.33414" lon="4.76084">
        <ele>136</ele>
        <time>2017-02-17T17:12:00Z</time>
      </trkpt>
      <trkpt lat="45.33358" lon="4.76084">
        <ele>136</ele>
        <time>2017-02-17T17:12:28Z</time>
      </trkpt>
      <trkpt lat="45.33302" lon="4.76084">
        <ele>136</ele>
        <time>2017-02-17T17:12:56Z</time>
      </trkpt>
      <trkpt lat="45.33246" lon="4.76084">
        <ele>137</ele>
        <time>2017-02-17T17:13:24Z</time>
      </trkpt>
      <trkpt lat="45.3319" lon="4.76084">
        <ele>138</ele>
        <time>2017-02-17T17:13:52Z</time>
      </trkpt>
      <trkpt lat="45.33134" lon="4.76084">
        <ele>138</ele>
        <time>2017-02-17T17:14:20Z</time>
      </trkpt>
      <trkpt lat="45.33078" lon="4.76084">
        <ele>137</ele>
        <time>2017-02-17T17:14:48Z</time>
      </trkpt>
      <trkpt lat="45.33022" lon="4.76084">
        <ele>135</ele>
        <time>2017-02-17T17:15:16Z</time>
      </trkpt>
      <trkpt lat="45.32966" lon="4.76084">
        <ele>134</ele>
        <time>2017-02-17T17:15:44Z</time>
      </trkpt>
      <trkpt lat="45.32903" lon="4.76088">
        <ele>135</ele>
        <time>2017-02-17T17:16:15Z</time>
      </trkpt>
      <trkpt lat="45.3284" lon="4.76092">
        <ele>137</ele>
        <time>2017-02-17T17:16:47Z</time>
      </trkpt>
      <trkpt lat="45.32777" lon="4.76096">
        <ele>137</ele>
        <time>2017-02-17T17:17:19Z</time>
      </trkpt>
      <trkpt lat="45.32714" lon="4.76101">
        <ele>137</ele>
        <time>2017-02-17T17:17:50Z</time>
      </trkpt>
      <trkpt lat="45.3265" lon="4.76105">
        <ele>136</ele>
        <time>2017-02-17T17:18:22Z</time>
      </trkpt>
      <trkpt lat="45.32587" lon="4.76109">
        <ele>136</ele>
        <time>2017-02-17T17:18:53Z</time>
      </trkpt>
      <trkpt lat="45.32529" lon="4.76137">
        <ele>136</ele>
        <time>2017-02-17T17:19:24Z</time>
      </trkpt>
      <trkpt lat="45.3247" lon="4.76164">
        <ele>136</ele>
        <time>2017-02-17T17:19:55Z</time>
      </trkpt>
      <trkpt lat="45.32412" lon="4.76192">
        <ele>136</ele>
        <time>2017-02-17T17:20:26Z</time>
      </trkpt>
      <trkpt lat="45.32353" lon="4.76219">
        <ele>137</ele>
        <time>2017-02-17T17:20:57Z</time>
      </trkpt>
      <trkpt lat="45.32294" lon="4.76247">
        <ele>136</ele>
        <time>2017-02-17T17:21:28Z</time>
      </trkpt>
      <trkpt lat="45.32247" lon="4.76295">
        <ele>136</ele>
        <time>2017-02-17T17:21:57Z</time>
      </trkpt>
      <trkpt lat="45.322" lon="4.76343">
        <ele>136</ele>
        <time>2017-02-17T17:22:26Z</time>
      </trkpt>
      <trkpt lat="45.32152" lon="4.76391">
        <ele>138</ele>
        <time>2017-02-17T17:22:55Z</time>
      </trkpt>
      <trkpt lat="45.32105" lon="4.76439">
        <ele>135</ele>
        <time>2017-02-17T17:23:24Z</time>
      </trkpt>
      <trkpt lat="45.32058" lon="4.76487">
        <ele>136</ele>
        <time>2017-02-17T17:23:53Z</time>
      </trkpt>
      <trkpt lat="45.32008" lon="4.76542">
        <ele>137</ele>
        <time>2017-02-17T17:24:25Z</time>
      </trkpt>
      <trkpt lat="45.31959" lon="4.76596">
        <ele>136</ele>
        <time>2017-02-17T17:24:56Z</time>
      </trkpt>
      <trkpt lat="45.31909" lon="4.76651">
        <ele>136</ele>
        <time>2017-02-17T17:25:27Z</time>
      </trkpt>
      <trkpt lat="45.3186" lon="4.76706">
        <ele>136</ele>
        <time>2017-02-17T17:25:59Z</time>
      </trkpt>
      <trkpt lat="45.31816" lon="4.76769">
        <ele>136</ele>
        <time>2017-02-17T17:26:30Z</time>
      </trkpt>
      <trkpt lat="45.31772" lon="4.76832">
        <ele>139</ele>
        <time>2017-02-17T17:27:01Z</time>
      </trkpt>
      <trkpt lat="45.31728" lon="4.76895">
        <ele>137</ele>
        <time>2017-02-17T17:27:32Z</time>
      </trkpt>
      <trkpt lat="45.31684" lon="4.76958">
        <ele>136</ele>
        <time>2017-02-17T17:28:04Z</time>
      </trkpt>
      <trkpt lat="45.3164" lon="4.77021">
        <ele>136</ele>
        <time>2017-02-17T17:28:35Z</time>
      </trkpt>
      <trkpt lat="45.31596" lon="4.77083">
        <ele>136</ele>
        <time>2017-02-17T17:29:06Z</time>
      </trkpt>
      <trkpt lat="45.3156" lon="4.77144">
        <ele>136</ele>
        <time>2017-02-17T17:29:34Z</time>
      </trkpt>
      <trkpt lat="45.31523" lon="4.77204">
        <ele>136</ele>
        <time>2017-02-17T17:30:02Z</time>
      </trkpt>
      <trkpt lat="45.31487" lon="4.77265">
        <ele>136</ele>
        <time>2017-02-17T17:30:30Z</time>
      </trkpt>
      <trkpt lat="45.31451" lon="4.77325">
        <ele>136</ele>
        <time>2017-02-17T17:30:58Z</time>
      </trkpt>
      <trkpt lat="45.31415" lon="4.77386">
        <ele>136</ele>
        <time>2017-02-17T17:31:26Z</time>
      </trkpt>
      <trkpt lat="45.31378" lon="4.77446">
        <ele>136</ele>
        <time>2017-02-17T17:31:54Z</time>
      </trkpt>
      <trkpt lat="45.31342" lon="4.77506">
        <ele>136</ele>
        <time>2017-02-17T17:32:22Z</time>
      </trkpt>
      <trkpt lat="45.3131" lon="4.77569">
        <ele>136</ele>
        <time>2017-02-17T17:32:49Z</time>
      </trkpt>
      <trkpt lat="45.31277" lon="4.77631">
        <ele>136</ele>
        <time>2017-02-17T17:33:17Z</time>
      </trkpt>
      <trkpt lat="45.31244" lon="4.77694">
        <ele>136</ele>
        <time>2017-02-17T17:33:44Z</time>
      </trkpt>
      <trkpt lat="45.31211" lon="4.77757">
        <ele>136</ele>
        <time>2017-02-17T17:34:12Z</time>
      </trkpt>
      <trkpt lat="45.31178" lon="4.77819">
        <ele>136</ele>
        <time>2017-02-17T17:34:39Z</time>
      </trkpt>
      <trkpt lat="45.31145" lon="4.77882">
        <ele>136</ele>
        <time>2017-02-17T17:35:07Z</time>
      </trkpt>
      <trkpt lat="45.31113" lon="4.77944">
        <ele>136</ele>
        <time>2017-02-17T17:35:34Z</time>
      </trkpt>
      <trkpt lat="45.31076" lon="4.7801">
        <ele>138</ele>
        <time>2017-02-17T17:36:04Z</time>
      </trkpt>
      <trkpt lat="45.31038" lon="4.78077">
        <ele>136</ele>
        <time>2017-02-17T17:36:34Z</time>
      </trkpt>
      <trkpt lat="45.31001" lon="4.78144">
        <ele>136</ele>
        <time>2017-02-17T17:37:04Z</time>
      </trkpt>
      <trkpt lat="45.30964" lon="4.7821">
        <ele>136</ele>
        <time>2017-02-17T17:37:34Z</time>
      </trkpt>
      <trkpt lat="45.30926" lon="4.78277">
        <ele>136</ele>
        <time>2017-02-17T17:38:04Z</time>
      </trkpt>
      <trkpt lat="45.30889" lon="4.78344">
        <ele>136</ele>
        <time>2017-02-17T17:38:34Z</time>
      </trkpt>
      <trkpt lat="45.30852" lon="4.7841">
        <ele>136</ele>
        <time>2017-02-17T17:39:04Z</time>
      </trkpt>
      <trkpt lat="45.30821" lon="4.7847">
        <ele>136</ele>
        <time>2017-02-17T17:39:31Z</time>
      </trkpt>
      <trkpt lat="45.30789" lon="4.78531">
        <ele>136</ele>
        <time>2017-02-17T17:39:57Z</time>
      </trkpt>
      <trkpt lat="45.30758" lon="4.78592">
        <ele>136</ele>
        <time>2017-02-17T17:40:24Z</time>
      </trkpt>
      <trkpt lat="45.30727" lon="4.78652">
        <ele>136</ele>
        <time>2017-02-17T17:40:50Z</time>
      </trkpt>
      <trkpt lat="45.307" lon="4.78716">
        <ele>136</ele>
        <time>2017-02-17T17:41:16Z</time>
      </trkpt>
      <trkpt lat="45.30673" lon="4.78779">
        <ele>136</ele>
        <time>2017-02-17T17:41:43Z</time>
      </trkpt>
      <trkpt lat="45.30646" lon="4.78843">
        <ele>136</ele>
        <time>2017-02-17T17:42:09Z</time>
      </trkpt>
      <trkpt lat="45.30619" lon="4.78906">
        <ele>135</ele>
        <time>2017-02-17T17:42:35Z</time>
      </trkpt>
      <trkpt lat="45.30592" lon="4.7897">
        <ele>136</ele>
        <time>2017-02-17T17:43:01Z</time>
      </trkpt>
      <trkpt lat="45.30554" lon="4.79031">
        <ele>136</ele>
        <time>2017-02-17T17:43:30Z</time>
      </trkpt>
      <trkpt lat="45.30515" lon="4.79093">
        <ele>135</ele>
        <time>2017-02-17T17:43:59Z</time>
      </trkpt>
      <trkpt lat="45.30477" lon="4.79154">
        <ele>136</ele>
        <time>2017-02-17T17:44:28Z</time>
      </trkpt>
      <trkpt lat="45.30438" lon="4.79216">
        <ele>135</ele>
        <time>2017-02-17T17:44:57Z</time>
      </trkpt>
      <trkpt lat="45.304" lon="4.79277">
        <ele>135</ele>
        <time>2017-02-17T17:45:26Z</time>
      </trkpt>
      <trkpt lat="45.30361" lon="4.79339">
        <ele>135</ele>
        <time>2017-02-17T17:45:55Z</time>
      </trkpt>
      <trkpt lat="45.30315" lon="4.79396">
        <ele>135</ele>
        <time>2017-02-17T17:46:26Z</time>
      </trkpt>
      <trkpt lat="45.30268" lon="4.79454">
        <ele>135</ele>
        <time>2017-02-17T17:46:57Z</time>
      </trkpt>
      <trkpt lat="45.30222" lon="4.79511">
        <ele>134</ele>
        <time>2017-02-17T17:47:28Z</time>
      </trkpt>
      <trkpt lat="45.30175" lon="4.79569">
        <ele>134</ele>
        <time>2017-02-17T17:47:59Z</time>
      </trkpt>
      <trkpt lat="45.30129" lon="4.79627">
        <ele>134</ele>
        <time>2017-02-17T17:48:30Z</time>
      </trkpt>
      <trkpt lat="45.30082" lon="4.79684">
        <ele>134</ele>
        <time>2017-02-17T17:49:00Z</time>
      </trkpt>
      <trkpt lat="45.30036" lon="4.79738">
        <ele>134</ele>
        <time>2017-02-17T17:49:31Z</time>
      </trkpt>
      <trkpt lat="45.29989" lon="4.79792">
        <ele>134</ele>
        <time>2017-02-17T17:50:01Z</time>
      </trkpt>
      <trkpt lat="45.29943" lon="4.79846">
        <ele>135</ele>
        <time>2017-02-17T17:50:31Z</time>
      </trkpt>
      <trkpt lat="45.29896" lon="4.799">
        <ele>133</ele>
        <time>2017-02-17T17:51:01Z</time>
      </trkpt>
      <trkpt lat="45.29849" lon="4.79954">
        <ele>133</ele>
        <time>2017-02-17T17:51:31Z</time>
      </trkpt>
      <trkpt lat="45.29803" lon="4.80008">
        <ele>133</ele>
        <time>2017-02-17T17:52:01Z</time>
      </trkpt>
      <trkpt lat="45.29755" lon="4.80066">
        <ele>133</ele>
        <time>2017-02-17T17:52:32Z</time>
      </trkpt>
      <trkpt lat="45.29707" lon="4.80124">
        <ele>133</ele>
        <time>2017-02-17T17:53:04Z</time>
      </trkpt>
      <trkpt lat="45.29659" lon="4.80181">
        <ele>133</ele>
        <time>2017-02-17T17:53:35Z</time>
      </trkpt>
      <trkpt lat="45.29611" lon="4.80239">
        <ele>133</ele>
        <time>2017-02-17T17:54:07Z</time>
      </trkpt>
      <trkpt lat="45.29563" lon="4.80297">
        <ele>133</ele>
        <time>2017-02-17T17:54:38Z</time>
      </trkpt>
      <trkpt lat="45.29515" lon="4.80354">
        <ele>133</ele>
        <time>2017-02-17T17:55:10Z</time>
      </trkpt>
      <trkpt lat="45.29467" lon="4.80412">
        <ele>133</ele>
        <time>2017-02-17T17:55:41Z</time>
      </trkpt>
      <trkpt lat="45.2942" lon="4.80469">
        <ele>133</ele>
        <time>2017-02-17T17:56:12Z</time>
      </trkpt>
      <trkpt lat="45.29371" lon="4.80527">
        <ele>133</ele>
        <time>2017-02-17T17:56:44Z</time>
      </trkpt>
      <trkpt lat="45.29323" lon="4.80584">
        <ele>133</ele>
        <time>2017-02-17T17:57:16Z</time>
      </trkpt>
      <trkpt lat="45.29275" lon="4.80642">
        <ele>133</ele>
        <time>2017-02-17T17:57:47Z</time>
      </trkpt>
      <trkpt lat="45.29226" lon="4.80699">
        <ele>133</ele>
        <time>2017-02-17T17:58:19Z</time>
      </trkpt>
      <trkpt lat="45.29178" lon="4.80756">
        <ele>133</ele>
        <time>2017-02-17T17:58:50Z</time>
      </trkpt>
      <trkpt lat="45.2913" lon="4.80814">
        <ele>133</ele>
        <time>2017-02-17T17:59:22Z</time>
      </trkpt>
      <trkpt lat="45.29081" lon="4.80871">
        <ele>133</ele>
        <time>2017-02-17T17:59:53Z</time>
      </trkpt>
      <trkpt lat="45.2903" lon="4.80893">
        <ele>133</ele>
        <time>2017-02-17T18:00:20Z</time>
      </trkpt>
      <trkpt lat="45.28978" lon="4.80915">
        <ele>133</ele>
        <time>2017-02-17T18:00:47Z</time>
      </trkpt>
      <trkpt lat="45.28926" lon="4.80938">
        <ele>134</ele>
        <time>2017-02-17T18:01:14Z</time>
      </trkpt>
      <trkpt lat="45.28874" lon="4.8096">
        <ele>133</ele>
        <time>2017-02-17T18:01:42Z</time>
      </trkpt>
      <trkpt lat="45.28822" lon="4.80982">
        <ele>133</ele>
        <time>2017-02-17T18:02:09Z</time>
      </trkpt>
      <trkpt lat="45.28765" lon="4.8098">
        <ele>134</ele>
        <time>2017-02-17T18:02:37Z</time>
      </trkpt>
      <trkpt lat="45.28707" lon="4.80978">
        <ele>135</ele>
        <time>2017-02-17T18:03:06Z</time>
      </trkpt>
      <trkpt lat="45.2865" lon="4.80976">
        <ele>133</ele>
        <time>2017-02-17T18:03:35Z</time>
      </trkpt>
      <trkpt lat="45.28593" lon="4.80974">
        <ele>133</ele>
        <time>2017-02-17T18:04:03Z</time>
      </trkpt>
      <trkpt lat="45.28536" lon="4.80972">
        <ele>133</ele>
        <time>2017-02-17T18:04:32Z</time>
      </trkpt>
      <trkpt lat="45.28479" lon="4.80969">
        <ele>133</ele>
        <time>2017-02-17T18:05:00Z</time>
      </trkpt>
      <trkpt lat="45.28422" lon="4.80967">
        <ele>133</ele>
        <time>2017-02-17T18:05:29Z</time>
      </trkpt>
      <trkpt lat="45.28365" lon="4.80965">
        <ele>133</ele>
        <time>2017-02-17T18:05:58Z</time>
      </trkpt>
      <trkpt lat="45.28307" lon="4.80963">
        <ele>133</ele>
        <time>2017-02-17T18:06:26Z</time>
      </trkpt>
      <trkpt lat="45.28247" lon="4.80967">
        <ele>133</ele>
        <time>2017-02-17T18:06:56Z</time>
      </trkpt>
      <trkpt lat="45.28187" lon="4.8097">
        <ele>133</ele>
        <time>2017-02-17T18:07:27Z</time>
      </trkpt>
      <trkpt lat="45.28127" lon="4.80974">
        <ele>133</ele>
        <time>2017-02-17T18:07:57Z</time>
      </trkpt>
      <trkpt lat="45.28067" lon="4.80978">
        <ele>133</ele>
        <time>2017-02-17T18:08:27Z</time>
      </trkpt>
      <trkpt lat="45.28006" lon="4.80981">
        <ele>136</ele>
        <time>2017-02-17T18:08:57Z</time>
      </trkpt>
      <trkpt lat="45.27946" lon="4.80985">
        <ele>136</ele>
        <time>2017-02-17T18:09:27Z</time>
      </trkpt>
      <trkpt lat="45.27886" lon="4.80988">
        <ele>135</ele>
        <time>2017-02-17T18:09:57Z</time>
      </trkpt>
      <trkpt lat="45.27826" lon="4.80992">
        <ele>134</ele>
        <time>2017-02-17T18:10:27Z</time>
      </trkpt>
      <trkpt lat="45.27766" lon="4.80996">
        <ele>134</ele>
        <time>2017-02-17T18:10:57Z</time>
      </trkpt>
      <trkpt lat="45.27706" lon="4.80999">
        <ele>135</ele>
        <time>2017-02-17T18:11:27Z</time>
      </trkpt>
      <trkpt lat="45.27646" lon="4.81003">
        <ele>135</ele>
        <time>2017-02-17T18:11:58Z</time>
      </trkpt>
      <trkpt lat="45.27586" lon="4.81007">
        <ele>133</ele>
        <time>2017-02-17T18:12:28Z</time>
      </trkpt>
      <trkpt lat="45.27525" lon="4.8101">
        <ele>132</ele>
        <time>2017-02-17T18:12:58Z</time>
      </trkpt>
      <trkpt lat="45.27464" lon="4.8101">
        <ele>132</ele>
        <time>2017-02-17T18:13:29Z</time>
      </trkpt>
      <trkpt lat="45.27402" lon="4.8101">
        <ele>132</ele>
        <time>2017-02-17T18:13:59Z</time>
      </trkpt>
      <trkpt lat="45.27341" lon="4.8101">
        <ele>132</ele>
        <time>2017-02-17T18:14:30Z</time>
      </trkpt>
      <trkpt lat="45.2728" lon="4.81009">
        <ele>132</ele>
        <time>2017-02-17T18:15:01Z</time>
      </trkpt>
      <trkpt lat="45.27218" lon="4.81009">
        <ele>132</ele>
        <time>2017-02-17T18:15:31Z</time>
      </trkpt>
      <trkpt lat="45.27157" lon="4.81009">
        <ele>132</ele>
        <time>2017-02-17T18:16:02Z</time>
      </trkpt>
      <trkpt lat="45.27096" lon="4.81009">
        <ele>132</ele>
        <time>2017-02-17T18:16:33Z</time>
      </trkpt>
      <trkpt lat="45.27034" lon="4.81009">
        <ele>132</ele>
        <time>2017-02-17T18:17:03Z</time>
      </trkpt>
      <trkpt lat="45.26973" lon="4.81008">
        <ele>132</ele>
        <time>2017-02-17T18:17:34Z</time>
      </trkpt>
      <trkpt lat="45.26912" lon="4.81008">
        <ele>131</ele>
        <time>2017-02-17T18:18:05Z</time>
      </trkpt>
      <trkpt lat="45.2685" lon="4.81008">
        <ele>132</ele>
        <time>2017-02-17T18:18:35Z</time>
      </trkpt>
      <trkpt lat="45.26787" lon="4.8102">
        <ele>131</ele>
        <time>2017-02-17T18:19:07Z</time>
      </trkpt>
      <trkpt lat="45.26724" lon="4.81032">
        <ele>131</ele>
        <time>2017-02-17T18:19:39Z</time>
      </trkpt>
      <trkpt lat="45.26661" lon="4.81044">
        <ele>131</ele>
        <time>2017-02-17T18:20:11Z</time>
      </trkpt>
      <trkpt lat="45.26598" lon="4.81057">
        <ele>131</ele>
        <time>2017-02-17T18:20:42Z</time>
      </trkpt>
      <trkpt lat="45.26535" lon="4.81069">
        <ele>131</ele>
        <time>2017-02-17T18:21:14Z</time>
      </trkpt>
      <trkpt lat="45.26472" lon="4.81081">
        <ele>134</ele>
        <time>2017-02-17T18:21:46Z</time>
      </trkpt>
      <trkpt lat="45.26411" lon="4.81066">
        <ele>131</ele>
        <time>2017-02-17T18:22:17Z</time>
      </trkpt>
      <trkpt lat="45.2635" lon="4.8105">
        <ele>131</ele>
        <time>2017-02-17T18:22:48Z</time>
      </trkpt>
      <trkpt lat="45.26289" lon="4.81035">
        <ele>131</ele>
        <time>2017-02-17T18:23:19Z</time>
      </trkpt>
      <trkpt lat="45.26228" lon="4.8102">
        <ele>131</ele>
        <time>2017-02-17T18:23:50Z</time>
      </trkpt>
      <trkpt lat="45.26167" lon="4.81004">
        <ele>131</ele>
        <time>2017-02-17T18:24:21Z</time>
      </trkpt>
      <trkpt lat="45.26106" lon="4.80989">
        <ele>131</ele>
        <time>2017-02-17T18:24:52Z</time>
      </trkpt>
      <trkpt lat="45.26045" lon="4.80974">
        <ele>131</ele>
        <time>2017-02-17T18:25:23Z</time>
      </trkpt>
      <trkpt lat="45.25988" lon="4.80944">
        <ele>132</ele>
        <time>2017-02-17T18:25:54Z</time>
      </trkpt>
      <trkpt lat="45.2593" lon="4.80915">
        <ele>131</ele>
        <time>2017-02-17T18:26:24Z</time>
      </trkpt>
      <trkpt lat="45.25873" lon="4.80886">
        <ele>131</ele>
        <time>2017-02-17T18:26:54Z</time>
      </trkpt>
      <trkpt lat="45.25816" lon="4.80856">
        <ele>131</ele>
        <time>2017-02-17T18:27:25Z</time>
      </trkpt>
      <trkpt lat="45.25759" lon="4.80827">
        <ele>131</ele>
        <time>2017-02-17T18:27:55Z</time>
      </trkpt>
      <trkpt lat="45.25701" lon="4.80798">
        <ele>131</ele>
        <time>2017-02-17T18:28:26Z</time>
      </trkpt>
      <trkpt lat="45.25644" lon="4.80769">
        <ele>131</ele>
        <time>2017-02-17T18:28:56Z</time>
      </trkpt>
      <trkpt lat="45.25587" lon="4.80739">
        <ele>131</ele>
        <time>2017-02-17T18:29:27Z</time>
      </trkpt>
      <trkpt lat="45.2553" lon="4.8071">
        <ele>131</ele>
        <time>2017-02-17T18:29:57Z</time>
      </trkpt>
      <trkpt lat="45.25472" lon="4.80681">
        <ele>131</ele>
        <time>2017-02-17T18:30:28Z</time>
      </trkpt>
      <trkpt lat="45.25415" lon="4.80651">
        <ele>131</ele>
        <time>2017-02-17T18:30:58Z</time>
      </trkpt>
      <trkpt lat="45.25358" lon="4.80622">
        <ele>131</ele>
        <time>2017-02-17T18:31:29Z</time>
      </trkpt>
      <trkpt lat="45.25305" lon="4.80578">
        <ele>131</ele>
        <time>2017-02-17T18:31:59Z</time>
      </trkpt>
      <trkpt lat="45.25253" lon="4.80535">
        <ele>131</ele>
        <time>2017-02-17T18:32:29Z</time>
      </trkpt>
      <trkpt lat="45.252" lon="4.80492">
        <ele>131</ele>
        <time>2017-02-17T18:33:00Z</time>
      </trkpt>
      <trkpt lat="45.25147" lon="4.80448">
        <ele>131</ele>
        <time>2017-02-17T18:33:30Z</time>
      </trkpt>
      <trkpt lat="45.25095" lon="4.80405">
        <ele>131</ele>
        <time>2017-02-17T18:34:01Z</time>
      </trkpt>
      <trkpt lat="45.25041" lon="4.80375">
        <ele>131</ele>
        <time>2017-02-17T18:34:29Z</time>
      </trkpt>
      <trkpt lat="45.24988" lon="4.80345">
        <ele>131</ele>
        <time>2017-02-17T18:34:58Z</time>
      </trkpt>
      <trkpt lat="45.24935" lon="4.80315">
        <ele>131</ele>
        <time>2017-02-17T18:35:27Z</time>
      </trkpt>
      <trkpt lat="45.24881" lon="4.80285">
        <ele>131</ele>
        <time>2017-02-17T18:35:56Z</time>
      </trkpt>
      <trkpt lat="45.24828" lon="4.80255">
        <ele>131</ele>
        <time>2017-02-17T18:36:24Z</time>
      </trkpt>
      <trkpt lat="45.24775" lon="4.80225">
        <ele>131</ele>
        <time>2017-02-17T18:36:53Z</time>
      </trkpt>
      <trkpt lat="45.24715" lon="4.80216">
        <ele>131</ele>
        <time>2017-02-17T18:37:23Z</time>
      </trkpt>
      <trkpt lat="45.24656" lon="4.80208">
        <ele>131</ele>
        <time>2017-02-17T18:37:53Z</time>
      </trkpt>
      <trkpt lat="45.24596" lon="4.80199">
        <ele>131</ele>
        <time>2017-02-17T18:38:23Z</time>
      </trkpt>
      <trkpt lat="45.24537" lon="4.80191">
        <ele>131</ele>
        <time>2017-02-17T18:38:53Z</time>
      </trkpt>
      <trkpt lat="45.24478" lon="4.80182">
        <ele>131</ele>
        <time>2017-02-17T18:39:22Z</time>
      </trkpt>
      <trkpt lat="45.24418" lon="4.80173">
        <ele>131</ele>
        <time>2017-02-17T18:39:52Z</time>
      </trkpt>
      <trkpt lat="45.24359" lon="4.80165">
        <ele>131</ele>
        <time>2017-02-17T18:40:22Z</time>
      </trkpt>
      <trkpt lat="45.243" lon="4.80156">
        <ele>131</ele>
        <time>2017-02-17T18:40:52Z</time>
      </trkpt>
      <trkpt lat="45.2424" lon="4.80148">
        <ele>131</ele>
        <time>2017-02-17T18:41:22Z</time>
      </trkpt>
      <trkpt lat="45.24181" lon="4.80153">
        <ele>131</ele>
        <time>2017-02-17T18:41:51Z</time>
      </trkpt>
      <trkpt lat="45.24122" lon="4.80159">
        <ele>131</ele>
        <time>2017-02-17T18:42:21Z</time>
      </trkpt>
      <trkpt lat="45.24063" lon="4.80164">
        <ele>130</ele>
        <time>2017-02-17T18:42:50Z</time>
      </trkpt>
      <trkpt lat="45.24004" lon="4.8017">
        <ele>130</ele>
        <time>2017-02-17T18:43:20Z</time>
      </trkpt>
      <trkpt lat="45.23945" lon="4.80175">
        <ele>131</ele>
        <time>2017-02-17T18:43:50Z</time>
      </trkpt>
      <trkpt lat="45.23886" lon="4.80181">
        <ele>132</ele>
        <time>2017-02-17T18:44:19Z</time>
      </trkpt>
      <trkpt lat="45.23828" lon="4.80187">
        <ele>132</ele>
        <time>2017-02-17T18:44:49Z</time>
      </trkpt>
      <trkpt lat="45.23769" lon="4.80192">
        <ele>130</ele>
        <time>2017-02-17T18:45:18Z</time>
      </trkpt>
      <trkpt lat="45.2371" lon="4.80198">
        <ele>130</ele>
        <time>2017-02-17T18:45:48Z</time>
      </trkpt>
      <trkpt lat="45.2365" lon="4.80203">
        <ele>130</ele>
        <time>2017-02-17T18:46:17Z</time>
      </trkpt>
      <trkpt lat="45.2359" lon="4.80208">
        <ele>130</ele>
        <time>2017-02-17T18:46:48Z</time>
      </trkpt>
      <trkpt lat="45.23529" lon="4.80212">
        <ele>129</ele>
        <time>2017-02-17T18:47:18Z</time>
      </trkpt>
      <trkpt lat="45.23469" lon="4.80216">
        <ele>129</ele>
        <time>2017-02-17T18:47:48Z</time>
      </trkpt>
      <trkpt lat="45.23408" lon="4.80221">
        <ele>129</ele>
        <time>2017-02-17T18:48:19Z</time>
      </trkpt>
      <trkpt lat="45.23348" lon="4.80225">
        <ele>129</ele>
        <time>2017-02-17T18:48:49Z</time>
      </trkpt>
      <trkpt lat="45.23287" lon="4.80229">
        <ele>129</ele>
        <time>2017-02-17T18:49:19Z</time>
      </trkpt>
      <trkpt lat="45.23227" lon="4.80233">
        <ele>129</ele>
        <time>2017-02-17T18:49:50Z</time>
      </trkpt>
      <trkpt lat="45.23166" lon="4.80238">
        <ele>129</ele>
        <time>2017-02-17T18:50:20Z</time>
      </trkpt>
      <trkpt lat="45.23105" lon="4.80242">
        <ele>129</ele>
        <time>2017-02-17T18:50:50Z</time>
      </trkpt>
      <trkpt lat="45.23047" lon="4.80248">
        <ele>129</ele>
        <time>2017-02-17T18:51:20Z</time>
      </trkpt>
      <trkpt lat="45.22988" lon="4.80254">
        <ele>129</ele>
        <time>2017-02-17T18:51:49Z</time>
      </trkpt>
      <trkpt lat="45.2293" lon="4.8026">
        <ele>129</ele>
        <time>2017-02-17T18:52:18Z</time>
      </trkpt>
      <trkpt lat="45.22872" lon="4.80266">
        <ele>129</ele>
        <time>2017-02-17T18:52:47Z</time>
      </trkpt>
      <trkpt lat="45.22813" lon="4.80271">
        <ele>129</ele>
        <time>2017-02-17T18:53:17Z</time>
      </trkpt>
      <trkpt lat="45.22755" lon="4.80277">
        <ele>129</ele>
        <time>2017-02-17T18:53:46Z</time>
      </trkpt>
      <trkpt lat="45.22697" lon="4.80283">
        <ele>129</ele>
        <time>2017-02-17T18:54:15Z</time>
      </trkpt>
      <trkpt lat="45.22638" lon="4.80289">
        <ele>129</ele>
        <time>2017-02-17T18:54:45Z</time>
      </trkpt>
      <trkpt lat="45.22583" lon="4.80317">
        <ele>129</ele>
        <time>2017-02-17T18:55:13Z</time>
      </trkpt>
      <trkpt lat="45.22529" lon="4.80344">
        <ele>130</ele>
        <time>2017-02-17T18:55:42Z</time>
      </trkpt>
      <trkpt lat="45.22474" lon="4.80372">
        <ele>128</ele>
        <time>2017-02-17T18:56:11Z</time>
      </trkpt>
      <trkpt lat="45.2242" lon="4.80399">
        <ele>128</ele>
        <time>2017-02-17T18:56:40Z</time>
      </trkpt>
      <trkpt lat="45.22365" lon="4.80426">
        <ele>129</ele>
        <time>2017-02-17T18:57:09Z</time>
      </trkpt>
      <trkpt lat="45.22311" lon="4.80454">
        <ele>128</ele>
        <time>2017-02-17T18:57:38Z</time>
      </trkpt>
      <trkpt lat="45.22256" lon="4.80481">
        <ele>128</ele>
        <time>2017-02-17T18:58:07Z</time>
      </trkpt>
      <trkpt lat="45.22202" lon="4.80509">
        <ele>128</ele>
        <time>2017-02-17T18:58:36Z</time>
      </trkpt>
      <trkpt lat="45.22147" lon="4.80536">
        <ele>128</ele>
        <time>2017-02-17T18:59:05Z</time>
      </trkpt>
      <trkpt lat="45.22092" lon="4.80564">
        <ele>128</ele>
        <time>2017-02-17T18:59:34Z</time>
      </trkpt>
      <trkpt lat="45.22035" lon="4.80583">
        <ele>128</ele>
        <time>2017-02-17T19:00:04Z</time>
      </trkpt>
      <trkpt lat="45.21977" lon="4.80602">
        <ele>128</ele>
        <time>2017-02-17T19:00:33Z</time>
      </trkpt>
      <trkpt lat="45.2192" lon="4.80621">
        <ele>128</ele>
        <time>2017-02-17T19:01:03Z</time>
      </trkpt>
      <trkpt lat="45.21862" lon="4.8064">
        <ele>127</ele>
        <time>2017-02-17T19:01:32Z</time>
      </trkpt>
      <trkpt lat="45.21805" lon="4.80659">
        <ele>127</ele>
        <time>2017-02-17T19:02:02Z</time>
      </trkpt>
      <trkpt lat="45.21747" lon="4.80678">
        <ele>127</ele>
        <time>2017-02-17T19:02:32Z</time>
      </trkpt>
      <trkpt lat="45.2169" lon="4.80697">
        <ele>127</ele>
        <time>2017-02-17T19:03:01Z</time>
      </trkpt>
      <trkpt lat="45.21632" lon="4.80717">
        <ele>127</ele>
        <time>2017-02-17T19:03:31Z</time>
      </trkpt>
      <trkpt lat="45.21574" lon="4.80736">
        <ele>127</ele>
        <time>2017-02-17T19:04:00Z</time>
      </trkpt>
      <trkpt lat="45.21517" lon="4.80755">
        <ele>127</ele>
        <time>2017-02-17T19:04:30Z</time>
      </trkpt>
      <trkpt lat="45.21455" lon="4.80772">
        <ele>127</ele>
        <time>2017-02-17T19:05:01Z</time>
      </trkpt>
      <trkpt lat="45.21394" lon="4.80789">
        <ele>127</ele>
        <time>2017-02-17T19:05:33Z</time>
      </trkpt>
      <trkpt lat="45.21333" lon="4.80806">
        <ele>127</ele>
        <time>2017-02-17T19:06:04Z</time>
      </trkpt>
      <trkpt lat="45.21271" lon="4.80823">
        <ele>127</ele>
        <time>2017-02-17T19:06:35Z</time>
      </trkpt>
      <trkpt lat="45.2121" lon="4.80841">
        <ele>127</ele>
        <time>2017-02-17T19:07:06Z</time>
      </trkpt>
      <trkpt lat="45.21149" lon="4.80858">
        <ele>127</ele>
        <time>2017-02-17T19:07:38Z</time>
      </trkpt>
      <trkpt lat="45.21087" lon="4.80875">
        <ele>127</ele>
        <time>2017-02-17T19:08:09Z</time>
      </trkpt>
      <trkpt lat="45.21026" lon="4.80892">
        <ele>127</ele>
        <time>2017-02-17T19:08:40Z</time>
      </trkpt>
      <trkpt lat="45.20965" lon="4.80909">
        <ele>127</ele>
        <time>2017-02-17T19:09:12Z</time>
      </trkpt>
      <trkpt lat="45.20903" lon="4.80927">
        <ele>127</ele>
        <time>2017-02-17T19:09:43Z</time>
      </trkpt>
      <trkpt lat="45.20842" lon="4.80932">
        <ele>128</ele>
        <time>2017-02-17T19:10:13Z</time>
      </trkpt>
      <trkpt lat="45.20781" lon="4.80937">
        <ele>128</ele>
        <time>2017-02-17T19:10:44Z</time>
      </trkpt>
      <trkpt lat="45.2072" lon="4.80942">
        <ele>128</ele>
        <time>2017-02-17T19:11:14Z</time>
      </trkpt>
      <trkpt lat="45.20659" lon="4.80947">
        <ele>127</ele>
        <time>2017-02-17T19:11:45Z</time>
      </trkpt>
      <trkpt lat="45.20599" lon="4.80953">
        <ele>127</ele>
        <time>2017-02-17T19:12:15Z</time>
      </trkpt>
      <trkpt lat="45.20538" lon="4.80958">
        <ele>127</ele>
        <time>2017-02-17T19:12:46Z</time>
      </trkpt>
      <trkpt lat="45.20476" lon="4.80963">
        <ele>127</ele>
        <time>2017-02-17T19:13:16Z</time>
      </trkpt>
      <trkpt lat="45.20419" lon="4.80933">
        <ele>127</ele>
        <time>2017-02-17T19:13:47Z</time>
      </trkpt>
      <trkpt lat="45.20362" lon="4.80902">
        <ele>127</ele>
        <time>2017-02-17T19:14:18Z</time>
      </trkpt>
      <trkpt lat="45.20305" lon="4.80872">
        <ele>127</ele>
        <time>2017-02-17T19:14:48Z</time>
      </trkpt>
      <trkpt lat="45.20247" lon="4.80842">
        <ele>127</ele>
        <time>2017-02-17T19:15:19Z</time>
      </trkpt>
      <trkpt lat="45.2019" lon="4.80811">
        <ele>127</ele>
        <time>2017-02-17T19:15:49Z</time>
      </trkpt>
      <trkpt lat="45.20133" lon="4.80781">
        <ele>127</ele>
        <time>2017-02-17T19:16:20Z</time>
      </trkpt>
      <trkpt lat="45.20076" lon="4.80751">
        <ele>128</ele>
        <time>2017-02-17T19:16:50Z</time>
      </trkpt>
      <trkpt lat="45.20018" lon="4.80721">
        <ele>128</ele>
        <time>2017-02-17T19:17:21Z</time>
      </trkpt>
      <trkpt lat="45.19965" lon="4.80694">
        <ele>128</ele>
        <time>2017-02-17T19:17:49Z</time>
      </trkpt>
      <trkpt lat="45.19913" lon="4.80668">
        <ele>128</ele>
        <time>2017-02-17T19:18:17Z</time>
      </trkpt>
      <trkpt lat="45.1986" lon="4.80641">
        <ele>129</ele>
        <time>2017-02-17T19:18:45Z</time>
      </trkpt>
      <trkpt lat="45.19807" lon="4.80615">
        <ele>128</ele>
        <time>2017-02-17T19:19:13Z</time>
      </trkpt>
      <trkpt lat="45.19754" lon="4.80589">
        <ele>127</ele>
        <time>2017-02-17T19:19:41Z</time>
      </trkpt>
      <trkpt lat="45.19701" lon="4.80562">
        <ele>128</ele>
        <time>2017-02-17T19:20:09Z</time>
      </trkpt>
      <trkpt lat="45.19648" lon="4.80536">
        <ele>127</ele>
        <time>2017-02-17T19:20:37Z</time>
      </trkpt>
      <trkpt lat="45.19592" lon="4.80528">
        <ele>128</ele>
        <time>2017-02-17T19:21:06Z</time>
      </trkpt>
      <trkpt lat="45.19536" lon="4.80521">
        <ele>128</ele>
        <time>2017-02-17T19:21:34Z</time>
      </trkpt>
      <trkpt lat="45.1948" lon="4.80513">
        <ele>127</ele>
        <time>2017-02-17T19:22:02Z</time>
      </trkpt>
      <trkpt lat="45.19424" lon="4.80505">
        <ele>127</ele>
        <time>2017-02-17T19:22:30Z</time>
      </trkpt>
      <trkpt lat="45.19368" lon="4.80497">
        <ele>127</ele>
        <time>2017-02-17T19:22:58Z</time>
      </trkpt>
      <trkpt lat="45.19316" lon="4.80517">
        <ele>127</ele>
        <time>2017-02-17T19:23:25Z</time>
      </trkpt>
      <trkpt lat="45.19264" lon="4.80537">
        <ele>127</ele>
        <time>2017-02-17T19:23:52Z</time>
      </trkpt>
      <trkpt lat="45.19212" lon="4.80557">
        <ele>127</ele>
        <time>2017-02-17T19:24:19Z</time>
      </trkpt>
      <trkpt lat="45.1916" lon="4.80577">
        <ele>127</ele>
        <time>2017-02-17T19:24:46Z</time>
      </trkpt>
      <trkpt lat="45.19107" lon="4.80597">
        <ele>127</ele>
        <time>2017-02-17T19:25:13Z</time>
      </trkpt>
      <trkpt lat="45.19055" lon="4.80618">
        <ele>127</ele>
        <time>2017-02-17T19:25:40Z</time>
      </trkpt>
      <trkpt lat="45.19002" lon="4.80661">
        <ele>127</ele>
        <time>2017-02-17T19:26:11Z</time>
      </trkpt>
      <trkpt lat="45.18948" lon="4.80704">
        <ele>127</ele>
        <time>2017-02-17T19:26:42Z</time>
      </trkpt>
      <trkpt lat="45.18894" lon="4.80747">
        <ele>127</ele>
        <time>2017-02-17T19:27:13Z</time>
      </trkpt>
      <trkpt lat="45.18841" lon="4.80791">
        <ele>127</ele>
        <time>2017-02-17T19:27:44Z</time>
      </trkpt>
      <trkpt lat="45.18787" lon="4.80834">
        <ele>127</ele>
        <time>2017-02-17T19:28:14Z</time>
      </trkpt>
      <trkpt lat="45.18734" lon="4.80877">
        <ele>127</ele>
        <time>2017-02-17T19:28:45Z</time>
      </trkpt>
      <trkpt lat="45.1868" lon="4.8092">
        <ele>127</ele>
        <time>2017-02-17T19:29:16Z</time>
      </trkpt>
      <trkpt lat="45.18627" lon="4.80964">
        <ele>127</ele>
        <time>2017-02-17T19:29:47Z</time>
      </trkpt>
      <trkpt lat="45.18573" lon="4.81007">
        <ele>127</ele>
        <time>2017-02-17T19:30:18Z</time>
      </trkpt>
      <trkpt lat="45.1852" lon="4.8105">
        <ele>129</ele>
        <time>2017-02-17T19:30:49Z</time>
      </trkpt>
      <trkpt lat="45.18466" lon="4.81094">
        <ele>129</ele>
        <time>2017-02-17T19:31:20Z</time>
      </trkpt>
      <trkpt lat="45.18412" lon="4.81137">
        <ele>127</ele>
        <time>2017-02-17T19:31:50Z</time>
      </trkpt>
      <trkpt lat="45.18365" lon="4.81165">
        <ele>128</ele>
        <time>2017-02-17T19:32:16Z</time>
      </trkpt>
      <trkpt lat="45.18318" lon="4.81193">
        <ele>128</ele>
        <time>2017-02-17T19:32:42Z</time>
      </trkpt>
      <trkpt lat="45.1827" lon="4.8122">
        <ele>127</ele>
        <time>2017-02-17T19:33:07Z</time>
      </trkpt>
      <trkpt lat="45.18214" lon="4.81212">
        <ele>127</ele>
        <time>2017-02-17T19:33:36Z</time>
      </trkpt>
      <trkpt lat="45.18158" lon="4.81204">
        <ele>127</ele>
        <time>2017-02-17T19:34:04Z</time>
      </trkpt>
      <trkpt lat="45.18101" lon="4.81196">
        <ele>128</ele>
        <time>2017-02-17T19:34:32Z</time>
      </trkpt>
      <trkpt lat="45.18045" lon="4.81188">
        <ele>128</ele>
        <time>2017-02-17T19:35:01Z</time>
      </trkpt>
      <trkpt lat="45.17987" lon="4.81163">
        <ele>127</ele>
        <time>2017-02-17T19:35:31Z</time>
      </trkpt>
      <trkpt lat="45.17928" lon="4.81137">
        <ele>127</ele>
        <time>2017-02-17T19:36:02Z</time>
      </trkpt>
      <trkpt lat="45.1787" lon="4.81111">
        <ele>127</ele>
        <time>2017-02-17T19:36:32Z</time>
      </trkpt>
      <trkpt lat="45.17812" lon="4.81085">
        <ele>127</ele>
        <time>2017-02-17T19:37:03Z</time>
      </trkpt>
      <trkpt lat="45.17757" lon="4.81057">
        <ele>127</ele>
        <time>2017-02-17T19:37:32Z</time>
      </trkpt>
      <trkpt lat="45.17703" lon="4.8103">
        <ele>127</ele>
        <time>2017-02-17T19:38:01Z</time>
      </trkpt>
      <trkpt lat="45.17648" lon="4.81002">
        <ele>128</ele>
        <time>2017-02-17T19:38:30Z</time>
      </trkpt>
      <trkpt lat="45.17594" lon="4.80974">
        <ele>128</ele>
        <time>2017-02-17T19:38:59Z</time>
      </trkpt>
      <trkpt lat="45.17539" lon="4.80946">
        <ele>127</ele>
        <time>2017-02-17T19:39:28Z</time>
      </trkpt>
      <trkpt lat="45.17484" lon="4.80918">
        <ele>129</ele>
        <time>2017-02-17T19:39:57Z</time>
      </trkpt>
      <trkpt lat="45.1743" lon="4.8089">
        <ele>129</ele>
        <time>2017-02-17T19:40:26Z</time>
      </trkpt>
      <trkpt lat="45.17375" lon="4.80862">
        <ele>127</ele>
        <time>2017-02-17T19:40:55Z</time>
      </trkpt>
      <trkpt lat="45.17321" lon="4.80834">
        <ele>128</ele>
        <time>2017-02-17T19:41:24Z</time>
      </trkpt>
      <trkpt lat="45.17266" lon="4.80806">
        <ele>128</ele>
        <time>2017-02-17T19:41:53Z</time>
      </trkpt>
      <trkpt lat="45.17206" lon="4.80798">
        <ele>127</ele>
        <time>2017-02-17T19:42:23Z</time>
      </trkpt>
      <trkpt lat="45.17146" lon="4.80791">
        <ele>127</ele>
        <time>2017-02-17T19:42:53Z</time>
      </trkpt>
      <trkpt lat="45.17086" lon="4.80783">
        <ele>127</ele>
        <time>2017-02-17T19:43:24Z</time>
      </trkpt>
      <trkpt lat="45.17033" lon="4.80793">
        <ele>127</ele>
        <time>2017-02-17T19:43:50Z</time>
      </trkpt>
      <trkpt lat="45.16979" lon="4.80802">
        <ele>127</ele>
        <time>2017-02-17T19:44:17Z</time>
      </trkpt>
      <trkpt lat="45.16926" lon="4.80812">
        <ele>127</ele>
        <time>2017-02-17T19:44:44Z</time>
      </trkpt>
      <trkpt lat="45.16873" lon="4.80822">
        <ele>127</ele>
        <time>2017-02-17T19:45:11Z</time>
      </trkpt>
      <trkpt lat="45.1682" lon="4.80832">
        <ele>127</ele>
        <time>2017-02-17T19:45:38Z</time>
      </trkpt>
      <trkpt lat="45.16767" lon="4.80865">
        <ele>127</ele>
        <time>2017-02-17T19:46:06Z</time>
      </trkpt>
      <trkpt lat="45.16715" lon="4.80897">
        <ele>127</ele>
        <time>2017-02-17T19:46:35Z</time>
      </trkpt>
      <trkpt lat="45.16663" lon="4.8093">
        <ele>127</ele>
        <time>2017-02-17T19:47:04Z</time>
      </trkpt>
      <trkpt lat="45.1661" lon="4.80963">
        <ele>127</ele>
        <time>2017-02-17T19:47:32Z</time>
      </trkpt>
      <trkpt lat="45.16558" lon="4.80995">
        <ele>127</ele>
        <time>2017-02-17T19:48:01Z</time>
      </trkpt>
      <trkpt lat="45.16512" lon="4.81038">
        <ele>127</ele>
        <time>2017-02-17T19:48:28Z</time>
      </trkpt>
      <trkpt lat="45.16466" lon="4.8108">
        <ele>127</ele>
        <time>2017-02-17T19:48:56Z</time>
      </trkpt>
      <trkpt lat="45.1642" lon="4.81123">
        <ele>127</ele>
        <time>2017-02-17T19:49:23Z</time>
      </trkpt>
      <trkpt lat="45.16374" lon="4.81165">
        <ele>127</ele>
        <time>2017-02-17T19:49:51Z</time>
      </trkpt>
      <trkpt lat="45.16328" lon="4.81208">
        <ele>127</ele>
        <time>2017-02-17T19:50:18Z</time>
      </trkpt>
      <trkpt lat="45.16292" lon="4.81272">
        <ele>127</ele>
        <time>2017-02-17T19:50:47Z</time>
      </trkpt>
      <trkpt lat="45.16255" lon="4.81337">
        <ele>127</ele>
        <time>2017-02-17T19:51:16Z</time>
      </trkpt>
      <trkpt lat="45.16219" lon="4.81401">
        <ele>127</ele>
        <time>2017-02-17T19:51:46Z</time>
      </trkpt>
      <trkpt lat="45.16183" lon="4.81465">
        <ele>127</ele>
        <time>2017-02-17T19:52:15Z</time>
      </trkpt>
      <trkpt lat="45.16169" lon="4.81543">
        <ele>127</ele>
        <time>2017-02-17T19:52:43Z</time>
      </trkpt>
      <trkpt lat="45.16156" lon="4.81621">
        <ele>127</ele>
        <time>2017-02-17T19:53:11Z</time>
      </trkpt>
      <trkpt lat="45.16142" lon="4.81699">
        <ele>127</ele>
        <time>2017-02-17T19:53:40Z</time>
      </trkpt>
      <trkpt lat="45.16129" lon="4.81777">
        <ele>127</ele>
        <time>2017-02-17T19:54:08Z</time>
      </trkpt>
      <trkpt lat="45.16116" lon="4.81855">
        <ele>127</ele>
        <time>2017-02-17T19:54:37Z</time>
      </trkpt>
      <trkpt lat="45.16102" lon="4.81933">
        <ele>127</ele>
        <time>2017-02-17T19:55:05Z</time>
      </trkpt>
      <trkpt lat="45.16089" lon="4.8201">
        <ele>127</ele>
        <time>2017-02-17T19:55:33Z</time>
      </trkpt>
      <trkpt lat="45.16062" lon="4.82092">
        <ele>127</ele>
        <time>2017-02-17T19:56:05Z</time>
      </trkpt>
      <trkpt lat="45.16034" lon="4.82174">
        <ele>127</ele>
        <time>2017-02-17T19:56:37Z</time>
      </trkpt>
      <trkpt lat="45.16007" lon="4.82255">
        <ele>127</ele>
        <time>2017-02-17T19:57:09Z</time>
      </trkpt>
      <trkpt lat="45.1598" lon="4.82337">
        <ele>127</ele>
        <time>2017-02-17T19:57:41Z</time>
      </trkpt>
      <trkpt lat="45.15952" lon="4.82419">
        <ele>127</ele>
        <time>2017-02-17T19:58:13Z</time>
      </trkpt>
      <trkpt lat="45.15925" lon="4.82499">
        <ele>127</ele>
        <time>2017-02-17T19:58:45Z</time>
      </trkpt>
      <trkpt lat="45.15883" lon="4.82547">
        <ele>127</ele>
        <time>2017-02-17T19:59:12Z</time>
      </trkpt>
      <trkpt lat="45.1584" lon="4.82594">
        <ele>127</ele>
        <time>2017-02-17T19:59:39Z</time>
      </trkpt>
      <trkpt lat="45.15797" lon="4.82641">
        <ele>127</ele>
        <time>2017-02-17T20:00:06Z</time>
      </trkpt>
      <trkpt lat="45.15754" lon="4.82688">
        <ele>127</ele>
        <time>2017-02-17T20:00:33Z</time>
      </trkpt>
      <trkpt lat="45.157" lon="4.82702">
        <ele>127</ele>
        <time>2017-02-17T20:01:01Z</time>
      </trkpt>
      <trkpt lat="45.15646" lon="4.82715">
        <ele>127</ele>
        <time>2017-02-17T20:01:28Z</time>
      </trkpt>
      <trkpt lat="45.15592" lon="4.82728">
        <ele>127</ele>
        <time>2017-02-17T20:01:56Z</time>
      </trkpt>
      <trkpt lat="45.15538" lon="4.82742">
        <ele>127</ele>
        <time>2017-02-17T20:02:23Z</time>
      </trkpt>
      <trkpt lat="45.15477" lon="4.8273">
        <ele>127</ele>
        <time>2017-02-17T20:02:54Z</time>
      </trkpt>
      <trkpt lat="45.15415" lon="4.82719">
        <ele>127</ele>
        <time>2017-02-17T20:03:25Z</time>
      </trkpt>
      <trkpt lat="45.15353" lon="4.82708">
        <ele>127</ele>
        <time>2017-02-17T20:03:56Z</time>
      </trkpt>
      <trkpt lat="45.15302" lon="4.82669">
        <ele>127</ele>
        <time>2017-02-17T20:04:25Z</time>
      </trkpt>
      <trkpt lat="45.15251" lon="4.8263">
        <ele>127</ele>
        <time>2017-02-17T20:04:54Z</time>
      </trkpt>
      <trkpt lat="45.152" lon="4.82591">
        <ele>127</ele>
        <time>2017-02-17T20:05:23Z</time>
      </trkpt>
      <trkpt lat="45.15149" lon="4.82552">
        <ele>126</ele>
        <time>2017-02-17T20:05:52Z</time>
      </trkpt>
      <trkpt lat="45.15098" lon="4.82513">
        <ele>126</ele>
        <time>2017-02-17T20:06:21Z</time>
      </trkpt>
      <trkpt lat="45.15047" lon="4.82474">
        <ele>126</ele>
        <time>2017-02-17T20:06:50Z</time>
      </trkpt>
      <trkpt lat="45.14996" lon="4.82435">
        <ele>126</ele>
        <time>2017-02-17T20:07:19Z</time>
      </trkpt>
      <trkpt lat="45.14947" lon="4.82383">
        <ele>126</ele>
        <time>2017-02-17T20:07:50Z</time>
      </trkpt>
      <trkpt lat="45.14898" lon="4.8233">
        <ele>126</ele>
        <time>2017-02-17T20:08:21Z</time>
      </trkpt>
      <trkpt lat="45.14849" lon="4.82278">
        <ele>126</ele>
        <time>2017-02-17T20:08:51Z</time>
      </trkpt>
      <trkpt lat="45.148" lon="4.82226">
        <ele>126</ele>
        <time>2017-02-17T20:09:22Z</time>
      </trkpt>
      <trkpt lat="45.14751" lon="4.82173">
        <ele>126</ele>
        <time>2017-02-17T20:09:53Z</time>
      </trkpt>
      <trkpt lat="45.14702" lon="4.82121">
        <ele>125</ele>
        <time>2017-02-17T20:10:23Z</time>
      </trkpt>
      <trkpt lat="45.14653" lon="4.82069">
        <ele>125</ele>
        <time>2017-02-17T20:10:54Z</time>
      </trkpt>
      <trkpt lat="45.14604" lon="4.82017">
        <ele>125</ele>
        <time>2017-02-17T20:11:25Z</time>
      </trkpt>
      <trkpt lat="45.14553" lon="4.81964">
        <ele>125</ele>
        <time>2017-02-17T20:11:56Z</time>
      </trkpt>
      <trkpt lat="45.14502" lon="4.81912">
        <ele>125</ele>
        <time>2017-02-17T20:12:28Z</time>
      </trkpt>
      <trkpt lat="45.1445" lon="4.81859">
        <ele>125</ele>
        <time>2017-02-17T20:13:00Z</time>
      </trkpt>
      <trkpt lat="45.14399" lon="4.81807">
        <ele>125</ele>
        <time>2017-02-17T20:13:32Z</time>
      </trkpt>
      <trkpt lat="45.14347" lon="4.81754">
        <ele>125</ele>
        <time>2017-02-17T20:14:03Z</time>
      </trkpt>
      <trkpt lat="45.14296" lon="4.81702">
        <ele>125</ele>
        <time>2017-02-17T20:14:35Z</time>
      </trkpt>
      <trkpt lat="45.14245" lon="4.81649">
        <ele>125</ele>
        <time>2017-02-17T20:15:07Z</time>
      </trkpt>
      <trkpt lat="45.14193" lon="4.81597">
        <ele>125</ele>
        <time>2017-02-17T20:15:38Z</time>
      </trkpt>
      <trkpt lat="45.14142" lon="4.81544">
        <ele>125</ele>
        <time>2017-02-17T20:16:10Z</time>
      </trkpt>
      <trkpt lat="45.14091" lon="4.81492">
        <ele>125</ele>
        <time>2017-02-17T20:16:42Z</time>
      </trkpt>
      <trkpt lat="45.14039" lon="4.8144">
        <ele>126</ele>
        <time>2017-02-17T20:17:13Z</time>
      </trkpt>
      <trkpt lat="45.13988" lon="4.81387">
        <ele>126</ele>
        <time>2017-02-17T20:17:45Z</time>
      </trkpt>
      <trkpt lat="45.13936" lon="4.81335">
        <ele>126</ele>
        <time>2017-02-17T20:18:17Z</time>
      </trkpt>
      <trkpt lat="45.13885" lon="4.81282">
        <ele>126</ele>
        <time>2017-02-17T20:18:48Z</time>
      </trkpt>
      <trkpt lat="45.13834" lon="4.8123">
        <ele>126</ele>
        <time>2017-02-17T20:19:20Z</time>
      </trkpt>
      <trkpt lat="45.13783" lon="4.81178">
        <ele>125</ele>
        <time>2017-02-17T20:19:52Z</time>
      </trkpt>
      <trkpt lat="45.13752" lon="4.81117">
        <ele>125</ele>
        <time>2017-02-17T20:20:18Z</time>
      </trkpt>
      <trkpt lat="45.13721" lon="4.81056">
        <ele>125</ele>
        <time>2017-02-17T20:20:45Z</time>
      </trkpt>
      <trkpt lat="45.1369" lon="4.80996">
        <ele>125</ele>
        <time>2017-02-17T20:21:11Z</time>
      </trkpt>
      <trkpt lat="45.13659" lon="4.80935">
        <ele>124</ele>
        <time>2017-02-17T20:21:37Z</time>
      </trkpt>
      <trkpt lat="45.13628" lon="4.80875">
        <ele>124</ele>
        <time>2017-02-17T20:22:04Z</time>
      </trkpt>
      <trkpt lat="45.136" lon="4.80803">
        <ele>124</ele>
        <time>2017-02-17T20:22:33Z</time>
      </trkpt>
      <trkpt lat="45.13572" lon="4.80731">
        <ele>124</ele>
        <time>2017-02-17T20:23:02Z</time>
      </trkpt>
      <trkpt lat="45.13544" lon="4.80658">
        <ele>124</ele>
        <time>2017-02-17T20:23:31Z</time>
      </trkpt>
      <trkpt lat="45.13517" lon="4.80586">
        <ele>124</ele>
        <time>2017-02-17T20:24:00Z</time>
      </trkpt>
      <trkpt lat="45.13489" lon="4.80515">
        <ele>123</ele>
        <time>2017-02-17T20:24:29Z</time>
      </trkpt>
      <trkpt lat="45.13441" lon="4.80483">
        <ele>123</ele>
        <time>2017-02-17T20:24:56Z</time>
      </trkpt>
      <trkpt lat="45.13393" lon="4.80452">
        <ele>123</ele>
        <time>2017-02-17T20:25:22Z</time>
      </trkpt>
      <trkpt lat="45.13345" lon="4.8042">
        <ele>124</ele>
        <time>2017-02-17T20:25:49Z</time>
      </trkpt>
      <trkpt lat="45.13301" lon="4.80429">
        <ele>123</ele>
        <time>2017-02-17T20:26:11Z</time>
      </trkpt>
      <trkpt lat="45.13257" lon="4.80439">
        <ele>123</ele>
        <time>2017-02-17T20:26:33Z</time>
      </trkpt>
      <trkpt lat="45.13213" lon="4.80448">
        <ele>123</ele>
        <time>2017-02-17T20:26:55Z</time>
      </trkpt>
      <trkpt lat="45.13173" lon="4.80482">
        <ele>123</ele>
        <time>2017-02-17T20:27:19Z</time>
      </trkpt>
      <trkpt lat="45.13132" lon="4.80517">
        <ele>123</ele>
        <time>2017-02-17T20:27:43Z</time>
      </trkpt>
      <trkpt lat="45.13095" lon="4.80512">
        <ele>123</ele>
        <time>2017-02-17T20:28:01Z</time>
      </trkpt>
      <trkpt lat="45.13057" lon="4.80508">
        <ele>123</ele>
        <time>2017-02-17T20:28:20Z</time>
      </trkpt>
      <trkpt lat="45.13005" lon="4.80477">
        <ele>123</ele>
        <time>2017-02-17T20:28:48Z</time>
      </trkpt>
      <trkpt lat="45.12953" lon="4.80446">
        <ele>123</ele>
        <time>2017-02-17T20:29:17Z</time>
      </trkpt>
      <trkpt lat="45.12905" lon="4.80415">
        <ele>123</ele>
        <time>2017-02-17T20:29:43Z</time>
      </trkpt>
      <trkpt lat="45.12857" lon="4.80384">
        <ele>123</ele>
        <time>2017-02-17T20:30:09Z</time>
      </trkpt>
      <trkpt lat="45.12809" lon="4.80354">
        <ele>123</ele>
        <time>2017-02-17T20:30:36Z</time>
      </trkpt>
      <trkpt lat="45.12754" lon="4.80344">
        <ele>123</ele>
        <time>2017-02-17T20:31:04Z</time>
      </trkpt>
      <trkpt lat="45.12698" lon="4.80335">
        <ele>123</ele>
        <time>2017-02-17T20:31:31Z</time>
      </trkpt>
      <trkpt lat="45.12643" lon="4.80326">
        <ele>123</ele>
        <time>2017-02-17T20:31:59Z</time>
      </trkpt>
      <trkpt lat="45.12587" lon="4.80329">
        <ele>123</ele>
        <time>2017-02-17T20:32:27Z</time>
      </trkpt>
      <trkpt lat="45.12532" lon="4.80331">
        <ele>123</ele>
        <time>2017-02-17T20:32:55Z</time>
      </trkpt>
      <trkpt lat="45.12476" lon="4.80334">
        <ele>123</ele>
        <time>2017-02-17T20:33:23Z</time>
      </trkpt>
      <trkpt lat="45.12429" lon="4.80348">
        <ele>123</ele>
        <time>2017-02-17T20:33:47Z</time>
      </trkpt>
      <trkpt lat="45.12382" lon="4.80361">
        <ele>123</ele>
        <time>2017-02-17T20:34:11Z</time>
      </trkpt>
      <trkpt lat="45.12335" lon="4.80375">
        <ele>123</ele>
        <time>2017-02-17T20:34:35Z</time>
      </trkpt>
      <trkpt lat="45.12284" lon="4.8041">
        <ele>122</ele>
        <time>2017-02-17T20:35:03Z</time>
      </trkpt>
      <trkpt lat="45.12233" lon="4.80445">
        <ele>122</ele>
        <time>2017-02-17T20:35:31Z</time>
      </trkpt>
      <trkpt lat="45.12182" lon="4.8048">
        <ele>123</ele>
        <time>2017-02-17T20:36:00Z</time>
      </trkpt>
      <trkpt lat="45.12136" lon="4.80521">
        <ele>122</ele>
        <time>2017-02-17T20:36:27Z</time>
      </trkpt>
      <trkpt lat="45.12089" lon="4.80562">
        <ele>122</ele>
        <time>2017-02-17T20:36:55Z</time>
      </trkpt>
      <trkpt lat="45.12043" lon="4.80603">
        <ele>122</ele>
        <time>2017-02-17T20:37:22Z</time>
      </trkpt>
      <trkpt lat="45.11996" lon="4.80643">
        <ele>122</ele>
        <time>2017-02-17T20:37:49Z</time>
      </trkpt>
      <trkpt lat="45.11947" lon="4.807">
        <ele>122</ele>
        <time>2017-02-17T20:38:21Z</time>
      </trkpt>
      <trkpt lat="45.11898" lon="4.80757">
        <ele>122</ele>
        <time>2017-02-17T20:38:53Z</time>
      </trkpt>
      <trkpt lat="45.11849" lon="4.80815">
        <ele>122</ele>
        <time>2017-02-17T20:39:25Z</time>
      </trkpt>
      <trkpt lat="45.118" lon="4.80872">
        <ele>122</ele>
        <time>2017-02-17T20:39:56Z</time>
      </trkpt>
      <trkpt lat="45.11751" lon="4.80929">
        <ele>122</ele>
        <time>2017-02-17T20:40:28Z</time>
      </trkpt>
      <trkpt lat="45.11708" lon="4.80974">
        <ele>122</ele>
        <time>2017-02-17T20:40:55Z</time>
      </trkpt>
      <trkpt lat="45.11666" lon="4.81019">
        <ele>122</ele>
        <time>2017-02-17T20:41:22Z</time>
      </trkpt>
      <trkpt lat="45.11623" lon="4.81064">
        <ele>122</ele>
        <time>2017-02-17T20:41:48Z</time>
      </trkpt>
      <trkpt lat="45.1158" lon="4.81109">
        <ele>122</ele>
        <time>2017-02-17T20:42:15Z</time>
      </trkpt>
      <trkpt lat="45.11538" lon="4.81154">
        <ele>122</ele>
        <time>2017-02-17T20:42:41Z</time>
      </trkpt>
      <trkpt lat="45.11495" lon="4.81199">
        <ele>122</ele>
        <time>2017-02-17T20:43:08Z</time>
      </trkpt>
      <trkpt lat="45.11446" lon="4.81238">
        <ele>122</ele>
        <time>2017-02-17T20:43:36Z</time>
      </trkpt>
      <trkpt lat="45.11397" lon="4.81277">
        <ele>122</ele>
        <time>2017-02-17T20:44:04Z</time>
      </trkpt>
      <trkpt lat="45.11348" lon="4.81316">
        <ele>122</ele>
        <time>2017-02-17T20:44:33Z</time>
      </trkpt>
      <trkpt lat="45.11299" lon="4.81355">
        <ele>122</ele>
        <time>2017-02-17T20:45:01Z</time>
      </trkpt>
      <trkpt lat="45.11249" lon="4.81394">
        <ele>123</ele>
        <time>2017-02-17T20:45:29Z</time>
      </trkpt>
      <trkpt lat="45.112" lon="4.81433">
        <ele>122</ele>
        <time>2017-02-17T20:45:57Z</time>
      </trkpt>
      <trkpt lat="45.11151" lon="4.81472">
        <ele>122</ele>
        <time>2017-02-17T20:46:25Z</time>
      </trkpt>
      <trkpt lat="45.11105" lon="4.81517">
        <ele>122</ele>
        <time>2017-02-17T20:46:54Z</time>
      </trkpt>
      <trkpt lat="45.11058" lon="4.81563">
        <ele>122</ele>
        <time>2017-02-17T20:47:22Z</time>
      </trkpt>
      <trkpt lat="45.11011" lon="4.81609">
        <ele>122</ele>
        <time>2017-02-17T20:47:50Z</time>
      </trkpt>
      <trkpt lat="45.10965" lon="4.81655">
        <ele>122</ele>
        <time>2017-02-17T20:48:19Z</time>
      </trkpt>
      <trkpt lat="45.10918" lon="4.81701">
        <ele>122</ele>
        <time>2017-02-17T20:48:47Z</time>
      </trkpt>
      <trkpt lat="45.10873" lon="4.81764">
        <ele>122</ele>
        <time>2017-02-17T20:49:19Z</time>
      </trkpt>
      <trkpt lat="45.10827" lon="4.81827">
        <ele>122</ele>
        <time>2017-02-17T20:49:51Z</time>
      </trkpt>
      <trkpt lat="45.10782" lon="4.8189">
        <ele>122</ele>
        <time>2017-02-17T20:50:23Z</time>
      </trkpt>
      <trkpt lat="45.10736" lon="4.81953">
        <ele>122</ele>
        <time>2017-02-17T20:50:55Z</time>
      </trkpt>
      <trkpt lat="45.10691" lon="4.82016">
        <ele>121</ele>
        <time>2017-02-17T20:51:27Z</time>
      </trkpt>
      <trkpt lat="45.10645" lon="4.82079">
        <ele>122</ele>
        <time>2017-02-17T20:51:58Z</time>
      </trkpt>
      <trkpt lat="45.106" lon="4.82142">
        <ele>121</ele>
        <time>2017-02-17T20:52:30Z</time>
      </trkpt>
      <trkpt lat="45.10554" lon="4.82205">
        <ele>121</ele>
        <time>2017-02-17T20:53:02Z</time>
      </trkpt>
      <trkpt lat="45.10509" lon="4.82268">
        <ele>121</ele>
        <time>2017-02-17T20:53:34Z</time>
      </trkpt>
      <trkpt lat="45.10472" lon="4.82324">
        <ele>120</ele>
        <time>2017-02-17T20:54:01Z</time>
      </trkpt>
      <trkpt lat="45.10435" lon="4.82381">
        <ele>120</ele>
        <time>2017-02-17T20:54:28Z</time>
      </trkpt>
      <trkpt lat="45.10398" lon="4.82437">
        <ele>120</ele>
        <time>2017-02-17T20:54:56Z</time>
      </trkpt>
      <trkpt lat="45.10361" lon="4.82494">
        <ele>120</ele>
        <time>2017-02-17T20:55:23Z</time>
      </trkpt>
      <trkpt lat="45.10323" lon="4.8255">
        <ele>120</ele>
        <time>2017-02-17T20:55:50Z</time>
      </trkpt>
      <trkpt lat="45.10287" lon="4.82607">
        <ele>120</ele>
        <time>2017-02-17T20:56:18Z</time>
      </trkpt>
      <trkpt lat="45.1024" lon="4.82665">
        <ele>120</ele>
        <time>2017-02-17T20:56:49Z</time>
      </trkpt>
      <trkpt lat="45.10193" lon="4.82723">
        <ele>121</ele>
        <time>2017-02-17T20:57:20Z</time>
      </trkpt>
      <trkpt lat="45.10147" lon="4.82781">
        <ele>120</ele>
        <time>2017-02-17T20:57:51Z</time>
      </trkpt>
      <trkpt lat="45.101" lon="4.82838">
        <ele>120</ele>
        <time>2017-02-17T20:58:22Z</time>
      </trkpt>
      <trkpt lat="45.10045" lon="4.82863">
        <ele>120</ele>
        <time>2017-02-17T20:58:51Z</time>
      </trkpt>
      <trkpt lat="45.09991" lon="4.82888">
        <ele>120</ele>
        <time>2017-02-17T20:59:19Z</time>
      </trkpt>
      <trkpt lat="45.09936" lon="4.82913">
        <ele>121</ele>
        <time>2017-02-17T20:59:48Z</time>
      </trkpt>
      <trkpt lat="45.09881" lon="4.82938">
        <ele>121</ele>
        <time>2017-02-17T21:00:17Z</time>
      </trkpt>
      <trkpt lat="45.09826" lon="4.82963">
        <ele>120</ele>
        <time>2017-02-17T21:00:46Z</time>
      </trkpt>
      <trkpt lat="45.09768" lon="4.82977">
        <ele>120</ele>
        <time>2017-02-17T21:01:15Z</time>
      </trkpt>
      <trkpt lat="45.09709" lon="4.82991">
        <ele>120</ele>
        <time>2017-02-17T21:01:45Z</time>
      </trkpt>
      <trkpt lat="45.0965" lon="4.83006">
        <ele>120</ele>
        <time>2017-02-17T21:02:15Z</time>
      </trkpt>
      <trkpt lat="45.09592" lon="4.8302">
        <ele>120</ele>
        <time>2017-02-17T21:02:45Z</time>
      </trkpt>
      <trkpt lat="45.09533" lon="4.83034">
        <ele>120</ele>
        <time>2017-02-17T21:03:14Z</time>
      </trkpt>
      <trkpt lat="45.09475" lon="4.83049">
        <ele>120</ele>
        <time>2017-02-17T21:03:44Z</time>
      </trkpt>
      <trkpt lat="45.09416" lon="4.83062">
        <ele>120</ele>
        <time>2017-02-17T21:04:14Z</time>
      </trkpt>
      <trkpt lat="45.09357" lon="4.83074">
        <ele>120</ele>
        <time>2017-02-17T21:04:44Z</time>
      </trkpt>
      <trkpt lat="45.09298" lon="4.83087">
        <ele>120</ele>
        <time>2017-02-17T21:05:13Z</time>
      </trkpt>
      <trkpt lat="45.0924" lon="4.831">
        <ele>119</ele>
        <time>2017-02-17T21:05:43Z</time>
      </trkpt>
      <trkpt lat="45.09181" lon="4.83113">
        <ele>119</ele>
        <time>2017-02-17T21:06:13Z</time>
      </trkpt>
      <trkpt lat="45.09122" lon="4.83126">
        <ele>119</ele>
        <time>2017-02-17T21:06:43Z</time>
      </trkpt>
      <trkpt lat="45.09068" lon="4.83138">
        <ele>121</ele>
        <time>2017-02-17T21:07:10Z</time>
      </trkpt>
      <trkpt lat="45.09014" lon="4.83151">
        <ele>121</ele>
        <time>2017-02-17T21:07:37Z</time>
      </trkpt>
      <trkpt lat="45.0896" lon="4.83163">
        <ele>121</ele>
        <time>2017-02-17T21:08:04Z</time>
      </trkpt>
      <trkpt lat="45.08907" lon="4.83175">
        <ele>120</ele>
        <time>2017-02-17T21:08:32Z</time>
      </trkpt>
      <trkpt lat="45.08854" lon="4.83181">
        <ele>120</ele>
        <time>2017-02-17T21:08:58Z</time>
      </trkpt>
      <trkpt lat="45.08802" lon="4.83186">
        <ele>120</ele>
        <time>2017-02-17T21:09:24Z</time>
      </trkpt>
      <trkpt lat="45.08741" lon="4.83163">
        <ele>122</ele>
        <time>2017-02-17T21:09:56Z</time>
      </trkpt>
      <trkpt lat="45.08679" lon="4.83141">
        <ele>121</ele>
        <time>2017-02-17T21:10:28Z</time>
      </trkpt>
      <trkpt lat="45.08618" lon="4.83118">
        <ele>119</ele>
        <time>2017-02-17T21:10:59Z</time>
      </trkpt>
      <trkpt lat="45.08557" lon="4.83096">
        <ele>120</ele>
        <time>2017-02-17T21:11:31Z</time>
      </trkpt>
      <trkpt lat="45.08495" lon="4.83073">
        <ele>119</ele>
        <time>2017-02-17T21:12:03Z</time>
      </trkpt>
      <trkpt lat="45.08434" lon="4.83051">
        <ele>119</ele>
        <time>2017-02-17T21:12:34Z</time>
      </trkpt>
      <trkpt lat="45.08383" lon="4.8302">
        <ele>120</ele>
        <time>2017-02-17T21:13:02Z</time>
      </trkpt>
      <trkpt lat="45.08332" lon="4.82988">
        <ele>122</ele>
        <time>2017-02-17T21:13:30Z</time>
      </trkpt>
      <trkpt lat="45.0828" lon="4.82957">
        <ele>123</ele>
        <time>2017-02-17T21:13:58Z</time>
      </trkpt>
      <trkpt lat="45.08229" lon="4.82926">
        <ele>121</ele>
        <time>2017-02-17T21:14:26Z</time>
      </trkpt>
      <trkpt lat="45.08178" lon="4.82894">
        <ele>120</ele>
        <time>2017-02-17T21:14:54Z</time>
      </trkpt>
      <trkpt lat="45.08129" lon="4.82862">
        <ele>119</ele>
        <time>2017-02-17T21:15:21Z</time>
      </trkpt>
      <trkpt lat="45.08079" lon="4.8283">
        <ele>118</ele>
        <time>2017-02-17T21:15:48Z</time>
      </trkpt>
      <trkpt lat="45.08024" lon="4.82818">
        <ele>118</ele>
        <time>2017-02-17T21:16:16Z</time>
      </trkpt>
      <trkpt lat="45.07968" lon="4.82806">
        <ele>118</ele>
        <time>2017-02-17T21:16:45Z</time>
      </trkpt>
      <trkpt lat="45.07912" lon="4.82793">
        <ele>118</ele>
        <time>2017-02-17T21:17:13Z</time>
      </trkpt>
      <trkpt lat="45.07856" lon="4.82781">
        <ele>118</ele>
        <time>2017-02-17T21:17:41Z</time>
      </trkpt>
      <trkpt lat="45.07801" lon="4.82769">
        <ele>118</ele>
        <time>2017-02-17T21:18:09Z</time>
      </trkpt>
      <trkpt lat="45.07745" lon="4.82757">
        <ele>118</ele>
        <time>2017-02-17T21:18:38Z</time>
      </trkpt>
      <trkpt lat="45.07691" lon="4.82774">
        <ele>119</ele>
        <time>2017-02-17T21:19:05Z</time>
      </trkpt>
      <trkpt lat="45.07638" lon="4.8279">
        <ele>118</ele>
        <time>2017-02-17T21:19:32Z</time>
      </trkpt>
      <trkpt lat="45.07585" lon="4.82807">
        <ele>118</ele>
        <time>2017-02-17T21:20:00Z</time>
      </trkpt>
      <trkpt lat="45.07531" lon="4.82824">
        <ele>118</ele>
        <time>2017-02-17T21:20:27Z</time>
      </trkpt>
      <trkpt lat="45.07478" lon="4.82841">
        <ele>118</ele>
        <time>2017-02-17T21:20:54Z</time>
      </trkpt>
      <trkpt lat="45.07429" lon="4.82857">
        <ele>119</ele>
        <time>2017-02-17T21:21:19Z</time>
      </trkpt>
      <trkpt lat="45.07381" lon="4.82873">
        <ele>118</ele>
        <time>2017-02-17T21:21:44Z</time>
      </trkpt>
      <trkpt lat="45.07332" lon="4.8289">
        <ele>118</ele>
        <time>2017-02-17T21:22:09Z</time>
      </trkpt>
      <trkpt lat="45.07286" lon="4.82933">
        <ele>118</ele>
        <time>2017-02-17T21:22:37Z</time>
      </trkpt>
      <trkpt lat="45.0724" lon="4.82977">
        <ele>118</ele>
        <time>2017-02-17T21:23:05Z</time>
      </trkpt>
      <trkpt lat="45.07194" lon="4.8302">
        <ele>117</ele>
        <time>2017-02-17T21:23:32Z</time>
      </trkpt>
      <trkpt lat="45.07147" lon="4.83064">
        <ele>117</ele>
        <time>2017-02-17T21:24:00Z</time>
      </trkpt>
      <trkpt lat="45.07103" lon="4.83122">
        <ele>117</ele>
        <time>2017-02-17T21:24:31Z</time>
      </trkpt>
      <trkpt lat="45.07058" lon="4.83181">
        <ele>119</ele>
        <time>2017-02-17T21:25:01Z</time>
      </trkpt>
      <trkpt lat="45.07013" lon="4.83239">
        <ele>117</ele>
        <time>2017-02-17T21:25:32Z</time>
      </trkpt>
      <trkpt lat="45.06969" lon="4.83298">
        <ele>118</ele>
        <time>2017-02-17T21:26:02Z</time>
      </trkpt>
      <trkpt lat="45.06942" lon="4.83367">
        <ele>117</ele>
        <time>2017-02-17T21:26:30Z</time>
      </trkpt>
      <trkpt lat="45.06915" lon="4.83437">
        <ele>120</ele>
        <time>2017-02-17T21:26:58Z</time>
      </trkpt>
      <trkpt lat="45.06888" lon="4.83506">
        <ele>118</ele>
        <time>2017-02-17T21:27:26Z</time>
      </trkpt>
      <trkpt lat="45.06861" lon="4.83576">
        <ele>121</ele>
        <time>2017-02-17T21:27:54Z</time>
      </trkpt>
      <trkpt lat="45.06834" lon="4.83646">
        <ele>121</ele>
        <time>2017-02-17T21:28:22Z</time>
      </trkpt>
      <trkpt lat="45.06807" lon="4.83715">
        <ele>118</ele>
        <time>2017-02-17T21:28:50Z</time>
      </trkpt>
      <trkpt lat="45.0678" lon="4.83785">
        <ele>117</ele>
        <time>2017-02-17T21:29:18Z</time>
      </trkpt>
      <trkpt lat="45.06753" lon="4.83853">
        <ele>120</ele>
        <time>2017-02-17T21:29:47Z</time>
      </trkpt>
      <trkpt lat="45.06732" lon="4.83938">
        <ele>118</ele>
        <time>2017-02-17T21:30:18Z</time>
      </trkpt>
      <trkpt lat="45.06711" lon="4.84024">
        <ele>116</ele>
        <time>2017-02-17T21:30:50Z</time>
      </trkpt>
      <trkpt lat="45.0669" lon="4.84109">
        <ele>116</ele>
        <time>2017-02-17T21:31:22Z</time>
      </trkpt>
      <trkpt lat="45.06668" lon="4.84194">
        <ele>116</ele>
        <time>2017-02-17T21:31:54Z</time>
      </trkpt>
      <trkpt lat="45.06647" lon="4.84279">
        <ele>118</ele>
        <time>2017-02-17T21:32:26Z</time>
      </trkpt>
      <trkpt lat="45.06626" lon="4.84364">
        <ele>116</ele>
        <time>2017-02-17T21:32:58Z</time>
      </trkpt>
      <trkpt lat="45.06605" lon="4.84448">
        <ele>119</ele>
        <time>2017-02-17T21:33:30Z</time>
      </trkpt>
      <trkpt lat="45.06583" lon="4.84527">
        <ele>119</ele>
        <time>2017-02-17T21:34:00Z</time>
      </trkpt>
      <trkpt lat="45.06561" lon="4.84607">
        <ele>117</ele>
        <time>2017-02-17T21:34:30Z</time>
      </trkpt>
      <trkpt lat="45.06539" lon="4.84686">
        <ele>116</ele>
        <time>2017-02-17T21:35:01Z</time>
      </trkpt>
      <trkpt lat="45.06517" lon="4.84766">
        <ele>116</ele>
        <time>2017-02-17T21:35:31Z</time>
      </trkpt>
      <trkpt lat="45.06494" lon="4.84846">
        <ele>116</ele>
        <time>2017-02-17T21:36:01Z</time>
      </trkpt>
      <trkpt lat="45.06472" lon="4.84925">
        <ele>116</ele>
        <time>2017-02-17T21:36:31Z</time>
      </trkpt>
      <trkpt lat="45.0645" lon="4.85005">
        <ele>116</ele>
        <time>2017-02-17T21:37:01Z</time>
      </trkpt>
      <trkpt lat="45.06428" lon="4.85084">
        <ele>116</ele>
        <time>2017-02-17T21:37:32Z</time>
      </trkpt>
      <trkpt lat="45.06406" lon="4.85162">
        <ele>116</ele>
        <time>2017-02-17T21:38:02Z</time>
      </trkpt>
      <trkpt lat="45.06371" lon="4.85236">
        <ele>115</ele>
        <time>2017-02-17T21:38:33Z</time>
      </trkpt>
      <trkpt lat="45.06336" lon="4.85311">
        <ele>115</ele>
        <time>2017-02-17T21:39:05Z</time>
      </trkpt>
      <trkpt lat="45.06301" lon="4.85385">
        <ele>115</ele>
        <time>2017-02-17T21:39:37Z</time>
      </trkpt>
      <trkpt lat="45.06266" lon="4.85459">
        <ele>115</ele>
        <time>2017-02-17T21:40:08Z</time>
      </trkpt>
      <trkpt lat="45.06231" lon="4.85533">
        <ele>115</ele>
        <time>2017-02-17T21:40:40Z</time>
      </trkpt>
      <trkpt lat="45.06196" lon="4.85606">
        <ele>115</ele>
        <time>2017-02-17T21:41:11Z</time>
      </trkpt>
      <trkpt lat="45.06147" lon="4.85654">
        <ele>115</ele>
        <time>2017-02-17T21:41:41Z</time>
      </trkpt>
      <trkpt lat="45.06098" lon="4.85702">
        <ele>115</ele>
        <time>2017-02-17T21:42:11Z</time>
      </trkpt>
      <trkpt lat="45.06049" lon="4.8575">
        <ele>115</ele>
        <time>2017-02-17T21:42:41Z</time>
      </trkpt>
      <trkpt lat="45.06" lon="4.85797">
        <ele>115</ele>
        <time>2017-02-17T21:43:10Z</time>
      </trkpt>
      <trkpt lat="45.05956" lon="4.85812">
        <ele>115</ele>
        <time>2017-02-17T21:43:33Z</time>
      </trkpt>
      <trkpt lat="45.05912" lon="4.85826">
        <ele>115</ele>
        <time>2017-02-17T21:43:55Z</time>
      </trkpt>
      <trkpt lat="45.05868" lon="4.8584">
        <ele>115</ele>
        <time>2017-02-17T21:44:18Z</time>
      </trkpt>
      <trkpt lat="45.05819" lon="4.85839">
        <ele>115</ele>
        <time>2017-02-17T21:44:42Z</time>
      </trkpt>
      <trkpt lat="45.0577" lon="4.85837">
        <ele>115</ele>
        <time>2017-02-17T21:45:07Z</time>
      </trkpt>
      <trkpt lat="45.05721" lon="4.85836">
        <ele>115</ele>
        <time>2017-02-17T21:45:31Z</time>
      </trkpt>
      <trkpt lat="45.05673" lon="4.85829">
        <ele>115</ele>
        <time>2017-02-17T21:45:56Z</time>
      </trkpt>
      <trkpt lat="45.05625" lon="4.85821">
        <ele>115</ele>
        <time>2017-02-17T21:46:20Z</time>
      </trkpt>
      <trkpt lat="45.05577" lon="4.85814">
        <ele>115</ele>
        <time>2017-02-17T21:46:44Z</time>
      </trkpt>
      <trkpt lat="45.05529" lon="4.85806">
        <ele>115</ele>
        <time>2017-02-17T21:47:08Z</time>
      </trkpt>
      <trkpt lat="45.05467" lon="4.85784">
        <ele>115</ele>
        <time>2017-02-17T21:47:40Z</time>
      </trkpt>
      <trkpt lat="45.05406" lon="4.85762">
        <ele>115</ele>
        <time>2017-02-17T21:48:12Z</time>
      </trkpt>
      <trkpt lat="45.05344" lon="4.85739">
        <ele>115</ele>
        <time>2017-02-17T21:48:44Z</time>
      </trkpt>
      <trkpt lat="45.0529" lon="4.85699">
        <ele>114</ele>
        <time>2017-02-17T21:49:14Z</time>
      </trkpt>
      <trkpt lat="45.05237" lon="4.85659">
        <ele>114</ele>
        <time>2017-02-17T21:49:44Z</time>
      </trkpt>
      <trkpt lat="45.05183" lon="4.85619">
        <ele>114</ele>
        <time>2017-02-17T21:50:15Z</time>
      </trkpt>
      <trkpt lat="45.05137" lon="4.8557">
        <ele>118</ele>
        <time>2017-02-17T21:50:44Z</time>
      </trkpt>
      <trkpt lat="45.0509" lon="4.85522">
        <ele>120</ele>
        <time>2017-02-17T21:51:13Z</time>
      </trkpt>
      <trkpt lat="45.05043" lon="4.85473">
        <ele>120</ele>
        <time>2017-02-17T21:51:42Z</time>
      </trkpt>
      <trkpt lat="45.04997" lon="4.85424">
        <ele>121</ele>
        <time>2017-02-17T21:52:11Z</time>
      </trkpt>
      <trkpt lat="45.04952" lon="4.85383">
        <ele>120</ele>
        <time>2017-02-17T21:52:37Z</time>
      </trkpt>
      <trkpt lat="45.04908" lon="4.85341">
        <ele>121</ele>
        <time>2017-02-17T21:53:04Z</time>
      </trkpt>
      <trkpt lat="45.04864" lon="4.853">
        <ele>121</ele>
        <time>2017-02-17T21:53:31Z</time>
      </trkpt>
      <trkpt lat="45.04819" lon="4.85259">
        <ele>117</ele>
        <time>2017-02-17T21:53:57Z</time>
      </trkpt>
      <trkpt lat="45.04774" lon="4.85209">
        <ele>114</ele>
        <time>2017-02-17T21:54:26Z</time>
      </trkpt>
      <trkpt lat="45.0473" lon="4.85158">
        <ele>114</ele>
        <time>2017-02-17T21:54:54Z</time>
      </trkpt>
      <trkpt lat="45.04685" lon="4.85108">
        <ele>114</ele>
        <time>2017-02-17T21:55:23Z</time>
      </trkpt>
      <trkpt lat="45.0464" lon="4.85058">
        <ele>114</ele>
        <time>2017-02-17T21:55:52Z</time>
      </trkpt>
      <trkpt lat="45.04595" lon="4.85008">
        <ele>114</ele>
        <time>2017-02-17T21:56:20Z</time>
      </trkpt>
      <trkpt lat="45.04548" lon="4.84956">
        <ele>113</ele>
        <time>2017-02-17T21:56:50Z</time>
      </trkpt>
      <trkpt lat="45.04502" lon="4.84903">
        <ele>113</ele>
        <time>2017-02-17T21:57:20Z</time>
      </trkpt>
      <trkpt lat="45.04455" lon="4.84851">
        <ele>113</ele>
        <time>2017-02-17T21:57:50Z</time>
      </trkpt>
      <trkpt lat="45.04408" lon="4.84799">
        <ele>113</ele>
        <time>2017-02-17T21:58:19Z</time>
      </trkpt>
      <trkpt lat="45.04362" lon="4.84747">
        <ele>113</ele>
        <time>2017-02-17T21:58:49Z</time>
      </trkpt>
      <trkpt lat="45.04315" lon="4.84694">
        <ele>115</ele>
        <time>2017-02-17T21:59:19Z</time>
      </trkpt>
      <trkpt lat="45.04268" lon="4.84642">
        <ele>118</ele>
        <time>2017-02-17T21:59:49Z</time>
      </trkpt>
      <trkpt lat="45.04222" lon="4.8459">
        <ele>115</ele>
        <time>2017-02-17T22:00:19Z</time>
      </trkpt>
      <trkpt lat="45.04175" lon="4.84538">
        <ele>113</ele>
        <time>2017-02-17T22:00:48Z</time>
      </trkpt>
      <trkpt lat="45.04129" lon="4.84485">
        <ele>113</ele>
        <time>2017-02-17T22:01:18Z</time>
      </trkpt>
      <trkpt lat="45.04082" lon="4.84433">
        <ele>113</ele>
        <time>2017-02-17T22:01:48Z</time>
      </trkpt>
      <trkpt lat="45.04036" lon="4.84381">
        <ele>113</ele>
        <time>2017-02-17T22:02:18Z</time>
      </trkpt>
      <trkpt lat="45.03985" lon="4.84338">
        <ele>113</ele>
        <time>2017-02-17T22:02:47Z</time>
      </trkpt>
      <trkpt lat="45.03935" lon="4.84294">
        <ele>113</ele>
        <time>2017-02-17T22:03:17Z</time>
      </trkpt>
      <trkpt lat="45.03885" lon="4.84251">
        <ele>113</ele>
        <time>2017-02-17T22:03:46Z</time>
      </trkpt>
      <trkpt lat="45.03835" lon="4.84208">
        <ele>113</ele>
        <time>2017-02-17T22:04:15Z</time>
      </trkpt>
      <trkpt lat="45.03784" lon="4.84164">
        <ele>113</ele>
        <time>2017-02-17T22:04:45Z</time>
      </trkpt>
      <trkpt lat="45.03734" lon="4.84121">
        <ele>113</ele>
        <time>2017-02-17T22:05:14Z</time>
      </trkpt>
      <trkpt lat="45.03684" lon="4.84077">
        <ele>113</ele>
        <time>2017-02-17T22:05:44Z</time>
      </trkpt>
      <trkpt lat="45.03634" lon="4.84034">
        <ele>113</ele>
        <time>2017-02-17T22:06:13Z</time>
      </trkpt>
      <trkpt lat="45.03584" lon="4.83991">
        <ele>113</ele>
        <time>2017-02-17T22:06:43Z</time>
      </trkpt>
      <trkpt lat="45.03528" lon="4.83967">
        <ele>113</ele>
        <time>2017-02-17T22:07:12Z</time>
      </trkpt>
      <trkpt lat="45.03473" lon="4.83943">
        <ele>113</ele>
        <time>2017-02-17T22:07:41Z</time>
      </trkpt>
      <trkpt lat="45.03417" lon="4.8392">
        <ele>113</ele>
        <time>2017-02-17T22:08:10Z</time>
      </trkpt>
      <trkpt lat="45.03361" lon="4.83896">
        <ele>113</ele>
        <time>2017-02-17T22:08:39Z</time>
      </trkpt>
      <trkpt lat="45.03306" lon="4.83873">
        <ele>113</ele>
        <time>2017-02-17T22:09:08Z</time>
      </trkpt>
      <trkpt lat="45.0325" lon="4.83849">
        <ele>113</ele>
        <time>2017-02-17T22:09:37Z</time>
      </trkpt>
      <trkpt lat="45.03193" lon="4.83856">
        <ele>113</ele>
        <time>2017-02-17T22:10:05Z</time>
      </trkpt>
      <trkpt lat="45.03136" lon="4.83863">
        <ele>113</ele>
        <time>2017-02-17T22:10:34Z</time>
      </trkpt>
      <trkpt lat="45.03079" lon="4.8387">
        <ele>113</ele>
        <time>2017-02-17T22:11:03Z</time>
      </trkpt>
      <trkpt lat="45.03022" lon="4.83876">
        <ele>113</ele>
        <time>2017-02-17T22:11:31Z</time>
      </trkpt>
      <trkpt lat="45.02965" lon="4.83883">
        <ele>113</ele>
        <time>2017-02-17T22:12:00Z</time>
      </trkpt>
      <trkpt lat="45.02907" lon="4.83919">
        <ele>113</ele>
        <time>2017-02-17T22:12:31Z</time>
      </trkpt>
      <trkpt lat="45.0285" lon="4.83954">
        <ele>113</ele>
        <time>2017-02-17T22:13:03Z</time>
      </trkpt>
      <trkpt lat="45.02792" lon="4.8399">
        <ele>113</ele>
        <time>2017-02-17T22:13:34Z</time>
      </trkpt>
      <trkpt lat="45.02735" lon="4.84026">
        <ele>113</ele>
        <time>2017-02-17T22:14:06Z</time>
      </trkpt>
      <trkpt lat="45.02677" lon="4.84061">
        <ele>113</ele>
        <time>2017-02-17T22:14:37Z</time>
      </trkpt>
      <trkpt lat="45.02619" lon="4.84097">
        <ele>113</ele>
        <time>2017-02-17T22:15:09Z</time>
      </trkpt>
      <trkpt lat="45.02562" lon="4.84132">
        <ele>113</ele>
        <time>2017-02-17T22:15:40Z</time>
      </trkpt>
      <trkpt lat="45.02512" lon="4.8418">
        <ele>113</ele>
        <time>2017-02-17T22:16:10Z</time>
      </trkpt>
      <trkpt lat="45.02463" lon="4.84228">
        <ele>113</ele>
        <time>2017-02-17T22:16:40Z</time>
      </trkpt>
      <trkpt lat="45.02413" lon="4.84276">
        <ele>114</ele>
        <time>2017-02-17T22:17:10Z</time>
      </trkpt>
      <trkpt lat="45.02364" lon="4.84324">
        <ele>113</ele>
        <time>2017-02-17T22:17:40Z</time>
      </trkpt>
      <trkpt lat="45.02315" lon="4.84371">
        <ele>113</ele>
        <time>2017-02-17T22:18:10Z</time>
      </trkpt>
      <trkpt lat="45.02265" lon="4.84419">
        <ele>115</ele>
        <time>2017-02-17T22:18:40Z</time>
      </trkpt>
      <trkpt lat="45.02216" lon="4.84467">
        <ele>113</ele>
        <time>2017-02-17T22:19:10Z</time>
      </trkpt>
      <trkpt lat="45.02155" lon="4.84473">
        <ele>112</ele>
        <time>2017-02-17T22:19:40Z</time>
      </trkpt>
      <trkpt lat="45.02095" lon="4.8448">
        <ele>112</ele>
        <time>2017-02-17T22:20:11Z</time>
      </trkpt>
      <trkpt lat="45.02034" lon="4.84486">
        <ele>112</ele>
        <time>2017-02-17T22:20:41Z</time>
      </trkpt>
      <trkpt lat="45.01973" lon="4.84493">
        <ele>112</ele>
        <time>2017-02-17T22:21:12Z</time>
      </trkpt>
      <trkpt lat="45.01913" lon="4.84499">
        <ele>112</ele>
        <time>2017-02-17T22:21:42Z</time>
      </trkpt>
      <trkpt lat="45.01852" lon="4.84506">
        <ele>112</ele>
        <time>2017-02-17T22:22:12Z</time>
      </trkpt>
      <trkpt lat="45.01799" lon="4.84467">
        <ele>112</ele>
        <time>2017-02-17T22:22:42Z</time>
      </trkpt>
      <trkpt lat="45.01747" lon="4.84428">
        <ele>112</ele>
        <time>2017-02-17T22:23:12Z</time>
      </trkpt>
      <trkpt lat="45.01694" lon="4.8439">
        <ele>112</ele>
        <time>2017-02-17T22:23:41Z</time>
      </trkpt>
      <trkpt lat="45.01641" lon="4.84351">
        <ele>112</ele>
        <time>2017-02-17T22:24:11Z</time>
      </trkpt>
      <trkpt lat="45.01589" lon="4.84313">
        <ele>112</ele>
        <time>2017-02-17T22:24:41Z</time>
      </trkpt>
      <trkpt lat="45.01536" lon="4.84274">
        <ele>112</ele>
        <time>2017-02-17T22:25:10Z</time>
      </trkpt>
      <trkpt lat="45.01483" lon="4.8424">
        <ele>111</ele>
        <time>2017-02-17T22:25:40Z</time>
      </trkpt>
      <trkpt lat="45.0143" lon="4.84205">
        <ele>111</ele>
        <time>2017-02-17T22:26:09Z</time>
      </trkpt>
      <trkpt lat="45.01376" lon="4.84171">
        <ele>111</ele>
        <time>2017-02-17T22:26:38Z</time>
      </trkpt>
      <trkpt lat="45.01323" lon="4.84137">
        <ele>111</ele>
        <time>2017-02-17T22:27:08Z</time>
      </trkpt>
      <trkpt lat="45.01269" lon="4.84102">
        <ele>111</ele>
        <time>2017-02-17T22:27:37Z</time>
      </trkpt>
      <trkpt lat="45.01216" lon="4.84068">
        <ele>111</ele>
        <time>2017-02-17T22:28:06Z</time>
      </trkpt>
      <trkpt lat="45.01163" lon="4.84034">
        <ele>111</ele>
        <time>2017-02-17T22:28:36Z</time>
      </trkpt>
      <trkpt lat="45.01109" lon="4.83999">
        <ele>111</ele>
        <time>2017-02-17T22:29:05Z</time>
      </trkpt>
      <trkpt lat="45.01056" lon="4.83965">
        <ele>111</ele>
        <time>2017-02-17T22:29:35Z</time>
      </trkpt>
      <trkpt lat="45.01002" lon="4.83931">
        <ele>111</ele>
        <time>2017-02-17T22:30:04Z</time>
      </trkpt>
      <trkpt lat="45.00943" lon="4.83905">
        <ele>111</ele>
        <time>2017-02-17T22:30:35Z</time>
      </trkpt>
      <trkpt lat="45.00883" lon="4.83879">
        <ele>111</ele>
        <time>2017-02-17T22:31:06Z</time>
      </trkpt>
      <trkpt lat="45.00823" lon="4.83853">
        <ele>110</ele>
        <time>2017-02-17T22:31:38Z</time>
      </trkpt>
      <trkpt lat="45.00764" lon="4.83828">
        <ele>110</ele>
        <time>2017-02-17T22:32:09Z</time>
      </trkpt>
      <trkpt lat="45.00704" lon="4.83802">
        <ele>110</ele>
        <time>2017-02-17T22:32:40Z</time>
      </trkpt>
      <trkpt lat="45.00644" lon="4.83776">
        <ele>110</ele>
        <time>2017-02-17T22:33:11Z</time>
      </trkpt>
      <trkpt lat="45.00584" lon="4.83787">
        <ele>110</ele>
        <time>2017-02-17T22:33:42Z</time>
      </trkpt>
      <trkpt lat="45.00523" lon="4.83798">
        <ele>110</ele>
        <time>2017-02-17T22:34:12Z</time>
      </trkpt>
      <trkpt lat="45.00479" lon="4.83849">
        <ele>110</ele>
        <time>2017-02-17T22:34:41Z</time>
      </trkpt>
      <trkpt lat="45.00435" lon="4.83901">
        <ele>110</ele>
        <time>2017-02-17T22:35:10Z</time>
      </trkpt>
      <trkpt lat="45.00391" lon="4.83952">
        <ele>110</ele>
        <time>2017-02-17T22:35:38Z</time>
      </trkpt>
      <trkpt lat="45.00347" lon="4.84004">
        <ele>110</ele>
        <time>2017-02-17T22:36:07Z</time>
      </trkpt>
      <trkpt lat="45.00309" lon="4.84062">
        <ele>110</ele>
        <time>2017-02-17T22:36:35Z</time>
      </trkpt>
      <trkpt lat="45.00271" lon="4.8412">
        <ele>109</ele>
        <time>2017-02-17T22:37:03Z</time>
      </trkpt>
      <trkpt lat="45.00233" lon="4.84178">
        <ele>109</ele>
        <time>2017-02-17T22:37:31Z</time>
      </trkpt>
      <trkpt lat="45.00195" lon="4.84236">
        <ele>109</ele>
        <time>2017-02-17T22:37:59Z</time>
      </trkpt>
      <trkpt lat="45.00157" lon="4.84294">
        <ele>109</ele>
        <time>2017-02-17T22:38:27Z</time>
      </trkpt>
      <trkpt lat="45.00119" lon="4.84351">
        <ele>108</ele>
        <time>2017-02-17T22:38:55Z</time>
      </trkpt>
      <trkpt lat="45.00073" lon="4.84411">
        <ele>108</ele>
        <time>2017-02-17T22:39:26Z</time>
      </trkpt>
      <trkpt lat="45.00026" lon="4.8447">
        <ele>108</ele>
        <time>2017-02-17T22:39:57Z</time>
      </trkpt>
      <trkpt lat="44.9998" lon="4.8453">
        <ele>108</ele>
        <time>2017-02-17T22:40:29Z</time>
      </trkpt>
      <trkpt lat="44.99934" lon="4.84589">
        <ele>110</ele>
        <time>2017-02-17T22:41:00Z</time>
      </trkpt>
      <trkpt lat="44.99887" lon="4.84649">
        <ele>111</ele>
        <time>2017-02-17T22:41:31Z</time>
      </trkpt>
      <trkpt lat="44.99841" lon="4.84708">
        <ele>110</ele>
        <time>2017-02-17T22:42:03Z</time>
      </trkpt>
      <trkpt lat="44.99795" lon="4.84767">
        <ele>109</ele>
        <time>2017-02-17T22:42:34Z</time>
      </trkpt>
      <trkpt lat="44.99751" lon="4.84818">
        <ele>110</ele>
        <time>2017-02-17T22:43:02Z</time>
      </trkpt>
      <trkpt lat="44.99708" lon="4.84869">
        <ele>108</ele>
        <time>2017-02-17T22:43:31Z</time>
      </trkpt>
      <trkpt lat="44.99664" lon="4.8492">
        <ele>109</ele>
        <time>2017-02-17T22:43:59Z</time>
      </trkpt>
      <trkpt lat="44.99621" lon="4.84971">
        <ele>108</ele>
        <time>2017-02-17T22:44:27Z</time>
      </trkpt>
      <trkpt lat="44.99577" lon="4.85021">
        <ele>108</ele>
        <time>2017-02-17T22:44:55Z</time>
      </trkpt>
      <trkpt lat="44.99534" lon="4.85072">
        <ele>108</ele>
        <time>2017-02-17T22:45:24Z</time>
      </trkpt>
      <trkpt lat="44.99478" lon="4.85102">
        <ele>109</ele>
        <time>2017-02-17T22:45:53Z</time>
      </trkpt>
      <trkpt lat="44.99423" lon="4.85132">
        <ele>108</ele>
        <time>2017-02-17T22:46:23Z</time>
      </trkpt>
      <trkpt lat="44.99368" lon="4.85162">
        <ele>109</ele>
        <time>2017-02-17T22:46:53Z</time>
      </trkpt>
      <trkpt lat="44.99312" lon="4.85192">
        <ele>108</ele>
        <time>2017-02-17T22:47:22Z</time>
      </trkpt>
      <trkpt lat="44.99254" lon="4.85204">
        <ele>108</ele>
        <time>2017-02-17T22:47:52Z</time>
      </trkpt>
      <trkpt lat="44.99196" lon="4.85216">
        <ele>108</ele>
        <time>2017-02-17T22:48:21Z</time>
      </trkpt>
      <trkpt lat="44.99137" lon="4.85228">
        <ele>109</ele>
        <time>2017-02-17T22:48:51Z</time>
      </trkpt>
      <trkpt lat="44.99079" lon="4.8524">
        <ele>108</ele>
        <time>2017-02-17T22:49:20Z</time>
      </trkpt>
      <trkpt lat="44.99021" lon="4.85252">
        <ele>108</ele>
        <time>2017-02-17T22:49:49Z</time>
      </trkpt>
      <trkpt lat="44.98963" lon="4.8525">
        <ele>108</ele>
        <time>2017-02-17T22:50:18Z</time>
      </trkpt>
      <trkpt lat="44.98905" lon="4.85248">
        <ele>109</ele>
        <time>2017-02-17T22:50:47Z</time>
      </trkpt>
      <trkpt lat="44.98848" lon="4.85246">
        <ele>109</ele>
        <time>2017-02-17T22:51:16Z</time>
      </trkpt>
      <trkpt lat="44.9879" lon="4.85244">
        <ele>110</ele>
        <time>2017-02-17T22:51:45Z</time>
      </trkpt>
      <trkpt lat="44.98733" lon="4.85242">
        <ele>110</ele>
        <time>2017-02-17T22:52:14Z</time>
      </trkpt>
      <trkpt lat="44.98675" lon="4.85239">
        <ele>109</ele>
        <time>2017-02-17T22:52:43Z</time>
      </trkpt>
      <trkpt lat="44.98617" lon="4.8524">
        <ele>109</ele>
        <time>2017-02-17T22:53:12Z</time>
      </trkpt>
      <trkpt lat="44.98559" lon="4.85241">
        <ele>110</ele>
        <time>2017-02-17T22:53:41Z</time>
      </trkpt>
      <trkpt lat="44.98501" lon="4.85242">
        <ele>110</ele>
        <time>2017-02-17T22:54:10Z</time>
      </trkpt>
      <trkpt lat="44.98443" lon="4.85243">
        <ele>110</ele>
        <time>2017-02-17T22:54:39Z</time>
      </trkpt>
      <trkpt lat="44.98385" lon="4.85244">
        <ele>111</ele>
        <time>2017-02-17T22:55:08Z</time>
      </trkpt>
      <trkpt lat="44.98327" lon="4.85245">
        <ele>110</ele>
        <time>2017-02-17T22:55:37Z</time>
      </trkpt>
      <trkpt lat="44.98269" lon="4.85246">
        <ele>109</ele>
        <time>2017-02-17T22:56:06Z</time>
      </trkpt>
      <trkpt lat="44.98211" lon="4.85247">
        <ele>108</ele>
        <time>2017-02-17T22:56:35Z</time>
      </trkpt>
      <trkpt lat="44.98153" lon="4.85248">
        <ele>110</ele>
        <time>2017-02-17T22:57:04Z</time>
      </trkpt>
      <trkpt lat="44.98095" lon="4.85262">
        <ele>109</ele>
        <time>2017-02-17T22:57:33Z</time>
      </trkpt>
      <trkpt lat="44.98038" lon="4.85277">
        <ele>109</ele>
        <time>2017-02-17T22:58:02Z</time>
      </trkpt>
      <trkpt lat="44.97981" lon="4.85291">
        <ele>106</ele>
        <time>2017-02-17T22:58:31Z</time>
      </trkpt>
      <trkpt lat="44.97924" lon="4.85305">
        <ele>108</ele>
        <time>2017-02-17T22:59:00Z</time>
      </trkpt>
      <trkpt lat="44.97867" lon="4.8532">
        <ele>110</ele>
        <time>2017-02-17T22:59:29Z</time>
      </trkpt>
      <trkpt lat="44.9781" lon="4.85334">
        <ele>109</ele>
        <time>2017-02-17T22:59:58Z</time>
      </trkpt>
      <trkpt lat="44.97749" lon="4.85358">
        <ele>108</ele>
        <time>2017-02-17T23:00:29Z</time>
      </trkpt>
      <trkpt lat="44.97689" lon="4.85383">
        <ele>109</ele>
        <time>2017-02-17T23:01:01Z</time>
      </trkpt>
      <trkpt lat="44.97629" lon="4.85407">
        <ele>110</ele>
        <time>2017-02-17T23:01:32Z</time>
      </trkpt>
      <trkpt lat="44.97569" lon="4.85432">
        <ele>108</ele>
        <time>2017-02-17T23:02:03Z</time>
      </trkpt>
      <trkpt lat="44.97508" lon="4.85456">
        <ele>108</ele>
        <time>2017-02-17T23:02:35Z</time>
      </trkpt>
      <trkpt lat="44.97448" lon="4.85481">
        <ele>108</ele>
        <time>2017-02-17T23:03:06Z</time>
      </trkpt>
      <trkpt lat="44.97388" lon="4.85506">
        <ele>109</ele>
        <time>2017-02-17T23:03:38Z</time>
      </trkpt>
      <trkpt lat="44.9733" lon="4.8554">
        <ele>107</ele>
        <time>2017-02-17T23:04:09Z</time>
      </trkpt>
      <trkpt lat="44.97272" lon="4.85574">
        <ele>108</ele>
        <time>2017-02-17T23:04:40Z</time>
      </trkpt>
      <trkpt lat="44.97215" lon="4.85609">
        <ele>109</ele>
        <time>2017-02-17T23:05:12Z</time>
      </trkpt>
      <trkpt lat="44.97157" lon="4.85643">
        <ele>110</ele>
        <time>2017-02-17T23:05:43Z</time>
      </trkpt>
      <trkpt lat="44.97099" lon="4.85677">
        <ele>110</ele>
        <time>2017-02-17T23:06:14Z</time>
      </trkpt>
      <trkpt lat="44.97041" lon="4.85712">
        <ele>110</ele>
        <time>2017-02-17T23:06:45Z</time>
      </trkpt>
      <trkpt lat="44.96989" lon="4.85745">
        <ele>111</ele>
        <time>2017-02-17T23:07:14Z</time>
      </trkpt>
      <trkpt lat="44.96936" lon="4.85778">
        <ele>109</ele>
        <time>2017-02-17T23:07:43Z</time>
      </trkpt>
      <trkpt lat="44.96883" lon="4.85811">
        <ele>108</ele>
        <time>2017-02-17T23:08:12Z</time>
      </trkpt>
      <trkpt lat="44.96831" lon="4.85845">
        <ele>110</ele>
        <time>2017-02-17T23:08:41Z</time>
      </trkpt>
      <trkpt lat="44.96778" lon="4.85878">
        <ele>109</ele>
        <time>2017-02-17T23:09:10Z</time>
      </trkpt>
      <trkpt lat="44.96725" lon="4.85911">
        <ele>110</ele>
        <time>2017-02-17T23:09:39Z</time>
      </trkpt>
      <trkpt lat="44.96672" lon="4.85944">
        <ele>109</ele>
        <time>2017-02-17T23:10:08Z</time>
      </trkpt>
      <trkpt lat="44.96619" lon="4.85978">
        <ele>111</ele>
        <time>2017-02-17T23:10:37Z</time>
      </trkpt>
      <trkpt lat="44.96574" lon="4.8603">
        <ele>109</ele>
        <time>2017-02-17T23:11:06Z</time>
      </trkpt>
      <trkpt lat="44.96528" lon="4.86083">
        <ele>109</ele>
        <time>2017-02-17T23:11:36Z</time>
      </trkpt>
      <trkpt lat="44.96483" lon="4.86135">
        <ele>108</ele>
        <time>2017-02-17T23:12:05Z</time>
      </trkpt>
      <trkpt lat="44.96437" lon="4.86188">
        <ele>110</ele>
        <time>2017-02-17T23:12:34Z</time>
      </trkpt>
      <trkpt lat="44.96392" lon="4.8624">
        <ele>110</ele>
        <time>2017-02-17T23:13:04Z</time>
      </trkpt>
      <trkpt lat="44.96346" lon="4.86293">
        <ele>108</ele>
        <time>2017-02-17T23:13:33Z</time>
      </trkpt>
      <trkpt lat="44.963" lon="4.86345">
        <ele>108</ele>
        <time>2017-02-17T23:14:03Z</time>
      </trkpt>
      <trkpt lat="44.96255" lon="4.86397">
        <ele>111</ele>
        <time>2017-02-17T23:14:32Z</time>
      </trkpt>
      <trkpt lat="44.9621" lon="4.8645">
        <ele>108</ele>
        <time>2017-02-17T23:15:01Z</time>
      </trkpt>
      <trkpt lat="44.9617" lon="4.86519">
        <ele>109</ele>
        <time>2017-02-17T23:15:33Z</time>
      </trkpt>
      <trkpt lat="44.9613" lon="4.86589">
        <ele>108</ele>
        <time>2017-02-17T23:16:05Z</time>
      </trkpt>
      <trkpt lat="44.96091" lon="4.86659">
        <ele>109</ele>
        <time>2017-02-17T23:16:36Z</time>
      </trkpt>
      <trkpt lat="44.96051" lon="4.86729">
        <ele>108</ele>
        <time>2017-02-17T23:17:08Z</time>
      </trkpt>
      <trkpt lat="44.96012" lon="4.86798">
        <ele>109</ele>
        <time>2017-02-17T23:17:40Z</time>
      </trkpt>
      <trkpt lat="44.95972" lon="4.86868">
        <ele>108</ele>
        <time>2017-02-17T23:18:11Z</time>
      </trkpt>
      <trkpt lat="44.95933" lon="4.86938">
        <ele>108</ele>
        <time>2017-02-17T23:18:43Z</time>
      </trkpt>
      <trkpt lat="44.95893" lon="4.87007">
        <ele>108</ele>
        <time>2017-02-17T23:19:15Z</time>
      </trkpt>
      <trkpt lat="44.95854" lon="4.87076">
        <ele>109</ele>
        <time>2017-02-17T23:19:46Z</time>
      </trkpt>
      <trkpt lat="44.95817" lon="4.87135">
        <ele>109</ele>
        <time>2017-02-17T23:20:14Z</time>
      </trkpt>
      <trkpt lat="44.9578" lon="4.87194">
        <ele>109</ele>
        <time>2017-02-17T23:20:42Z</time>
      </trkpt>
      <trkpt lat="44.95743" lon="4.87253">
        <ele>111</ele>
        <time>2017-02-17T23:21:10Z</time>
      </trkpt>
      <trkpt lat="44.95705" lon="4.87313">
        <ele>112</ele>
        <time>2017-02-17T23:21:38Z</time>
      </trkpt>
      <trkpt lat="44.95668" lon="4.87372">
        <ele>110</ele>
        <time>2017-02-17T23:22:06Z</time>
      </trkpt>
      <trkpt lat="44.95631" lon="4.87431">
        <ele>109</ele>
        <time>2017-02-17T23:22:34Z</time>
      </trkpt>
      <trkpt lat="44.95594" lon="4.8749">
        <ele>110</ele>
        <time>2017-02-17T23:23:02Z</time>
      </trkpt>
      <trkpt lat="44.95557" lon="4.87548">
        <ele>108</ele>
        <time>2017-02-17T23:23:30Z</time>
      </trkpt>
      <trkpt lat="44.95499" lon="4.87573">
        <ele>110</ele>
        <time>2017-02-17T23:24:00Z</time>
      </trkpt>
      <trkpt lat="44.95442" lon="4.87597">
        <ele>110</ele>
        <time>2017-02-17T23:24:30Z</time>
      </trkpt>
      <trkpt lat="44.95385" lon="4.87621">
        <ele>108</ele>
        <time>2017-02-17T23:25:00Z</time>
      </trkpt>
      <trkpt lat="44.95328" lon="4.87646">
        <ele>111</ele>
        <time>2017-02-17T23:25:30Z</time>
      </trkpt>
      <trkpt lat="44.95271" lon="4.8767">
        <ele>110</ele>
        <time>2017-02-17T23:26:00Z</time>
      </trkpt>
      <trkpt lat="44.95213" lon="4.87694">
        <ele>108</ele>
        <time>2017-02-17T23:26:30Z</time>
      </trkpt>
      <trkpt lat="44.95158" lon="4.87718">
        <ele>108</ele>
        <time>2017-02-17T23:26:58Z</time>
      </trkpt>
      <trkpt lat="44.95103" lon="4.87743">
        <ele>110</ele>
        <time>2017-02-17T23:27:27Z</time>
      </trkpt>
      <trkpt lat="44.95048" lon="4.87767">
        <ele>110</ele>
        <time>2017-02-17T23:27:56Z</time>
      </trkpt>
      <trkpt lat="44.94993" lon="4.87791">
        <ele>108</ele>
        <time>2017-02-17T23:28:25Z</time>
      </trkpt>
      <trkpt lat="44.94938" lon="4.87815">
        <ele>109</ele>
        <time>2017-02-17T23:28:54Z</time>
      </trkpt>
      <trkpt lat="44.94883" lon="4.87839">
        <ele>109</ele>
        <time>2017-02-17T23:29:23Z</time>
      </trkpt>
      <trkpt lat="44.94828" lon="4.87863">
        <ele>109</ele>
        <time>2017-02-17T23:29:51Z</time>
      </trkpt>
      <trkpt lat="44.94773" lon="4.87887">
        <ele>108</ele>
        <time>2017-02-17T23:30:20Z</time>
      </trkpt>
      <trkpt lat="44.94719" lon="4.87926">
        <ele>108</ele>
        <time>2017-02-17T23:30:50Z</time>
      </trkpt>
      <trkpt lat="44.94666" lon="4.87965">
        <ele>108</ele>
        <time>2017-02-17T23:31:21Z</time>
      </trkpt>
      <trkpt lat="44.94612" lon="4.88003">
        <ele>108</ele>
        <time>2017-02-17T23:31:51Z</time>
      </trkpt>
      <trkpt lat="44.94558" lon="4.88042">
        <ele>108</ele>
        <time>2017-02-17T23:32:21Z</time>
      </trkpt>
      <trkpt lat="44.94505" lon="4.8808">
        <ele>110</ele>
        <time>2017-02-17T23:32:51Z</time>
      </trkpt>
      <trkpt lat="44.94451" lon="4.88119">
        <ele>108</ele>
        <time>2017-02-17T23:33:21Z</time>
      </trkpt>
      <trkpt lat="44.944" lon="4.88164">
        <ele>112</ele>
        <time>2017-02-17T23:33:51Z</time>
      </trkpt>
      <trkpt lat="44.94349" lon="4.88209">
        <ele>112</ele>
        <time>2017-02-17T23:34:21Z</time>
      </trkpt>
      <trkpt lat="44.94298" lon="4.88254">
        <ele>106</ele>
        <time>2017-02-17T23:34:51Z</time>
      </trkpt>
      <trkpt lat="44.94247" lon="4.88298">
        <ele>108</ele>
        <time>2017-02-17T23:35:21Z</time>
      </trkpt>
      <trkpt lat="44.94196" lon="4.88343">
        <ele>109</ele>
        <time>2017-02-17T23:35:51Z</time>
      </trkpt>
      <trkpt lat="44.94145" lon="4.88388">
        <ele>109</ele>
        <time>2017-02-17T23:36:21Z</time>
      </trkpt>
      <trkpt lat="44.94094" lon="4.88433">
        <ele>108</ele>
        <time>2017-02-17T23:36:51Z</time>
      </trkpt>
      <trkpt lat="44.94043" lon="4.88478">
        <ele>109</ele>
        <time>2017-02-17T23:37:22Z</time>
      </trkpt>
      <trkpt lat="44.93992" lon="4.88523">
        <ele>108</ele>
        <time>2017-02-17T23:37:52Z</time>
      </trkpt>
      <trkpt lat="44.93932" lon="4.88535">
        <ele>107</ele>
        <time>2017-02-17T23:38:22Z</time>
      </trkpt>
      <trkpt lat="44.93871" lon="4.88547">
        <ele>106</ele>
        <time>2017-02-17T23:38:53Z</time>
      </trkpt>
      <trkpt lat="44.9381" lon="4.88559">
        <ele>110</ele>
        <time>2017-02-17T23:39:24Z</time>
      </trkpt>
      <trkpt lat="44.9375" lon="4.88571">
        <ele>108</ele>
        <time>2017-02-17T23:39:54Z</time>
      </trkpt>
      <trkpt lat="44.93689" lon="4.88583">
        <ele>107</ele>
        <time>2017-02-17T23:40:25Z</time>
      </trkpt>
      <trkpt lat="44.93629" lon="4.8856">
        <ele>107</ele>
        <time>2017-02-17T23:40:56Z</time>
      </trkpt>
      <trkpt lat="44.9357" lon="4.88538">
        <ele>107</ele>
        <time>2017-02-17T23:41:26Z</time>
      </trkpt>
      <trkpt lat="44.93511" lon="4.88515">
        <ele>107</ele>
        <time>2017-02-17T23:41:57Z</time>
      </trkpt>
      <trkpt lat="44.93452" lon="4.88492">
        <ele>107</ele>
        <time>2017-02-17T23:42:28Z</time>
      </trkpt>
      <trkpt lat="44.93401" lon="4.88443">
        <ele>108</ele>
        <time>2017-02-17T23:42:59Z</time>
      </trkpt>
      <trkpt lat="44.93349" lon="4.88394">
        <ele>111</ele>
        <time>2017-02-17T23:43:30Z</time>
      </trkpt>
      <trkpt lat="44.93298" lon="4.88344">
        <ele>108</ele>
        <time>2017-02-17T23:44:01Z</time>
      </trkpt>
      <trkpt lat="44.93247" lon="4.88295">
        <ele>107</ele>
        <time>2017-02-17T23:44:32Z</time>
      </trkpt>
      <trkpt lat="44.93196" lon="4.88246">
        <ele>107</ele>
        <time>2017-02-17T23:45:03Z</time>
      </trkpt>
      <trkpt lat="44.93145" lon="4.88196">
        <ele>107</ele>
        <time>2017-02-17T23:45:34Z</time>
      </trkpt>
      <trkpt lat="44.93094" lon="4.88147">
        <ele>107</ele>
        <time>2017-02-17T23:46:05Z</time>
      </trkpt>
      <trkpt lat="44.93043" lon="4.88098">
        <ele>107</ele>
        <time>2017-02-17T23:46:36Z</time>
      </trkpt>
      <trkpt lat="44.92992" lon="4.88048">
        <ele>107</ele>
        <time>2017-02-17T23:47:07Z</time>
      </trkpt>
      <trkpt lat="44.92941" lon="4.87999">
        <ele>107</ele>
        <time>2017-02-17T23:47:38Z</time>
      </trkpt>
      <trkpt lat="44.9289" lon="4.87949">
        <ele>107</ele>
        <time>2017-02-17T23:48:09Z</time>
      </trkpt>
      <trkpt lat="44.92839" lon="4.879">
        <ele>107</ele>
        <time>2017-02-17T23:48:40Z</time>
      </trkpt>
      <trkpt lat="44.92787" lon="4.87851">
        <ele>107</ele>
        <time>2017-02-17T23:49:10Z</time>
      </trkpt>
      <trkpt lat="44.92736" lon="4.87801">
        <ele>107</ele>
        <time>2017-02-17T23:49:41Z</time>
      </trkpt>
      <trkpt lat="44.92685" lon="4.87752">
        <ele>107</ele>
        <time>2017-02-17T23:50:12Z</time>
      </trkpt>
      <trkpt lat="44.92634" lon="4.87703">
        <ele>107</ele>
        <time>2017-02-17T23:50:43Z</time>
      </trkpt>
      <trkpt lat="44.92578" lon="4.87663">
        <ele>107</ele>
        <time>2017-02-17T23:51:15Z</time>
      </trkpt>
      <trkpt lat="44.92522" lon="4.87624">
        <ele>106</ele>
        <time>2017-02-17T23:51:46Z</time>
      </trkpt>
      <trkpt lat="44.92465" lon="4.87584">
        <ele>106</ele>
        <time>2017-02-17T23:52:18Z</time>
      </trkpt>
      <trkpt lat="44.92409" lon="4.87545">
        <ele>106</ele>
        <time>2017-02-17T23:52:50Z</time>
      </trkpt>
      <trkpt lat="44.92352" lon="4.87505">
        <ele>106</ele>
        <time>2017-02-17T23:53:21Z</time>
      </trkpt>
      <trkpt lat="44.92296" lon="4.87466">
        <ele>106</ele>
        <time>2017-02-17T23:53:53Z</time>
      </trkpt>
      <trkpt lat="44.92239" lon="4.87426">
        <ele>106</ele>
        <time>2017-02-17T23:54:24Z</time>
      </trkpt>
      <trkpt lat="44.92183" lon="4.87387">
        <ele>106</ele>
        <time>2017-02-17T23:54:56Z</time>
      </trkpt>
      <trkpt lat="44.92127" lon="4.87347">
        <ele>106</ele>
        <time>2017-02-17T23:55:27Z</time>
      </trkpt>
      <trkpt lat="44.9207" lon="4.87307">
        <ele>106</ele>
        <time>2017-02-17T23:55:59Z</time>
      </trkpt>
      <trkpt lat="44.92014" lon="4.87268">
        <ele>106</ele>
        <time>2017-02-17T23:56:30Z</time>
      </trkpt>
      <trkpt lat="44.91957" lon="4.87228">
        <ele>106</ele>
        <time>2017-02-17T23:57:02Z</time>
      </trkpt>
      <trkpt lat="44.91901" lon="4.87189">
        <ele>105</ele>
        <time>2017-02-17T23:57:33Z</time>
      </trkpt>
      <trkpt lat="44.91844" lon="4.87149">
        <ele>105</ele>
        <time>2017-02-17T23:58:05Z</time>
      </trkpt>
      <trkpt lat="44.9179" lon="4.87141">
        <ele>105</ele>
        <time>2017-02-17T23:58:32Z</time>
      </trkpt>
      <trkpt lat="44.91735" lon="4.87132">
        <ele>105</ele>
        <time>2017-02-17T23:59:00Z</time>
      </trkpt>
      <trkpt lat="44.9168" lon="4.87124">
        <ele>105</ele>
        <time>2017-02-17T23:59:27Z</time>
      </trkpt>
      <trkpt lat="44.91626" lon="4.87115">
        <ele>105</ele>
        <time>2017-02-17T23:59:55Z</time>
      </trkpt>
      <trkpt lat="44.91571" lon="4.87106">
        <ele>105</ele>
        <time>2017-02-18T00:00:22Z</time>
      </trkpt>
      <trkpt lat="44.91512" lon="4.87091">
        <ele>105</ele>
        <time>2017-02-18T00:00:52Z</time>
      </trkpt>
      <trkpt lat="44.91453" lon="4.87075">
        <ele>105</ele>
        <time>2017-02-18T00:01:22Z</time>
      </trkpt>
      <trkpt lat="44.91394" lon="4.8706">
        <ele>104</ele>
        <time>2017-02-18T00:01:52Z</time>
      </trkpt>
      <trkpt lat="44.91335" lon="4.87045">
        <ele>104</ele>
        <time>2017-02-18T00:02:22Z</time>
      </trkpt>
      <trkpt lat="44.91276" lon="4.87029">
        <ele>104</ele>
        <time>2017-02-18T00:02:52Z</time>
      </trkpt>
      <trkpt lat="44.91222" lon="4.86992">
        <ele>104</ele>
        <time>2017-02-18T00:03:22Z</time>
      </trkpt>
      <trkpt lat="44.91168" lon="4.86955">
        <ele>104</ele>
        <time>2017-02-18T00:03:52Z</time>
      </trkpt>
      <trkpt lat="44.91114" lon="4.86918">
        <ele>104</ele>
        <time>2017-02-18T00:04:23Z</time>
      </trkpt>
      <trkpt lat="44.9106" lon="4.86881">
        <ele>104</ele>
        <time>2017-02-18T00:04:53Z</time>
      </trkpt>
      <trkpt lat="44.91006" lon="4.86845">
        <ele>104</ele>
        <time>2017-02-18T00:05:23Z</time>
      </trkpt>
      <trkpt lat="44.90961" lon="4.8678">
        <ele>104</ele>
        <time>2017-02-18T00:05:55Z</time>
      </trkpt>
      <trkpt lat="44.90916" lon="4.86716">
        <ele>104</ele>
        <time>2017-02-18T00:06:27Z</time>
      </trkpt>
      <trkpt lat="44.90872" lon="4.86651">
        <ele>104</ele>
        <time>2017-02-18T00:06:59Z</time>
      </trkpt>
      <trkpt lat="44.90833" lon="4.86588">
        <ele>104</ele>
        <time>2017-02-18T00:07:28Z</time>
      </trkpt>
      <trkpt lat="44.90795" lon="4.86524">
        <ele>104</ele>
        <time>2017-02-18T00:07:58Z</time>
      </trkpt>
      <trkpt lat="44.90757" lon="4.8646">
        <ele>104</ele>
        <time>2017-02-18T00:08:28Z</time>
      </trkpt>
      <trkpt lat="44.90718" lon="4.86396">
        <ele>104</ele>
        <time>2017-02-18T00:08:57Z</time>
      </trkpt>
      <trkpt lat="44.9068" lon="4.86332">
        <ele>104</ele>
        <time>2017-02-18T00:09:27Z</time>
      </trkpt>
      <trkpt lat="44.90641" lon="4.86269">
        <ele>104</ele>
        <time>2017-02-18T00:09:57Z</time>
      </trkpt>
      <trkpt lat="44.90603" lon="4.86205">
        <ele>103</ele>
        <time>2017-02-18T00:10:26Z</time>
      </trkpt>
      <trkpt lat="44.90565" lon="4.86141">
        <ele>103</ele>
        <time>2017-02-18T00:10:56Z</time>
      </trkpt>
      <trkpt lat="44.90526" lon="4.86077">
        <ele>103</ele>
        <time>2017-02-18T00:11:26Z</time>
      </trkpt>
      <trkpt lat="44.90488" lon="4.86014">
        <ele>103</ele>
        <time>2017-02-18T00:11:55Z</time>
      </trkpt>
      <trkpt lat="44.9045" lon="4.8595">
        <ele>103</ele>
        <time>2017-02-18T00:12:25Z</time>
      </trkpt>
      <trkpt lat="44.90411" lon="4.85886">
        <ele>103</ele>
        <time>2017-02-18T00:12:55Z</time>
      </trkpt>
      <trkpt lat="44.90373" lon="4.85823">
        <ele>103</ele>
        <time>2017-02-18T00:13:24Z</time>
      </trkpt>
      <trkpt lat="44.90324" lon="4.85779">
        <ele>103</ele>
        <time>2017-02-18T00:13:54Z</time>
      </trkpt>
      <trkpt lat="44.90274" lon="4.85734">
        <ele>103</ele>
        <time>2017-02-18T00:14:23Z</time>
      </trkpt>
      <trkpt lat="44.90224" lon="4.8569">
        <ele>103</ele>
        <time>2017-02-18T00:14:52Z</time>
      </trkpt>
      <trkpt lat="44.90175" lon="4.85646">
        <ele>103</ele>
        <time>2017-02-18T00:15:22Z</time>
      </trkpt>
      <trkpt lat="44.90125" lon="4.85601">
        <ele>103</ele>
        <time>2017-02-18T00:15:51Z</time>
      </trkpt>
      <trkpt lat="44.90075" lon="4.85557">
        <ele>103</ele>
        <time>2017-02-18T00:16:21Z</time>
      </trkpt>
      <trkpt lat="44.90017" lon="4.85538">
        <ele>103</ele>
        <time>2017-02-18T00:16:51Z</time>
      </trkpt>
      <trkpt lat="44.89959" lon="4.85519">
        <ele>103</ele>
        <time>2017-02-18T00:17:21Z</time>
      </trkpt>
      <trkpt lat="44.899" lon="4.855">
        <ele>103</ele>
        <time>2017-02-18T00:17:51Z</time>
      </trkpt>
      <trkpt lat="44.89842" lon="4.85482">
        <ele>103</ele>
        <time>2017-02-18T00:18:20Z</time>
      </trkpt>
      <trkpt lat="44.89784" lon="4.85463">
        <ele>103</ele>
        <time>2017-02-18T00:18:50Z</time>
      </trkpt>
      <trkpt lat="44.89724" lon="4.8546">
        <ele>102</ele>
        <time>2017-02-18T00:19:20Z</time>
      </trkpt>
      <trkpt lat="44.89664" lon="4.85457">
        <ele>102</ele>
        <time>2017-02-18T00:19:50Z</time>
      </trkpt>
      <trkpt lat="44.89604" lon="4.85454">
        <ele>102</ele>
        <time>2017-02-18T00:20:20Z</time>
      </trkpt>
      <trkpt lat="44.89545" lon="4.85451">
        <ele>102</ele>
        <time>2017-02-18T00:20:50Z</time>
      </trkpt>
      <trkpt lat="44.89485" lon="4.85448">
        <ele>102</ele>
        <time>2017-02-18T00:21:20Z</time>
      </trkpt>
      <trkpt lat="44.89425" lon="4.85446">
        <ele>102</ele>
        <time>2017-02-18T00:21:50Z</time>
      </trkpt>
      <trkpt lat="44.89365" lon="4.85443">
        <ele>102</ele>
        <time>2017-02-18T00:22:20Z</time>
      </trkpt>
      <trkpt lat="44.89306" lon="4.8544">
        <ele>102</ele>
        <time>2017-02-18T00:22:50Z</time>
      </trkpt>
      <trkpt lat="44.89245" lon="4.85437">
        <ele>102</ele>
        <time>2017-02-18T00:23:20Z</time>
      </trkpt>
      <trkpt lat="44.89186" lon="4.8545">
        <ele>102</ele>
        <time>2017-02-18T00:23:50Z</time>
      </trkpt>
      <trkpt lat="44.89126" lon="4.85464">
        <ele>102</ele>
        <time>2017-02-18T00:24:20Z</time>
      </trkpt>
      <trkpt lat="44.89066" lon="4.85478">
        <ele>102</ele>
        <time>2017-02-18T00:24:51Z</time>
      </trkpt>
      <trkpt lat="44.89006" lon="4.85491">
        <ele>102</ele>
        <time>2017-02-18T00:25:21Z</time>
      </trkpt>
      <trkpt lat="44.88947" lon="4.85505">
        <ele>102</ele>
        <time>2017-02-18T00:25:51Z</time>
      </trkpt>
      <trkpt lat="44.88887" lon="4.85518">
        <ele>102</ele>
        <time>2017-02-18T00:26:21Z</time>
      </trkpt>
      <trkpt lat="44.88831" lon="4.85559">
        <ele>102</ele>
        <time>2017-02-18T00:26:53Z</time>
      </trkpt>
      <trkpt lat="44.88775" lon="4.85599">
        <ele>101</ele>
        <time>2017-02-18T00:27:24Z</time>
      </trkpt>
      <trkpt lat="44.88719" lon="4.85639">
        <ele>101</ele>
        <time>2017-02-18T00:27:56Z</time>
      </trkpt>
      <trkpt lat="44.88663" lon="4.8568">
        <ele>101</ele>
        <time>2017-02-18T00:28:27Z</time>
      </trkpt>
      <trkpt lat="44.88607" lon="4.8572">
        <ele>101</ele>
        <time>2017-02-18T00:28:59Z</time>
      </trkpt>
      <trkpt lat="44.88551" lon="4.8576">
        <ele>101</ele>
        <time>2017-02-18T00:29:30Z</time>
      </trkpt>
      <trkpt lat="44.88495" lon="4.85801">
        <ele>101</ele>
        <time>2017-02-18T00:30:02Z</time>
      </trkpt>
      <trkpt lat="44.88439" lon="4.85841">
        <ele>101</ele>
        <time>2017-02-18T00:30:33Z</time>
      </trkpt>
      <trkpt lat="44.88383" lon="4.85881">
        <ele>101</ele>
        <time>2017-02-18T00:31:04Z</time>
      </trkpt>
      <trkpt lat="44.88327" lon="4.85922">
        <ele>101</ele>
        <time>2017-02-18T00:31:36Z</time>
      </trkpt>
      <trkpt lat="44.88272" lon="4.85946">
        <ele>101</ele>
        <time>2017-02-18T00:32:05Z</time>
      </trkpt>
      <trkpt lat="44.88216" lon="4.8597">
        <ele>101</ele>
        <time>2017-02-18T00:32:34Z</time>
      </trkpt>
      <trkpt lat="44.8816" lon="4.85995">
        <ele>101</ele>
        <time>2017-02-18T00:33:03Z</time>
      </trkpt>
      <trkpt lat="44.88104" lon="4.86019">
        <ele>100</ele>
        <time>2017-02-18T00:33:33Z</time>
      </trkpt>
      <trkpt lat="44.88049" lon="4.86043">
        <ele>100</ele>
        <time>2017-02-18T00:34:02Z</time>
      </trkpt>
      <trkpt lat="44.87993" lon="4.86068">
        <ele>100</ele>
        <time>2017-02-18T00:34:31Z</time>
      </trkpt>
      <trkpt lat="44.87932" lon="4.86066">
        <ele>100</ele>
        <time>2017-02-18T00:35:01Z</time>
      </trkpt>
      <trkpt lat="44.87871" lon="4.86065">
        <ele>100</ele>
        <time>2017-02-18T00:35:32Z</time>
      </trkpt>
      <trkpt lat="44.8781" lon="4.86063">
        <ele>100</ele>
        <time>2017-02-18T00:36:02Z</time>
      </trkpt>
      <trkpt lat="44.8775" lon="4.86062">
        <ele>100</ele>
        <time>2017-02-18T00:36:33Z</time>
      </trkpt>
      <trkpt lat="44.87689" lon="4.86061">
        <ele>100</ele>
        <time>2017-02-18T00:37:03Z</time>
      </trkpt>
      <trkpt lat="44.87628" lon="4.86059">
        <ele>100</ele>
        <time>2017-02-18T00:37:33Z</time>
      </trkpt>
      <trkpt lat="44.87565" lon="4.86046">
        <ele>99</ele>
        <time>2017-02-18T00:38:05Z</time>
      </trkpt>
      <trkpt lat="44.87503" lon="4.86033">
        <ele>99</ele>
        <time>2017-02-18T00:38:37Z</time>
      </trkpt>
      <trkpt lat="44.8744" lon="4.86021">
        <ele>99</ele>
        <time>2017-02-18T00:39:08Z</time>
      </trkpt>
      <trkpt lat="44.87377" lon="4.86008">
        <ele>99</ele>
        <time>2017-02-18T00:39:40Z</time>
      </trkpt>
      <trkpt lat="44.87315" lon="4.85995">
        <ele>99</ele>
        <time>2017-02-18T00:40:12Z</time>
      </trkpt>
      <trkpt lat="44.87269" lon="4.85944">
        <ele>99</ele>
        <time>2017-02-18T00:40:41Z</time>
      </trkpt>
      <trkpt lat="44.87222" lon="4.85893">
        <ele>99</ele>
        <time>2017-02-18T00:41:10Z</time>
      </trkpt>
      <trkpt lat="44.87176" lon="4.85842">
        <ele>99</ele>
        <time>2017-02-18T00:41:40Z</time>
      </trkpt>
      <trkpt lat="44.8713" lon="4.85791">
        <ele>98</ele>
        <time>2017-02-18T00:42:09Z</time>
      </trkpt>
      <trkpt lat="44.87084" lon="4.8574">
        <ele>98</ele>
        <time>2017-02-18T00:42:38Z</time>
      </trkpt>
      <trkpt lat="44.87038" lon="4.85689">
        <ele>98</ele>
        <time>2017-02-18T00:43:08Z</time>
      </trkpt>
      <trkpt lat="44.86992" lon="4.85639">
        <ele>97</ele>
        <time>2017-02-18T00:43:37Z</time>
      </trkpt>
      <trkpt lat="44.86946" lon="4.85583">
        <ele>97</ele>
        <time>2017-02-18T00:44:07Z</time>
      </trkpt>
      <trkpt lat="44.869" lon="4.85527">
        <ele>97</ele>
        <time>2017-02-18T00:44:38Z</time>
      </trkpt>
      <trkpt lat="44.86854" lon="4.85471">
        <ele>97</ele>
        <time>2017-02-18T00:45:08Z</time>
      </trkpt>
      <trkpt lat="44.86808" lon="4.85415">
        <ele>97</ele>
        <time>2017-02-18T00:45:38Z</time>
      </trkpt>
      <trkpt lat="44.86762" lon="4.85359">
        <ele>97</ele>
        <time>2017-02-18T00:46:09Z</time>
      </trkpt>
      <trkpt lat="44.86716" lon="4.85304">
        <ele>97</ele>
        <time>2017-02-18T00:46:39Z</time>
      </trkpt>
      <trkpt lat="44.8667" lon="4.85248">
        <ele>97</ele>
        <time>2017-02-18T00:47:10Z</time>
      </trkpt>
      <trkpt lat="44.86624" lon="4.85192">
        <ele>96</ele>
        <time>2017-02-18T00:47:40Z</time>
      </trkpt>
      <trkpt lat="44.86577" lon="4.85136">
        <ele>96</ele>
        <time>2017-02-18T00:48:10Z</time>
      </trkpt>
      <trkpt lat="44.86531" lon="4.8508">
        <ele>96</ele>
        <time>2017-02-18T00:48:41Z</time>
      </trkpt>
      <trkpt lat="44.86485" lon="4.85025">
        <ele>96</ele>
        <time>2017-02-18T00:49:11Z</time>
      </trkpt>
      <trkpt lat="44.86439" lon="4.84969">
        <ele>95</ele>
        <time>2017-02-18T00:49:42Z</time>
      </trkpt>
      <trkpt lat="44.86393" lon="4.84913">
        <ele>95</ele>
        <time>2017-02-18T00:50:12Z</time>
      </trkpt>
      <trkpt lat="44.86347" lon="4.84858">
        <ele>95</ele>
        <time>2017-02-18T00:50:42Z</time>
      </trkpt>
      <trkpt lat="44.86293" lon="4.84813">
        <ele>95</ele>
        <time>2017-02-18T00:51:14Z</time>
      </trkpt>
      <trkpt lat="44.86239" lon="4.84768">
        <ele>95</ele>
        <time>2017-02-18T00:51:45Z</time>
      </trkpt>
      <trkpt lat="44.86185" lon="4.84723">
        <ele>95</ele>
        <time>2017-02-18T00:52:17Z</time>
      </trkpt>
      <trkpt lat="44.86131" lon="4.84678">
        <ele>95</ele>
        <time>2017-02-18T00:52:48Z</time>
      </trkpt>
      <trkpt lat="44.86077" lon="4.84633">
        <ele>95</ele>
        <time>2017-02-18T00:53:19Z</time>
      </trkpt>
      <trkpt lat="44.86023" lon="4.84589">
        <ele>95</ele>
        <time>2017-02-18T00:53:51Z</time>
      </trkpt>
      <trkpt lat="44.85969" lon="4.84544">
        <ele>95</ele>
        <time>2017-02-18T00:54:22Z</time>
      </trkpt>
      <trkpt lat="44.85915" lon="4.84499">
        <ele>95</ele>
        <time>2017-02-18T00:54:54Z</time>
      </trkpt>
      <trkpt lat="44.85861" lon="4.84454">
        <ele>95</ele>
        <time>2017-02-18T00:55:25Z</time>
      </trkpt>
      <trkpt lat="44.85797" lon="4.84449">
        <ele>95</ele>
        <time>2017-02-18T00:55:57Z</time>
      </trkpt>
      <trkpt lat="44.85734" lon="4.84444">
        <ele>95</ele>
        <time>2017-02-18T00:56:29Z</time>
      </trkpt>
      <trkpt lat="44.8567" lon="4.84439">
        <ele>95</ele>
        <time>2017-02-18T00:57:00Z</time>
      </trkpt>
      <trkpt lat="44.85607" lon="4.84435">
        <ele>95</ele>
        <time>2017-02-18T00:57:32Z</time>
      </trkpt>
      <trkpt lat="44.85544" lon="4.8443">
        <ele>95</ele>
        <time>2017-02-18T00:58:04Z</time>
      </trkpt>
      <trkpt lat="44.8548" lon="4.84425">
        <ele>95</ele>
        <time>2017-02-18T00:58:36Z</time>
      </trkpt>
      <trkpt lat="44.85417" lon="4.8442">
        <ele>95</ele>
        <time>2017-02-18T00:59:07Z</time>
      </trkpt>
      <trkpt lat="44.85357" lon="4.84423">
        <ele>95</ele>
        <time>2017-02-18T00:59:37Z</time>
      </trkpt>
      <trkpt lat="44.85297" lon="4.84427">
        <ele>95</ele>
        <time>2017-02-18T01:00:07Z</time>
      </trkpt>
      <trkpt lat="44.85237" lon="4.8443">
        <ele>95</ele>
        <time>2017-02-18T01:00:37Z</time>
      </trkpt>
      <trkpt lat="44.85178" lon="4.84434">
        <ele>95</ele>
        <time>2017-02-18T01:01:07Z</time>
      </trkpt>
      <trkpt lat="44.85118" lon="4.84437">
        <ele>95</ele>
        <time>2017-02-18T01:01:37Z</time>
      </trkpt>
      <trkpt lat="44.85058" lon="4.84441">
        <ele>95</ele>
        <time>2017-02-18T01:02:07Z</time>
      </trkpt>
      <trkpt lat="44.84999" lon="4.84444">
        <ele>95</ele>
        <time>2017-02-18T01:02:37Z</time>
      </trkpt>
      <trkpt lat="44.84939" lon="4.84448">
        <ele>95</ele>
        <time>2017-02-18T01:03:07Z</time>
      </trkpt>
      <trkpt lat="44.84879" lon="4.84451">
        <ele>95</ele>
        <time>2017-02-18T01:03:37Z</time>
      </trkpt>
      <trkpt lat="44.8482" lon="4.84455">
        <ele>95</ele>
        <time>2017-02-18T01:04:06Z</time>
      </trkpt>
      <trkpt lat="44.84759" lon="4.84458">
        <ele>95</ele>
        <time>2017-02-18T01:04:36Z</time>
      </trkpt>
      <trkpt lat="44.847" lon="4.8444">
        <ele>96</ele>
        <time>2017-02-18T01:05:07Z</time>
      </trkpt>
      <trkpt lat="44.8464" lon="4.84421">
        <ele>95</ele>
        <time>2017-02-18T01:05:38Z</time>
      </trkpt>
      <trkpt lat="44.8458" lon="4.84403">
        <ele>95</ele>
        <time>2017-02-18T01:06:08Z</time>
      </trkpt>
      <trkpt lat="44.84534" lon="4.84364">
        <ele>95</ele>
        <time>2017-02-18T01:06:35Z</time>
      </trkpt>
      <trkpt lat="44.84488" lon="4.84325">
        <ele>95</ele>
        <time>2017-02-18T01:07:02Z</time>
      </trkpt>
      <trkpt lat="44.84441" lon="4.84287">
        <ele>95</ele>
        <time>2017-02-18T01:07:29Z</time>
      </trkpt>
      <trkpt lat="44.84395" lon="4.84248">
        <ele>95</ele>
        <time>2017-02-18T01:07:56Z</time>
      </trkpt>
      <trkpt lat="44.84349" lon="4.8421">
        <ele>95</ele>
        <time>2017-02-18T01:08:23Z</time>
      </trkpt>
      <trkpt lat="44.84303" lon="4.84171">
        <ele>95</ele>
        <time>2017-02-18T01:08:49Z</time>
      </trkpt>
      <trkpt lat="44.84268" lon="4.84098">
        <ele>95</ele>
        <time>2017-02-18T01:09:21Z</time>
      </trkpt>
      <trkpt lat="44.84234" lon="4.84025">
        <ele>95</ele>
        <time>2017-02-18T01:09:52Z</time>
      </trkpt>
      <trkpt lat="44.84199" lon="4.83952">
        <ele>95</ele>
        <time>2017-02-18T01:10:23Z</time>
      </trkpt>
      <trkpt lat="44.84187" lon="4.8387">
        <ele>96</ele>
        <time>2017-02-18T01:10:53Z</time>
      </trkpt>
      <trkpt lat="44.84174" lon="4.83787">
        <ele>95</ele>
        <time>2017-02-18T01:11:23Z</time>
      </trkpt>
      <trkpt lat="44.84161" lon="4.83705">
        <ele>95</ele>
        <time>2017-02-18T01:11:53Z</time>
      </trkpt>
      <trkpt lat="44.84149" lon="4.83622">
        <ele>95</ele>
        <time>2017-02-18T01:12:23Z</time>
      </trkpt>
      <trkpt lat="44.84136" lon="4.8354">
        <ele>95</ele>
        <time>2017-02-18T01:12:53Z</time>
      </trkpt>
      <trkpt lat="44.84123" lon="4.83459">
        <ele>95</ele>
        <time>2017-02-18T01:13:23Z</time>
      </trkpt>
      <trkpt lat="44.84115" lon="4.83373">
        <ele>95</ele>
        <time>2017-02-18T01:13:53Z</time>
      </trkpt>
      <trkpt lat="44.84106" lon="4.83287">
        <ele>94</ele>
        <time>2017-02-18T01:14:24Z</time>
      </trkpt>
      <trkpt lat="44.84098" lon="4.83202">
        <ele>94</ele>
        <time>2017-02-18T01:14:55Z</time>
      </trkpt>
      <trkpt lat="44.84089" lon="4.83116">
        <ele>95</ele>
        <time>2017-02-18T01:15:25Z</time>
      </trkpt>
      <trkpt lat="44.8408" lon="4.8303">
        <ele>95</ele>
        <time>2017-02-18T01:15:56Z</time>
      </trkpt>
      <trkpt lat="44.84072" lon="4.82945">
        <ele>97</ele>
        <time>2017-02-18T01:16:27Z</time>
      </trkpt>
      <trkpt lat="44.84063" lon="4.82859">
        <ele>94</ele>
        <time>2017-02-18T01:16:57Z</time>
      </trkpt>
      <trkpt lat="44.84055" lon="4.82773">
        <ele>94</ele>
        <time>2017-02-18T01:17:28Z</time>
      </trkpt>
      <trkpt lat="44.84046" lon="4.82688">
        <ele>94</ele>
        <time>2017-02-18T01:17:59Z</time>
      </trkpt>
      <trkpt lat="44.84037" lon="4.82602">
        <ele>94</ele>
        <time>2017-02-18T01:18:30Z</time>
      </trkpt>
      <trkpt lat="44.84029" lon="4.82519">
        <ele>94</ele>
        <time>2017-02-18T01:19:00Z</time>
      </trkpt>
      <trkpt lat="44.84008" lon="4.82454">
        <ele>94</ele>
        <time>2017-02-18T01:19:25Z</time>
      </trkpt>
      <trkpt lat="44.83988" lon="4.8239">
        <ele>94</ele>
        <time>2017-02-18T01:19:50Z</time>
      </trkpt>
      <trkpt lat="44.83967" lon="4.82325">
        <ele>94</ele>
        <time>2017-02-18T01:20:16Z</time>
      </trkpt>
      <trkpt lat="44.83947" lon="4.82261">
        <ele>96</ele>
        <time>2017-02-18T01:20:41Z</time>
      </trkpt>
      <trkpt lat="44.83903" lon="4.82215">
        <ele>96</ele>
        <time>2017-02-18T01:21:08Z</time>
      </trkpt>
      <trkpt lat="44.83859" lon="4.82169">
        <ele>95</ele>
        <time>2017-02-18T01:21:36Z</time>
      </trkpt>
      <trkpt lat="44.83814" lon="4.82123">
        <ele>95</ele>
        <time>2017-02-18T01:22:03Z</time>
      </trkpt>
      <trkpt lat="44.8377" lon="4.82077">
        <ele>97</ele>
        <time>2017-02-18T01:22:31Z</time>
      </trkpt>
      <trkpt lat="44.83711" lon="4.82052">
        <ele>94</ele>
        <time>2017-02-18T01:23:02Z</time>
      </trkpt>
      <trkpt lat="44.83651" lon="4.82028">
        <ele>95</ele>
        <time>2017-02-18T01:23:33Z</time>
      </trkpt>
      <trkpt lat="44.83591" lon="4.82004">
        <ele>94</ele>
        <time>2017-02-18T01:24:04Z</time>
      </trkpt>
      <trkpt lat="44.83532" lon="4.81995">
        <ele>94</ele>
        <time>2017-02-18T01:24:34Z</time>
      </trkpt>
      <trkpt lat="44.83474" lon="4.81987">
        <ele>94</ele>
        <time>2017-02-18T01:25:03Z</time>
      </trkpt>
      <trkpt lat="44.83416" lon="4.81978">
        <ele>95</ele>
        <time>2017-02-18T01:25:32Z</time>
      </trkpt>
      <trkpt lat="44.83357" lon="4.81969">
        <ele>96</ele>
        <time>2017-02-18T01:26:02Z</time>
      </trkpt>
      <trkpt lat="44.83299" lon="4.81961">
        <ele>98</ele>
        <time>2017-02-18T01:26:31Z</time>
      </trkpt>
      <trkpt lat="44.83245" lon="4.81975">
        <ele>97</ele>
        <time>2017-02-18T01:26:58Z</time>
      </trkpt>
      <trkpt lat="44.83191" lon="4.81989">
        <ele>96</ele>
        <time>2017-02-18T01:27:26Z</time>
      </trkpt>
      <trkpt lat="44.83138" lon="4.82004">
        <ele>95</ele>
        <time>2017-02-18T01:27:53Z</time>
      </trkpt>
      <trkpt lat="44.83084" lon="4.82018">
        <ele>94</ele>
        <time>2017-02-18T01:28:21Z</time>
      </trkpt>
      <trkpt lat="44.8303" lon="4.82032">
        <ele>94</ele>
        <time>2017-02-18T01:28:48Z</time>
      </trkpt>
      <trkpt lat="44.82976" lon="4.82047">
        <ele>94</ele>
        <time>2017-02-18T01:29:15Z</time>
      </trkpt>
      <trkpt lat="44.82918" lon="4.82059">
        <ele>94</ele>
        <time>2017-02-18T01:29:45Z</time>
      </trkpt>
      <trkpt lat="44.8286" lon="4.82072">
        <ele>94</ele>
        <time>2017-02-18T01:30:14Z</time>
      </trkpt>
      <trkpt lat="44.82802" lon="4.82085">
        <ele>94</ele>
        <time>2017-02-18T01:30:44Z</time>
      </trkpt>
      <trkpt lat="44.82744" lon="4.82098">
        <ele>96</ele>
        <time>2017-02-18T01:31:13Z</time>
      </trkpt>
      <trkpt lat="44.82685" lon="4.82111">
        <ele>95</ele>
        <time>2017-02-18T01:31:42Z</time>
      </trkpt>
      <trkpt lat="44.82627" lon="4.82124">
        <ele>94</ele>
        <time>2017-02-18T01:32:12Z</time>
      </trkpt>
      <trkpt lat="44.82569" lon="4.82137">
        <ele>94</ele>
        <time>2017-02-18T01:32:41Z</time>
      </trkpt>
      <trkpt lat="44.82511" lon="4.8215">
        <ele>94</ele>
        <time>2017-02-18T01:33:11Z</time>
      </trkpt>
      <trkpt lat="44.82453" lon="4.82162">
        <ele>94</ele>
        <time>2017-02-18T01:33:40Z</time>
      </trkpt>
      <trkpt lat="44.82393" lon="4.82169">
        <ele>97</ele>
        <time>2017-02-18T01:34:10Z</time>
      </trkpt>
      <trkpt lat="44.82333" lon="4.82175">
        <ele>98</ele>
        <time>2017-02-18T01:34:40Z</time>
      </trkpt>
      <trkpt lat="44.82273" lon="4.82182">
        <ele>97</ele>
        <time>2017-02-18T01:35:10Z</time>
      </trkpt>
      <trkpt lat="44.82213" lon="4.82188">
        <ele>96</ele>
        <time>2017-02-18T01:35:41Z</time>
      </trkpt>
      <trkpt lat="44.82153" lon="4.82195">
        <ele>95</ele>
        <time>2017-02-18T01:36:11Z</time>
      </trkpt>
      <trkpt lat="44.82093" lon="4.82201">
        <ele>94</ele>
        <time>2017-02-18T01:36:41Z</time>
      </trkpt>
      <trkpt lat="44.82033" lon="4.82207">
        <ele>94</ele>
        <time>2017-02-18T01:37:11Z</time>
      </trkpt>
      <trkpt lat="44.81973" lon="4.82214">
        <ele>94</ele>
        <time>2017-02-18T01:37:41Z</time>
      </trkpt>
      <trkpt lat="44.81913" lon="4.8222">
        <ele>94</ele>
        <time>2017-02-18T01:38:11Z</time>
      </trkpt>
      <trkpt lat="44.81853" lon="4.82227">
        <ele>94</ele>
        <time>2017-02-18T01:38:41Z</time>
      </trkpt>
      <trkpt lat="44.81798" lon="4.82213">
        <ele>94</ele>
        <time>2017-02-18T01:39:09Z</time>
      </trkpt>
      <trkpt lat="44.81743" lon="4.822">
        <ele>94</ele>
        <time>2017-02-18T01:39:37Z</time>
      </trkpt>
      <trkpt lat="44.81687" lon="4.82187">
        <ele>95</ele>
        <time>2017-02-18T01:40:05Z</time>
      </trkpt>
      <trkpt lat="44.81632" lon="4.82173">
        <ele>95</ele>
        <time>2017-02-18T01:40:33Z</time>
      </trkpt>
      <trkpt lat="44.81577" lon="4.8216">
        <ele>96</ele>
        <time>2017-02-18T01:41:01Z</time>
      </trkpt>
      <trkpt lat="44.81522" lon="4.82146">
        <ele>96</ele>
        <time>2017-02-18T01:41:29Z</time>
      </trkpt>
      <trkpt lat="44.81467" lon="4.82133">
        <ele>94</ele>
        <time>2017-02-18T01:41:57Z</time>
      </trkpt>
      <trkpt lat="44.81411" lon="4.8212">
        <ele>94</ele>
        <time>2017-02-18T01:42:25Z</time>
      </trkpt>
      <trkpt lat="44.81361" lon="4.82091">
        <ele>94</ele>
        <time>2017-02-18T01:42:52Z</time>
      </trkpt>
      <trkpt lat="44.81311" lon="4.82062">
        <ele>94</ele>
        <time>2017-02-18T01:43:19Z</time>
      </trkpt>
      <trkpt lat="44.81261" lon="4.82033">
        <ele>94</ele>
        <time>2017-02-18T01:43:46Z</time>
      </trkpt>
      <trkpt lat="44.81211" lon="4.82004">
        <ele>94</ele>
        <time>2017-02-18T01:44:14Z</time>
      </trkpt>
      <trkpt lat="44.81176" lon="4.81938">
        <ele>94</ele>
        <time>2017-02-18T01:44:43Z</time>
      </trkpt>
      <trkpt lat="44.81141" lon="4.81873">
        <ele>94</ele>
        <time>2017-02-18T01:45:12Z</time>
      </trkpt>
      <trkpt lat="44.81106" lon="4.81808">
        <ele>94</ele>
        <time>2017-02-18T01:45:41Z</time>
      </trkpt>
      <trkpt lat="44.81072" lon="4.81742">
        <ele>94</ele>
        <time>2017-02-18T01:46:10Z</time>
      </trkpt>
      <trkpt lat="44.81037" lon="4.81678">
        <ele>94</ele>
        <time>2017-02-18T01:46:39Z</time>
      </trkpt>
      <trkpt lat="44.81017" lon="4.81598">
        <ele>93</ele>
        <time>2017-02-18T01:47:09Z</time>
      </trkpt>
      <trkpt lat="44.80996" lon="4.81518">
        <ele>93</ele>
        <time>2017-02-18T01:47:39Z</time>
      </trkpt>
      <trkpt lat="44.80976" lon="4.81438">
        <ele>95</ele>
        <time>2017-02-18T01:48:09Z</time>
      </trkpt>
      <trkpt lat="44.80956" lon="4.81358">
        <ele>93</ele>
        <time>2017-02-18T01:48:39Z</time>
      </trkpt>
      <trkpt lat="44.80935" lon="4.81278">
        <ele>94</ele>
        <time>2017-02-18T01:49:09Z</time>
      </trkpt>
      <trkpt lat="44.80915" lon="4.81198">
        <ele>93</ele>
        <time>2017-02-18T01:49:39Z</time>
      </trkpt>
      <trkpt lat="44.80895" lon="4.81118">
        <ele>93</ele>
        <time>2017-02-18T01:50:10Z</time>
      </trkpt>
      <trkpt lat="44.80874" lon="4.81038">
        <ele>93</ele>
        <time>2017-02-18T01:50:40Z</time>
      </trkpt>
      <trkpt lat="44.80854" lon="4.80958">
        <ele>93</ele>
        <time>2017-02-18T01:51:10Z</time>
      </trkpt>
      <trkpt lat="44.80834" lon="4.80878">
        <ele>93</ele>
        <time>2017-02-18T01:51:40Z</time>
      </trkpt>
      <trkpt lat="44.80813" lon="4.80798">
        <ele>92</ele>
        <time>2017-02-18T01:52:10Z</time>
      </trkpt>
      <trkpt lat="44.80793" lon="4.80721">
        <ele>93</ele>
        <time>2017-02-18T01:52:40Z</time>
      </trkpt>
      <trkpt lat="44.80769" lon="4.80641">
        <ele>93</ele>
        <time>2017-02-18T01:53:11Z</time>
      </trkpt>
      <trkpt lat="44.80744" lon="4.80561">
        <ele>93</ele>
        <time>2017-02-18T01:53:42Z</time>
      </trkpt>
      <trkpt lat="44.80719" lon="4.80481">
        <ele>93</ele>
        <time>2017-02-18T01:54:13Z</time>
      </trkpt>
      <trkpt lat="44.80694" lon="4.80401">
        <ele>93</ele>
        <time>2017-02-18T01:54:44Z</time>
      </trkpt>
      <trkpt lat="44.80669" lon="4.80321">
        <ele>93</ele>
        <time>2017-02-18T01:55:15Z</time>
      </trkpt>
      <trkpt lat="44.80644" lon="4.80241">
        <ele>93</ele>
        <time>2017-02-18T01:55:46Z</time>
      </trkpt>
      <trkpt lat="44.80619" lon="4.80161">
        <ele>93</ele>
        <time>2017-02-18T01:56:17Z</time>
      </trkpt>
      <trkpt lat="44.80595" lon="4.80081">
        <ele>93</ele>
        <time>2017-02-18T01:56:48Z</time>
      </trkpt>
      <trkpt lat="44.8057" lon="4.80001">
        <ele>93</ele>
        <time>2017-02-18T01:57:19Z</time>
      </trkpt>
      <trkpt lat="44.80545" lon="4.79921">
        <ele>93</ele>
        <time>2017-02-18T01:57:50Z</time>
      </trkpt>
      <trkpt lat="44.8052" lon="4.79841">
        <ele>93</ele>
        <time>2017-02-18T01:58:21Z</time>
      </trkpt>
      <trkpt lat="44.80495" lon="4.79761">
        <ele>93</ele>
        <time>2017-02-18T01:58:52Z</time>
      </trkpt>
      <trkpt lat="44.8047" lon="4.79681">
        <ele>93</ele>
        <time>2017-02-18T01:59:23Z</time>
      </trkpt>
      <trkpt lat="44.80445" lon="4.79601">
        <ele>93</ele>
        <time>2017-02-18T01:59:54Z</time>
      </trkpt>
      <trkpt lat="44.80421" lon="4.79521">
        <ele>93</ele>
        <time>2017-02-18T02:00:25Z</time>
      </trkpt>
      <trkpt lat="44.80396" lon="4.79441">
        <ele>92</ele>
        <time>2017-02-18T02:00:56Z</time>
      </trkpt>
      <trkpt lat="44.80371" lon="4.79361">
        <ele>92</ele>
        <time>2017-02-18T02:01:27Z</time>
      </trkpt>
      <trkpt lat="44.80346" lon="4.79281">
        <ele>92</ele>
        <time>2017-02-18T02:01:58Z</time>
      </trkpt>
      <trkpt lat="44.80321" lon="4.79201">
        <ele>92</ele>
        <time>2017-02-18T02:02:29Z</time>
      </trkpt>
      <trkpt lat="44.80296" lon="4.79121">
        <ele>92</ele>
        <time>2017-02-18T02:03:00Z</time>
      </trkpt>
      <trkpt lat="44.80272" lon="4.79041">
        <ele>92</ele>
        <time>2017-02-18T02:03:31Z</time>
      </trkpt>
      <trkpt lat="44.80247" lon="4.78961">
        <ele>92</ele>
        <time>2017-02-18T02:04:02Z</time>
      </trkpt>
      <trkpt lat="44.80222" lon="4.78882">
        <ele>92</ele>
        <time>2017-02-18T02:04:33Z</time>
      </trkpt>
      <trkpt lat="44.80197" lon="4.78802">
        <ele>92</ele>
        <time>2017-02-18T02:05:04Z</time>
      </trkpt>
      <trkpt lat="44.80172" lon="4.78722">
        <ele>92</ele>
        <time>2017-02-18T02:05:35Z</time>
      </trkpt>
      <trkpt lat="44.80147" lon="4.78642">
        <ele>92</ele>
        <time>2017-02-18T02:06:06Z</time>
      </trkpt>
      <trkpt lat="44.80124" lon="4.78566">
        <ele>92</ele>
        <time>2017-02-18T02:06:37Z</time>
      </trkpt>
      <trkpt lat="44.80082" lon="4.78518">
        <ele>92</ele>
        <time>2017-02-18T02:07:04Z</time>
      </trkpt>
      <trkpt lat="44.8004" lon="4.78469">
        <ele>92</ele>
        <time>2017-02-18T02:07:32Z</time>
      </trkpt>
      <trkpt lat="44.79999" lon="4.7842">
        <ele>92</ele>
        <time>2017-02-18T02:07:59Z</time>
      </trkpt>
      <trkpt lat="44.79957" lon="4.78372">
        <ele>92</ele>
        <time>2017-02-18T02:08:26Z</time>
      </trkpt>
      <trkpt lat="44.79915" lon="4.78323">
        <ele>92</ele>
        <time>2017-02-18T02:08:53Z</time>
      </trkpt>
      <trkpt lat="44.79874" lon="4.78274">
        <ele>92</ele>
        <time>2017-02-18T02:09:20Z</time>
      </trkpt>
      <trkpt lat="44.7982" lon="4.78229">
        <ele>92</ele>
        <time>2017-02-18T02:09:51Z</time>
      </trkpt>
      <trkpt lat="44.79766" lon="4.78184">
        <ele>92</ele>
        <time>2017-02-18T02:10:23Z</time>
      </trkpt>
      <trkpt lat="44.79712" lon="4.78139">
        <ele>92</ele>
        <time>2017-02-18T02:10:54Z</time>
      </trkpt>
      <trkpt lat="44.79658" lon="4.78094">
        <ele>92</ele>
        <time>2017-02-18T02:11:25Z</time>
      </trkpt>
      <trkpt lat="44.79604" lon="4.78049">
        <ele>92</ele>
        <time>2017-02-18T02:11:57Z</time>
      </trkpt>
      <trkpt lat="44.7955" lon="4.78004">
        <ele>92</ele>
        <time>2017-02-18T02:12:28Z</time>
      </trkpt>
      <trkpt lat="44.79496" lon="4.77959">
        <ele>92</ele>
        <time>2017-02-18T02:13:00Z</time>
      </trkpt>
      <trkpt lat="44.79442" lon="4.77914">
        <ele>92</ele>
        <time>2017-02-18T02:13:31Z</time>
      </trkpt>
      <trkpt lat="44.79388" lon="4.77869">
        <ele>91</ele>
        <time>2017-02-18T02:14:02Z</time>
      </trkpt>
      <trkpt lat="44.79334" lon="4.77824">
        <ele>91</ele>
        <time>2017-02-18T02:14:34Z</time>
      </trkpt>
      <trkpt lat="44.7928" lon="4.77779">
        <ele>91</ele>
        <time>2017-02-18T02:15:05Z</time>
      </trkpt>
      <trkpt lat="44.79226" lon="4.77734">
        <ele>91</ele>
        <time>2017-02-18T02:15:37Z</time>
      </trkpt>
      <trkpt lat="44.79172" lon="4.77689">
        <ele>91</ele>
        <time>2017-02-18T02:16:08Z</time>
      </trkpt>
      <trkpt lat="44.79118" lon="4.77644">
        <ele>91</ele>
        <time>2017-02-18T02:16:39Z</time>
      </trkpt>
      <trkpt lat="44.79064" lon="4.77599">
        <ele>91</ele>
        <time>2017-02-18T02:17:11Z</time>
      </trkpt>
      <trkpt lat="44.7901" lon="4.77554">
        <ele>91</ele>
        <time>2017-02-18T02:17:42Z</time>
      </trkpt>
      <trkpt lat="44.78956" lon="4.77509">
        <ele>91</ele>
        <time>2017-02-18T02:18:13Z</time>
      </trkpt>
      <trkpt lat="44.78902" lon="4.77464">
        <ele>91</ele>
        <time>2017-02-18T02:18:45Z</time>
      </trkpt>
      <trkpt lat="44.78848" lon="4.77419">
        <ele>91</ele>
        <time>2017-02-18T02:19:16Z</time>
      </trkpt>
      <trkpt lat="44.78794" lon="4.77374">
        <ele>91</ele>
        <time>2017-02-18T02:19:48Z</time>
      </trkpt>
      <trkpt lat="44.7874" lon="4.77329">
        <ele>90</ele>
        <time>2017-02-18T02:20:19Z</time>
      </trkpt>
      <trkpt lat="44.78686" lon="4.77284">
        <ele>90</ele>
        <time>2017-02-18T02:20:50Z</time>
      </trkpt>
      <trkpt lat="44.78632" lon="4.77239">
        <ele>90</ele>
        <time>2017-02-18T02:21:22Z</time>
      </trkpt>
      <trkpt lat="44.78578" lon="4.77194">
        <ele>90</ele>
        <time>2017-02-18T02:21:53Z</time>
      </trkpt>
      <trkpt lat="44.78524" lon="4.77149">
        <ele>90</ele>
        <time>2017-02-18T02:22:25Z</time>
      </trkpt>
      <trkpt lat="44.7847" lon="4.77104">
        <ele>90</ele>
        <time>2017-02-18T02:22:56Z</time>
      </trkpt>
      <trkpt lat="44.78416" lon="4.77059">
        <ele>90</ele>
        <time>2017-02-18T02:23:27Z</time>
      </trkpt>
      <trkpt lat="44.78362" lon="4.77014">
        <ele>90</ele>
        <time>2017-02-18T02:23:59Z</time>
      </trkpt>
      <trkpt lat="44.78308" lon="4.7697">
        <ele>90</ele>
        <time>2017-02-18T02:24:30Z</time>
      </trkpt>
      <trkpt lat="44.78257" lon="4.76922">
        <ele>90</ele>
        <time>2017-02-18T02:25:01Z</time>
      </trkpt>
      <trkpt lat="44.78206" lon="4.76874">
        <ele>90</ele>
        <time>2017-02-18T02:25:32Z</time>
      </trkpt>
      <trkpt lat="44.78155" lon="4.76826">
        <ele>90</ele>
        <time>2017-02-18T02:26:03Z</time>
      </trkpt>
      <trkpt lat="44.78103" lon="4.76778">
        <ele>89</ele>
        <time>2017-02-18T02:26:33Z</time>
      </trkpt>
      <trkpt lat="44.78052" lon="4.7673">
        <ele>89</ele>
        <time>2017-02-18T02:27:04Z</time>
      </trkpt>
      <trkpt lat="44.78001" lon="4.76682">
        <ele>89</ele>
        <time>2017-02-18T02:27:35Z</time>
      </trkpt>
      <trkpt lat="44.7795" lon="4.76634">
        <ele>89</ele>
        <time>2017-02-18T02:28:06Z</time>
      </trkpt>
      <trkpt lat="44.77898" lon="4.76586">
        <ele>89</ele>
        <time>2017-02-18T02:28:37Z</time>
      </trkpt>
      <trkpt lat="44.77847" lon="4.76538">
        <ele>89</ele>
        <time>2017-02-18T02:29:07Z</time>
      </trkpt>
      <trkpt lat="44.77796" lon="4.7649">
        <ele>89</ele>
        <time>2017-02-18T02:29:38Z</time>
      </trkpt>
      <trkpt lat="44.77745" lon="4.76442">
        <ele>89</ele>
        <time>2017-02-18T02:30:09Z</time>
      </trkpt>
      <trkpt lat="44.77694" lon="4.76394">
        <ele>89</ele>
        <time>2017-02-18T02:30:40Z</time>
      </trkpt>
      <trkpt lat="44.77642" lon="4.76346">
        <ele>89</ele>
        <time>2017-02-18T02:31:11Z</time>
      </trkpt>
      <trkpt lat="44.77591" lon="4.76298">
        <ele>89</ele>
        <time>2017-02-18T02:31:41Z</time>
      </trkpt>
      <trkpt lat="44.7754" lon="4.7625">
        <ele>89</ele>
        <time>2017-02-18T02:32:12Z</time>
      </trkpt>
      <trkpt lat="44.77489" lon="4.76202">
        <ele>89</ele>
        <time>2017-02-18T02:32:43Z</time>
      </trkpt>
      <trkpt lat="44.77437" lon="4.76154">
        <ele>89</ele>
        <time>2017-02-18T02:33:14Z</time>
      </trkpt>
      <trkpt lat="44.77386" lon="4.76106">
        <ele>89</ele>
        <time>2017-02-18T02:33:45Z</time>
      </trkpt>
      <trkpt lat="44.77335" lon="4.76058">
        <ele>89</ele>
        <time>2017-02-18T02:34:15Z</time>
      </trkpt>
      <trkpt lat="44.77284" lon="4.7601">
        <ele>88</ele>
        <time>2017-02-18T02:34:46Z</time>
      </trkpt>
      <trkpt lat="44.77232" lon="4.75962">
        <ele>88</ele>
        <time>2017-02-18T02:35:17Z</time>
      </trkpt>
      <trkpt lat="44.77181" lon="4.75914">
        <ele>88</ele>
        <time>2017-02-18T02:35:48Z</time>
      </trkpt>
      <trkpt lat="44.77132" lon="4.75862">
        <ele>88</ele>
        <time>2017-02-18T02:36:18Z</time>
      </trkpt>
      <trkpt lat="44.77083" lon="4.75811">
        <ele>88</ele>
        <time>2017-02-18T02:36:49Z</time>
      </trkpt>
      <trkpt lat="44.77033" lon="4.75759">
        <ele>88</ele>
        <time>2017-02-18T02:37:20Z</time>
      </trkpt>
      <trkpt lat="44.76984" lon="4.75708">
        <ele>88</ele>
        <time>2017-02-18T02:37:51Z</time>
      </trkpt>
      <trkpt lat="44.76935" lon="4.75656">
        <ele>88</ele>
        <time>2017-02-18T02:38:21Z</time>
      </trkpt>
      <trkpt lat="44.76886" lon="4.75605">
        <ele>87</ele>
        <time>2017-02-18T02:38:52Z</time>
      </trkpt>
      <trkpt lat="44.76828" lon="4.75581">
        <ele>87</ele>
        <time>2017-02-18T02:39:22Z</time>
      </trkpt>
      <trkpt lat="44.7677" lon="4.75557">
        <ele>87</ele>
        <time>2017-02-18T02:39:53Z</time>
      </trkpt>
      <trkpt lat="44.76711" lon="4.75534">
        <ele>87</ele>
        <time>2017-02-18T02:40:23Z</time>
      </trkpt>
      <trkpt lat="44.76653" lon="4.7551">
        <ele>87</ele>
        <time>2017-02-18T02:40:53Z</time>
      </trkpt>
      <trkpt lat="44.76595" lon="4.75486">
        <ele>87</ele>
        <time>2017-02-18T02:41:23Z</time>
      </trkpt>
      <trkpt lat="44.76537" lon="4.75462">
        <ele>87</ele>
        <time>2017-02-18T02:41:54Z</time>
      </trkpt>
      <trkpt lat="44.76479" lon="4.75439">
        <ele>87</ele>
        <time>2017-02-18T02:42:24Z</time>
      </trkpt>
      <trkpt lat="44.76421" lon="4.75415">
        <ele>87</ele>
        <time>2017-02-18T02:42:54Z</time>
      </trkpt>
      <trkpt lat="44.76363" lon="4.75391">
        <ele>87</ele>
        <time>2017-02-18T02:43:24Z</time>
      </trkpt>
      <trkpt lat="44.76305" lon="4.75367">
        <ele>87</ele>
        <time>2017-02-18T02:43:55Z</time>
      </trkpt>
      <trkpt lat="44.76247" lon="4.75344">
        <ele>87</ele>
        <time>2017-02-18T02:44:25Z</time>
      </trkpt>
      <trkpt lat="44.76189" lon="4.7532">
        <ele>87</ele>
        <time>2017-02-18T02:44:55Z</time>
      </trkpt>
      <trkpt lat="44.7613" lon="4.75296">
        <ele>87</ele>
        <time>2017-02-18T02:45:26Z</time>
      </trkpt>
      <trkpt lat="44.76068" lon="4.75283">
        <ele>87</ele>
        <time>2017-02-18T02:45:57Z</time>
      </trkpt>
      <trkpt lat="44.76006" lon="4.7527">
        <ele>87</ele>
        <time>2017-02-18T02:46:28Z</time>
      </trkpt>
      <trkpt lat="44.75944" lon="4.75257">
        <ele>87</ele>
        <time>2017-02-18T02:47:00Z</time>
      </trkpt>
      <trkpt lat="44.75882" lon="4.75245">
        <ele>87</ele>
        <time>2017-02-18T02:47:31Z</time>
      </trkpt>
      <trkpt lat="44.7582" lon="4.75232">
        <ele>87</ele>
        <time>2017-02-18T02:48:03Z</time>
      </trkpt>
      <trkpt lat="44.75758" lon="4.75219">
        <ele>87</ele>
        <time>2017-02-18T02:48:34Z</time>
      </trkpt>
      <trkpt lat="44.75696" lon="4.75206">
        <ele>87</ele>
        <time>2017-02-18T02:49:05Z</time>
      </trkpt>
      <trkpt lat="44.75633" lon="4.75193">
        <ele>87</ele>
        <time>2017-02-18T02:49:37Z</time>
      </trkpt>
      <trkpt lat="44.75577" lon="4.7523">
        <ele>87</ele>
        <time>2017-02-18T02:50:08Z</time>
      </trkpt>
      <trkpt lat="44.75521" lon="4.75267">
        <ele>89</ele>
        <time>2017-02-18T02:50:39Z</time>
      </trkpt>
      <trkpt lat="44.75465" lon="4.75304">
        <ele>86</ele>
        <time>2017-02-18T02:51:10Z</time>
      </trkpt>
      <trkpt lat="44.75409" lon="4.75341">
        <ele>86</ele>
        <time>2017-02-18T02:51:40Z</time>
      </trkpt>
      <trkpt lat="44.75353" lon="4.75378">
        <ele>86</ele>
        <time>2017-02-18T02:52:11Z</time>
      </trkpt>
      <trkpt lat="44.75297" lon="4.75415">
        <ele>86</ele>
        <time>2017-02-18T02:52:42Z</time>
      </trkpt>
      <trkpt lat="44.75241" lon="4.75452">
        <ele>86</ele>
        <time>2017-02-18T02:53:13Z</time>
      </trkpt>
      <trkpt lat="44.75185" lon="4.75489">
        <ele>87</ele>
        <time>2017-02-18T02:53:44Z</time>
      </trkpt>
      <trkpt lat="44.75132" lon="4.75526">
        <ele>87</ele>
        <time>2017-02-18T02:54:14Z</time>
      </trkpt>
      <trkpt lat="44.75079" lon="4.75562">
        <ele>89</ele>
        <time>2017-02-18T02:54:43Z</time>
      </trkpt>
      <trkpt lat="44.75027" lon="4.75599">
        <ele>88</ele>
        <time>2017-02-18T02:55:13Z</time>
      </trkpt>
      <trkpt lat="44.74974" lon="4.75635">
        <ele>93</ele>
        <time>2017-02-18T02:55:42Z</time>
      </trkpt>
      <trkpt lat="44.74921" lon="4.75671">
        <ele>89</ele>
        <time>2017-02-18T02:56:12Z</time>
      </trkpt>
      <trkpt lat="44.74868" lon="4.75708">
        <ele>90</ele>
        <time>2017-02-18T02:56:41Z</time>
      </trkpt>
      <trkpt lat="44.74815" lon="4.75744">
        <ele>90</ele>
        <time>2017-02-18T02:57:11Z</time>
      </trkpt>
      <trkpt lat="44.74762" lon="4.75781">
        <ele>91</ele>
        <time>2017-02-18T02:57:40Z</time>
      </trkpt>
      <trkpt lat="44.74703" lon="4.75813">
        <ele>85</ele>
        <time>2017-02-18T02:58:12Z</time>
      </trkpt>
      <trkpt lat="44.74645" lon="4.75845">
        <ele>88</ele>
        <time>2017-02-18T02:58:43Z</time>
      </trkpt>
      <trkpt lat="44.74586" lon="4.75877">
        <ele>85</ele>
        <time>2017-02-18T02:59:15Z</time>
      </trkpt>
      <trkpt lat="44.74528" lon="4.75908">
        <ele>85</ele>
        <time>2017-02-18T02:59:46Z</time>
      </trkpt>
      <trkpt lat="44.74469" lon="4.7594">
        <ele>85</ele>
        <time>2017-02-18T03:00:17Z</time>
      </trkpt>
      <trkpt lat="44.7441" lon="4.75972">
        <ele>85</ele>
        <time>2017-02-18T03:00:49Z</time>
      </trkpt>
      <trkpt lat="44.74352" lon="4.76004">
        <ele>86</ele>
        <time>2017-02-18T03:01:20Z</time>
      </trkpt>
      <trkpt lat="44.74293" lon="4.76036">
        <ele>85</ele>
        <time>2017-02-18T03:01:52Z</time>
      </trkpt>
      <trkpt lat="44.74235" lon="4.76068">
        <ele>85</ele>
        <time>2017-02-18T03:02:23Z</time>
      </trkpt>
      <trkpt lat="44.74176" lon="4.761">
        <ele>87</ele>
        <time>2017-02-18T03:02:54Z</time>
      </trkpt>
      <trkpt lat="44.74118" lon="4.76132">
        <ele>85</ele>
        <time>2017-02-18T03:03:26Z</time>
      </trkpt>
      <trkpt lat="44.74059" lon="4.76163">
        <ele>85</ele>
        <time>2017-02-18T03:03:57Z</time>
      </trkpt>
      <trkpt lat="44.74001" lon="4.76195">
        <ele>84</ele>
        <time>2017-02-18T03:04:29Z</time>
      </trkpt>
      <trkpt lat="44.73942" lon="4.76227">
        <ele>84</ele>
        <time>2017-02-18T03:05:00Z</time>
      </trkpt>
      <trkpt lat="44.73879" lon="4.76243">
        <ele>84</ele>
        <time>2017-02-18T03:05:32Z</time>
      </trkpt>
      <trkpt lat="44.73817" lon="4.76258">
        <ele>84</ele>
        <time>2017-02-18T03:06:03Z</time>
      </trkpt>
      <trkpt lat="44.73755" lon="4.76274">
        <ele>85</ele>
        <time>2017-02-18T03:06:35Z</time>
      </trkpt>
      <trkpt lat="44.73692" lon="4.76289">
        <ele>84</ele>
        <time>2017-02-18T03:07:07Z</time>
      </trkpt>
      <trkpt lat="44.7363" lon="4.76305">
        <ele>84</ele>
        <time>2017-02-18T03:07:39Z</time>
      </trkpt>
      <trkpt lat="44.73568" lon="4.7632">
        <ele>83</ele>
        <time>2017-02-18T03:08:10Z</time>
      </trkpt>
      <trkpt lat="44.73505" lon="4.76336">
        <ele>83</ele>
        <time>2017-02-18T03:08:42Z</time>
      </trkpt>
      <trkpt lat="44.73443" lon="4.76351">
        <ele>84</ele>
        <time>2017-02-18T03:09:14Z</time>
      </trkpt>
      <trkpt lat="44.73381" lon="4.76367">
        <ele>84</ele>
        <time>2017-02-18T03:09:45Z</time>
      </trkpt>
      <trkpt lat="44.73318" lon="4.76382">
        <ele>84</ele>
        <time>2017-02-18T03:10:17Z</time>
      </trkpt>
      <trkpt lat="44.73256" lon="4.76398">
        <ele>84</ele>
        <time>2017-02-18T03:10:49Z</time>
      </trkpt>
      <trkpt lat="44.73194" lon="4.76413">
        <ele>84</ele>
        <time>2017-02-18T03:11:20Z</time>
      </trkpt>
      <trkpt lat="44.73131" lon="4.76429">
        <ele>83</ele>
        <time>2017-02-18T03:11:52Z</time>
      </trkpt>
      <trkpt lat="44.73069" lon="4.76422">
        <ele>83</ele>
        <time>2017-02-18T03:12:23Z</time>
      </trkpt>
      <trkpt lat="44.73008" lon="4.76416">
        <ele>83</ele>
        <time>2017-02-18T03:12:54Z</time>
      </trkpt>
      <trkpt lat="44.72946" lon="4.76409">
        <ele>83</ele>
        <time>2017-02-18T03:13:25Z</time>
      </trkpt>
      <trkpt lat="44.72884" lon="4.76402">
        <ele>83</ele>
        <time>2017-02-18T03:13:56Z</time>
      </trkpt>
      <trkpt lat="44.72823" lon="4.76396">
        <ele>83</ele>
        <time>2017-02-18T03:14:27Z</time>
      </trkpt>
      <trkpt lat="44.72761" lon="4.76389">
        <ele>83</ele>
        <time>2017-02-18T03:14:57Z</time>
      </trkpt>
      <trkpt lat="44.727" lon="4.76382">
        <ele>83</ele>
        <time>2017-02-18T03:15:28Z</time>
      </trkpt>
      <trkpt lat="44.72638" lon="4.76376">
        <ele>83</ele>
        <time>2017-02-18T03:15:59Z</time>
      </trkpt>
      <trkpt lat="44.72576" lon="4.76369">
        <ele>83</ele>
        <time>2017-02-18T03:16:30Z</time>
      </trkpt>
      <trkpt lat="44.72515" lon="4.76363">
        <ele>83</ele>
        <time>2017-02-18T03:17:01Z</time>
      </trkpt>
      <trkpt lat="44.72454" lon="4.76357">
        <ele>83</ele>
        <time>2017-02-18T03:17:31Z</time>
      </trkpt>
      <trkpt lat="44.72393" lon="4.76351">
        <ele>83</ele>
        <time>2017-02-18T03:18:02Z</time>
      </trkpt>
      <trkpt lat="44.72332" lon="4.76345">
        <ele>83</ele>
        <time>2017-02-18T03:18:33Z</time>
      </trkpt>
      <trkpt lat="44.72271" lon="4.76339">
        <ele>83</ele>
        <time>2017-02-18T03:19:03Z</time>
      </trkpt>
      <trkpt lat="44.7221" lon="4.76333">
        <ele>82</ele>
        <time>2017-02-18T03:19:34Z</time>
      </trkpt>
      <trkpt lat="44.72149" lon="4.76327">
        <ele>82</ele>
        <time>2017-02-18T03:20:04Z</time>
      </trkpt>
      <trkpt lat="44.72088" lon="4.76321">
        <ele>82</ele>
        <time>2017-02-18T03:20:35Z</time>
      </trkpt>
      <trkpt lat="44.72028" lon="4.76315">
        <ele>83</ele>
        <time>2017-02-18T03:21:05Z</time>
      </trkpt>
      <trkpt lat="44.71967" lon="4.7631">
        <ele>86</ele>
        <time>2017-02-18T03:21:36Z</time>
      </trkpt>
      <trkpt lat="44.71906" lon="4.76304">
        <ele>87</ele>
        <time>2017-02-18T03:22:07Z</time>
      </trkpt>
      <trkpt lat="44.71845" lon="4.76298">
        <ele>88</ele>
        <time>2017-02-18T03:22:37Z</time>
      </trkpt>
      <trkpt lat="44.71783" lon="4.76292">
        <ele>90</ele>
        <time>2017-02-18T03:23:08Z</time>
      </trkpt>
      <trkpt lat="44.71723" lon="4.76317">
        <ele>88</ele>
        <time>2017-02-18T03:23:39Z</time>
      </trkpt>
      <trkpt lat="44.71663" lon="4.76343">
        <ele>84</ele>
        <time>2017-02-18T03:24:11Z</time>
      </trkpt>
      <trkpt lat="44.71603" lon="4.76369">
        <ele>83</ele>
        <time>2017-02-18T03:24:42Z</time>
      </trkpt>
      <trkpt lat="44.71543" lon="4.76395">
        <ele>86</ele>
        <time>2017-02-18T03:25:13Z</time>
      </trkpt>
      <trkpt lat="44.71483" lon="4.7642">
        <ele>84</ele>
        <time>2017-02-18T03:25:45Z</time>
      </trkpt>
      <trkpt lat="44.71423" lon="4.76446">
        <ele>83</ele>
        <time>2017-02-18T03:26:16Z</time>
      </trkpt>
      <trkpt lat="44.71362" lon="4.76472">
        <ele>83</ele>
        <time>2017-02-18T03:26:48Z</time>
      </trkpt>
      <trkpt lat="44.71313" lon="4.76519">
        <ele>83</ele>
        <time>2017-02-18T03:27:18Z</time>
      </trkpt>
      <trkpt lat="44.71263" lon="4.76566">
        <ele>83</ele>
        <time>2017-02-18T03:27:47Z</time>
      </trkpt>
      <trkpt lat="44.71214" lon="4.76614">
        <ele>82</ele>
        <time>2017-02-18T03:28:17Z</time>
      </trkpt>
      <trkpt lat="44.71165" lon="4.76661">
        <ele>84</ele>
        <time>2017-02-18T03:28:47Z</time>
      </trkpt>
      <trkpt lat="44.71115" lon="4.76708">
        <ele>81</ele>
        <time>2017-02-18T03:29:17Z</time>
      </trkpt>
      <trkpt lat="44.71066" lon="4.76755">
        <ele>84</ele>
        <time>2017-02-18T03:29:47Z</time>
      </trkpt>
      <trkpt lat="44.71016" lon="4.76802">
        <ele>83</ele>
        <time>2017-02-18T03:30:17Z</time>
      </trkpt>
      <trkpt lat="44.70967" lon="4.7685">
        <ele>83</ele>
        <time>2017-02-18T03:30:47Z</time>
      </trkpt>
      <trkpt lat="44.70918" lon="4.76897">
        <ele>83</ele>
        <time>2017-02-18T03:31:17Z</time>
      </trkpt>
      <trkpt lat="44.70868" lon="4.76944">
        <ele>82</ele>
        <time>2017-02-18T03:31:47Z</time>
      </trkpt>
      <trkpt lat="44.70818" lon="4.7698">
        <ele>85</ele>
        <time>2017-02-18T03:32:15Z</time>
      </trkpt>
      <trkpt lat="44.70767" lon="4.77015">
        <ele>84</ele>
        <time>2017-02-18T03:32:43Z</time>
      </trkpt>
      <trkpt lat="44.70717" lon="4.77051">
        <ele>86</ele>
        <time>2017-02-18T03:33:11Z</time>
      </trkpt>
      <trkpt lat="44.70666" lon="4.77086">
        <ele>85</ele>
        <time>2017-02-18T03:33:40Z</time>
      </trkpt>
      <trkpt lat="44.70616" lon="4.77122">
        <ele>81</ele>
        <time>2017-02-18T03:34:08Z</time>
      </trkpt>
      <trkpt lat="44.70565" lon="4.77157">
        <ele>84</ele>
        <time>2017-02-18T03:34:36Z</time>
      </trkpt>
      <trkpt lat="44.70514" lon="4.77193">
        <ele>82</ele>
        <time>2017-02-18T03:35:05Z</time>
      </trkpt>
      <trkpt lat="44.70454" lon="4.77206">
        <ele>81</ele>
        <time>2017-02-18T03:35:35Z</time>
      </trkpt>
      <trkpt lat="44.70394" lon="4.7722">
        <ele>86</ele>
        <time>2017-02-18T03:36:06Z</time>
      </trkpt>
      <trkpt lat="44.70334" lon="4.77233">
        <ele>84</ele>
        <time>2017-02-18T03:36:36Z</time>
      </trkpt>
      <trkpt lat="44.70273" lon="4.77246">
        <ele>83</ele>
        <time>2017-02-18T03:37:07Z</time>
      </trkpt>
      <trkpt lat="44.70213" lon="4.7726">
        <ele>82</ele>
        <time>2017-02-18T03:37:37Z</time>
      </trkpt>
      <trkpt lat="44.70153" lon="4.77273">
        <ele>82</ele>
        <time>2017-02-18T03:38:08Z</time>
      </trkpt>
      <trkpt lat="44.70092" lon="4.77286">
        <ele>81</ele>
        <time>2017-02-18T03:38:38Z</time>
      </trkpt>
      <trkpt lat="44.70032" lon="4.773">
        <ele>81</ele>
        <time>2017-02-18T03:39:09Z</time>
      </trkpt>
      <trkpt lat="44.69971" lon="4.77313">
        <ele>81</ele>
        <time>2017-02-18T03:39:39Z</time>
      </trkpt>
      <trkpt lat="44.69915" lon="4.7732">
        <ele>81</ele>
        <time>2017-02-18T03:40:08Z</time>
      </trkpt>
      <trkpt lat="44.69858" lon="4.77328">
        <ele>81</ele>
        <time>2017-02-18T03:40:36Z</time>
      </trkpt>
      <trkpt lat="44.69802" lon="4.77335">
        <ele>81</ele>
        <time>2017-02-18T03:41:05Z</time>
      </trkpt>
      <trkpt lat="44.69745" lon="4.77342">
        <ele>82</ele>
        <time>2017-02-18T03:41:33Z</time>
      </trkpt>
      <trkpt lat="44.69688" lon="4.7735">
        <ele>82</ele>
        <time>2017-02-18T03:42:02Z</time>
      </trkpt>
      <trkpt lat="44.69632" lon="4.77357">
        <ele>82</ele>
        <time>2017-02-18T03:42:30Z</time>
      </trkpt>
      <trkpt lat="44.69575" lon="4.77365">
        <ele>81</ele>
        <time>2017-02-18T03:42:59Z</time>
      </trkpt>
      <trkpt lat="44.69522" lon="4.77388">
        <ele>82</ele>
        <time>2017-02-18T03:43:26Z</time>
      </trkpt>
      <trkpt lat="44.69469" lon="4.77411">
        <ele>83</ele>
        <time>2017-02-18T03:43:54Z</time>
      </trkpt>
      <trkpt lat="44.69415" lon="4.77434">
        <ele>83</ele>
        <time>2017-02-18T03:44:22Z</time>
      </trkpt>
      <trkpt lat="44.69362" lon="4.77458">
        <ele>85</ele>
        <time>2017-02-18T03:44:50Z</time>
      </trkpt>
      <trkpt lat="44.69309" lon="4.77481">
        <ele>86</ele>
        <time>2017-02-18T03:45:18Z</time>
      </trkpt>
      <trkpt lat="44.69256" lon="4.77504">
        <ele>83</ele>
        <time>2017-02-18T03:45:46Z</time>
      </trkpt>
      <trkpt lat="44.69203" lon="4.77528">
        <ele>81</ele>
        <time>2017-02-18T03:46:14Z</time>
      </trkpt>
      <trkpt lat="44.69148" lon="4.77564">
        <ele>81</ele>
        <time>2017-02-18T03:46:44Z</time>
      </trkpt>
      <trkpt lat="44.69093" lon="4.776">
        <ele>82</ele>
        <time>2017-02-18T03:47:14Z</time>
      </trkpt>
      <trkpt lat="44.69038" lon="4.77636">
        <ele>83</ele>
        <time>2017-02-18T03:47:45Z</time>
      </trkpt>
      <trkpt lat="44.68983" lon="4.77672">
        <ele>82</ele>
        <time>2017-02-18T03:48:15Z</time>
      </trkpt>
      <trkpt lat="44.68928" lon="4.77708">
        <ele>81</ele>
        <time>2017-02-18T03:48:45Z</time>
      </trkpt>
      <trkpt lat="44.68873" lon="4.77745">
        <ele>81</ele>
        <time>2017-02-18T03:49:16Z</time>
      </trkpt>
      <trkpt lat="44.68818" lon="4.77781">
        <ele>80</ele>
        <time>2017-02-18T03:49:46Z</time>
      </trkpt>
      <trkpt lat="44.68763" lon="4.77817">
        <ele>81</ele>
        <time>2017-02-18T03:50:16Z</time>
      </trkpt>
      <trkpt lat="44.68709" lon="4.77853">
        <ele>81</ele>
        <time>2017-02-18T03:50:47Z</time>
      </trkpt>
      <trkpt lat="44.68654" lon="4.77889">
        <ele>81</ele>
        <time>2017-02-18T03:51:17Z</time>
      </trkpt>
      <trkpt lat="44.68599" lon="4.77925">
        <ele>81</ele>
        <time>2017-02-18T03:51:47Z</time>
      </trkpt>
      <trkpt lat="44.68544" lon="4.77962">
        <ele>80</ele>
        <time>2017-02-18T03:52:18Z</time>
      </trkpt>
      <trkpt lat="44.68489" lon="4.77998">
        <ele>82</ele>
        <time>2017-02-18T03:52:48Z</time>
      </trkpt>
      <trkpt lat="44.68434" lon="4.78034">
        <ele>80</ele>
        <time>2017-02-18T03:53:18Z</time>
      </trkpt>
      <trkpt lat="44.68372" lon="4.78047">
        <ele>80</ele>
        <time>2017-02-18T03:53:50Z</time>
      </trkpt>
      <trkpt lat="44.68309" lon="4.7806">
        <ele>83</ele>
        <time>2017-02-18T03:54:21Z</time>
      </trkpt>
      <trkpt lat="44.68247" lon="4.78073">
        <ele>81</ele>
        <time>2017-02-18T03:54:53Z</time>
      </trkpt>
      <trkpt lat="44.68185" lon="4.78085">
        <ele>81</ele>
        <time>2017-02-18T03:55:24Z</time>
      </trkpt>
      <trkpt lat="44.68123" lon="4.78098">
        <ele>81</ele>
        <time>2017-02-18T03:55:56Z</time>
      </trkpt>
      <trkpt lat="44.68061" lon="4.78111">
        <ele>80</ele>
        <time>2017-02-18T03:56:27Z</time>
      </trkpt>
      <trkpt lat="44.67998" lon="4.78124">
        <ele>80</ele>
        <time>2017-02-18T03:56:59Z</time>
      </trkpt>
      <trkpt lat="44.67936" lon="4.78137">
        <ele>80</ele>
        <time>2017-02-18T03:57:30Z</time>
      </trkpt>
      <trkpt lat="44.67874" lon="4.7815">
        <ele>80</ele>
        <time>2017-02-18T03:58:02Z</time>
      </trkpt>
      <trkpt lat="44.67811" lon="4.78163">
        <ele>80</ele>
        <time>2017-02-18T03:58:33Z</time>
      </trkpt>
      <trkpt lat="44.67752" lon="4.78166">
        <ele>80</ele>
        <time>2017-02-18T03:59:03Z</time>
      </trkpt>
      <trkpt lat="44.67693" lon="4.7817">
        <ele>80</ele>
        <time>2017-02-18T03:59:32Z</time>
      </trkpt>
      <trkpt lat="44.67634" lon="4.78173">
        <ele>80</ele>
        <time>2017-02-18T04:00:02Z</time>
      </trkpt>
      <trkpt lat="44.67575" lon="4.78176">
        <ele>81</ele>
        <time>2017-02-18T04:00:32Z</time>
      </trkpt>
      <trkpt lat="44.67516" lon="4.7818">
        <ele>82</ele>
        <time>2017-02-18T04:01:01Z</time>
      </trkpt>
      <trkpt lat="44.67456" lon="4.78183">
        <ele>82</ele>
        <time>2017-02-18T04:01:31Z</time>
      </trkpt>
      <trkpt lat="44.67397" lon="4.78187">
        <ele>80</ele>
        <time>2017-02-18T04:02:00Z</time>
      </trkpt>
      <trkpt lat="44.67338" lon="4.7819">
        <ele>80</ele>
        <time>2017-02-18T04:02:30Z</time>
      </trkpt>
      <trkpt lat="44.67279" lon="4.78194">
        <ele>81</ele>
        <time>2017-02-18T04:03:00Z</time>
      </trkpt>
      <trkpt lat="44.67219" lon="4.78197">
        <ele>81</ele>
        <time>2017-02-18T04:03:29Z</time>
      </trkpt>
      <trkpt lat="44.67158" lon="4.78203">
        <ele>80</ele>
        <time>2017-02-18T04:04:00Z</time>
      </trkpt>
      <trkpt lat="44.67096" lon="4.78209">
        <ele>80</ele>
        <time>2017-02-18T04:04:31Z</time>
      </trkpt>
      <trkpt lat="44.67035" lon="4.78215">
        <ele>80</ele>
        <time>2017-02-18T04:05:02Z</time>
      </trkpt>
      <trkpt lat="44.66973" lon="4.78221">
        <ele>80</ele>
        <time>2017-02-18T04:05:33Z</time>
      </trkpt>
      <trkpt lat="44.66911" lon="4.78227">
        <ele>71</ele>
        <time>2017-02-18T04:06:04Z</time>
      </trkpt>
      <trkpt lat="44.6685" lon="4.78233">
        <ele>70</ele>
        <time>2017-02-18T04:06:35Z</time>
      </trkpt>
      <trkpt lat="44.66788" lon="4.78239">
        <ele>73</ele>
        <time>2017-02-18T04:07:06Z</time>
      </trkpt>
      <trkpt lat="44.66727" lon="4.78245">
        <ele>81</ele>
        <time>2017-02-18T04:07:37Z</time>
      </trkpt>
      <trkpt lat="44.66665" lon="4.78251">
        <ele>80</ele>
        <time>2017-02-18T04:08:08Z</time>
      </trkpt>
      <trkpt lat="44.66603" lon="4.78257">
        <ele>81</ele>
        <time>2017-02-18T04:08:38Z</time>
      </trkpt>
      <trkpt lat="44.66545" lon="4.78248">
        <ele>83</ele>
        <time>2017-02-18T04:09:08Z</time>
      </trkpt>
      <trkpt lat="44.66486" lon="4.78238">
        <ele>80</ele>
        <time>2017-02-18T04:09:37Z</time>
      </trkpt>
      <trkpt lat="44.66428" lon="4.78229">
        <ele>80</ele>
        <time>2017-02-18T04:10:07Z</time>
      </trkpt>
      <trkpt lat="44.6637" lon="4.78219">
        <ele>80</ele>
        <time>2017-02-18T04:10:36Z</time>
      </trkpt>
      <trkpt lat="44.66311" lon="4.7821">
        <ele>80</ele>
        <time>2017-02-18T04:11:05Z</time>
      </trkpt>
      <trkpt lat="44.66253" lon="4.782">
        <ele>80</ele>
        <time>2017-02-18T04:11:35Z</time>
      </trkpt>
      <trkpt lat="44.66195" lon="4.7819">
        <ele>80</ele>
        <time>2017-02-18T04:12:04Z</time>
      </trkpt>
      <trkpt lat="44.66137" lon="4.78181">
        <ele>79</ele>
        <time>2017-02-18T04:12:33Z</time>
      </trkpt>
      <trkpt lat="44.66078" lon="4.78171">
        <ele>79</ele>
        <time>2017-02-18T04:13:03Z</time>
      </trkpt>
      <trkpt lat="44.66019" lon="4.78144">
        <ele>79</ele>
        <time>2017-02-18T04:13:34Z</time>
      </trkpt>
      <trkpt lat="44.65961" lon="4.78117">
        <ele>79</ele>
        <time>2017-02-18T04:14:04Z</time>
      </trkpt>
      <trkpt lat="44.65902" lon="4.7809">
        <ele>79</ele>
        <time>2017-02-18T04:14:35Z</time>
      </trkpt>
      <trkpt lat="44.65844" lon="4.78063">
        <ele>79</ele>
        <time>2017-02-18T04:15:06Z</time>
      </trkpt>
      <trkpt lat="44.65785" lon="4.78036">
        <ele>79</ele>
        <time>2017-02-18T04:15:37Z</time>
      </trkpt>
      <trkpt lat="44.65727" lon="4.78008">
        <ele>79</ele>
        <time>2017-02-18T04:16:08Z</time>
      </trkpt>
      <trkpt lat="44.65668" lon="4.77981">
        <ele>79</ele>
        <time>2017-02-18T04:16:38Z</time>
      </trkpt>
      <trkpt lat="44.6561" lon="4.77954">
        <ele>79</ele>
        <time>2017-02-18T04:17:09Z</time>
      </trkpt>
      <trkpt lat="44.65552" lon="4.77927">
        <ele>79</ele>
        <time>2017-02-18T04:17:40Z</time>
      </trkpt>
      <trkpt lat="44.65493" lon="4.779">
        <ele>79</ele>
        <time>2017-02-18T04:18:11Z</time>
      </trkpt>
      <trkpt lat="44.65435" lon="4.77873">
        <ele>79</ele>
        <time>2017-02-18T04:18:42Z</time>
      </trkpt>
      <trkpt lat="44.65376" lon="4.77845">
        <ele>79</ele>
        <time>2017-02-18T04:19:13Z</time>
      </trkpt>
      <trkpt lat="44.65321" lon="4.77805">
        <ele>79</ele>
        <time>2017-02-18T04:19:44Z</time>
      </trkpt>
      <trkpt lat="44.65266" lon="4.77765">
        <ele>79</ele>
        <time>2017-02-18T04:20:14Z</time>
      </trkpt>
      <trkpt lat="44.65212" lon="4.77724">
        <ele>78</ele>
        <time>2017-02-18T04:20:45Z</time>
      </trkpt>
      <trkpt lat="44.65157" lon="4.77684">
        <ele>78</ele>
        <time>2017-02-18T04:21:16Z</time>
      </trkpt>
      <trkpt lat="44.65102" lon="4.77644">
        <ele>78</ele>
        <time>2017-02-18T04:21:47Z</time>
      </trkpt>
      <trkpt lat="44.65047" lon="4.77604">
        <ele>78</ele>
        <time>2017-02-18T04:22:18Z</time>
      </trkpt>
      <trkpt lat="44.64993" lon="4.77563">
        <ele>78</ele>
        <time>2017-02-18T04:22:49Z</time>
      </trkpt>
      <trkpt lat="44.64938" lon="4.77523">
        <ele>78</ele>
        <time>2017-02-18T04:23:20Z</time>
      </trkpt>
      <trkpt lat="44.64883" lon="4.77483">
        <ele>78</ele>
        <time>2017-02-18T04:23:51Z</time>
      </trkpt>
      <trkpt lat="44.64829" lon="4.77442">
        <ele>78</ele>
        <time>2017-02-18T04:24:22Z</time>
      </trkpt>
      <trkpt lat="44.64774" lon="4.77402">
        <ele>78</ele>
        <time>2017-02-18T04:24:53Z</time>
      </trkpt>
      <trkpt lat="44.64719" lon="4.77362">
        <ele>78</ele>
        <time>2017-02-18T04:25:24Z</time>
      </trkpt>
      <trkpt lat="44.64664" lon="4.77322">
        <ele>78</ele>
        <time>2017-02-18T04:25:54Z</time>
      </trkpt>
      <trkpt lat="44.6461" lon="4.77281">
        <ele>78</ele>
        <time>2017-02-18T04:26:25Z</time>
      </trkpt>
      <trkpt lat="44.64555" lon="4.77241">
        <ele>78</ele>
        <time>2017-02-18T04:26:56Z</time>
      </trkpt>
      <trkpt lat="44.645" lon="4.77201">
        <ele>78</ele>
        <time>2017-02-18T04:27:27Z</time>
      </trkpt>
      <trkpt lat="44.64446" lon="4.77161">
        <ele>78</ele>
        <time>2017-02-18T04:27:58Z</time>
      </trkpt>
      <trkpt lat="44.64391" lon="4.7712">
        <ele>77</ele>
        <time>2017-02-18T04:28:29Z</time>
      </trkpt>
      <trkpt lat="44.64336" lon="4.7708">
        <ele>77</ele>
        <time>2017-02-18T04:29:00Z</time>
      </trkpt>
      <trkpt lat="44.64281" lon="4.7704">
        <ele>77</ele>
        <time>2017-02-18T04:29:31Z</time>
      </trkpt>
      <trkpt lat="44.64227" lon="4.76999">
        <ele>77</ele>
        <time>2017-02-18T04:30:02Z</time>
      </trkpt>
      <trkpt lat="44.64172" lon="4.76959">
        <ele>77</ele>
        <time>2017-02-18T04:30:33Z</time>
      </trkpt>
      <trkpt lat="44.64117" lon="4.76919">
        <ele>77</ele>
        <time>2017-02-18T04:31:04Z</time>
      </trkpt>
      <trkpt lat="44.64063" lon="4.76879">
        <ele>77</ele>
        <time>2017-02-18T04:31:35Z</time>
      </trkpt>
      <trkpt lat="44.64008" lon="4.76838">
        <ele>77</ele>
        <time>2017-02-18T04:32:05Z</time>
      </trkpt>
      <trkpt lat="44.63953" lon="4.76798">
        <ele>77</ele>
        <time>2017-02-18T04:32:36Z</time>
      </trkpt>
      <trkpt lat="44.63898" lon="4.76753">
        <ele>77</ele>
        <time>2017-02-18T04:33:08Z</time>
      </trkpt>
      <trkpt lat="44.63843" lon="4.76708">
        <ele>76</ele>
        <time>2017-02-18T04:33:40Z</time>
      </trkpt>
      <trkpt lat="44.63788" lon="4.76663">
        <ele>76</ele>
        <time>2017-02-18T04:34:12Z</time>
      </trkpt>
      <trkpt lat="44.63733" lon="4.76618">
        <ele>76</ele>
        <time>2017-02-18T04:34:44Z</time>
      </trkpt>
      <trkpt lat="44.63677" lon="4.76573">
        <ele>76</ele>
        <time>2017-02-18T04:35:16Z</time>
      </trkpt>
      <trkpt lat="44.63622" lon="4.76528">
        <ele>76</ele>
        <time>2017-02-18T04:35:48Z</time>
      </trkpt>
      <trkpt lat="44.63567" lon="4.76483">
        <ele>76</ele>
        <time>2017-02-18T04:36:20Z</time>
      </trkpt>
      <trkpt lat="44.63512" lon="4.76438">
        <ele>76</ele>
        <time>2017-02-18T04:36:51Z</time>
      </trkpt>
      <trkpt lat="44.63457" lon="4.76393">
        <ele>76</ele>
        <time>2017-02-18T04:37:23Z</time>
      </trkpt>
      <trkpt lat="44.63402" lon="4.76348">
        <ele>76</ele>
        <time>2017-02-18T04:37:55Z</time>
      </trkpt>
      <trkpt lat="44.63347" lon="4.76303">
        <ele>76</ele>
        <time>2017-02-18T04:38:27Z</time>
      </trkpt>
      <trkpt lat="44.63292" lon="4.76258">
        <ele>76</ele>
        <time>2017-02-18T04:38:59Z</time>
      </trkpt>
      <trkpt lat="44.63237" lon="4.76214">
        <ele>76</ele>
        <time>2017-02-18T04:39:31Z</time>
      </trkpt>
      <trkpt lat="44.63182" lon="4.76169">
        <ele>76</ele>
        <time>2017-02-18T04:40:03Z</time>
      </trkpt>
      <trkpt lat="44.63127" lon="4.76124">
        <ele>76</ele>
        <time>2017-02-18T04:40:35Z</time>
      </trkpt>
      <trkpt lat="44.63071" lon="4.76079">
        <ele>76</ele>
        <time>2017-02-18T04:41:06Z</time>
      </trkpt>
      <trkpt lat="44.63016" lon="4.76034">
        <ele>76</ele>
        <time>2017-02-18T04:41:38Z</time>
      </trkpt>
      <trkpt lat="44.62961" lon="4.75989">
        <ele>76</ele>
        <time>2017-02-18T04:42:10Z</time>
      </trkpt>
      <trkpt lat="44.62906" lon="4.75944">
        <ele>76</ele>
        <time>2017-02-18T04:42:42Z</time>
      </trkpt>
      <trkpt lat="44.62851" lon="4.75899">
        <ele>75</ele>
        <time>2017-02-18T04:43:14Z</time>
      </trkpt>
      <trkpt lat="44.62796" lon="4.75854">
        <ele>75</ele>
        <time>2017-02-18T04:43:46Z</time>
      </trkpt>
      <trkpt lat="44.62741" lon="4.75809">
        <ele>75</ele>
        <time>2017-02-18T04:44:18Z</time>
      </trkpt>
      <trkpt lat="44.62686" lon="4.75764">
        <ele>75</ele>
        <time>2017-02-18T04:44:50Z</time>
      </trkpt>
      <trkpt lat="44.62631" lon="4.75719">
        <ele>75</ele>
        <time>2017-02-18T04:45:22Z</time>
      </trkpt>
      <trkpt lat="44.62576" lon="4.75674">
        <ele>75</ele>
        <time>2017-02-18T04:45:53Z</time>
      </trkpt>
      <trkpt lat="44.62521" lon="4.75629">
        <ele>75</ele>
        <time>2017-02-18T04:46:25Z</time>
      </trkpt>
      <trkpt lat="44.62466" lon="4.75584">
        <ele>75</ele>
        <time>2017-02-18T04:46:57Z</time>
      </trkpt>
      <trkpt lat="44.6241" lon="4.75539">
        <ele>75</ele>
        <time>2017-02-18T04:47:29Z</time>
      </trkpt>
      <trkpt lat="44.62355" lon="4.75494">
        <ele>75</ele>
        <time>2017-02-18T04:48:01Z</time>
      </trkpt>
      <trkpt lat="44.623" lon="4.75449">
        <ele>75</ele>
        <time>2017-02-18T04:48:33Z</time>
      </trkpt>
      <trkpt lat="44.62245" lon="4.75404">
        <ele>75</ele>
        <time>2017-02-18T04:49:05Z</time>
      </trkpt>
      <trkpt lat="44.6219" lon="4.75359">
        <ele>75</ele>
        <time>2017-02-18T04:49:37Z</time>
      </trkpt>
      <trkpt lat="44.62135" lon="4.75314">
        <ele>75</ele>
        <time>2017-02-18T04:50:09Z</time>
      </trkpt>
      <trkpt lat="44.6208" lon="4.75269">
        <ele>75</ele>
        <time>2017-02-18T04:50:40Z</time>
      </trkpt>
      <trkpt lat="44.62025" lon="4.75224">
        <ele>75</ele>
        <time>2017-02-18T04:51:12Z</time>
      </trkpt>
      <trkpt lat="44.6197" lon="4.75179">
        <ele>75</ele>
        <time>2017-02-18T04:51:44Z</time>
      </trkpt>
      <trkpt lat="44.61915" lon="4.75135">
        <ele>75</ele>
        <time>2017-02-18T04:52:16Z</time>
      </trkpt>
      <trkpt lat="44.6186" lon="4.7509">
        <ele>75</ele>
        <time>2017-02-18T04:52:48Z</time>
      </trkpt>
      <trkpt lat="44.61805" lon="4.75045">
        <ele>75</ele>
        <time>2017-02-18T04:53:20Z</time>
      </trkpt>
      <trkpt lat="44.61749" lon="4.75">
        <ele>75</ele>
        <time>2017-02-18T04:53:52Z</time>
      </trkpt>
      <trkpt lat="44.61694" lon="4.74955">
        <ele>75</ele>
        <time>2017-02-18T04:54:24Z</time>
      </trkpt>
      <trkpt lat="44.61639" lon="4.7491">
        <ele>75</ele>
        <time>2017-02-18T04:54:55Z</time>
      </trkpt>
      <trkpt lat="44.61584" lon="4.74865">
        <ele>75</ele>
        <time>2017-02-18T04:55:27Z</time>
      </trkpt>
      <trkpt lat="44.61529" lon="4.7482">
        <ele>75</ele>
        <time>2017-02-18T04:55:59Z</time>
      </trkpt>
      <trkpt lat="44.61474" lon="4.74775">
        <ele>74</ele>
        <time>2017-02-18T04:56:31Z</time>
      </trkpt>
      <trkpt lat="44.61419" lon="4.7473">
        <ele>74</ele>
        <time>2017-02-18T04:57:03Z</time>
      </trkpt>
      <trkpt lat="44.61364" lon="4.74685">
        <ele>74</ele>
        <time>2017-02-18T04:57:35Z</time>
      </trkpt>
      <trkpt lat="44.61309" lon="4.7464">
        <ele>74</ele>
        <time>2017-02-18T04:58:07Z</time>
      </trkpt>
      <trkpt lat="44.61254" lon="4.74595">
        <ele>74</ele>
        <time>2017-02-18T04:58:39Z</time>
      </trkpt>
      <trkpt lat="44.61199" lon="4.7455">
        <ele>74</ele>
        <time>2017-02-18T04:59:11Z</time>
      </trkpt>
      <trkpt lat="44.61143" lon="4.74505">
        <ele>74</ele>
        <time>2017-02-18T04:59:42Z</time>
      </trkpt>
      <trkpt lat="44.61088" lon="4.7446">
        <ele>74</ele>
        <time>2017-02-18T05:00:14Z</time>
      </trkpt>
      <trkpt lat="44.61033" lon="4.74415">
        <ele>74</ele>
        <time>2017-02-18T05:00:46Z</time>
      </trkpt>
      <trkpt lat="44.60978" lon="4.7437">
        <ele>74</ele>
        <time>2017-02-18T05:01:18Z</time>
      </trkpt>
      <trkpt lat="44.60923" lon="4.74326">
        <ele>74</ele>
        <time>2017-02-18T05:01:50Z</time>
      </trkpt>
      <trkpt lat="44.60868" lon="4.74283">
        <ele>74</ele>
        <time>2017-02-18T05:02:22Z</time>
      </trkpt>
      <trkpt lat="44.60813" lon="4.74239">
        <ele>74</ele>
        <time>2017-02-18T05:02:53Z</time>
      </trkpt>
      <trkpt lat="44.60758" lon="4.74195">
        <ele>74</ele>
        <time>2017-02-18T05:03:25Z</time>
      </trkpt>
      <trkpt lat="44.60703" lon="4.74152">
        <ele>73</ele>
        <time>2017-02-18T05:03:56Z</time>
      </trkpt>
      <trkpt lat="44.60648" lon="4.74108">
        <ele>73</ele>
        <time>2017-02-18T05:04:28Z</time>
      </trkpt>
      <trkpt lat="44.60593" lon="4.74065">
        <ele>73</ele>
        <time>2017-02-18T05:05:00Z</time>
      </trkpt>
      <trkpt lat="44.60538" lon="4.74021">
        <ele>73</ele>
        <time>2017-02-18T05:05:31Z</time>
      </trkpt>
      <trkpt lat="44.60483" lon="4.73978">
        <ele>73</ele>
        <time>2017-02-18T05:06:03Z</time>
      </trkpt>
      <trkpt lat="44.60428" lon="4.73934">
        <ele>73</ele>
        <time>2017-02-18T05:06:34Z</time>
      </trkpt>
      <trkpt lat="44.60373" lon="4.73891">
        <ele>73</ele>
        <time>2017-02-18T05:07:06Z</time>
      </trkpt>
      <trkpt lat="44.60318" lon="4.73847">
        <ele>73</ele>
        <time>2017-02-18T05:07:38Z</time>
      </trkpt>
      <trkpt lat="44.60263" lon="4.73803">
        <ele>73</ele>
        <time>2017-02-18T05:08:09Z</time>
      </trkpt>
      <trkpt lat="44.60208" lon="4.7376">
        <ele>73</ele>
        <time>2017-02-18T05:08:41Z</time>
      </trkpt>
      <trkpt lat="44.60153" lon="4.73716">
        <ele>73</ele>
        <time>2017-02-18T05:09:12Z</time>
      </trkpt>
      <trkpt lat="44.60098" lon="4.73673">
        <ele>73</ele>
        <time>2017-02-18T05:09:44Z</time>
      </trkpt>
      <trkpt lat="44.60043" lon="4.73629">
        <ele>73</ele>
        <time>2017-02-18T05:10:16Z</time>
      </trkpt>
      <trkpt lat="44.59988" lon="4.73586">
        <ele>73</ele>
        <time>2017-02-18T05:10:47Z</time>
      </trkpt>
      <trkpt lat="44.59933" lon="4.73542">
        <ele>73</ele>
        <time>2017-02-18T05:11:19Z</time>
      </trkpt>
      <trkpt lat="44.59878" lon="4.73499">
        <ele>73</ele>
        <time>2017-02-18T05:11:50Z</time>
      </trkpt>
      <trkpt lat="44.59823" lon="4.73455">
        <ele>73</ele>
        <time>2017-02-18T05:12:22Z</time>
      </trkpt>
      <trkpt lat="44.59768" lon="4.73411">
        <ele>73</ele>
        <time>2017-02-18T05:12:54Z</time>
      </trkpt>
      <trkpt lat="44.59713" lon="4.73368">
        <ele>73</ele>
        <time>2017-02-18T05:13:25Z</time>
      </trkpt>
      <trkpt lat="44.59658" lon="4.73324">
        <ele>73</ele>
        <time>2017-02-18T05:13:57Z</time>
      </trkpt>
      <trkpt lat="44.59603" lon="4.73281">
        <ele>72</ele>
        <time>2017-02-18T05:14:28Z</time>
      </trkpt>
      <trkpt lat="44.59548" lon="4.73237">
        <ele>72</ele>
        <time>2017-02-18T05:15:00Z</time>
      </trkpt>
      <trkpt lat="44.59493" lon="4.73194">
        <ele>72</ele>
        <time>2017-02-18T05:15:32Z</time>
      </trkpt>
      <trkpt lat="44.59438" lon="4.7315">
        <ele>72</ele>
        <time>2017-02-18T05:16:03Z</time>
      </trkpt>
      <trkpt lat="44.59406" lon="4.73076">
        <ele>72</ele>
        <time>2017-02-18T05:16:34Z</time>
      </trkpt>
      <trkpt lat="44.59373" lon="4.73003">
        <ele>72</ele>
        <time>2017-02-18T05:17:05Z</time>
      </trkpt>
      <trkpt lat="44.59341" lon="4.72929">
        <ele>71</ele>
        <time>2017-02-18T05:17:36Z</time>
      </trkpt>
      <trkpt lat="44.59309" lon="4.72855">
        <ele>71</ele>
        <time>2017-02-18T05:18:07Z</time>
      </trkpt>
      <trkpt lat="44.59277" lon="4.72781">
        <ele>71</ele>
        <time>2017-02-18T05:18:38Z</time>
      </trkpt>
      <trkpt lat="44.59244" lon="4.72707">
        <ele>71</ele>
        <time>2017-02-18T05:19:09Z</time>
      </trkpt>
      <trkpt lat="44.59212" lon="4.72633">
        <ele>71</ele>
        <time>2017-02-18T05:19:39Z</time>
      </trkpt>
      <trkpt lat="44.5918" lon="4.72559">
        <ele>71</ele>
        <time>2017-02-18T05:20:10Z</time>
      </trkpt>
      <trkpt lat="44.59147" lon="4.72486">
        <ele>70</ele>
        <time>2017-02-18T05:20:41Z</time>
      </trkpt>
      <trkpt lat="44.59115" lon="4.72412">
        <ele>70</ele>
        <time>2017-02-18T05:21:12Z</time>
      </trkpt>
      <trkpt lat="44.59083" lon="4.72339">
        <ele>70</ele>
        <time>2017-02-18T05:21:43Z</time>
      </trkpt>
      <trkpt lat="44.59048" lon="4.72277">
        <ele>70</ele>
        <time>2017-02-18T05:22:11Z</time>
      </trkpt>
      <trkpt lat="44.59013" lon="4.72215">
        <ele>70</ele>
        <time>2017-02-18T05:22:40Z</time>
      </trkpt>
      <trkpt lat="44.58978" lon="4.72152">
        <ele>70</ele>
        <time>2017-02-18T05:23:08Z</time>
      </trkpt>
      <trkpt lat="44.58943" lon="4.7209">
        <ele>70</ele>
        <time>2017-02-18T05:23:36Z</time>
      </trkpt>
      <trkpt lat="44.5892" lon="4.72018">
        <ele>69</ele>
        <time>2017-02-18T05:24:04Z</time>
      </trkpt>
      <trkpt lat="44.58897" lon="4.71946">
        <ele>69</ele>
        <time>2017-02-18T05:24:33Z</time>
      </trkpt>
      <trkpt lat="44.58874" lon="4.71874">
        <ele>69</ele>
        <time>2017-02-18T05:25:01Z</time>
      </trkpt>
      <trkpt lat="44.58851" lon="4.71803">
        <ele>69</ele>
        <time>2017-02-18T05:25:29Z</time>
      </trkpt>
      <trkpt lat="44.58809" lon="4.71735">
        <ele>69</ele>
        <time>2017-02-18T05:26:01Z</time>
      </trkpt>
      <trkpt lat="44.58767" lon="4.71668">
        <ele>69</ele>
        <time>2017-02-18T05:26:32Z</time>
      </trkpt>
      <trkpt lat="44.58726" lon="4.71601">
        <ele>70</ele>
        <time>2017-02-18T05:27:04Z</time>
      </trkpt>
      <trkpt lat="44.58681" lon="4.71552">
        <ele>69</ele>
        <time>2017-02-18T05:27:33Z</time>
      </trkpt>
      <trkpt lat="44.58637" lon="4.71502">
        <ele>69</ele>
        <time>2017-02-18T05:28:01Z</time>
      </trkpt>
      <trkpt lat="44.58593" lon="4.71453">
        <ele>69</ele>
        <time>2017-02-18T05:28:29Z</time>
      </trkpt>
      <trkpt lat="44.58549" lon="4.71404">
        <ele>68</ele>
        <time>2017-02-18T05:28:58Z</time>
      </trkpt>
      <trkpt lat="44.58503" lon="4.71342">
        <ele>68</ele>
        <time>2017-02-18T05:29:29Z</time>
      </trkpt>
      <trkpt lat="44.58458" lon="4.71281">
        <ele>69</ele>
        <time>2017-02-18T05:30:00Z</time>
      </trkpt>
      <trkpt lat="44.58413" lon="4.7122">
        <ele>71</ele>
        <time>2017-02-18T05:30:32Z</time>
      </trkpt>
      <trkpt lat="44.58368" lon="4.71159">
        <ele>68</ele>
        <time>2017-02-18T05:31:03Z</time>
      </trkpt>
      <trkpt lat="44.58321" lon="4.71117">
        <ele>68</ele>
        <time>2017-02-18T05:31:31Z</time>
      </trkpt>
      <trkpt lat="44.58273" lon="4.71075">
        <ele>68</ele>
        <time>2017-02-18T05:31:59Z</time>
      </trkpt>
      <trkpt lat="44.58226" lon="4.71032">
        <ele>68</ele>
        <time>2017-02-18T05:32:27Z</time>
      </trkpt>
      <trkpt lat="44.58179" lon="4.7099">
        <ele>68</ele>
        <time>2017-02-18T05:32:56Z</time>
      </trkpt>
      <trkpt lat="44.58131" lon="4.70948">
        <ele>68</ele>
        <time>2017-02-18T05:33:24Z</time>
      </trkpt>
      <trkpt lat="44.58084" lon="4.70906">
        <ele>68</ele>
        <time>2017-02-18T05:33:52Z</time>
      </trkpt>
      <trkpt lat="44.58028" lon="4.70869">
        <ele>68</ele>
        <time>2017-02-18T05:34:22Z</time>
      </trkpt>
      <trkpt lat="44.57973" lon="4.70831">
        <ele>68</ele>
        <time>2017-02-18T05:34:53Z</time>
      </trkpt>
      <trkpt lat="44.57917" lon="4.70794">
        <ele>68</ele>
        <time>2017-02-18T05:35:24Z</time>
      </trkpt>
      <trkpt lat="44.57862" lon="4.70757">
        <ele>68</ele>
        <time>2017-02-18T05:35:55Z</time>
      </trkpt>
      <trkpt lat="44.57806" lon="4.7072">
        <ele>68</ele>
        <time>2017-02-18T05:36:26Z</time>
      </trkpt>
      <trkpt lat="44.57751" lon="4.70683">
        <ele>68</ele>
        <time>2017-02-18T05:36:56Z</time>
      </trkpt>
      <trkpt lat="44.57694" lon="4.70648">
        <ele>68</ele>
        <time>2017-02-18T05:37:27Z</time>
      </trkpt>
      <trkpt lat="44.57638" lon="4.70613">
        <ele>68</ele>
        <time>2017-02-18T05:37:58Z</time>
      </trkpt>
      <trkpt lat="44.57581" lon="4.70578">
        <ele>68</ele>
        <time>2017-02-18T05:38:29Z</time>
      </trkpt>
      <trkpt lat="44.57525" lon="4.70543">
        <ele>68</ele>
        <time>2017-02-18T05:39:00Z</time>
      </trkpt>
      <trkpt lat="44.57469" lon="4.70508">
        <ele>68</ele>
        <time>2017-02-18T05:39:31Z</time>
      </trkpt>
      <trkpt lat="44.57412" lon="4.70473">
        <ele>68</ele>
        <time>2017-02-18T05:40:02Z</time>
      </trkpt>
      <trkpt lat="44.57356" lon="4.70438">
        <ele>68</ele>
        <time>2017-02-18T05:40:33Z</time>
      </trkpt>
      <trkpt lat="44.57299" lon="4.70403">
        <ele>68</ele>
        <time>2017-02-18T05:41:03Z</time>
      </trkpt>
      <trkpt lat="44.57243" lon="4.70368">
        <ele>68</ele>
        <time>2017-02-18T05:41:34Z</time>
      </trkpt>
      <trkpt lat="44.57187" lon="4.70333">
        <ele>68</ele>
        <time>2017-02-18T05:42:05Z</time>
      </trkpt>
      <trkpt lat="44.5713" lon="4.70298">
        <ele>68</ele>
        <time>2017-02-18T05:42:36Z</time>
      </trkpt>
      <trkpt lat="44.57074" lon="4.70263">
        <ele>68</ele>
        <time>2017-02-18T05:43:07Z</time>
      </trkpt>
      <trkpt lat="44.57017" lon="4.70228">
        <ele>68</ele>
        <time>2017-02-18T05:43:38Z</time>
      </trkpt>
      <trkpt lat="44.56957" lon="4.70207">
        <ele>68</ele>
        <time>2017-02-18T05:44:09Z</time>
      </trkpt>
      <trkpt lat="44.56896" lon="4.70187">
        <ele>68</ele>
        <time>2017-02-18T05:44:40Z</time>
      </trkpt>
      <trkpt lat="44.56836" lon="4.70167">
        <ele>68</ele>
        <time>2017-02-18T05:45:11Z</time>
      </trkpt>
      <trkpt lat="44.56776" lon="4.70146">
        <ele>68</ele>
        <time>2017-02-18T05:45:42Z</time>
      </trkpt>
      <trkpt lat="44.56725" lon="4.70108">
        <ele>68</ele>
        <time>2017-02-18T05:46:11Z</time>
      </trkpt>
      <trkpt lat="44.56675" lon="4.70069">
        <ele>68</ele>
        <time>2017-02-18T05:46:39Z</time>
      </trkpt>
      <trkpt lat="44.56627" lon="4.70025">
        <ele>68</ele>
        <time>2017-02-18T05:47:08Z</time>
      </trkpt>
      <trkpt lat="44.56579" lon="4.6998">
        <ele>68</ele>
        <time>2017-02-18T05:47:37Z</time>
      </trkpt>
      <trkpt lat="44.56531" lon="4.69936">
        <ele>68</ele>
        <time>2017-02-18T05:48:06Z</time>
      </trkpt>
      <trkpt lat="44.56486" lon="4.69879">
        <ele>68</ele>
        <time>2017-02-18T05:48:36Z</time>
      </trkpt>
      <trkpt lat="44.56441" lon="4.69822">
        <ele>68</ele>
        <time>2017-02-18T05:49:06Z</time>
      </trkpt>
      <trkpt lat="44.56396" lon="4.69766">
        <ele>68</ele>
        <time>2017-02-18T05:49:36Z</time>
      </trkpt>
      <trkpt lat="44.56351" lon="4.69709">
        <ele>67</ele>
        <time>2017-02-18T05:50:07Z</time>
      </trkpt>
      <trkpt lat="44.56307" lon="4.69652">
        <ele>68</ele>
        <time>2017-02-18T05:50:37Z</time>
      </trkpt>
      <trkpt lat="44.56262" lon="4.69595">
        <ele>68</ele>
        <time>2017-02-18T05:51:07Z</time>
      </trkpt>
      <trkpt lat="44.56217" lon="4.69538">
        <ele>68</ele>
        <time>2017-02-18T05:51:37Z</time>
      </trkpt>
      <trkpt lat="44.56172" lon="4.69482">
        <ele>68</ele>
        <time>2017-02-18T05:52:08Z</time>
      </trkpt>
      <trkpt lat="44.56127" lon="4.69425">
        <ele>68</ele>
        <time>2017-02-18T05:52:38Z</time>
      </trkpt>
      <trkpt lat="44.56084" lon="4.69394">
        <ele>68</ele>
        <time>2017-02-18T05:53:02Z</time>
      </trkpt>
      <trkpt lat="44.5604" lon="4.69363">
        <ele>69</ele>
        <time>2017-02-18T05:53:27Z</time>
      </trkpt>
      <trkpt lat="44.55997" lon="4.69332">
        <ele>68</ele>
        <time>2017-02-18T05:53:51Z</time>
      </trkpt>
      <trkpt lat="44.55953" lon="4.69301">
        <ele>68</ele>
        <time>2017-02-18T05:54:16Z</time>
      </trkpt>
      <trkpt lat="44.55906" lon="4.6929">
        <ele>68</ele>
        <time>2017-02-18T05:54:40Z</time>
      </trkpt>
      <trkpt lat="44.55858" lon="4.69279">
        <ele>69</ele>
        <time>2017-02-18T05:55:04Z</time>
      </trkpt>
      <trkpt lat="44.55811" lon="4.69269">
        <ele>69</ele>
        <time>2017-02-18T05:55:28Z</time>
      </trkpt>
      <trkpt lat="44.55763" lon="4.69258">
        <ele>70</ele>
        <time>2017-02-18T05:55:52Z</time>
      </trkpt>
      <trkpt lat="44.55705" lon="4.69254">
        <ele>70</ele>
        <time>2017-02-18T05:56:21Z</time>
      </trkpt>
      <trkpt lat="44.55647" lon="4.6925">
        <ele>68</ele>
        <time>2017-02-18T05:56:50Z</time>
      </trkpt>
      <trkpt lat="44.55588" lon="4.69247">
        <ele>68</ele>
        <time>2017-02-18T05:57:20Z</time>
      </trkpt>
      <trkpt lat="44.5553" lon="4.69243">
        <ele>68</ele>
        <time>2017-02-18T05:57:49Z</time>
      </trkpt>
      <trkpt lat="44.55471" lon="4.69239">
        <ele>68</ele>
        <time>2017-02-18T05:58:18Z</time>
      </trkpt>
      <trkpt lat="44.55413" lon="4.69235">
        <ele>68</ele>
        <time>2017-02-18T05:58:47Z</time>
      </trkpt>
      <trkpt lat="44.55354" lon="4.69232">
        <ele>68</ele>
        <time>2017-02-18T05:59:17Z</time>
      </trkpt>
      <trkpt lat="44.55296" lon="4.69228">
        <ele>68</ele>
        <time>2017-02-18T05:59:46Z</time>
      </trkpt>
      <trkpt lat="44.55241" lon="4.69246">
        <ele>68</ele>
        <time>2017-02-18T06:00:14Z</time>
      </trkpt>
      <trkpt lat="44.55186" lon="4.69264">
        <ele>68</ele>
        <time>2017-02-18T06:00:42Z</time>
      </trkpt>
      <trkpt lat="44.55131" lon="4.69282">
        <ele>68</ele>
        <time>2017-02-18T06:01:11Z</time>
      </trkpt>
      <trkpt lat="44.55075" lon="4.69301">
        <ele>68</ele>
        <time>2017-02-18T06:01:39Z</time>
      </trkpt>
      <trkpt lat="44.55026" lon="4.69299">
        <ele>67</ele>
        <time>2017-02-18T06:02:04Z</time>
      </trkpt>
      <trkpt lat="44.54976" lon="4.69296">
        <ele>67</ele>
        <time>2017-02-18T06:02:29Z</time>
      </trkpt>
      <trkpt lat="44.54926" lon="4.69294">
        <ele>67</ele>
        <time>2017-02-18T06:02:54Z</time>
      </trkpt>
      <trkpt lat="44.54877" lon="4.69292">
        <ele>67</ele>
        <time>2017-02-18T06:03:19Z</time>
      </trkpt>
      <trkpt lat="44.5482" lon="4.69295">
        <ele>67</ele>
        <time>2017-02-18T06:03:47Z</time>
      </trkpt>
      <trkpt lat="44.54762" lon="4.69299">
        <ele>67</ele>
        <time>2017-02-18T06:04:16Z</time>
      </trkpt>
      <trkpt lat="44.54705" lon="4.69302">
        <ele>68</ele>
        <time>2017-02-18T06:04:44Z</time>
      </trkpt>
      <trkpt lat="44.54648" lon="4.69305">
        <ele>68</ele>
        <time>2017-02-18T06:05:13Z</time>
      </trkpt>
      <trkpt lat="44.54591" lon="4.69309">
        <ele>67</ele>
        <time>2017-02-18T06:05:41Z</time>
      </trkpt>
      <trkpt lat="44.54534" lon="4.69312">
        <ele>67</ele>
        <time>2017-02-18T06:06:10Z</time>
      </trkpt>
      <trkpt lat="44.54477" lon="4.69316">
        <ele>67</ele>
        <time>2017-02-18T06:06:39Z</time>
      </trkpt>
      <trkpt lat="44.5442" lon="4.69319">
        <ele>67</ele>
        <time>2017-02-18T06:07:07Z</time>
      </trkpt>
      <trkpt lat="44.54363" lon="4.69322">
        <ele>67</ele>
        <time>2017-02-18T06:07:36Z</time>
      </trkpt>
      <trkpt lat="44.54306" lon="4.69346">
        <ele>68</ele>
        <time>2017-02-18T06:08:05Z</time>
      </trkpt>
      <trkpt lat="44.5425" lon="4.69369">
        <ele>67</ele>
        <time>2017-02-18T06:08:35Z</time>
      </trkpt>
      <trkpt lat="44.54193" lon="4.69393">
        <ele>67</ele>
        <time>2017-02-18T06:09:04Z</time>
      </trkpt>
      <trkpt lat="44.54137" lon="4.69417">
        <ele>67</ele>
        <time>2017-02-18T06:09:34Z</time>
      </trkpt>
      <trkpt lat="44.5408" lon="4.6944">
        <ele>68</ele>
        <time>2017-02-18T06:10:03Z</time>
      </trkpt>
      <trkpt lat="44.54023" lon="4.69464">
        <ele>67</ele>
        <time>2017-02-18T06:10:33Z</time>
      </trkpt>
      <trkpt lat="44.53967" lon="4.69487">
        <ele>69</ele>
        <time>2017-02-18T06:11:02Z</time>
      </trkpt>
      <trkpt lat="44.5391" lon="4.69511">
        <ele>70</ele>
        <time>2017-02-18T06:11:32Z</time>
      </trkpt>
      <trkpt lat="44.53856" lon="4.69547">
        <ele>74</ele>
        <time>2017-02-18T06:12:02Z</time>
      </trkpt>
      <trkpt lat="44.53802" lon="4.69583">
        <ele>72</ele>
        <time>2017-02-18T06:12:32Z</time>
      </trkpt>
      <trkpt lat="44.53748" lon="4.69618">
        <ele>70</ele>
        <time>2017-02-18T06:13:02Z</time>
      </trkpt>
      <trkpt lat="44.53694" lon="4.69654">
        <ele>71</ele>
        <time>2017-02-18T06:13:31Z</time>
      </trkpt>
      <trkpt lat="44.5364" lon="4.6969">
        <ele>68</ele>
        <time>2017-02-18T06:14:01Z</time>
      </trkpt>
      <trkpt lat="44.53586" lon="4.69726">
        <ele>69</ele>
        <time>2017-02-18T06:14:31Z</time>
      </trkpt>
      <trkpt lat="44.53532" lon="4.69761">
        <ele>69</ele>
        <time>2017-02-18T06:15:01Z</time>
      </trkpt>
      <trkpt lat="44.53478" lon="4.69797">
        <ele>70</ele>
        <time>2017-02-18T06:15:31Z</time>
      </trkpt>
      <trkpt lat="44.53424" lon="4.69833">
        <ele>69</ele>
        <time>2017-02-18T06:16:01Z</time>
      </trkpt>
      <trkpt lat="44.53369" lon="4.69854">
        <ele>68</ele>
        <time>2017-02-18T06:16:29Z</time>
      </trkpt>
      <trkpt lat="44.53314" lon="4.69875">
        <ele>68</ele>
        <time>2017-02-18T06:16:58Z</time>
      </trkpt>
      <trkpt lat="44.5326" lon="4.69895">
        <ele>67</ele>
        <time>2017-02-18T06:17:26Z</time>
      </trkpt>
      <trkpt lat="44.53205" lon="4.69916">
        <ele>67</ele>
        <time>2017-02-18T06:17:54Z</time>
      </trkpt>
      <trkpt lat="44.53151" lon="4.69937">
        <ele>69</ele>
        <time>2017-02-18T06:18:23Z</time>
      </trkpt>
      <trkpt lat="44.53096" lon="4.69958">
        <ele>70</ele>
        <time>2017-02-18T06:18:51Z</time>
      </trkpt>
      <trkpt lat="44.53041" lon="4.69979">
        <ele>69</ele>
        <time>2017-02-18T06:19:19Z</time>
      </trkpt>
      <trkpt lat="44.52979" lon="4.69982">
        <ele>68</ele>
        <time>2017-02-18T06:19:50Z</time>
      </trkpt>
      <trkpt lat="44.52916" lon="4.69986">
        <ele>69</ele>
        <time>2017-02-18T06:20:22Z</time>
      </trkpt>
      <trkpt lat="44.52854" lon="4.6999">
        <ele>68</ele>
        <time>2017-02-18T06:20:53Z</time>
      </trkpt>
      <trkpt lat="44.52791" lon="4.69994">
        <ele>67</ele>
        <time>2017-02-18T06:21:24Z</time>
      </trkpt>
      <trkpt lat="44.52729" lon="4.69997">
        <ele>66</ele>
        <time>2017-02-18T06:21:56Z</time>
      </trkpt>
      <trkpt lat="44.52667" lon="4.70001">
        <ele>67</ele>
        <time>2017-02-18T06:22:27Z</time>
      </trkpt>
      <trkpt lat="44.52604" lon="4.70005">
        <ele>67</ele>
        <time>2017-02-18T06:22:58Z</time>
      </trkpt>
      <trkpt lat="44.52551" lon="4.6998">
        <ele>68</ele>
        <time>2017-02-18T06:23:26Z</time>
      </trkpt>
      <trkpt lat="44.52498" lon="4.69956">
        <ele>68</ele>
        <time>2017-02-18T06:23:54Z</time>
      </trkpt>
      <trkpt lat="44.52445" lon="4.69931">
        <ele>67</ele>
        <time>2017-02-18T06:24:22Z</time>
      </trkpt>
      <trkpt lat="44.52392" lon="4.69907">
        <ele>67</ele>
        <time>2017-02-18T06:24:50Z</time>
      </trkpt>
      <trkpt lat="44.52339" lon="4.69882">
        <ele>67</ele>
        <time>2017-02-18T06:25:17Z</time>
      </trkpt>
      <trkpt lat="44.52287" lon="4.69857">
        <ele>66</ele>
        <time>2017-02-18T06:25:45Z</time>
      </trkpt>
      <trkpt lat="44.52234" lon="4.69833">
        <ele>66</ele>
        <time>2017-02-18T06:26:13Z</time>
      </trkpt>
      <trkpt lat="44.52189" lon="4.69783">
        <ele>66</ele>
        <time>2017-02-18T06:26:42Z</time>
      </trkpt>
      <trkpt lat="44.52144" lon="4.69734">
        <ele>66</ele>
        <time>2017-02-18T06:27:10Z</time>
      </trkpt>
      <trkpt lat="44.521" lon="4.69684">
        <ele>66</ele>
        <time>2017-02-18T06:27:39Z</time>
      </trkpt>
      <trkpt lat="44.52055" lon="4.69634">
        <ele>67</ele>
        <time>2017-02-18T06:28:07Z</time>
      </trkpt>
      <trkpt lat="44.52011" lon="4.69585">
        <ele>66</ele>
        <time>2017-02-18T06:28:36Z</time>
      </trkpt>
      <trkpt lat="44.51966" lon="4.69535">
        <ele>66</ele>
        <time>2017-02-18T06:29:04Z</time>
      </trkpt>
      <trkpt lat="44.51922" lon="4.69486">
        <ele>66</ele>
        <time>2017-02-18T06:29:33Z</time>
      </trkpt>
      <trkpt lat="44.51877" lon="4.69436">
        <ele>66</ele>
        <time>2017-02-18T06:30:01Z</time>
      </trkpt>
      <trkpt lat="44.51833" lon="4.69387">
        <ele>65</ele>
        <time>2017-02-18T06:30:29Z</time>
      </trkpt>
      <trkpt lat="44.5179" lon="4.69343">
        <ele>65</ele>
        <time>2017-02-18T06:30:56Z</time>
      </trkpt>
      <trkpt lat="44.51747" lon="4.69299">
        <ele>65</ele>
        <time>2017-02-18T06:31:23Z</time>
      </trkpt>
      <trkpt lat="44.51704" lon="4.69255">
        <ele>64</ele>
        <time>2017-02-18T06:31:49Z</time>
      </trkpt>
      <trkpt lat="44.51661" lon="4.69211">
        <ele>64</ele>
        <time>2017-02-18T06:32:16Z</time>
      </trkpt>
      <trkpt lat="44.51618" lon="4.69168">
        <ele>65</ele>
        <time>2017-02-18T06:32:42Z</time>
      </trkpt>
      <trkpt lat="44.51563" lon="4.69146">
        <ele>65</ele>
        <time>2017-02-18T06:33:11Z</time>
      </trkpt>
      <trkpt lat="44.51507" lon="4.69125">
        <ele>65</ele>
        <time>2017-02-18T06:33:40Z</time>
      </trkpt>
      <trkpt lat="44.51451" lon="4.69103">
        <ele>65</ele>
        <time>2017-02-18T06:34:09Z</time>
      </trkpt>
      <trkpt lat="44.51395" lon="4.69082">
        <ele>65</ele>
        <time>2017-02-18T06:34:38Z</time>
      </trkpt>
      <trkpt lat="44.51337" lon="4.69061">
        <ele>65</ele>
        <time>2017-02-18T06:35:08Z</time>
      </trkpt>
      <trkpt lat="44.51279" lon="4.6904">
        <ele>64</ele>
        <time>2017-02-18T06:35:38Z</time>
      </trkpt>
      <trkpt lat="44.51221" lon="4.69019">
        <ele>65</ele>
        <time>2017-02-18T06:36:08Z</time>
      </trkpt>
      <trkpt lat="44.51163" lon="4.68998">
        <ele>64</ele>
        <time>2017-02-18T06:36:38Z</time>
      </trkpt>
      <trkpt lat="44.51105" lon="4.68977">
        <ele>64</ele>
        <time>2017-02-18T06:37:08Z</time>
      </trkpt>
      <trkpt lat="44.51046" lon="4.68956">
        <ele>64</ele>
        <time>2017-02-18T06:37:38Z</time>
      </trkpt>
      <trkpt lat="44.50988" lon="4.68936">
        <ele>65</ele>
        <time>2017-02-18T06:38:08Z</time>
      </trkpt>
      <trkpt lat="44.5093" lon="4.68915">
        <ele>66</ele>
        <time>2017-02-18T06:38:38Z</time>
      </trkpt>
      <trkpt lat="44.50871" lon="4.68899">
        <ele>65</ele>
        <time>2017-02-18T06:39:08Z</time>
      </trkpt>
      <trkpt lat="44.50813" lon="4.68884">
        <ele>64</ele>
        <time>2017-02-18T06:39:38Z</time>
      </trkpt>
      <trkpt lat="44.50754" lon="4.68869">
        <ele>64</ele>
        <time>2017-02-18T06:40:08Z</time>
      </trkpt>
      <trkpt lat="44.50695" lon="4.68854">
        <ele>65</ele>
        <time>2017-02-18T06:40:38Z</time>
      </trkpt>
      <trkpt lat="44.50636" lon="4.68839">
        <ele>66</ele>
        <time>2017-02-18T06:41:08Z</time>
      </trkpt>
      <trkpt lat="44.50578" lon="4.68824">
        <ele>64</ele>
        <time>2017-02-18T06:41:37Z</time>
      </trkpt>
      <trkpt lat="44.50519" lon="4.68809">
        <ele>64</ele>
        <time>2017-02-18T06:42:07Z</time>
      </trkpt>
      <trkpt lat="44.5046" lon="4.68794">
        <ele>64</ele>
        <time>2017-02-18T06:42:37Z</time>
      </trkpt>
      <trkpt lat="44.50402" lon="4.68779">
        <ele>64</ele>
        <time>2017-02-18T06:43:07Z</time>
      </trkpt>
      <trkpt lat="44.50342" lon="4.68764">
        <ele>65</ele>
        <time>2017-02-18T06:43:37Z</time>
      </trkpt>
      <trkpt lat="44.5028" lon="4.68759">
        <ele>66</ele>
        <time>2017-02-18T06:44:08Z</time>
      </trkpt>
      <trkpt lat="44.50218" lon="4.68753">
        <ele>70</ele>
        <time>2017-02-18T06:44:39Z</time>
      </trkpt>
      <trkpt lat="44.50156" lon="4.68747">
        <ele>66</ele>
        <time>2017-02-18T06:45:10Z</time>
      </trkpt>
      <trkpt lat="44.50094" lon="4.68741">
        <ele>67</ele>
        <time>2017-02-18T06:45:42Z</time>
      </trkpt>
      <trkpt lat="44.50031" lon="4.68736">
        <ele>68</ele>
        <time>2017-02-18T06:46:13Z</time>
      </trkpt>
      <trkpt lat="44.49969" lon="4.6873">
        <ele>66</ele>
        <time>2017-02-18T06:46:44Z</time>
      </trkpt>
      <trkpt lat="44.49907" lon="4.68724">
        <ele>66</ele>
        <time>2017-02-18T06:47:15Z</time>
      </trkpt>
      <trkpt lat="44.49845" lon="4.68719">
        <ele>67</ele>
        <time>2017-02-18T06:47:46Z</time>
      </trkpt>
      <trkpt lat="44.49782" lon="4.68713">
        <ele>68</ele>
        <time>2017-02-18T06:48:18Z</time>
      </trkpt>
      <trkpt lat="44.49727" lon="4.68729">
        <ele>65</ele>
        <time>2017-02-18T06:48:46Z</time>
      </trkpt>
      <trkpt lat="44.49671" lon="4.68745">
        <ele>66</ele>
        <time>2017-02-18T06:49:14Z</time>
      </trkpt>
      <trkpt lat="44.49616" lon="4.68761">
        <ele>66</ele>
        <time>2017-02-18T06:49:43Z</time>
      </trkpt>
      <trkpt lat="44.4956" lon="4.68777">
        <ele>66</ele>
        <time>2017-02-18T06:50:11Z</time>
      </trkpt>
      <trkpt lat="44.49505" lon="4.68793">
        <ele>67</ele>
        <time>2017-02-18T06:50:39Z</time>
      </trkpt>
      <trkpt lat="44.4945" lon="4.68809">
        <ele>67</ele>
        <time>2017-02-18T06:51:08Z</time>
      </trkpt>
      <trkpt lat="44.49394" lon="4.68825">
        <ele>67</ele>
        <time>2017-02-18T06:51:36Z</time>
      </trkpt>
      <trkpt lat="44.49338" lon="4.68842">
        <ele>65</ele>
        <time>2017-02-18T06:52:04Z</time>
      </trkpt>
      <trkpt lat="44.49287" lon="4.68877">
        <ele>64</ele>
        <time>2017-02-18T06:52:33Z</time>
      </trkpt>
      <trkpt lat="44.49235" lon="4.68913">
        <ele>65</ele>
        <time>2017-02-18T06:53:02Z</time>
      </trkpt>
      <trkpt lat="44.49183" lon="4.68949">
        <ele>64</ele>
        <time>2017-02-18T06:53:31Z</time>
      </trkpt>
      <trkpt lat="44.49132" lon="4.68985">
        <ele>64</ele>
        <time>2017-02-18T06:54:00Z</time>
      </trkpt>
      <trkpt lat="44.4908" lon="4.6902">
        <ele>65</ele>
        <time>2017-02-18T06:54:29Z</time>
      </trkpt>
      <trkpt lat="44.49028" lon="4.69056">
        <ele>64</ele>
        <time>2017-02-18T06:54:57Z</time>
      </trkpt>
      <trkpt lat="44.48976" lon="4.69092">
        <ele>66</ele>
        <time>2017-02-18T06:55:26Z</time>
      </trkpt>
      <trkpt lat="44.48925" lon="4.69128">
        <ele>64</ele>
        <time>2017-02-18T06:55:55Z</time>
      </trkpt>
      <trkpt lat="44.48873" lon="4.69163">
        <ele>64</ele>
        <time>2017-02-18T06:56:24Z</time>
      </trkpt>
      <trkpt lat="44.4883" lon="4.69215">
        <ele>65</ele>
        <time>2017-02-18T06:56:52Z</time>
      </trkpt>
      <trkpt lat="44.48788" lon="4.69268">
        <ele>65</ele>
        <time>2017-02-18T06:57:20Z</time>
      </trkpt>
      <trkpt lat="44.48745" lon="4.6932">
        <ele>64</ele>
        <time>2017-02-18T06:57:49Z</time>
      </trkpt>
      <trkpt lat="44.48703" lon="4.69372">
        <ele>64</ele>
        <time>2017-02-18T06:58:17Z</time>
      </trkpt>
      <trkpt lat="44.4866" lon="4.69424">
        <ele>65</ele>
        <time>2017-02-18T06:58:45Z</time>
      </trkpt>
      <trkpt lat="44.48618" lon="4.69476">
        <ele>64</ele>
        <time>2017-02-18T06:59:13Z</time>
      </trkpt>
      <trkpt lat="44.48575" lon="4.69528">
        <ele>64</ele>
        <time>2017-02-18T06:59:42Z</time>
      </trkpt>
      <trkpt lat="44.48533" lon="4.6958">
        <ele>64</ele>
        <time>2017-02-18T07:00:10Z</time>
      </trkpt>
      <trkpt lat="44.48487" lon="4.69611">
        <ele>64</ele>
        <time>2017-02-18T07:00:36Z</time>
      </trkpt>
      <trkpt lat="44.4844" lon="4.69643">
        <ele>64</ele>
        <time>2017-02-18T07:01:02Z</time>
      </trkpt>
      <trkpt lat="44.48394" lon="4.69675">
        <ele>65</ele>
        <time>2017-02-18T07:01:28Z</time>
      </trkpt>
      <trkpt lat="44.48347" lon="4.69707">
        <ele>64</ele>
        <time>2017-02-18T07:01:54Z</time>
      </trkpt>
      <trkpt lat="44.483" lon="4.69738">
        <ele>64</ele>
        <time>2017-02-18T07:02:19Z</time>
      </trkpt>
      <trkpt lat="44.48241" lon="4.69759">
        <ele>65</ele>
        <time>2017-02-18T07:02:50Z</time>
      </trkpt>
      <trkpt lat="44.48182" lon="4.6978">
        <ele>64</ele>
        <time>2017-02-18T07:03:21Z</time>
      </trkpt>
      <trkpt lat="44.48122" lon="4.698">
        <ele>64</ele>
        <time>2017-02-18T07:03:51Z</time>
      </trkpt>
      <trkpt lat="44.48063" lon="4.69821">
        <ele>66</ele>
        <time>2017-02-18T07:04:22Z</time>
      </trkpt>
      <trkpt lat="44.48003" lon="4.69841">
        <ele>65</ele>
        <time>2017-02-18T07:04:52Z</time>
      </trkpt>
      <trkpt lat="44.47941" lon="4.69848">
        <ele>65</ele>
        <time>2017-02-18T07:05:24Z</time>
      </trkpt>
      <trkpt lat="44.47878" lon="4.69855">
        <ele>65</ele>
        <time>2017-02-18T07:05:55Z</time>
      </trkpt>
      <trkpt lat="44.47815" lon="4.69862">
        <ele>64</ele>
        <time>2017-02-18T07:06:27Z</time>
      </trkpt>
      <trkpt lat="44.47753" lon="4.69869">
        <ele>64</ele>
        <time>2017-02-18T07:06:58Z</time>
      </trkpt>
      <trkpt lat="44.4769" lon="4.69876">
        <ele>64</ele>
        <time>2017-02-18T07:07:30Z</time>
      </trkpt>
      <trkpt lat="44.47627" lon="4.69883">
        <ele>65</ele>
        <time>2017-02-18T07:08:01Z</time>
      </trkpt>
      <trkpt lat="44.47564" lon="4.6989">
        <ele>66</ele>
        <time>2017-02-18T07:08:33Z</time>
      </trkpt>
      <trkpt lat="44.47502" lon="4.69897">
        <ele>65</ele>
        <time>2017-02-18T07:09:04Z</time>
      </trkpt>
      <trkpt lat="44.47439" lon="4.69904">
        <ele>63</ele>
        <time>2017-02-18T07:09:36Z</time>
      </trkpt>
      <trkpt lat="44.47376" lon="4.69911">
        <ele>63</ele>
        <time>2017-02-18T07:10:07Z</time>
      </trkpt>
      <trkpt lat="44.47313" lon="4.69918">
        <ele>65</ele>
        <time>2017-02-18T07:10:39Z</time>
      </trkpt>
      <trkpt lat="44.47251" lon="4.69925">
        <ele>63</ele>
        <time>2017-02-18T07:11:10Z</time>
      </trkpt>
      <trkpt lat="44.47188" lon="4.69932">
        <ele>63</ele>
        <time>2017-02-18T07:11:42Z</time>
      </trkpt>
      <trkpt lat="44.47125" lon="4.69939">
        <ele>63</ele>
        <time>2017-02-18T07:12:13Z</time>
      </trkpt>
      <trkpt lat="44.47063" lon="4.69946">
        <ele>63</ele>
        <time>2017-02-18T07:12:45Z</time>
      </trkpt>
      <trkpt lat="44.47" lon="4.69953">
        <ele>63</ele>
        <time>2017-02-18T07:13:16Z</time>
      </trkpt>
      <trkpt lat="44.46937" lon="4.6996">
        <ele>63</ele>
        <time>2017-02-18T07:13:48Z</time>
      </trkpt>
      <trkpt lat="44.46874" lon="4.69967">
        <ele>63</ele>
        <time>2017-02-18T07:14:19Z</time>
      </trkpt>
      <trkpt lat="44.46812" lon="4.69974">
        <ele>63</ele>
        <time>2017-02-18T07:14:51Z</time>
      </trkpt>
      <trkpt lat="44.46749" lon="4.69981">
        <ele>63</ele>
        <time>2017-02-18T07:15:22Z</time>
      </trkpt>
      <trkpt lat="44.46686" lon="4.69988">
        <ele>62</ele>
        <time>2017-02-18T07:15:54Z</time>
      </trkpt>
      <trkpt lat="44.46624" lon="4.69995">
        <ele>62</ele>
        <time>2017-02-18T07:16:25Z</time>
      </trkpt>
      <trkpt lat="44.46561" lon="4.70002">
        <ele>62</ele>
        <time>2017-02-18T07:16:57Z</time>
      </trkpt>
      <trkpt lat="44.46497" lon="4.70009">
        <ele>62</ele>
        <time>2017-02-18T07:17:28Z</time>
      </trkpt>
      <trkpt lat="44.46436" lon="4.69995">
        <ele>62</ele>
        <time>2017-02-18T07:17:59Z</time>
      </trkpt>
      <trkpt lat="44.46374" lon="4.69981">
        <ele>62</ele>
        <time>2017-02-18T07:18:30Z</time>
      </trkpt>
      <trkpt lat="44.46313" lon="4.69968">
        <ele>62</ele>
        <time>2017-02-18T07:19:01Z</time>
      </trkpt>
      <trkpt lat="44.46252" lon="4.69954">
        <ele>62</ele>
        <time>2017-02-18T07:19:32Z</time>
      </trkpt>
      <trkpt lat="44.46191" lon="4.6994">
        <ele>62</ele>
        <time>2017-02-18T07:20:03Z</time>
      </trkpt>
      <trkpt lat="44.46129" lon="4.69927">
        <ele>61</ele>
        <time>2017-02-18T07:20:34Z</time>
      </trkpt>
      <trkpt lat="44.46068" lon="4.69913">
        <ele>61</ele>
        <time>2017-02-18T07:21:05Z</time>
      </trkpt>
      <trkpt lat="44.46007" lon="4.69899">
        <ele>61</ele>
        <time>2017-02-18T07:21:36Z</time>
      </trkpt>
      <trkpt lat="44.45946" lon="4.69885">
        <ele>61</ele>
        <time>2017-02-18T07:22:08Z</time>
      </trkpt>
      <trkpt lat="44.45885" lon="4.69872">
        <ele>61</ele>
        <time>2017-02-18T07:22:39Z</time>
      </trkpt>
      <trkpt lat="44.45823" lon="4.69858">
        <ele>61</ele>
        <time>2017-02-18T07:23:10Z</time>
      </trkpt>
      <trkpt lat="44.45762" lon="4.69844">
        <ele>62</ele>
        <time>2017-02-18T07:23:41Z</time>
      </trkpt>
      <trkpt lat="44.45701" lon="4.6983">
        <ele>62</ele>
        <time>2017-02-18T07:24:12Z</time>
      </trkpt>
      <trkpt lat="44.4564" lon="4.69817">
        <ele>61</ele>
        <time>2017-02-18T07:24:43Z</time>
      </trkpt>
      <trkpt lat="44.45579" lon="4.69803">
        <ele>61</ele>
        <time>2017-02-18T07:25:14Z</time>
      </trkpt>
      <trkpt lat="44.45517" lon="4.69789">
        <ele>61</ele>
        <time>2017-02-18T07:25:45Z</time>
      </trkpt>
      <trkpt lat="44.45456" lon="4.69776">
        <ele>61</ele>
        <time>2017-02-18T07:26:16Z</time>
      </trkpt>
      <trkpt lat="44.45395" lon="4.69762">
        <ele>61</ele>
        <time>2017-02-18T07:26:47Z</time>
      </trkpt>
      <trkpt lat="44.45334" lon="4.69748">
        <ele>61</ele>
        <time>2017-02-18T07:27:18Z</time>
      </trkpt>
      <trkpt lat="44.45271" lon="4.69734">
        <ele>60</ele>
        <time>2017-02-18T07:27:49Z</time>
      </trkpt>
      <trkpt lat="44.45211" lon="4.69707">
        <ele>60</ele>
        <time>2017-02-18T07:28:21Z</time>
      </trkpt>
      <trkpt lat="44.45151" lon="4.69681">
        <ele>60</ele>
        <time>2017-02-18T07:28:52Z</time>
      </trkpt>
      <trkpt lat="44.4509" lon="4.69654">
        <ele>60</ele>
        <time>2017-02-18T07:29:24Z</time>
      </trkpt>
      <trkpt lat="44.4503" lon="4.69627">
        <ele>60</ele>
        <time>2017-02-18T07:29:56Z</time>
      </trkpt>
      <trkpt lat="44.44969" lon="4.696">
        <ele>60</ele>
        <time>2017-02-18T07:30:28Z</time>
      </trkpt>
      <trkpt lat="44.44909" lon="4.69573">
        <ele>60</ele>
        <time>2017-02-18T07:30:59Z</time>
      </trkpt>
      <trkpt lat="44.44848" lon="4.69547">
        <ele>60</ele>
        <time>2017-02-18T07:31:31Z</time>
      </trkpt>
      <trkpt lat="44.44788" lon="4.6952">
        <ele>61</ele>
        <time>2017-02-18T07:32:03Z</time>
      </trkpt>
      <trkpt lat="44.44727" lon="4.69493">
        <ele>59</ele>
        <time>2017-02-18T07:32:34Z</time>
      </trkpt>
      <trkpt lat="44.44667" lon="4.69466">
        <ele>59</ele>
        <time>2017-02-18T07:33:06Z</time>
      </trkpt>
      <trkpt lat="44.44606" lon="4.69439">
        <ele>59</ele>
        <time>2017-02-18T07:33:38Z</time>
      </trkpt>
      <trkpt lat="44.44546" lon="4.69412">
        <ele>59</ele>
        <time>2017-02-18T07:34:10Z</time>
      </trkpt>
      <trkpt lat="44.44485" lon="4.69386">
        <ele>59</ele>
        <time>2017-02-18T07:34:41Z</time>
      </trkpt>
      <trkpt lat="44.44425" lon="4.69359">
        <ele>59</ele>
        <time>2017-02-18T07:35:13Z</time>
      </trkpt>
      <trkpt lat="44.44364" lon="4.69332">
        <ele>58</ele>
        <time>2017-02-18T07:35:45Z</time>
      </trkpt>
      <trkpt lat="44.44303" lon="4.69305">
        <ele>58</ele>
        <time>2017-02-18T07:36:17Z</time>
      </trkpt>
      <trkpt lat="44.44267" lon="4.6925">
        <ele>58</ele>
        <time>2017-02-18T07:36:44Z</time>
      </trkpt>
      <trkpt lat="44.4423" lon="4.69195">
        <ele>58</ele>
        <time>2017-02-18T07:37:11Z</time>
      </trkpt>
      <trkpt lat="44.44193" lon="4.6914">
        <ele>58</ele>
        <time>2017-02-18T07:37:38Z</time>
      </trkpt>
      <trkpt lat="44.44156" lon="4.69085">
        <ele>58</ele>
        <time>2017-02-18T07:38:04Z</time>
      </trkpt>
      <trkpt lat="44.4412" lon="4.6903">
        <ele>58</ele>
        <time>2017-02-18T07:38:31Z</time>
      </trkpt>
      <trkpt lat="44.44095" lon="4.68952">
        <ele>58</ele>
        <time>2017-02-18T07:39:02Z</time>
      </trkpt>
      <trkpt lat="44.4407" lon="4.68874">
        <ele>58</ele>
        <time>2017-02-18T07:39:32Z</time>
      </trkpt>
      <trkpt lat="44.44046" lon="4.68796">
        <ele>57</ele>
        <time>2017-02-18T07:40:03Z</time>
      </trkpt>
      <trkpt lat="44.44021" lon="4.68717">
        <ele>57</ele>
        <time>2017-02-18T07:40:34Z</time>
      </trkpt>
      <trkpt lat="44.43997" lon="4.68639">
        <ele>57</ele>
        <time>2017-02-18T07:41:04Z</time>
      </trkpt>
      <trkpt lat="44.43972" lon="4.68561">
        <ele>56</ele>
        <time>2017-02-18T07:41:35Z</time>
      </trkpt>
      <trkpt lat="44.43948" lon="4.68483">
        <ele>56</ele>
        <time>2017-02-18T07:42:05Z</time>
      </trkpt>
      <trkpt lat="44.43923" lon="4.68404">
        <ele>56</ele>
        <time>2017-02-18T07:42:36Z</time>
      </trkpt>
      <trkpt lat="44.43898" lon="4.68326">
        <ele>56</ele>
        <time>2017-02-18T07:43:06Z</time>
      </trkpt>
      <trkpt lat="44.43874" lon="4.68249">
        <ele>55</ele>
        <time>2017-02-18T07:43:37Z</time>
      </trkpt>
      <trkpt lat="44.43854" lon="4.68172">
        <ele>55</ele>
        <time>2017-02-18T07:44:06Z</time>
      </trkpt>
      <trkpt lat="44.43833" lon="4.68095">
        <ele>55</ele>
        <time>2017-02-18T07:44:36Z</time>
      </trkpt>
      <trkpt lat="44.43812" lon="4.68018">
        <ele>54</ele>
        <time>2017-02-18T07:45:05Z</time>
      </trkpt>
      <trkpt lat="44.43792" lon="4.67941">
        <ele>54</ele>
        <time>2017-02-18T07:45:34Z</time>
      </trkpt>
      <trkpt lat="44.43771" lon="4.67864">
        <ele>54</ele>
        <time>2017-02-18T07:46:04Z</time>
      </trkpt>
      <trkpt lat="44.4375" lon="4.67787">
        <ele>54</ele>
        <time>2017-02-18T07:46:33Z</time>
      </trkpt>
      <trkpt lat="44.4373" lon="4.6771">
        <ele>54</ele>
        <time>2017-02-18T07:47:03Z</time>
      </trkpt>
      <trkpt lat="44.43709" lon="4.67633">
        <ele>53</ele>
        <time>2017-02-18T07:47:32Z</time>
      </trkpt>
      <trkpt lat="44.43689" lon="4.67556">
        <ele>53</ele>
        <time>2017-02-18T07:48:01Z</time>
      </trkpt>
      <trkpt lat="44.43668" lon="4.67479">
        <ele>53</ele>
        <time>2017-02-18T07:48:31Z</time>
      </trkpt>
      <trkpt lat="44.43648" lon="4.67404">
        <ele>53</ele>
        <time>2017-02-18T07:49:00Z</time>
      </trkpt>
      <trkpt lat="44.43628" lon="4.67343">
        <ele>53</ele>
        <time>2017-02-18T07:49:24Z</time>
      </trkpt>
      <trkpt lat="44.43608" lon="4.67281">
        <ele>53</ele>
        <time>2017-02-18T07:49:48Z</time>
      </trkpt>
      <trkpt lat="44.43588" lon="4.6722">
        <ele>53</ele>
        <time>2017-02-18T07:50:12Z</time>
      </trkpt>
      <trkpt lat="44.43568" lon="4.67159">
        <ele>53</ele>
        <time>2017-02-18T07:50:37Z</time>
      </trkpt>
      <trkpt lat="44.43526" lon="4.67107">
        <ele>53</ele>
        <time>2017-02-18T07:51:05Z</time>
      </trkpt>
      <trkpt lat="44.43485" lon="4.67054">
        <ele>53</ele>
        <time>2017-02-18T07:51:33Z</time>
      </trkpt>
      <trkpt lat="44.43443" lon="4.67002">
        <ele>54</ele>
        <time>2017-02-18T07:52:01Z</time>
      </trkpt>
      <trkpt lat="44.43401" lon="4.6695">
        <ele>55</ele>
        <time>2017-02-18T07:52:29Z</time>
      </trkpt>
      <trkpt lat="44.4336" lon="4.66897">
        <ele>57</ele>
        <time>2017-02-18T07:52:57Z</time>
      </trkpt>
      <trkpt lat="44.43309" lon="4.66865">
        <ele>55</ele>
        <time>2017-02-18T07:53:25Z</time>
      </trkpt>
      <trkpt lat="44.43258" lon="4.66832">
        <ele>53</ele>
        <time>2017-02-18T07:53:53Z</time>
      </trkpt>
      <trkpt lat="44.43207" lon="4.668">
        <ele>52</ele>
        <time>2017-02-18T07:54:21Z</time>
      </trkpt>
      <trkpt lat="44.43156" lon="4.66767">
        <ele>52</ele>
        <time>2017-02-18T07:54:49Z</time>
      </trkpt>
      <trkpt lat="44.43105" lon="4.66734">
        <ele>53</ele>
        <time>2017-02-18T07:55:17Z</time>
      </trkpt>
      <trkpt lat="44.43048" lon="4.66704">
        <ele>52</ele>
        <time>2017-02-18T07:55:47Z</time>
      </trkpt>
      <trkpt lat="44.4299" lon="4.66674">
        <ele>51</ele>
        <time>2017-02-18T07:56:18Z</time>
      </trkpt>
      <trkpt lat="44.42933" lon="4.66644">
        <ele>51</ele>
        <time>2017-02-18T07:56:49Z</time>
      </trkpt>
      <trkpt lat="44.42875" lon="4.66614">
        <ele>51</ele>
        <time>2017-02-18T07:57:19Z</time>
      </trkpt>
      <trkpt lat="44.42823" lon="4.66593">
        <ele>54</ele>
        <time>2017-02-18T07:57:47Z</time>
      </trkpt>
      <trkpt lat="44.4277" lon="4.66571">
        <ele>55</ele>
        <time>2017-02-18T07:58:14Z</time>
      </trkpt>
      <trkpt lat="44.42717" lon="4.6655">
        <ele>51</ele>
        <time>2017-02-18T07:58:42Z</time>
      </trkpt>
      <trkpt lat="44.42665" lon="4.66528">
        <ele>52</ele>
        <time>2017-02-18T07:59:09Z</time>
      </trkpt>
      <trkpt lat="44.42612" lon="4.66507">
        <ele>53</ele>
        <time>2017-02-18T07:59:37Z</time>
      </trkpt>
      <trkpt lat="44.42556" lon="4.66492">
        <ele>51</ele>
        <time>2017-02-18T08:00:05Z</time>
      </trkpt>
      <trkpt lat="44.42501" lon="4.66476">
        <ele>51</ele>
        <time>2017-02-18T08:00:33Z</time>
      </trkpt>
      <trkpt lat="44.42445" lon="4.66461">
        <ele>51</ele>
        <time>2017-02-18T08:01:02Z</time>
      </trkpt>
      <trkpt lat="44.4239" lon="4.66446">
        <ele>52</ele>
        <time>2017-02-18T08:01:30Z</time>
      </trkpt>
      <trkpt lat="44.42334" lon="4.6643">
        <ele>54</ele>
        <time>2017-02-18T08:01:58Z</time>
      </trkpt>
      <trkpt lat="44.42278" lon="4.66415">
        <ele>55</ele>
        <time>2017-02-18T08:02:27Z</time>
      </trkpt>
      <trkpt lat="44.42223" lon="4.664">
        <ele>57</ele>
        <time>2017-02-18T08:02:55Z</time>
      </trkpt>
      <trkpt lat="44.42161" lon="4.66399">
        <ele>56</ele>
        <time>2017-02-18T08:03:26Z</time>
      </trkpt>
      <trkpt lat="44.42099" lon="4.66398">
        <ele>56</ele>
        <time>2017-02-18T08:03:57Z</time>
      </trkpt>
      <trkpt lat="44.42037" lon="4.66396">
        <ele>56</ele>
        <time>2017-02-18T08:04:28Z</time>
      </trkpt>
      <trkpt lat="44.41975" lon="4.66395">
        <ele>55</ele>
        <time>2017-02-18T08:04:59Z</time>
      </trkpt>
      <trkpt lat="44.41913" lon="4.66394">
        <ele>56</ele>
        <time>2017-02-18T08:05:30Z</time>
      </trkpt>
      <trkpt lat="44.41851" lon="4.66393">
        <ele>57</ele>
        <time>2017-02-18T08:06:01Z</time>
      </trkpt>
      <trkpt lat="44.41789" lon="4.66392">
        <ele>57</ele>
        <time>2017-02-18T08:06:32Z</time>
      </trkpt>
      <trkpt lat="44.41726" lon="4.66391">
        <ele>55</ele>
        <time>2017-02-18T08:07:03Z</time>
      </trkpt>
      <trkpt lat="44.41669" lon="4.66393">
        <ele>55</ele>
        <time>2017-02-18T08:07:32Z</time>
      </trkpt>
      <trkpt lat="44.41612" lon="4.66394">
        <ele>55</ele>
        <time>2017-02-18T08:08:01Z</time>
      </trkpt>
      <trkpt lat="44.41555" lon="4.66396">
        <ele>58</ele>
        <time>2017-02-18T08:08:29Z</time>
      </trkpt>
      <trkpt lat="44.41498" lon="4.66398">
        <ele>56</ele>
        <time>2017-02-18T08:08:58Z</time>
      </trkpt>
      <trkpt lat="44.41441" lon="4.66399">
        <ele>56</ele>
        <time>2017-02-18T08:09:26Z</time>
      </trkpt>
      <trkpt lat="44.41384" lon="4.66401">
        <ele>56</ele>
        <time>2017-02-18T08:09:55Z</time>
      </trkpt>
      <trkpt lat="44.41327" lon="4.66402">
        <ele>56</ele>
        <time>2017-02-18T08:10:23Z</time>
      </trkpt>
      <trkpt lat="44.41269" lon="4.66404">
        <ele>55</ele>
        <time>2017-02-18T08:10:52Z</time>
      </trkpt>
      <trkpt lat="44.41214" lon="4.66392">
        <ele>50</ele>
        <time>2017-02-18T08:11:20Z</time>
      </trkpt>
      <trkpt lat="44.41158" lon="4.66379">
        <ele>50</ele>
        <time>2017-02-18T08:11:48Z</time>
      </trkpt>
      <trkpt lat="44.41103" lon="4.66367">
        <ele>50</ele>
        <time>2017-02-18T08:12:16Z</time>
      </trkpt>
      <trkpt lat="44.41047" lon="4.66355">
        <ele>51</ele>
        <time>2017-02-18T08:12:44Z</time>
      </trkpt>
      <trkpt lat="44.40991" lon="4.66343">
        <ele>50</ele>
        <time>2017-02-18T08:13:13Z</time>
      </trkpt>
      <trkpt lat="44.40936" lon="4.6633">
        <ele>50</ele>
        <time>2017-02-18T08:13:41Z</time>
      </trkpt>
      <trkpt lat="44.4088" lon="4.66318">
        <ele>50</ele>
        <time>2017-02-18T08:14:09Z</time>
      </trkpt>
      <trkpt lat="44.40828" lon="4.66315">
        <ele>50</ele>
        <time>2017-02-18T08:14:35Z</time>
      </trkpt>
      <trkpt lat="44.40776" lon="4.66311">
        <ele>50</ele>
        <time>2017-02-18T08:15:01Z</time>
      </trkpt>
      <trkpt lat="44.40724" lon="4.66308">
        <ele>50</ele>
        <time>2017-02-18T08:15:27Z</time>
      </trkpt>
      <trkpt lat="44.40672" lon="4.66304">
        <ele>50</ele>
        <time>2017-02-18T08:15:53Z</time>
      </trkpt>
      <trkpt lat="44.40619" lon="4.66301">
        <ele>50</ele>
        <time>2017-02-18T08:16:19Z</time>
      </trkpt>
      <trkpt lat="44.40557" lon="4.66306">
        <ele>50</ele>
        <time>2017-02-18T08:16:50Z</time>
      </trkpt>
      <trkpt lat="44.40496" lon="4.6631">
        <ele>50</ele>
        <time>2017-02-18T08:17:21Z</time>
      </trkpt>
      <trkpt lat="44.40434" lon="4.66315">
        <ele>50</ele>
        <time>2017-02-18T08:17:52Z</time>
      </trkpt>
      <trkpt lat="44.40372" lon="4.6632">
        <ele>50</ele>
        <time>2017-02-18T08:18:23Z</time>
      </trkpt>
      <trkpt lat="44.4031" lon="4.66325">
        <ele>50</ele>
        <time>2017-02-18T08:18:54Z</time>
      </trkpt>
      <trkpt lat="44.40248" lon="4.66329">
        <ele>50</ele>
        <time>2017-02-18T08:19:25Z</time>
      </trkpt>
      <trkpt lat="44.40186" lon="4.66334">
        <ele>50</ele>
        <time>2017-02-18T08:19:56Z</time>
      </trkpt>
      <trkpt lat="44.40124" lon="4.66339">
        <ele>49</ele>
        <time>2017-02-18T08:20:27Z</time>
      </trkpt>
      <trkpt lat="44.40062" lon="4.66343">
        <ele>49</ele>
        <time>2017-02-18T08:20:59Z</time>
      </trkpt>
      <trkpt lat="44.4" lon="4.66348">
        <ele>49</ele>
        <time>2017-02-18T08:21:30Z</time>
      </trkpt>
      <trkpt lat="44.39946" lon="4.66361">
        <ele>49</ele>
        <time>2017-02-18T08:21:57Z</time>
      </trkpt>
      <trkpt lat="44.39891" lon="4.66374">
        <ele>49</ele>
        <time>2017-02-18T08:22:25Z</time>
      </trkpt>
      <trkpt lat="44.39837" lon="4.66387">
        <ele>49</ele>
        <time>2017-02-18T08:22:52Z</time>
      </trkpt>
      <trkpt lat="44.39782" lon="4.664">
        <ele>52</ele>
        <time>2017-02-18T08:23:20Z</time>
      </trkpt>
      <trkpt lat="44.39733" lon="4.66391">
        <ele>50</ele>
        <time>2017-02-18T08:23:45Z</time>
      </trkpt>
      <trkpt lat="44.39684" lon="4.66383">
        <ele>49</ele>
        <time>2017-02-18T08:24:09Z</time>
      </trkpt>
      <trkpt lat="44.39635" lon="4.66374">
        <ele>48</ele>
        <time>2017-02-18T08:24:34Z</time>
      </trkpt>
      <trkpt lat="44.39586" lon="4.66365">
        <ele>48</ele>
        <time>2017-02-18T08:24:59Z</time>
      </trkpt>
      <trkpt lat="44.3953" lon="4.66337">
        <ele>48</ele>
        <time>2017-02-18T08:25:29Z</time>
      </trkpt>
      <trkpt lat="44.39473" lon="4.66308">
        <ele>48</ele>
        <time>2017-02-18T08:25:59Z</time>
      </trkpt>
      <trkpt lat="44.39417" lon="4.66279">
        <ele>48</ele>
        <time>2017-02-18T08:26:29Z</time>
      </trkpt>
      <trkpt lat="44.3936" lon="4.6625">
        <ele>48</ele>
        <time>2017-02-18T08:26:59Z</time>
      </trkpt>
      <trkpt lat="44.39304" lon="4.66221">
        <ele>48</ele>
        <time>2017-02-18T08:27:29Z</time>
      </trkpt>
      <trkpt lat="44.39247" lon="4.66193">
        <ele>48</ele>
        <time>2017-02-18T08:27:59Z</time>
      </trkpt>
      <trkpt lat="44.3919" lon="4.66164">
        <ele>48</ele>
        <time>2017-02-18T08:28:29Z</time>
      </trkpt>
      <trkpt lat="44.39139" lon="4.66123">
        <ele>47</ele>
        <time>2017-02-18T08:28:59Z</time>
      </trkpt>
      <trkpt lat="44.39088" lon="4.66083">
        <ele>47</ele>
        <time>2017-02-18T08:29:28Z</time>
      </trkpt>
      <trkpt lat="44.39037" lon="4.66042">
        <ele>47</ele>
        <time>2017-02-18T08:29:58Z</time>
      </trkpt>
      <trkpt lat="44.38985" lon="4.66002">
        <ele>47</ele>
        <time>2017-02-18T08:30:27Z</time>
      </trkpt>
      <trkpt lat="44.38934" lon="4.65961">
        <ele>47</ele>
        <time>2017-02-18T08:30:57Z</time>
      </trkpt>
      <trkpt lat="44.38883" lon="4.65921">
        <ele>47</ele>
        <time>2017-02-18T08:31:26Z</time>
      </trkpt>
      <trkpt lat="44.38832" lon="4.6588">
        <ele>47</ele>
        <time>2017-02-18T08:31:56Z</time>
      </trkpt>
      <trkpt lat="44.38803" lon="4.65836">
        <ele>47</ele>
        <time>2017-02-18T08:32:17Z</time>
      </trkpt>
      <trkpt lat="44.38774" lon="4.65792">
        <ele>47</ele>
        <time>2017-02-18T08:32:38Z</time>
      </trkpt>
      <trkpt lat="44.38746" lon="4.65747">
        <ele>47</ele>
        <time>2017-02-18T08:33:00Z</time>
      </trkpt>
      <trkpt lat="44.38695" lon="4.65703">
        <ele>47</ele>
        <time>2017-02-18T08:33:30Z</time>
      </trkpt>
      <trkpt lat="44.38644" lon="4.65658">
        <ele>47</ele>
        <time>2017-02-18T08:34:00Z</time>
      </trkpt>
      <trkpt lat="44.38593" lon="4.65613">
        <ele>47</ele>
        <time>2017-02-18T08:34:30Z</time>
      </trkpt>
      <trkpt lat="44.38542" lon="4.65569">
        <ele>53</ele>
        <time>2017-02-18T08:35:00Z</time>
      </trkpt>
      <trkpt lat="44.38491" lon="4.65524">
        <ele>53</ele>
        <time>2017-02-18T08:35:30Z</time>
      </trkpt>
      <trkpt lat="44.38441" lon="4.65482">
        <ele>52</ele>
        <time>2017-02-18T08:36:00Z</time>
      </trkpt>
      <trkpt lat="44.3839" lon="4.65441">
        <ele>51</ele>
        <time>2017-02-18T08:36:29Z</time>
      </trkpt>
      <trkpt lat="44.38339" lon="4.65399">
        <ele>50</ele>
        <time>2017-02-18T08:36:58Z</time>
      </trkpt>
      <trkpt lat="44.38289" lon="4.65357">
        <ele>47</ele>
        <time>2017-02-18T08:37:28Z</time>
      </trkpt>
      <trkpt lat="44.38232" lon="4.65321">
        <ele>46</ele>
        <time>2017-02-18T08:37:59Z</time>
      </trkpt>
      <trkpt lat="44.38175" lon="4.65285">
        <ele>46</ele>
        <time>2017-02-18T08:38:30Z</time>
      </trkpt>
      <trkpt lat="44.38119" lon="4.6525">
        <ele>46</ele>
        <time>2017-02-18T08:39:01Z</time>
      </trkpt>
      <trkpt lat="44.38062" lon="4.65214">
        <ele>46</ele>
        <time>2017-02-18T08:39:32Z</time>
      </trkpt>
      <trkpt lat="44.38005" lon="4.65178">
        <ele>46</ele>
        <time>2017-02-18T08:40:04Z</time>
      </trkpt>
      <trkpt lat="44.37948" lon="4.65142">
        <ele>46</ele>
        <time>2017-02-18T08:40:35Z</time>
      </trkpt>
      <trkpt lat="44.37894" lon="4.65116">
        <ele>46</ele>
        <time>2017-02-18T08:41:03Z</time>
      </trkpt>
      <trkpt lat="44.3784" lon="4.65089">
        <ele>46</ele>
        <time>2017-02-18T08:41:32Z</time>
      </trkpt>
      <trkpt lat="44.37787" lon="4.65062">
        <ele>46</ele>
        <time>2017-02-18T08:42:01Z</time>
      </trkpt>
      <trkpt lat="44.37733" lon="4.65036">
        <ele>46</ele>
        <time>2017-02-18T08:42:29Z</time>
      </trkpt>
      <trkpt lat="44.37678" lon="4.65009">
        <ele>47</ele>
        <time>2017-02-18T08:42:58Z</time>
      </trkpt>
      <trkpt lat="44.3762" lon="4.64995">
        <ele>46</ele>
        <time>2017-02-18T08:43:28Z</time>
      </trkpt>
      <trkpt lat="44.37561" lon="4.64982">
        <ele>46</ele>
        <time>2017-02-18T08:43:58Z</time>
      </trkpt>
      <trkpt lat="44.37502" lon="4.64968">
        <ele>46</ele>
        <time>2017-02-18T08:44:27Z</time>
      </trkpt>
      <trkpt lat="44.37443" lon="4.64954">
        <ele>46</ele>
        <time>2017-02-18T08:44:57Z</time>
      </trkpt>
      <trkpt lat="44.37384" lon="4.64941">
        <ele>47</ele>
        <time>2017-02-18T08:45:27Z</time>
      </trkpt>
      <trkpt lat="44.37322" lon="4.64929">
        <ele>48</ele>
        <time>2017-02-18T08:45:58Z</time>
      </trkpt>
      <trkpt lat="44.3726" lon="4.64918">
        <ele>47</ele>
        <time>2017-02-18T08:46:30Z</time>
      </trkpt>
      <trkpt lat="44.37198" lon="4.64907">
        <ele>46</ele>
        <time>2017-02-18T08:47:01Z</time>
      </trkpt>
      <trkpt lat="44.37136" lon="4.64896">
        <ele>46</ele>
        <time>2017-02-18T08:47:32Z</time>
      </trkpt>
      <trkpt lat="44.37074" lon="4.64884">
        <ele>46</ele>
        <time>2017-02-18T08:48:04Z</time>
      </trkpt>
      <trkpt lat="44.37012" lon="4.64873">
        <ele>46</ele>
        <time>2017-02-18T08:48:35Z</time>
      </trkpt>
      <trkpt lat="44.3695" lon="4.64862">
        <ele>47</ele>
        <time>2017-02-18T08:49:06Z</time>
      </trkpt>
      <trkpt lat="44.36887" lon="4.6485">
        <ele>47</ele>
        <time>2017-02-18T08:49:38Z</time>
      </trkpt>
      <trkpt lat="44.36825" lon="4.64847">
        <ele>46</ele>
        <time>2017-02-18T08:50:09Z</time>
      </trkpt>
      <trkpt lat="44.36763" lon="4.64843">
        <ele>46</ele>
        <time>2017-02-18T08:50:40Z</time>
      </trkpt>
      <trkpt lat="44.36701" lon="4.64839">
        <ele>46</ele>
        <time>2017-02-18T08:51:11Z</time>
      </trkpt>
      <trkpt lat="44.36639" lon="4.64835">
        <ele>46</ele>
        <time>2017-02-18T08:51:42Z</time>
      </trkpt>
      <trkpt lat="44.36577" lon="4.64831">
        <ele>46</ele>
        <time>2017-02-18T08:52:13Z</time>
      </trkpt>
      <trkpt lat="44.36515" lon="4.64828">
        <ele>46</ele>
        <time>2017-02-18T08:52:44Z</time>
      </trkpt>
      <trkpt lat="44.36453" lon="4.64824">
        <ele>46</ele>
        <time>2017-02-18T08:53:15Z</time>
      </trkpt>
      <trkpt lat="44.36391" lon="4.6482">
        <ele>46</ele>
        <time>2017-02-18T08:53:46Z</time>
      </trkpt>
      <trkpt lat="44.36329" lon="4.64816">
        <ele>46</ele>
        <time>2017-02-18T08:54:17Z</time>
      </trkpt>
      <trkpt lat="44.36268" lon="4.6481">
        <ele>46</ele>
        <time>2017-02-18T08:54:47Z</time>
      </trkpt>
      <trkpt lat="44.36208" lon="4.64803">
        <ele>46</ele>
        <time>2017-02-18T08:55:18Z</time>
      </trkpt>
      <trkpt lat="44.36148" lon="4.64796">
        <ele>46</ele>
        <time>2017-02-18T08:55:48Z</time>
      </trkpt>
      <trkpt lat="44.36088" lon="4.6479">
        <ele>46</ele>
        <time>2017-02-18T08:56:18Z</time>
      </trkpt>
      <trkpt lat="44.36028" lon="4.64783">
        <ele>46</ele>
        <time>2017-02-18T08:56:48Z</time>
      </trkpt>
      <trkpt lat="44.35967" lon="4.64777">
        <ele>46</ele>
        <time>2017-02-18T08:57:19Z</time>
      </trkpt>
      <trkpt lat="44.35907" lon="4.6477">
        <ele>46</ele>
        <time>2017-02-18T08:57:49Z</time>
      </trkpt>
      <trkpt lat="44.35847" lon="4.64764">
        <ele>46</ele>
        <time>2017-02-18T08:58:19Z</time>
      </trkpt>
      <trkpt lat="44.35787" lon="4.64757">
        <ele>46</ele>
        <time>2017-02-18T08:58:49Z</time>
      </trkpt>
      <trkpt lat="44.35726" lon="4.64751">
        <ele>46</ele>
        <time>2017-02-18T08:59:20Z</time>
      </trkpt>
      <trkpt lat="44.35666" lon="4.64744">
        <ele>46</ele>
        <time>2017-02-18T08:59:50Z</time>
      </trkpt>
      <trkpt lat="44.35606" lon="4.64737">
        <ele>46</ele>
        <time>2017-02-18T09:00:20Z</time>
      </trkpt>
      <trkpt lat="44.35546" lon="4.64731">
        <ele>46</ele>
        <time>2017-02-18T09:00:50Z</time>
      </trkpt>
      <trkpt lat="44.35485" lon="4.64724">
        <ele>46</ele>
        <time>2017-02-18T09:01:20Z</time>
      </trkpt>
      <trkpt lat="44.35425" lon="4.64718">
        <ele>46</ele>
        <time>2017-02-18T09:01:51Z</time>
      </trkpt>
      <trkpt lat="44.35365" lon="4.64711">
        <ele>46</ele>
        <time>2017-02-18T09:02:21Z</time>
      </trkpt>
      <trkpt lat="44.35304" lon="4.64705">
        <ele>46</ele>
        <time>2017-02-18T09:02:51Z</time>
      </trkpt>
      <trkpt lat="44.35243" lon="4.647">
        <ele>46</ele>
        <time>2017-02-18T09:03:22Z</time>
      </trkpt>
      <trkpt lat="44.35182" lon="4.64696">
        <ele>46</ele>
        <time>2017-02-18T09:03:52Z</time>
      </trkpt>
      <trkpt lat="44.35121" lon="4.64692">
        <ele>46</ele>
        <time>2017-02-18T09:04:23Z</time>
      </trkpt>
      <trkpt lat="44.3506" lon="4.64687">
        <ele>47</ele>
        <time>2017-02-18T09:04:53Z</time>
      </trkpt>
      <trkpt lat="44.34999" lon="4.64683">
        <ele>48</ele>
        <time>2017-02-18T09:05:24Z</time>
      </trkpt>
      <trkpt lat="44.34939" lon="4.64679">
        <ele>47</ele>
        <time>2017-02-18T09:05:54Z</time>
      </trkpt>
      <trkpt lat="44.34877" lon="4.64674">
        <ele>47</ele>
        <time>2017-02-18T09:06:25Z</time>
      </trkpt>
      <trkpt lat="44.34814" lon="4.6469">
        <ele>46</ele>
        <time>2017-02-18T09:06:57Z</time>
      </trkpt>
      <trkpt lat="44.34752" lon="4.64705">
        <ele>45</ele>
        <time>2017-02-18T09:07:29Z</time>
      </trkpt>
      <trkpt lat="44.34689" lon="4.64721">
        <ele>46</ele>
        <time>2017-02-18T09:08:01Z</time>
      </trkpt>
      <trkpt lat="44.34626" lon="4.64736">
        <ele>48</ele>
        <time>2017-02-18T09:08:32Z</time>
      </trkpt>
      <trkpt lat="44.34563" lon="4.64752">
        <ele>47</ele>
        <time>2017-02-18T09:09:04Z</time>
      </trkpt>
      <trkpt lat="44.345" lon="4.64767">
        <ele>46</ele>
        <time>2017-02-18T09:09:36Z</time>
      </trkpt>
      <trkpt lat="44.34437" lon="4.64783">
        <ele>45</ele>
        <time>2017-02-18T09:10:08Z</time>
      </trkpt>
      <trkpt lat="44.34374" lon="4.64798">
        <ele>45</ele>
        <time>2017-02-18T09:10:40Z</time>
      </trkpt>
      <trkpt lat="44.34312" lon="4.64813">
        <ele>45</ele>
        <time>2017-02-18T09:11:12Z</time>
      </trkpt>
      <trkpt lat="44.34248" lon="4.64829">
        <ele>48</ele>
        <time>2017-02-18T09:11:44Z</time>
      </trkpt>
      <trkpt lat="44.34194" lon="4.64841">
        <ele>48</ele>
        <time>2017-02-18T09:12:12Z</time>
      </trkpt>
      <trkpt lat="44.34139" lon="4.64853">
        <ele>47</ele>
        <time>2017-02-18T09:12:39Z</time>
      </trkpt>
      <trkpt lat="44.34085" lon="4.64864">
        <ele>45</ele>
        <time>2017-02-18T09:13:07Z</time>
      </trkpt>
      <trkpt lat="44.3403" lon="4.64876">
        <ele>44</ele>
        <time>2017-02-18T09:13:34Z</time>
      </trkpt>
      <trkpt lat="44.33967" lon="4.64885">
        <ele>44</ele>
        <time>2017-02-18T09:14:06Z</time>
      </trkpt>
      <trkpt lat="44.33904" lon="4.64894">
        <ele>49</ele>
        <time>2017-02-18T09:14:38Z</time>
      </trkpt>
      <trkpt lat="44.33842" lon="4.64903">
        <ele>50</ele>
        <time>2017-02-18T09:15:09Z</time>
      </trkpt>
      <trkpt lat="44.33779" lon="4.64912">
        <ele>48</ele>
        <time>2017-02-18T09:15:41Z</time>
      </trkpt>
      <trkpt lat="44.33716" lon="4.6492">
        <ele>46</ele>
        <time>2017-02-18T09:16:13Z</time>
      </trkpt>
      <trkpt lat="44.33653" lon="4.64929">
        <ele>46</ele>
        <time>2017-02-18T09:16:44Z</time>
      </trkpt>
      <trkpt lat="44.3359" lon="4.64938">
        <ele>45</ele>
        <time>2017-02-18T09:17:16Z</time>
      </trkpt>
      <trkpt lat="44.33527" lon="4.64947">
        <ele>45</ele>
        <time>2017-02-18T09:17:47Z</time>
      </trkpt>
      <trkpt lat="44.33464" lon="4.64956">
        <ele>44</ele>
        <time>2017-02-18T09:18:19Z</time>
      </trkpt>
      <trkpt lat="44.33402" lon="4.64965">
        <ele>44</ele>
        <time>2017-02-18T09:18:51Z</time>
      </trkpt>
      <trkpt lat="44.33339" lon="4.64973">
        <ele>44</ele>
        <time>2017-02-18T09:19:22Z</time>
      </trkpt>
      <trkpt lat="44.33276" lon="4.64982">
        <ele>44</ele>
        <time>2017-02-18T09:19:54Z</time>
      </trkpt>
      <trkpt lat="44.33213" lon="4.64991">
        <ele>47</ele>
        <time>2017-02-18T09:20:26Z</time>
      </trkpt>
      <trkpt lat="44.3315" lon="4.65">
        <ele>46</ele>
        <time>2017-02-18T09:20:57Z</time>
      </trkpt>
      <trkpt lat="44.33087" lon="4.65009">
        <ele>45</ele>
        <time>2017-02-18T09:21:29Z</time>
      </trkpt>
      <trkpt lat="44.33023" lon="4.65018">
        <ele>45</ele>
        <time>2017-02-18T09:22:00Z</time>
      </trkpt>
      <trkpt lat="44.32961" lon="4.65032">
        <ele>51</ele>
        <time>2017-02-18T09:22:32Z</time>
      </trkpt>
      <trkpt lat="44.32899" lon="4.65046">
        <ele>51</ele>
        <time>2017-02-18T09:23:04Z</time>
      </trkpt>
      <trkpt lat="44.32836" lon="4.65061">
        <ele>47</ele>
        <time>2017-02-18T09:23:35Z</time>
      </trkpt>
      <trkpt lat="44.32774" lon="4.65075">
        <ele>45</ele>
        <time>2017-02-18T09:24:07Z</time>
      </trkpt>
      <trkpt lat="44.32712" lon="4.65089">
        <ele>46</ele>
        <time>2017-02-18T09:24:39Z</time>
      </trkpt>
      <trkpt lat="44.32649" lon="4.65104">
        <ele>45</ele>
        <time>2017-02-18T09:25:10Z</time>
      </trkpt>
      <trkpt lat="44.32591" lon="4.65104">
        <ele>45</ele>
        <time>2017-02-18T09:25:39Z</time>
      </trkpt>
      <trkpt lat="44.32533" lon="4.65104">
        <ele>45</ele>
        <time>2017-02-18T09:26:08Z</time>
      </trkpt>
      <trkpt lat="44.32475" lon="4.65104">
        <ele>44</ele>
        <time>2017-02-18T09:26:37Z</time>
      </trkpt>
      <trkpt lat="44.32417" lon="4.65104">
        <ele>44</ele>
        <time>2017-02-18T09:27:06Z</time>
      </trkpt>
      <trkpt lat="44.32359" lon="4.65104">
        <ele>43</ele>
        <time>2017-02-18T09:27:35Z</time>
      </trkpt>
      <trkpt lat="44.32301" lon="4.65104">
        <ele>43</ele>
        <time>2017-02-18T09:28:04Z</time>
      </trkpt>
      <trkpt lat="44.32243" lon="4.65104">
        <ele>43</ele>
        <time>2017-02-18T09:28:33Z</time>
      </trkpt>
      <trkpt lat="44.32185" lon="4.65104">
        <ele>42</ele>
        <time>2017-02-18T09:29:02Z</time>
      </trkpt>
      <trkpt lat="44.32127" lon="4.65104">
        <ele>42</ele>
        <time>2017-02-18T09:29:31Z</time>
      </trkpt>
      <trkpt lat="44.32074" lon="4.65092">
        <ele>44</ele>
        <time>2017-02-18T09:29:58Z</time>
      </trkpt>
      <trkpt lat="44.3202" lon="4.6508">
        <ele>44</ele>
        <time>2017-02-18T09:30:25Z</time>
      </trkpt>
      <trkpt lat="44.31967" lon="4.65068">
        <ele>45</ele>
        <time>2017-02-18T09:30:52Z</time>
      </trkpt>
      <trkpt lat="44.31913" lon="4.65056">
        <ele>43</ele>
        <time>2017-02-18T09:31:19Z</time>
      </trkpt>
      <trkpt lat="44.3186" lon="4.65044">
        <ele>42</ele>
        <time>2017-02-18T09:31:47Z</time>
      </trkpt>
      <trkpt lat="44.31808" lon="4.6502">
        <ele>43</ele>
        <time>2017-02-18T09:32:14Z</time>
      </trkpt>
      <trkpt lat="44.31755" lon="4.64997">
        <ele>42</ele>
        <time>2017-02-18T09:32:41Z</time>
      </trkpt>
      <trkpt lat="44.31703" lon="4.64974">
        <ele>41</ele>
        <time>2017-02-18T09:33:09Z</time>
      </trkpt>
      <trkpt lat="44.31651" lon="4.64951">
        <ele>41</ele>
        <time>2017-02-18T09:33:36Z</time>
      </trkpt>
      <trkpt lat="44.31625" lon="4.64883">
        <ele>47</ele>
        <time>2017-02-18T09:34:04Z</time>
      </trkpt>
      <trkpt lat="44.31593" lon="4.64857">
        <ele>48</ele>
        <time>2017-02-18T09:34:23Z</time>
      </trkpt>
      <trkpt lat="44.31552" lon="4.64854">
        <ele>49</ele>
        <time>2017-02-18T09:34:43Z</time>
      </trkpt>
      <trkpt lat="44.31511" lon="4.6485">
        <ele>48</ele>
        <time>2017-02-18T09:35:03Z</time>
      </trkpt>
      <trkpt lat="44.31457" lon="4.64855">
        <ele>47</ele>
        <time>2017-02-18T09:35:31Z</time>
      </trkpt>
      <trkpt lat="44.31402" lon="4.6486">
        <ele>47</ele>
        <time>2017-02-18T09:35:58Z</time>
      </trkpt>
      <trkpt lat="44.31348" lon="4.64865">
        <ele>47</ele>
        <time>2017-02-18T09:36:25Z</time>
      </trkpt>
      <trkpt lat="44.31293" lon="4.6487">
        <ele>47</ele>
        <time>2017-02-18T09:36:53Z</time>
      </trkpt>
      <trkpt lat="44.31239" lon="4.64875">
        <ele>48</ele>
        <time>2017-02-18T09:37:20Z</time>
      </trkpt>
      <trkpt lat="44.31184" lon="4.6488">
        <ele>48</ele>
        <time>2017-02-18T09:37:47Z</time>
      </trkpt>
      <trkpt lat="44.31125" lon="4.649">
        <ele>44</ele>
        <time>2017-02-18T09:38:17Z</time>
      </trkpt>
      <trkpt lat="44.31066" lon="4.64919">
        <ele>43</ele>
        <time>2017-02-18T09:38:48Z</time>
      </trkpt>
      <trkpt lat="44.31007" lon="4.64938">
        <ele>45</ele>
        <time>2017-02-18T09:39:18Z</time>
      </trkpt>
      <trkpt lat="44.30948" lon="4.64958">
        <ele>50</ele>
        <time>2017-02-18T09:39:49Z</time>
      </trkpt>
      <trkpt lat="44.30897" lon="4.64996">
        <ele>49</ele>
        <time>2017-02-18T09:40:17Z</time>
      </trkpt>
      <trkpt lat="44.30846" lon="4.65034">
        <ele>49</ele>
        <time>2017-02-18T09:40:46Z</time>
      </trkpt>
      <trkpt lat="44.30796" lon="4.65071">
        <ele>47</ele>
        <time>2017-02-18T09:41:15Z</time>
      </trkpt>
      <trkpt lat="44.30748" lon="4.651">
        <ele>47</ele>
        <time>2017-02-18T09:41:41Z</time>
      </trkpt>
      <trkpt lat="44.30701" lon="4.65129">
        <ele>49</ele>
        <time>2017-02-18T09:42:07Z</time>
      </trkpt>
      <trkpt lat="44.30653" lon="4.65157">
        <ele>46</ele>
        <time>2017-02-18T09:42:33Z</time>
      </trkpt>
      <trkpt lat="44.30598" lon="4.6518">
        <ele>42</ele>
        <time>2017-02-18T09:43:01Z</time>
      </trkpt>
      <trkpt lat="44.30544" lon="4.65203">
        <ele>46</ele>
        <time>2017-02-18T09:43:30Z</time>
      </trkpt>
      <trkpt lat="44.30489" lon="4.65226">
        <ele>44</ele>
        <time>2017-02-18T09:43:58Z</time>
      </trkpt>
      <trkpt lat="44.30433" lon="4.65249">
        <ele>42</ele>
        <time>2017-02-18T09:44:28Z</time>
      </trkpt>
      <trkpt lat="44.30377" lon="4.65272">
        <ele>41</ele>
        <time>2017-02-18T09:44:57Z</time>
      </trkpt>
      <trkpt lat="44.30321" lon="4.65295">
        <ele>40</ele>
        <time>2017-02-18T09:45:26Z</time>
      </trkpt>
      <trkpt lat="44.30264" lon="4.65318">
        <ele>40</ele>
        <time>2017-02-18T09:45:55Z</time>
      </trkpt>
      <trkpt lat="44.30201" lon="4.65327">
        <ele>40</ele>
        <time>2017-02-18T09:46:27Z</time>
      </trkpt>
      <trkpt lat="44.30138" lon="4.65335">
        <ele>40</ele>
        <time>2017-02-18T09:46:59Z</time>
      </trkpt>
      <trkpt lat="44.30074" lon="4.65344">
        <ele>40</ele>
        <time>2017-02-18T09:47:31Z</time>
      </trkpt>
      <trkpt lat="44.30017" lon="4.65342">
        <ele>40</ele>
        <time>2017-02-18T09:48:00Z</time>
      </trkpt>
      <trkpt lat="44.29959" lon="4.6534">
        <ele>40</ele>
        <time>2017-02-18T09:48:29Z</time>
      </trkpt>
      <trkpt lat="44.29901" lon="4.65338">
        <ele>40</ele>
        <time>2017-02-18T09:48:57Z</time>
      </trkpt>
      <trkpt lat="44.29844" lon="4.65335">
        <ele>40</ele>
        <time>2017-02-18T09:49:26Z</time>
      </trkpt>
      <trkpt lat="44.29783" lon="4.65329">
        <ele>40</ele>
        <time>2017-02-18T09:49:57Z</time>
      </trkpt>
      <trkpt lat="44.29722" lon="4.65323">
        <ele>40</ele>
        <time>2017-02-18T09:50:27Z</time>
      </trkpt>
      <trkpt lat="44.29662" lon="4.65317">
        <ele>43</ele>
        <time>2017-02-18T09:50:58Z</time>
      </trkpt>
      <trkpt lat="44.29601" lon="4.65311">
        <ele>45</ele>
        <time>2017-02-18T09:51:28Z</time>
      </trkpt>
      <trkpt lat="44.2954" lon="4.65305">
        <ele>45</ele>
        <time>2017-02-18T09:51:59Z</time>
      </trkpt>
      <trkpt lat="44.29479" lon="4.65299">
        <ele>41</ele>
        <time>2017-02-18T09:52:29Z</time>
      </trkpt>
      <trkpt lat="44.29418" lon="4.65292">
        <ele>40</ele>
        <time>2017-02-18T09:52:59Z</time>
      </trkpt>
      <trkpt lat="44.29355" lon="4.65281">
        <ele>41</ele>
        <time>2017-02-18T09:53:31Z</time>
      </trkpt>
      <trkpt lat="44.29292" lon="4.65269">
        <ele>42</ele>
        <time>2017-02-18T09:54:03Z</time>
      </trkpt>
      <trkpt lat="44.2923" lon="4.65258">
        <ele>43</ele>
        <time>2017-02-18T09:54:35Z</time>
      </trkpt>
      <trkpt lat="44.29167" lon="4.65246">
        <ele>45</ele>
        <time>2017-02-18T09:55:07Z</time>
      </trkpt>
      <trkpt lat="44.29103" lon="4.65235">
        <ele>45</ele>
        <time>2017-02-18T09:55:38Z</time>
      </trkpt>
      <trkpt lat="44.29044" lon="4.65219">
        <ele>40</ele>
        <time>2017-02-18T09:56:09Z</time>
      </trkpt>
      <trkpt lat="44.28984" lon="4.65203">
        <ele>40</ele>
        <time>2017-02-18T09:56:39Z</time>
      </trkpt>
      <trkpt lat="44.28924" lon="4.65187">
        <ele>41</ele>
        <time>2017-02-18T09:57:10Z</time>
      </trkpt>
      <trkpt lat="44.28864" lon="4.65172">
        <ele>42</ele>
        <time>2017-02-18T09:57:40Z</time>
      </trkpt>
      <trkpt lat="44.28804" lon="4.65156">
        <ele>44</ele>
        <time>2017-02-18T09:58:11Z</time>
      </trkpt>
      <trkpt lat="44.28744" lon="4.6514">
        <ele>42</ele>
        <time>2017-02-18T09:58:41Z</time>
      </trkpt>
      <trkpt lat="44.28689" lon="4.65129">
        <ele>40</ele>
        <time>2017-02-18T09:59:09Z</time>
      </trkpt>
      <trkpt lat="44.28635" lon="4.65119">
        <ele>40</ele>
        <time>2017-02-18T09:59:37Z</time>
      </trkpt>
      <trkpt lat="44.2858" lon="4.65108">
        <ele>41</ele>
        <time>2017-02-18T10:00:04Z</time>
      </trkpt>
      <trkpt lat="44.28525" lon="4.65097">
        <ele>42</ele>
        <time>2017-02-18T10:00:32Z</time>
      </trkpt>
      <trkpt lat="44.2847" lon="4.65087">
        <ele>44</ele>
        <time>2017-02-18T10:00:59Z</time>
      </trkpt>
      <trkpt lat="44.28415" lon="4.65076">
        <ele>43</ele>
        <time>2017-02-18T10:01:27Z</time>
      </trkpt>
      <trkpt lat="44.28356" lon="4.65078">
        <ele>43</ele>
        <time>2017-02-18T10:01:57Z</time>
      </trkpt>
      <trkpt lat="44.28297" lon="4.65079">
        <ele>43</ele>
        <time>2017-02-18T10:02:26Z</time>
      </trkpt>
      <trkpt lat="44.28238" lon="4.65081">
        <ele>44</ele>
        <time>2017-02-18T10:02:56Z</time>
      </trkpt>
      <trkpt lat="44.28179" lon="4.65083">
        <ele>43</ele>
        <time>2017-02-18T10:03:25Z</time>
      </trkpt>
      <trkpt lat="44.2812" lon="4.65085">
        <ele>43</ele>
        <time>2017-02-18T10:03:55Z</time>
      </trkpt>
      <trkpt lat="44.28061" lon="4.65086">
        <ele>41</ele>
        <time>2017-02-18T10:04:25Z</time>
      </trkpt>
      <trkpt lat="44.28002" lon="4.65088">
        <ele>42</ele>
        <time>2017-02-18T10:04:54Z</time>
      </trkpt>
      <trkpt lat="44.27943" lon="4.6509">
        <ele>41</ele>
        <time>2017-02-18T10:05:24Z</time>
      </trkpt>
      <trkpt lat="44.27883" lon="4.65092">
        <ele>42</ele>
        <time>2017-02-18T10:05:53Z</time>
      </trkpt>
      <trkpt lat="44.27824" lon="4.65094">
        <ele>42</ele>
        <time>2017-02-18T10:06:23Z</time>
      </trkpt>
      <trkpt lat="44.27765" lon="4.65095">
        <ele>42</ele>
        <time>2017-02-18T10:06:53Z</time>
      </trkpt>
      <trkpt lat="44.27706" lon="4.65097">
        <ele>42</ele>
        <time>2017-02-18T10:07:22Z</time>
      </trkpt>
      <trkpt lat="44.27646" lon="4.65085">
        <ele>42</ele>
        <time>2017-02-18T10:07:52Z</time>
      </trkpt>
      <trkpt lat="44.27587" lon="4.65072">
        <ele>42</ele>
        <time>2017-02-18T10:08:22Z</time>
      </trkpt>
      <trkpt lat="44.27528" lon="4.65059">
        <ele>43</ele>
        <time>2017-02-18T10:08:52Z</time>
      </trkpt>
      <trkpt lat="44.27468" lon="4.65047">
        <ele>44</ele>
        <time>2017-02-18T10:09:22Z</time>
      </trkpt>
      <trkpt lat="44.27409" lon="4.65034">
        <ele>43</ele>
        <time>2017-02-18T10:09:52Z</time>
      </trkpt>
      <trkpt lat="44.2735" lon="4.65022">
        <ele>41</ele>
        <time>2017-02-18T10:10:22Z</time>
      </trkpt>
      <trkpt lat="44.27291" lon="4.65009">
        <ele>43</ele>
        <time>2017-02-18T10:10:52Z</time>
      </trkpt>
      <trkpt lat="44.27231" lon="4.64996">
        <ele>40</ele>
        <time>2017-02-18T10:11:22Z</time>
      </trkpt>
      <trkpt lat="44.27177" lon="4.64979">
        <ele>40</ele>
        <time>2017-02-18T10:11:50Z</time>
      </trkpt>
      <trkpt lat="44.27122" lon="4.64962">
        <ele>39</ele>
        <time>2017-02-18T10:12:18Z</time>
      </trkpt>
      <trkpt lat="44.27068" lon="4.64945">
        <ele>39</ele>
        <time>2017-02-18T10:12:46Z</time>
      </trkpt>
      <trkpt lat="44.27014" lon="4.64928">
        <ele>39</ele>
        <time>2017-02-18T10:13:14Z</time>
      </trkpt>
      <trkpt lat="44.2696" lon="4.64911">
        <ele>39</ele>
        <time>2017-02-18T10:13:41Z</time>
      </trkpt>
      <trkpt lat="44.26905" lon="4.64893">
        <ele>39</ele>
        <time>2017-02-18T10:14:09Z</time>
      </trkpt>
      <trkpt lat="44.26847" lon="4.6489">
        <ele>39</ele>
        <time>2017-02-18T10:14:38Z</time>
      </trkpt>
      <trkpt lat="44.26789" lon="4.64887">
        <ele>39</ele>
        <time>2017-02-18T10:15:07Z</time>
      </trkpt>
      <trkpt lat="44.26731" lon="4.64884">
        <ele>39</ele>
        <time>2017-02-18T10:15:36Z</time>
      </trkpt>
      <trkpt lat="44.26673" lon="4.64881">
        <ele>39</ele>
        <time>2017-02-18T10:16:05Z</time>
      </trkpt>
      <trkpt lat="44.26616" lon="4.64878">
        <ele>39</ele>
        <time>2017-02-18T10:16:34Z</time>
      </trkpt>
      <trkpt lat="44.26558" lon="4.64875">
        <ele>39</ele>
        <time>2017-02-18T10:17:03Z</time>
      </trkpt>
      <trkpt lat="44.26499" lon="4.64872">
        <ele>39</ele>
        <time>2017-02-18T10:17:32Z</time>
      </trkpt>
      <trkpt lat="44.26442" lon="4.64881">
        <ele>39</ele>
        <time>2017-02-18T10:18:01Z</time>
      </trkpt>
      <trkpt lat="44.26384" lon="4.6489">
        <ele>39</ele>
        <time>2017-02-18T10:18:30Z</time>
      </trkpt>
      <trkpt lat="44.26327" lon="4.64899">
        <ele>42</ele>
        <time>2017-02-18T10:18:59Z</time>
      </trkpt>
      <trkpt lat="44.2627" lon="4.64909">
        <ele>42</ele>
        <time>2017-02-18T10:19:28Z</time>
      </trkpt>
      <trkpt lat="44.26212" lon="4.64918">
        <ele>42</ele>
        <time>2017-02-18T10:19:57Z</time>
      </trkpt>
      <trkpt lat="44.26155" lon="4.64927">
        <ele>44</ele>
        <time>2017-02-18T10:20:26Z</time>
      </trkpt>
      <trkpt lat="44.26097" lon="4.64936">
        <ele>45</ele>
        <time>2017-02-18T10:20:55Z</time>
      </trkpt>
      <trkpt lat="44.26043" lon="4.64973">
        <ele>47</ele>
        <time>2017-02-18T10:21:25Z</time>
      </trkpt>
      <trkpt lat="44.25989" lon="4.65009">
        <ele>44</ele>
        <time>2017-02-18T10:21:55Z</time>
      </trkpt>
      <trkpt lat="44.25935" lon="4.65046">
        <ele>41</ele>
        <time>2017-02-18T10:22:25Z</time>
      </trkpt>
      <trkpt lat="44.25882" lon="4.65082">
        <ele>44</ele>
        <time>2017-02-18T10:22:55Z</time>
      </trkpt>
      <trkpt lat="44.25828" lon="4.65119">
        <ele>45</ele>
        <time>2017-02-18T10:23:24Z</time>
      </trkpt>
      <trkpt lat="44.25774" lon="4.65155">
        <ele>47</ele>
        <time>2017-02-18T10:23:54Z</time>
      </trkpt>
      <trkpt lat="44.2572" lon="4.65192">
        <ele>48</ele>
        <time>2017-02-18T10:24:24Z</time>
      </trkpt>
      <trkpt lat="44.25667" lon="4.65228">
        <ele>47</ele>
        <time>2017-02-18T10:24:54Z</time>
      </trkpt>
      <trkpt lat="44.25613" lon="4.65264">
        <ele>42</ele>
        <time>2017-02-18T10:25:24Z</time>
      </trkpt>
      <trkpt lat="44.25559" lon="4.65301">
        <ele>41</ele>
        <time>2017-02-18T10:25:54Z</time>
      </trkpt>
      <trkpt lat="44.25508" lon="4.65349">
        <ele>40</ele>
        <time>2017-02-18T10:26:25Z</time>
      </trkpt>
      <trkpt lat="44.25458" lon="4.65397">
        <ele>39</ele>
        <time>2017-02-18T10:26:55Z</time>
      </trkpt>
      <trkpt lat="44.25408" lon="4.65445">
        <ele>39</ele>
        <time>2017-02-18T10:27:26Z</time>
      </trkpt>
      <trkpt lat="44.25357" lon="4.65493">
        <ele>39</ele>
        <time>2017-02-18T10:27:56Z</time>
      </trkpt>
      <trkpt lat="44.25307" lon="4.65541">
        <ele>39</ele>
        <time>2017-02-18T10:28:27Z</time>
      </trkpt>
      <trkpt lat="44.25256" lon="4.65589">
        <ele>40</ele>
        <time>2017-02-18T10:28:57Z</time>
      </trkpt>
      <trkpt lat="44.25206" lon="4.65637">
        <ele>39</ele>
        <time>2017-02-18T10:29:28Z</time>
      </trkpt>
      <trkpt lat="44.25155" lon="4.65684">
        <ele>40</ele>
        <time>2017-02-18T10:29:58Z</time>
      </trkpt>
      <trkpt lat="44.25105" lon="4.65732">
        <ele>39</ele>
        <time>2017-02-18T10:30:29Z</time>
      </trkpt>
      <trkpt lat="44.25054" lon="4.6578">
        <ele>39</ele>
        <time>2017-02-18T10:31:00Z</time>
      </trkpt>
      <trkpt lat="44.25004" lon="4.65828">
        <ele>41</ele>
        <time>2017-02-18T10:31:30Z</time>
      </trkpt>
      <trkpt lat="44.24953" lon="4.65876">
        <ele>39</ele>
        <time>2017-02-18T10:32:01Z</time>
      </trkpt>
      <trkpt lat="44.24908" lon="4.65936">
        <ele>40</ele>
        <time>2017-02-18T10:32:32Z</time>
      </trkpt>
      <trkpt lat="44.24863" lon="4.65995">
        <ele>39</ele>
        <time>2017-02-18T10:33:03Z</time>
      </trkpt>
      <trkpt lat="44.24818" lon="4.66054">
        <ele>39</ele>
        <time>2017-02-18T10:33:34Z</time>
      </trkpt>
      <trkpt lat="44.24773" lon="4.66114">
        <ele>39</ele>
        <time>2017-02-18T10:34:05Z</time>
      </trkpt>
      <trkpt lat="44.24728" lon="4.66173">
        <ele>39</ele>
        <time>2017-02-18T10:34:36Z</time>
      </trkpt>
      <trkpt lat="44.24683" lon="4.66233">
        <ele>39</ele>
        <time>2017-02-18T10:35:07Z</time>
      </trkpt>
      <trkpt lat="44.24638" lon="4.66292">
        <ele>39</ele>
        <time>2017-02-18T10:35:38Z</time>
      </trkpt>
      <trkpt lat="44.24592" lon="4.66351">
        <ele>40</ele>
        <time>2017-02-18T10:36:09Z</time>
      </trkpt>
      <trkpt lat="44.24547" lon="4.66411">
        <ele>39</ele>
        <time>2017-02-18T10:36:40Z</time>
      </trkpt>
      <trkpt lat="44.24502" lon="4.6647">
        <ele>41</ele>
        <time>2017-02-18T10:37:11Z</time>
      </trkpt>
      <trkpt lat="44.24457" lon="4.6653">
        <ele>39</ele>
        <time>2017-02-18T10:37:42Z</time>
      </trkpt>
      <trkpt lat="44.24412" lon="4.66588">
        <ele>41</ele>
        <time>2017-02-18T10:38:13Z</time>
      </trkpt>
      <trkpt lat="44.24373" lon="4.66652">
        <ele>39</ele>
        <time>2017-02-18T10:38:43Z</time>
      </trkpt>
      <trkpt lat="44.24333" lon="4.66716">
        <ele>42</ele>
        <time>2017-02-18T10:39:14Z</time>
      </trkpt>
      <trkpt lat="44.24294" lon="4.6678">
        <ele>40</ele>
        <time>2017-02-18T10:39:44Z</time>
      </trkpt>
      <trkpt lat="44.24254" lon="4.66843">
        <ele>42</ele>
        <time>2017-02-18T10:40:14Z</time>
      </trkpt>
      <trkpt lat="44.24215" lon="4.66907">
        <ele>44</ele>
        <time>2017-02-18T10:40:44Z</time>
      </trkpt>
      <trkpt lat="44.24175" lon="4.66971">
        <ele>41</ele>
        <time>2017-02-18T10:41:14Z</time>
      </trkpt>
      <trkpt lat="44.24136" lon="4.67035">
        <ele>39</ele>
        <time>2017-02-18T10:41:45Z</time>
      </trkpt>
      <trkpt lat="44.24096" lon="4.67098">
        <ele>40</ele>
        <time>2017-02-18T10:42:15Z</time>
      </trkpt>
      <trkpt lat="44.24057" lon="4.67162">
        <ele>41</ele>
        <time>2017-02-18T10:42:45Z</time>
      </trkpt>
      <trkpt lat="44.24017" lon="4.67226">
        <ele>40</ele>
        <time>2017-02-18T10:43:15Z</time>
      </trkpt>
      <trkpt lat="44.23978" lon="4.67289">
        <ele>42</ele>
        <time>2017-02-18T10:43:46Z</time>
      </trkpt>
      <trkpt lat="44.23939" lon="4.67352">
        <ele>41</ele>
        <time>2017-02-18T10:44:16Z</time>
      </trkpt>
      <trkpt lat="44.23894" lon="4.67397">
        <ele>45</ele>
        <time>2017-02-18T10:44:43Z</time>
      </trkpt>
      <trkpt lat="44.23848" lon="4.67441">
        <ele>40</ele>
        <time>2017-02-18T10:45:11Z</time>
      </trkpt>
      <trkpt lat="44.23803" lon="4.67485">
        <ele>44</ele>
        <time>2017-02-18T10:45:39Z</time>
      </trkpt>
      <trkpt lat="44.23758" lon="4.67529">
        <ele>40</ele>
        <time>2017-02-18T10:46:06Z</time>
      </trkpt>
      <trkpt lat="44.23713" lon="4.67573">
        <ele>41</ele>
        <time>2017-02-18T10:46:34Z</time>
      </trkpt>
      <trkpt lat="44.23667" lon="4.67617">
        <ele>40</ele>
        <time>2017-02-18T10:47:02Z</time>
      </trkpt>
      <trkpt lat="44.23622" lon="4.67661">
        <ele>41</ele>
        <time>2017-02-18T10:47:29Z</time>
      </trkpt>
      <trkpt lat="44.23568" lon="4.67687">
        <ele>40</ele>
        <time>2017-02-18T10:47:58Z</time>
      </trkpt>
      <trkpt lat="44.23514" lon="4.67712">
        <ele>38</ele>
        <time>2017-02-18T10:48:26Z</time>
      </trkpt>
      <trkpt lat="44.2346" lon="4.67737">
        <ele>38</ele>
        <time>2017-02-18T10:48:55Z</time>
      </trkpt>
      <trkpt lat="44.23406" lon="4.67762">
        <ele>39</ele>
        <time>2017-02-18T10:49:23Z</time>
      </trkpt>
      <trkpt lat="44.23352" lon="4.67787">
        <ele>38</ele>
        <time>2017-02-18T10:49:52Z</time>
      </trkpt>
      <trkpt lat="44.23298" lon="4.67812">
        <ele>38</ele>
        <time>2017-02-18T10:50:20Z</time>
      </trkpt>
      <trkpt lat="44.23244" lon="4.67837">
        <ele>38</ele>
        <time>2017-02-18T10:50:49Z</time>
      </trkpt>
      <trkpt lat="44.23184" lon="4.67827">
        <ele>37</ele>
        <time>2017-02-18T10:51:19Z</time>
      </trkpt>
      <trkpt lat="44.23123" lon="4.67817">
        <ele>37</ele>
        <time>2017-02-18T10:51:49Z</time>
      </trkpt>
      <trkpt lat="44.23063" lon="4.67807">
        <ele>37</ele>
        <time>2017-02-18T10:52:20Z</time>
      </trkpt>
      <trkpt lat="44.23002" lon="4.67797">
        <ele>37</ele>
        <time>2017-02-18T10:52:50Z</time>
      </trkpt>
      <trkpt lat="44.22942" lon="4.67787">
        <ele>37</ele>
        <time>2017-02-18T10:53:21Z</time>
      </trkpt>
      <trkpt lat="44.22881" lon="4.67777">
        <ele>37</ele>
        <time>2017-02-18T10:53:51Z</time>
      </trkpt>
      <trkpt lat="44.22823" lon="4.67748">
        <ele>37</ele>
        <time>2017-02-18T10:54:22Z</time>
      </trkpt>
      <trkpt lat="44.22764" lon="4.67719">
        <ele>37</ele>
        <time>2017-02-18T10:54:53Z</time>
      </trkpt>
      <trkpt lat="44.22706" lon="4.6769">
        <ele>37</ele>
        <time>2017-02-18T10:55:24Z</time>
      </trkpt>
      <trkpt lat="44.22647" lon="4.67661">
        <ele>36</ele>
        <time>2017-02-18T10:55:55Z</time>
      </trkpt>
      <trkpt lat="44.22589" lon="4.67632">
        <ele>36</ele>
        <time>2017-02-18T10:56:26Z</time>
      </trkpt>
      <trkpt lat="44.22531" lon="4.67604">
        <ele>36</ele>
        <time>2017-02-18T10:56:57Z</time>
      </trkpt>
      <trkpt lat="44.22472" lon="4.67575">
        <ele>36</ele>
        <time>2017-02-18T10:57:28Z</time>
      </trkpt>
      <trkpt lat="44.22414" lon="4.67546">
        <ele>36</ele>
        <time>2017-02-18T10:57:59Z</time>
      </trkpt>
      <trkpt lat="44.22357" lon="4.67519">
        <ele>36</ele>
        <time>2017-02-18T10:58:29Z</time>
      </trkpt>
      <trkpt lat="44.22301" lon="4.67492">
        <ele>36</ele>
        <time>2017-02-18T10:58:59Z</time>
      </trkpt>
      <trkpt lat="44.22245" lon="4.67465">
        <ele>36</ele>
        <time>2017-02-18T10:59:29Z</time>
      </trkpt>
      <trkpt lat="44.22188" lon="4.67439">
        <ele>36</ele>
        <time>2017-02-18T10:59:59Z</time>
      </trkpt>
      <trkpt lat="44.22132" lon="4.67412">
        <ele>36</ele>
        <time>2017-02-18T11:00:28Z</time>
      </trkpt>
      <trkpt lat="44.22076" lon="4.67385">
        <ele>36</ele>
        <time>2017-02-18T11:00:58Z</time>
      </trkpt>
      <trkpt lat="44.22019" lon="4.67359">
        <ele>37</ele>
        <time>2017-02-18T11:01:28Z</time>
      </trkpt>
      <trkpt lat="44.21963" lon="4.67332">
        <ele>40</ele>
        <time>2017-02-18T11:01:58Z</time>
      </trkpt>
      <trkpt lat="44.21906" lon="4.67305">
        <ele>38</ele>
        <time>2017-02-18T11:02:27Z</time>
      </trkpt>
      <trkpt lat="44.21854" lon="4.67309">
        <ele>36</ele>
        <time>2017-02-18T11:02:54Z</time>
      </trkpt>
      <trkpt lat="44.21802" lon="4.67314">
        <ele>36</ele>
        <time>2017-02-18T11:03:20Z</time>
      </trkpt>
      <trkpt lat="44.21749" lon="4.67318">
        <ele>36</ele>
        <time>2017-02-18T11:03:46Z</time>
      </trkpt>
      <trkpt lat="44.21697" lon="4.67322">
        <ele>36</ele>
        <time>2017-02-18T11:04:12Z</time>
      </trkpt>
      <trkpt lat="44.21645" lon="4.67327">
        <ele>36</ele>
        <time>2017-02-18T11:04:38Z</time>
      </trkpt>
      <trkpt lat="44.2159" lon="4.67366">
        <ele>36</ele>
        <time>2017-02-18T11:05:09Z</time>
      </trkpt>
      <trkpt lat="44.21535" lon="4.67405">
        <ele>36</ele>
        <time>2017-02-18T11:05:40Z</time>
      </trkpt>
      <trkpt lat="44.2148" lon="4.67445">
        <ele>36</ele>
        <time>2017-02-18T11:06:11Z</time>
      </trkpt>
      <trkpt lat="44.21425" lon="4.67484">
        <ele>36</ele>
        <time>2017-02-18T11:06:42Z</time>
      </trkpt>
      <trkpt lat="44.21371" lon="4.67523">
        <ele>36</ele>
        <time>2017-02-18T11:07:13Z</time>
      </trkpt>
      <trkpt lat="44.21316" lon="4.67563">
        <ele>36</ele>
        <time>2017-02-18T11:07:44Z</time>
      </trkpt>
      <trkpt lat="44.21297" lon="4.6763">
        <ele>36</ele>
        <time>2017-02-18T11:08:09Z</time>
      </trkpt>
      <trkpt lat="44.21277" lon="4.67697">
        <ele>36</ele>
        <time>2017-02-18T11:08:35Z</time>
      </trkpt>
      <trkpt lat="44.21258" lon="4.67764">
        <ele>36</ele>
        <time>2017-02-18T11:09:01Z</time>
      </trkpt>
      <trkpt lat="44.21239" lon="4.67831">
        <ele>36</ele>
        <time>2017-02-18T11:09:27Z</time>
      </trkpt>
      <trkpt lat="44.2122" lon="4.67897">
        <ele>36</ele>
        <time>2017-02-18T11:09:53Z</time>
      </trkpt>
      <trkpt lat="44.21225" lon="4.67977">
        <ele>36</ele>
        <time>2017-02-18T11:10:22Z</time>
      </trkpt>
      <trkpt lat="44.2123" lon="4.68057">
        <ele>36</ele>
        <time>2017-02-18T11:10:50Z</time>
      </trkpt>
      <trkpt lat="44.21234" lon="4.68136">
        <ele>36</ele>
        <time>2017-02-18T11:11:19Z</time>
      </trkpt>
      <trkpt lat="44.21239" lon="4.68216">
        <ele>36</ele>
        <time>2017-02-18T11:11:48Z</time>
      </trkpt>
      <trkpt lat="44.21243" lon="4.68295">
        <ele>36</ele>
        <time>2017-02-18T11:12:16Z</time>
      </trkpt>
      <trkpt lat="44.21248" lon="4.68374">
        <ele>36</ele>
        <time>2017-02-18T11:12:45Z</time>
      </trkpt>
      <trkpt lat="44.21266" lon="4.68456">
        <ele>37</ele>
        <time>2017-02-18T11:13:16Z</time>
      </trkpt>
      <trkpt lat="44.21284" lon="4.68539">
        <ele>36</ele>
        <time>2017-02-18T11:13:47Z</time>
      </trkpt>
      <trkpt lat="44.21301" lon="4.68622">
        <ele>36</ele>
        <time>2017-02-18T11:14:18Z</time>
      </trkpt>
      <trkpt lat="44.21319" lon="4.68704">
        <ele>36</ele>
        <time>2017-02-18T11:14:49Z</time>
      </trkpt>
      <trkpt lat="44.21337" lon="4.68787">
        <ele>36</ele>
        <time>2017-02-18T11:15:20Z</time>
      </trkpt>
      <trkpt lat="44.21355" lon="4.6887">
        <ele>36</ele>
        <time>2017-02-18T11:15:51Z</time>
      </trkpt>
      <trkpt lat="44.21373" lon="4.68952">
        <ele>36</ele>
        <time>2017-02-18T11:16:22Z</time>
      </trkpt>
      <trkpt lat="44.2139" lon="4.69035">
        <ele>36</ele>
        <time>2017-02-18T11:16:53Z</time>
      </trkpt>
      <trkpt lat="44.21408" lon="4.69118">
        <ele>40</ele>
        <time>2017-02-18T11:17:24Z</time>
      </trkpt>
      <trkpt lat="44.21426" lon="4.692">
        <ele>39</ele>
        <time>2017-02-18T11:17:55Z</time>
      </trkpt>
      <trkpt lat="44.21444" lon="4.69283">
        <ele>36</ele>
        <time>2017-02-18T11:18:26Z</time>
      </trkpt>
      <trkpt lat="44.21462" lon="4.69366">
        <ele>36</ele>
        <time>2017-02-18T11:18:57Z</time>
      </trkpt>
      <trkpt lat="44.2148" lon="4.69448">
        <ele>39</ele>
        <time>2017-02-18T11:19:28Z</time>
      </trkpt>
      <trkpt lat="44.21497" lon="4.69531">
        <ele>38</ele>
        <time>2017-02-18T11:19:58Z</time>
      </trkpt>
      <trkpt lat="44.21515" lon="4.69614">
        <ele>37</ele>
        <time>2017-02-18T11:20:29Z</time>
      </trkpt>
      <trkpt lat="44.21533" lon="4.69696">
        <ele>41</ele>
        <time>2017-02-18T11:21:00Z</time>
      </trkpt>
      <trkpt lat="44.21551" lon="4.69779">
        <ele>42</ele>
        <time>2017-02-18T11:21:31Z</time>
      </trkpt>
      <trkpt lat="44.21568" lon="4.69859">
        <ele>40</ele>
        <time>2017-02-18T11:22:02Z</time>
      </trkpt>
      <trkpt lat="44.21568" lon="4.69935">
        <ele>39</ele>
        <time>2017-02-18T11:22:30Z</time>
      </trkpt>
      <trkpt lat="44.21569" lon="4.70012">
        <ele>38</ele>
        <time>2017-02-18T11:22:57Z</time>
      </trkpt>
      <trkpt lat="44.21569" lon="4.70089">
        <ele>36</ele>
        <time>2017-02-18T11:23:25Z</time>
      </trkpt>
      <trkpt lat="44.2157" lon="4.70166">
        <ele>36</ele>
        <time>2017-02-18T11:23:52Z</time>
      </trkpt>
      <trkpt lat="44.2157" lon="4.70242">
        <ele>36</ele>
        <time>2017-02-18T11:24:20Z</time>
      </trkpt>
      <trkpt lat="44.21571" lon="4.70318">
        <ele>36</ele>
        <time>2017-02-18T11:24:48Z</time>
      </trkpt>
      <trkpt lat="44.21541" lon="4.70382">
        <ele>36</ele>
        <time>2017-02-18T11:25:15Z</time>
      </trkpt>
      <trkpt lat="44.21511" lon="4.70447">
        <ele>35</ele>
        <time>2017-02-18T11:25:43Z</time>
      </trkpt>
      <trkpt lat="44.21481" lon="4.70511">
        <ele>35</ele>
        <time>2017-02-18T11:26:10Z</time>
      </trkpt>
      <trkpt lat="44.21451" lon="4.70575">
        <ele>35</ele>
        <time>2017-02-18T11:26:38Z</time>
      </trkpt>
      <trkpt lat="44.21403" lon="4.70628">
        <ele>35</ele>
        <time>2017-02-18T11:27:08Z</time>
      </trkpt>
      <trkpt lat="44.21355" lon="4.7068">
        <ele>35</ele>
        <time>2017-02-18T11:27:39Z</time>
      </trkpt>
      <trkpt lat="44.21307" lon="4.70732">
        <ele>35</ele>
        <time>2017-02-18T11:28:09Z</time>
      </trkpt>
      <trkpt lat="44.21259" lon="4.70785">
        <ele>35</ele>
        <time>2017-02-18T11:28:40Z</time>
      </trkpt>
      <trkpt lat="44.21211" lon="4.70837">
        <ele>35</ele>
        <time>2017-02-18T11:29:10Z</time>
      </trkpt>
      <trkpt lat="44.21153" lon="4.70859">
        <ele>36</ele>
        <time>2017-02-18T11:29:40Z</time>
      </trkpt>
      <trkpt lat="44.21095" lon="4.7088">
        <ele>35</ele>
        <time>2017-02-18T11:30:10Z</time>
      </trkpt>
      <trkpt lat="44.21038" lon="4.70901">
        <ele>35</ele>
        <time>2017-02-18T11:30:40Z</time>
      </trkpt>
      <trkpt lat="44.2098" lon="4.70923">
        <ele>35</ele>
        <time>2017-02-18T11:31:10Z</time>
      </trkpt>
      <trkpt lat="44.20922" lon="4.70944">
        <ele>35</ele>
        <time>2017-02-18T11:31:40Z</time>
      </trkpt>
      <trkpt lat="44.20865" lon="4.70941">
        <ele>35</ele>
        <time>2017-02-18T11:32:08Z</time>
      </trkpt>
      <trkpt lat="44.20808" lon="4.70938">
        <ele>35</ele>
        <time>2017-02-18T11:32:37Z</time>
      </trkpt>
      <trkpt lat="44.20751" lon="4.70935">
        <ele>35</ele>
        <time>2017-02-18T11:33:05Z</time>
      </trkpt>
      <trkpt lat="44.20694" lon="4.70932">
        <ele>35</ele>
        <time>2017-02-18T11:33:34Z</time>
      </trkpt>
      <trkpt lat="44.20643" lon="4.70898">
        <ele>34</ele>
        <time>2017-02-18T11:34:02Z</time>
      </trkpt>
      <trkpt lat="44.20591" lon="4.70865">
        <ele>34</ele>
        <time>2017-02-18T11:34:31Z</time>
      </trkpt>
      <trkpt lat="44.2054" lon="4.70832">
        <ele>34</ele>
        <time>2017-02-18T11:34:59Z</time>
      </trkpt>
      <trkpt lat="44.20488" lon="4.70798">
        <ele>34</ele>
        <time>2017-02-18T11:35:28Z</time>
      </trkpt>
      <trkpt lat="44.20446" lon="4.70747">
        <ele>34</ele>
        <time>2017-02-18T11:35:55Z</time>
      </trkpt>
      <trkpt lat="44.20404" lon="4.70695">
        <ele>34</ele>
        <time>2017-02-18T11:36:23Z</time>
      </trkpt>
      <trkpt lat="44.20363" lon="4.70644">
        <ele>34</ele>
        <time>2017-02-18T11:36:51Z</time>
      </trkpt>
      <trkpt lat="44.20321" lon="4.70592">
        <ele>34</ele>
        <time>2017-02-18T11:37:19Z</time>
      </trkpt>
      <trkpt lat="44.20279" lon="4.70541">
        <ele>34</ele>
        <time>2017-02-18T11:37:47Z</time>
      </trkpt>
      <trkpt lat="44.2023" lon="4.70506">
        <ele>34</ele>
        <time>2017-02-18T11:38:15Z</time>
      </trkpt>
      <trkpt lat="44.20181" lon="4.70471">
        <ele>34</ele>
        <time>2017-02-18T11:38:43Z</time>
      </trkpt>
      <trkpt lat="44.20131" lon="4.70436">
        <ele>33</ele>
        <time>2017-02-18T11:39:10Z</time>
      </trkpt>
      <trkpt lat="44.20082" lon="4.70401">
        <ele>33</ele>
        <time>2017-02-18T11:39:38Z</time>
      </trkpt>
      <trkpt lat="44.20033" lon="4.70366">
        <ele>33</ele>
        <time>2017-02-18T11:40:05Z</time>
      </trkpt>
      <trkpt lat="44.19984" lon="4.70331">
        <ele>33</ele>
        <time>2017-02-18T11:40:33Z</time>
      </trkpt>
      <trkpt lat="44.1993" lon="4.70337">
        <ele>33</ele>
        <time>2017-02-18T11:41:00Z</time>
      </trkpt>
      <trkpt lat="44.19876" lon="4.70344">
        <ele>33</ele>
        <time>2017-02-18T11:41:27Z</time>
      </trkpt>
      <trkpt lat="44.19822" lon="4.7035">
        <ele>33</ele>
        <time>2017-02-18T11:41:54Z</time>
      </trkpt>
      <trkpt lat="44.19768" lon="4.70356">
        <ele>33</ele>
        <time>2017-02-18T11:42:21Z</time>
      </trkpt>
      <trkpt lat="44.1971" lon="4.70388">
        <ele>33</ele>
        <time>2017-02-18T11:42:52Z</time>
      </trkpt>
      <trkpt lat="44.19652" lon="4.7042">
        <ele>33</ele>
        <time>2017-02-18T11:43:24Z</time>
      </trkpt>
      <trkpt lat="44.19595" lon="4.70452">
        <ele>33</ele>
        <time>2017-02-18T11:43:55Z</time>
      </trkpt>
      <trkpt lat="44.19537" lon="4.70484">
        <ele>33</ele>
        <time>2017-02-18T11:44:26Z</time>
      </trkpt>
      <trkpt lat="44.19479" lon="4.70516">
        <ele>33</ele>
        <time>2017-02-18T11:44:57Z</time>
      </trkpt>
      <trkpt lat="44.19421" lon="4.70548">
        <ele>33</ele>
        <time>2017-02-18T11:45:28Z</time>
      </trkpt>
      <trkpt lat="44.19363" lon="4.7058">
        <ele>33</ele>
        <time>2017-02-18T11:45:59Z</time>
      </trkpt>
      <trkpt lat="44.19305" lon="4.70612">
        <ele>33</ele>
        <time>2017-02-18T11:46:30Z</time>
      </trkpt>
      <trkpt lat="44.19247" lon="4.70644">
        <ele>33</ele>
        <time>2017-02-18T11:47:02Z</time>
      </trkpt>
      <trkpt lat="44.19189" lon="4.70676">
        <ele>33</ele>
        <time>2017-02-18T11:47:33Z</time>
      </trkpt>
      <trkpt lat="44.19132" lon="4.70708">
        <ele>33</ele>
        <time>2017-02-18T11:48:04Z</time>
      </trkpt>
      <trkpt lat="44.19074" lon="4.7074">
        <ele>33</ele>
        <time>2017-02-18T11:48:35Z</time>
      </trkpt>
      <trkpt lat="44.19016" lon="4.70772">
        <ele>33</ele>
        <time>2017-02-18T11:49:06Z</time>
      </trkpt>
      <trkpt lat="44.18958" lon="4.70804">
        <ele>33</ele>
        <time>2017-02-18T11:49:37Z</time>
      </trkpt>
      <trkpt lat="44.189" lon="4.70836">
        <ele>33</ele>
        <time>2017-02-18T11:50:09Z</time>
      </trkpt>
      <trkpt lat="44.18842" lon="4.70868">
        <ele>33</ele>
        <time>2017-02-18T11:50:40Z</time>
      </trkpt>
      <trkpt lat="44.18784" lon="4.709">
        <ele>33</ele>
        <time>2017-02-18T11:51:11Z</time>
      </trkpt>
      <trkpt lat="44.18727" lon="4.70932">
        <ele>33</ele>
        <time>2017-02-18T11:51:42Z</time>
      </trkpt>
      <trkpt lat="44.18669" lon="4.70964">
        <ele>32</ele>
        <time>2017-02-18T11:52:13Z</time>
      </trkpt>
      <trkpt lat="44.18611" lon="4.70996">
        <ele>32</ele>
        <time>2017-02-18T11:52:44Z</time>
      </trkpt>
      <trkpt lat="44.18553" lon="4.71027">
        <ele>32</ele>
        <time>2017-02-18T11:53:15Z</time>
      </trkpt>
      <trkpt lat="44.18495" lon="4.71059">
        <ele>32</ele>
        <time>2017-02-18T11:53:47Z</time>
      </trkpt>
      <trkpt lat="44.18437" lon="4.71091">
        <ele>32</ele>
        <time>2017-02-18T11:54:18Z</time>
      </trkpt>
      <trkpt lat="44.18379" lon="4.71123">
        <ele>32</ele>
        <time>2017-02-18T11:54:49Z</time>
      </trkpt>
      <trkpt lat="44.18321" lon="4.71155">
        <ele>32</ele>
        <time>2017-02-18T11:55:20Z</time>
      </trkpt>
      <trkpt lat="44.18264" lon="4.71187">
        <ele>32</ele>
        <time>2017-02-18T11:55:51Z</time>
      </trkpt>
      <trkpt lat="44.18206" lon="4.71219">
        <ele>32</ele>
        <time>2017-02-18T11:56:22Z</time>
      </trkpt>
      <trkpt lat="44.18148" lon="4.71251">
        <ele>32</ele>
        <time>2017-02-18T11:56:54Z</time>
      </trkpt>
      <trkpt lat="44.1809" lon="4.71283">
        <ele>32</ele>
        <time>2017-02-18T11:57:25Z</time>
      </trkpt>
      <trkpt lat="44.18032" lon="4.71315">
        <ele>32</ele>
        <time>2017-02-18T11:57:56Z</time>
      </trkpt>
      <trkpt lat="44.17974" lon="4.71347">
        <ele>32</ele>
        <time>2017-02-18T11:58:27Z</time>
      </trkpt>
      <trkpt lat="44.17916" lon="4.71379">
        <ele>32</ele>
        <time>2017-02-18T11:58:58Z</time>
      </trkpt>
      <trkpt lat="44.17858" lon="4.71411">
        <ele>32</ele>
        <time>2017-02-18T11:59:29Z</time>
      </trkpt>
      <trkpt lat="44.17801" lon="4.71443">
        <ele>32</ele>
        <time>2017-02-18T12:00:00Z</time>
      </trkpt>
      <trkpt lat="44.17743" lon="4.71475">
        <ele>32</ele>
        <time>2017-02-18T12:00:32Z</time>
      </trkpt>
      <trkpt lat="44.17685" lon="4.71507">
        <ele>31</ele>
        <time>2017-02-18T12:01:03Z</time>
      </trkpt>
      <trkpt lat="44.17627" lon="4.71539">
        <ele>31</ele>
        <time>2017-02-18T12:01:34Z</time>
      </trkpt>
      <trkpt lat="44.17568" lon="4.71571">
        <ele>31</ele>
        <time>2017-02-18T12:02:05Z</time>
      </trkpt>
      <trkpt lat="44.17509" lon="4.71584">
        <ele>31</ele>
        <time>2017-02-18T12:02:35Z</time>
      </trkpt>
      <trkpt lat="44.1745" lon="4.71598">
        <ele>31</ele>
        <time>2017-02-18T12:03:05Z</time>
      </trkpt>
      <trkpt lat="44.17391" lon="4.71611">
        <ele>31</ele>
        <time>2017-02-18T12:03:35Z</time>
      </trkpt>
      <trkpt lat="44.17333" lon="4.71625">
        <ele>31</ele>
        <time>2017-02-18T12:04:04Z</time>
      </trkpt>
      <trkpt lat="44.17274" lon="4.71638">
        <ele>31</ele>
        <time>2017-02-18T12:04:34Z</time>
      </trkpt>
      <trkpt lat="44.17215" lon="4.71651">
        <ele>31</ele>
        <time>2017-02-18T12:05:04Z</time>
      </trkpt>
      <trkpt lat="44.17156" lon="4.71665">
        <ele>31</ele>
        <time>2017-02-18T12:05:34Z</time>
      </trkpt>
      <trkpt lat="44.17097" lon="4.71678">
        <ele>31</ele>
        <time>2017-02-18T12:06:04Z</time>
      </trkpt>
      <trkpt lat="44.17039" lon="4.71668">
        <ele>31</ele>
        <time>2017-02-18T12:06:33Z</time>
      </trkpt>
      <trkpt lat="44.1698" lon="4.71658">
        <ele>31</ele>
        <time>2017-02-18T12:07:03Z</time>
      </trkpt>
      <trkpt lat="44.16922" lon="4.71648">
        <ele>31</ele>
        <time>2017-02-18T12:07:32Z</time>
      </trkpt>
      <trkpt lat="44.16863" lon="4.71638">
        <ele>31</ele>
        <time>2017-02-18T12:08:02Z</time>
      </trkpt>
      <trkpt lat="44.16805" lon="4.71628">
        <ele>31</ele>
        <time>2017-02-18T12:08:31Z</time>
      </trkpt>
      <trkpt lat="44.16746" lon="4.71618">
        <ele>31</ele>
        <time>2017-02-18T12:09:00Z</time>
      </trkpt>
      <trkpt lat="44.16688" lon="4.71608">
        <ele>31</ele>
        <time>2017-02-18T12:09:30Z</time>
      </trkpt>
      <trkpt lat="44.1663" lon="4.71598">
        <ele>31</ele>
        <time>2017-02-18T12:09:59Z</time>
      </trkpt>
      <trkpt lat="44.16571" lon="4.71588">
        <ele>31</ele>
        <time>2017-02-18T12:10:29Z</time>
      </trkpt>
      <trkpt lat="44.16511" lon="4.7159">
        <ele>31</ele>
        <time>2017-02-18T12:10:59Z</time>
      </trkpt>
      <trkpt lat="44.16451" lon="4.71591">
        <ele>30</ele>
        <time>2017-02-18T12:11:29Z</time>
      </trkpt>
      <trkpt lat="44.16391" lon="4.71593">
        <ele>30</ele>
        <time>2017-02-18T12:11:59Z</time>
      </trkpt>
      <trkpt lat="44.16331" lon="4.71594">
        <ele>30</ele>
        <time>2017-02-18T12:12:29Z</time>
      </trkpt>
      <trkpt lat="44.16271" lon="4.71596">
        <ele>30</ele>
        <time>2017-02-18T12:12:59Z</time>
      </trkpt>
      <trkpt lat="44.16212" lon="4.71597">
        <ele>30</ele>
        <time>2017-02-18T12:13:29Z</time>
      </trkpt>
      <trkpt lat="44.16152" lon="4.71599">
        <ele>30</ele>
        <time>2017-02-18T12:13:59Z</time>
      </trkpt>
      <trkpt lat="44.16092" lon="4.71601">
        <ele>30</ele>
        <time>2017-02-18T12:14:28Z</time>
      </trkpt>
      <trkpt lat="44.16032" lon="4.71602">
        <ele>30</ele>
        <time>2017-02-18T12:14:58Z</time>
      </trkpt>
      <trkpt lat="44.15972" lon="4.71604">
        <ele>30</ele>
        <time>2017-02-18T12:15:28Z</time>
      </trkpt>
      <trkpt lat="44.15912" lon="4.71605">
        <ele>30</ele>
        <time>2017-02-18T12:15:58Z</time>
      </trkpt>
      <trkpt lat="44.15849" lon="4.71623">
        <ele>30</ele>
        <time>2017-02-18T12:16:30Z</time>
      </trkpt>
      <trkpt lat="44.15787" lon="4.7164">
        <ele>30</ele>
        <time>2017-02-18T12:17:02Z</time>
      </trkpt>
      <trkpt lat="44.15725" lon="4.71658">
        <ele>30</ele>
        <time>2017-02-18T12:17:34Z</time>
      </trkpt>
      <trkpt lat="44.15663" lon="4.71675">
        <ele>30</ele>
        <time>2017-02-18T12:18:06Z</time>
      </trkpt>
      <trkpt lat="44.156" lon="4.71692">
        <ele>30</ele>
        <time>2017-02-18T12:18:37Z</time>
      </trkpt>
      <trkpt lat="44.15538" lon="4.7171">
        <ele>30</ele>
        <time>2017-02-18T12:19:09Z</time>
      </trkpt>
      <trkpt lat="44.15476" lon="4.71727">
        <ele>30</ele>
        <time>2017-02-18T12:19:41Z</time>
      </trkpt>
      <trkpt lat="44.15413" lon="4.71745">
        <ele>30</ele>
        <time>2017-02-18T12:20:13Z</time>
      </trkpt>
      <trkpt lat="44.15351" lon="4.71762">
        <ele>30</ele>
        <time>2017-02-18T12:20:45Z</time>
      </trkpt>
      <trkpt lat="44.15289" lon="4.7178">
        <ele>30</ele>
        <time>2017-02-18T12:21:16Z</time>
      </trkpt>
      <trkpt lat="44.15226" lon="4.71797">
        <ele>30</ele>
        <time>2017-02-18T12:21:48Z</time>
      </trkpt>
      <trkpt lat="44.15164" lon="4.71814">
        <ele>30</ele>
        <time>2017-02-18T12:22:20Z</time>
      </trkpt>
      <trkpt lat="44.15102" lon="4.71832">
        <ele>30</ele>
        <time>2017-02-18T12:22:52Z</time>
      </trkpt>
      <trkpt lat="44.1504" lon="4.71849">
        <ele>30</ele>
        <time>2017-02-18T12:23:24Z</time>
      </trkpt>
      <trkpt lat="44.14977" lon="4.71867">
        <ele>30</ele>
        <time>2017-02-18T12:23:55Z</time>
      </trkpt>
      <trkpt lat="44.14914" lon="4.71884">
        <ele>30</ele>
        <time>2017-02-18T12:24:27Z</time>
      </trkpt>
      <trkpt lat="44.14855" lon="4.7188">
        <ele>30</ele>
        <time>2017-02-18T12:24:57Z</time>
      </trkpt>
      <trkpt lat="44.14796" lon="4.71875">
        <ele>30</ele>
        <time>2017-02-18T12:25:26Z</time>
      </trkpt>
      <trkpt lat="44.14737" lon="4.7187">
        <ele>30</ele>
        <time>2017-02-18T12:25:56Z</time>
      </trkpt>
      <trkpt lat="44.14678" lon="4.71865">
        <ele>30</ele>
        <time>2017-02-18T12:26:26Z</time>
      </trkpt>
      <trkpt lat="44.14619" lon="4.71861">
        <ele>30</ele>
        <time>2017-02-18T12:26:55Z</time>
      </trkpt>
      <trkpt lat="44.1456" lon="4.71856">
        <ele>30</ele>
        <time>2017-02-18T12:27:25Z</time>
      </trkpt>
      <trkpt lat="44.14501" lon="4.71851">
        <ele>30</ele>
        <time>2017-02-18T12:27:54Z</time>
      </trkpt>
      <trkpt lat="44.14442" lon="4.71847">
        <ele>30</ele>
        <time>2017-02-18T12:28:24Z</time>
      </trkpt>
      <trkpt lat="44.14383" lon="4.71842">
        <ele>30</ele>
        <time>2017-02-18T12:28:54Z</time>
      </trkpt>
      <trkpt lat="44.14323" lon="4.71837">
        <ele>30</ele>
        <time>2017-02-18T12:29:23Z</time>
      </trkpt>
      <trkpt lat="44.14272" lon="4.71799">
        <ele>30</ele>
        <time>2017-02-18T12:29:52Z</time>
      </trkpt>
      <trkpt lat="44.14221" lon="4.71762">
        <ele>30</ele>
        <time>2017-02-18T12:30:21Z</time>
      </trkpt>
      <trkpt lat="44.14169" lon="4.71724">
        <ele>30</ele>
        <time>2017-02-18T12:30:50Z</time>
      </trkpt>
      <trkpt lat="44.14118" lon="4.71687">
        <ele>30</ele>
        <time>2017-02-18T12:31:19Z</time>
      </trkpt>
      <trkpt lat="44.14067" lon="4.71649">
        <ele>29</ele>
        <time>2017-02-18T12:31:48Z</time>
      </trkpt>
      <trkpt lat="44.14016" lon="4.71612">
        <ele>29</ele>
        <time>2017-02-18T12:32:17Z</time>
      </trkpt>
      <trkpt lat="44.13965" lon="4.71574">
        <ele>29</ele>
        <time>2017-02-18T12:32:46Z</time>
      </trkpt>
      <trkpt lat="44.13913" lon="4.71537">
        <ele>29</ele>
        <time>2017-02-18T12:33:15Z</time>
      </trkpt>
      <trkpt lat="44.13861" lon="4.71492">
        <ele>29</ele>
        <time>2017-02-18T12:33:46Z</time>
      </trkpt>
      <trkpt lat="44.13808" lon="4.71447">
        <ele>29</ele>
        <time>2017-02-18T12:34:17Z</time>
      </trkpt>
      <trkpt lat="44.13755" lon="4.71401">
        <ele>29</ele>
        <time>2017-02-18T12:34:48Z</time>
      </trkpt>
      <trkpt lat="44.13702" lon="4.71356">
        <ele>29</ele>
        <time>2017-02-18T12:35:19Z</time>
      </trkpt>
      <trkpt lat="44.1365" lon="4.71311">
        <ele>29</ele>
        <time>2017-02-18T12:35:50Z</time>
      </trkpt>
      <trkpt lat="44.13597" lon="4.71266">
        <ele>29</ele>
        <time>2017-02-18T12:36:21Z</time>
      </trkpt>
      <trkpt lat="44.13544" lon="4.71221">
        <ele>29</ele>
        <time>2017-02-18T12:36:52Z</time>
      </trkpt>
      <trkpt lat="44.13491" lon="4.71176">
        <ele>29</ele>
        <time>2017-02-18T12:37:23Z</time>
      </trkpt>
      <trkpt lat="44.1343" lon="4.71175">
        <ele>29</ele>
        <time>2017-02-18T12:37:54Z</time>
      </trkpt>
      <trkpt lat="44.13368" lon="4.71174">
        <ele>29</ele>
        <time>2017-02-18T12:38:24Z</time>
      </trkpt>
      <trkpt lat="44.13306" lon="4.71172">
        <ele>29</ele>
        <time>2017-02-18T12:38:55Z</time>
      </trkpt>
      <trkpt lat="44.13244" lon="4.71171">
        <ele>29</ele>
        <time>2017-02-18T12:39:26Z</time>
      </trkpt>
      <trkpt lat="44.13183" lon="4.7117">
        <ele>29</ele>
        <time>2017-02-18T12:39:57Z</time>
      </trkpt>
      <trkpt lat="44.13121" lon="4.71169">
        <ele>29</ele>
        <time>2017-02-18T12:40:28Z</time>
      </trkpt>
      <trkpt lat="44.13059" lon="4.71168">
        <ele>29</ele>
        <time>2017-02-18T12:40:59Z</time>
      </trkpt>
      <trkpt lat="44.12997" lon="4.71166">
        <ele>29</ele>
        <time>2017-02-18T12:41:30Z</time>
      </trkpt>
      <trkpt lat="44.12935" lon="4.71165">
        <ele>29</ele>
        <time>2017-02-18T12:42:01Z</time>
      </trkpt>
      <trkpt lat="44.12874" lon="4.71164">
        <ele>29</ele>
        <time>2017-02-18T12:42:32Z</time>
      </trkpt>
      <trkpt lat="44.12812" lon="4.71163">
        <ele>29</ele>
        <time>2017-02-18T12:43:03Z</time>
      </trkpt>
      <trkpt lat="44.1275" lon="4.71161">
        <ele>29</ele>
        <time>2017-02-18T12:43:34Z</time>
      </trkpt>
      <trkpt lat="44.12688" lon="4.7116">
        <ele>29</ele>
        <time>2017-02-18T12:44:05Z</time>
      </trkpt>
      <trkpt lat="44.12626" lon="4.71159">
        <ele>29</ele>
        <time>2017-02-18T12:44:35Z</time>
      </trkpt>
      <trkpt lat="44.12566" lon="4.71149">
        <ele>29</ele>
        <time>2017-02-18T12:45:06Z</time>
      </trkpt>
      <trkpt lat="44.12506" lon="4.71139">
        <ele>29</ele>
        <time>2017-02-18T12:45:36Z</time>
      </trkpt>
      <trkpt lat="44.12445" lon="4.71129">
        <ele>29</ele>
        <time>2017-02-18T12:46:06Z</time>
      </trkpt>
      <trkpt lat="44.12385" lon="4.71119">
        <ele>29</ele>
        <time>2017-02-18T12:46:37Z</time>
      </trkpt>
      <trkpt lat="44.12325" lon="4.7111">
        <ele>29</ele>
        <time>2017-02-18T12:47:07Z</time>
      </trkpt>
      <trkpt lat="44.12265" lon="4.711">
        <ele>28</ele>
        <time>2017-02-18T12:47:37Z</time>
      </trkpt>
      <trkpt lat="44.12205" lon="4.7109">
        <ele>28</ele>
        <time>2017-02-18T12:48:08Z</time>
      </trkpt>
      <trkpt lat="44.12145" lon="4.7108">
        <ele>28</ele>
        <time>2017-02-18T12:48:38Z</time>
      </trkpt>
      <trkpt lat="44.12085" lon="4.7107">
        <ele>28</ele>
        <time>2017-02-18T12:49:08Z</time>
      </trkpt>
      <trkpt lat="44.12024" lon="4.7106">
        <ele>28</ele>
        <time>2017-02-18T12:49:38Z</time>
      </trkpt>
      <trkpt lat="44.11964" lon="4.7105">
        <ele>28</ele>
        <time>2017-02-18T12:50:09Z</time>
      </trkpt>
      <trkpt lat="44.11904" lon="4.7104">
        <ele>28</ele>
        <time>2017-02-18T12:50:39Z</time>
      </trkpt>
      <trkpt lat="44.11843" lon="4.7103">
        <ele>28</ele>
        <time>2017-02-18T12:51:09Z</time>
      </trkpt>
      <trkpt lat="44.11782" lon="4.7103">
        <ele>28</ele>
        <time>2017-02-18T12:51:40Z</time>
      </trkpt>
      <trkpt lat="44.1172" lon="4.7103">
        <ele>28</ele>
        <time>2017-02-18T12:52:11Z</time>
      </trkpt>
      <trkpt lat="44.11659" lon="4.71029">
        <ele>28</ele>
        <time>2017-02-18T12:52:42Z</time>
      </trkpt>
      <trkpt lat="44.11597" lon="4.71029">
        <ele>28</ele>
        <time>2017-02-18T12:53:13Z</time>
      </trkpt>
      <trkpt lat="44.11535" lon="4.71029">
        <ele>28</ele>
        <time>2017-02-18T12:53:43Z</time>
      </trkpt>
      <trkpt lat="44.11474" lon="4.71028">
        <ele>28</ele>
        <time>2017-02-18T12:54:14Z</time>
      </trkpt>
      <trkpt lat="44.11412" lon="4.71028">
        <ele>29</ele>
        <time>2017-02-18T12:54:45Z</time>
      </trkpt>
      <trkpt lat="44.11351" lon="4.71028">
        <ele>29</ele>
        <time>2017-02-18T12:55:16Z</time>
      </trkpt>
      <trkpt lat="44.11289" lon="4.71027">
        <ele>29</ele>
        <time>2017-02-18T12:55:47Z</time>
      </trkpt>
      <trkpt lat="44.11228" lon="4.71027">
        <ele>29</ele>
        <time>2017-02-18T12:56:18Z</time>
      </trkpt>
      <trkpt lat="44.11166" lon="4.71027">
        <ele>29</ele>
        <time>2017-02-18T12:56:48Z</time>
      </trkpt>
      <trkpt lat="44.11105" lon="4.71027">
        <ele>28</ele>
        <time>2017-02-18T12:57:19Z</time>
      </trkpt>
      <trkpt lat="44.11043" lon="4.71026">
        <ele>28</ele>
        <time>2017-02-18T12:57:50Z</time>
      </trkpt>
      <trkpt lat="44.10981" lon="4.71026">
        <ele>28</ele>
        <time>2017-02-18T12:58:21Z</time>
      </trkpt>
      <trkpt lat="44.10919" lon="4.71045">
        <ele>28</ele>
        <time>2017-02-18T12:58:52Z</time>
      </trkpt>
      <trkpt lat="44.10857" lon="4.71063">
        <ele>28</ele>
        <time>2017-02-18T12:59:24Z</time>
      </trkpt>
      <trkpt lat="44.10795" lon="4.71082">
        <ele>28</ele>
        <time>2017-02-18T12:59:56Z</time>
      </trkpt>
      <trkpt lat="44.10733" lon="4.71101">
        <ele>28</ele>
        <time>2017-02-18T13:00:27Z</time>
      </trkpt>
      <trkpt lat="44.10672" lon="4.71119">
        <ele>28</ele>
        <time>2017-02-18T13:00:59Z</time>
      </trkpt>
      <trkpt lat="44.1061" lon="4.71138">
        <ele>28</ele>
        <time>2017-02-18T13:01:31Z</time>
      </trkpt>
      <trkpt lat="44.10548" lon="4.71157">
        <ele>28</ele>
        <time>2017-02-18T13:02:02Z</time>
      </trkpt>
      <trkpt lat="44.10486" lon="4.71175">
        <ele>28</ele>
        <time>2017-02-18T13:02:34Z</time>
      </trkpt>
      <trkpt lat="44.10424" lon="4.71194">
        <ele>28</ele>
        <time>2017-02-18T13:03:06Z</time>
      </trkpt>
      <trkpt lat="44.10363" lon="4.71213">
        <ele>28</ele>
        <time>2017-02-18T13:03:37Z</time>
      </trkpt>
      <trkpt lat="44.10301" lon="4.71231">
        <ele>28</ele>
        <time>2017-02-18T13:04:09Z</time>
      </trkpt>
      <trkpt lat="44.10239" lon="4.7125">
        <ele>28</ele>
        <time>2017-02-18T13:04:41Z</time>
      </trkpt>
      <trkpt lat="44.10177" lon="4.71269">
        <ele>28</ele>
        <time>2017-02-18T13:05:12Z</time>
      </trkpt>
      <trkpt lat="44.10115" lon="4.71288">
        <ele>28</ele>
        <time>2017-02-18T13:05:44Z</time>
      </trkpt>
      <trkpt lat="44.10061" lon="4.71329">
        <ele>28</ele>
        <time>2017-02-18T13:06:15Z</time>
      </trkpt>
      <trkpt lat="44.10007" lon="4.7137">
        <ele>28</ele>
        <time>2017-02-18T13:06:45Z</time>
      </trkpt>
      <trkpt lat="44.09953" lon="4.71411">
        <ele>28</ele>
        <time>2017-02-18T13:07:16Z</time>
      </trkpt>
      <trkpt lat="44.09899" lon="4.71452">
        <ele>28</ele>
        <time>2017-02-18T13:07:47Z</time>
      </trkpt>
      <trkpt lat="44.09845" lon="4.71493">
        <ele>28</ele>
        <time>2017-02-18T13:08:18Z</time>
      </trkpt>
      <trkpt lat="44.09791" lon="4.71534">
        <ele>28</ele>
        <time>2017-02-18T13:08:48Z</time>
      </trkpt>
      <trkpt lat="44.09737" lon="4.71575">
        <ele>28</ele>
        <time>2017-02-18T13:09:19Z</time>
      </trkpt>
      <trkpt lat="44.09683" lon="4.71616">
        <ele>28</ele>
        <time>2017-02-18T13:09:50Z</time>
      </trkpt>
      <trkpt lat="44.09629" lon="4.71657">
        <ele>28</ele>
        <time>2017-02-18T13:10:21Z</time>
      </trkpt>
      <trkpt lat="44.09575" lon="4.71698">
        <ele>28</ele>
        <time>2017-02-18T13:10:52Z</time>
      </trkpt>
      <trkpt lat="44.09521" lon="4.7174">
        <ele>28</ele>
        <time>2017-02-18T13:11:22Z</time>
      </trkpt>
      <trkpt lat="44.09468" lon="4.71781">
        <ele>28</ele>
        <time>2017-02-18T13:11:53Z</time>
      </trkpt>
      <trkpt lat="44.09414" lon="4.71822">
        <ele>28</ele>
        <time>2017-02-18T13:12:24Z</time>
      </trkpt>
      <trkpt lat="44.0936" lon="4.71863">
        <ele>28</ele>
        <time>2017-02-18T13:12:55Z</time>
      </trkpt>
      <trkpt lat="44.09297" lon="4.7188">
        <ele>28</ele>
        <time>2017-02-18T13:13:27Z</time>
      </trkpt>
      <trkpt lat="44.09234" lon="4.71897">
        <ele>31</ele>
        <time>2017-02-18T13:13:58Z</time>
      </trkpt>
      <trkpt lat="44.09172" lon="4.71914">
        <ele>31</ele>
        <time>2017-02-18T13:14:30Z</time>
      </trkpt>
      <trkpt lat="44.09109" lon="4.71931">
        <ele>29</ele>
        <time>2017-02-18T13:15:02Z</time>
      </trkpt>
      <trkpt lat="44.09046" lon="4.71949">
        <ele>27</ele>
        <time>2017-02-18T13:15:34Z</time>
      </trkpt>
      <trkpt lat="44.08984" lon="4.71966">
        <ele>27</ele>
        <time>2017-02-18T13:16:06Z</time>
      </trkpt>
      <trkpt lat="44.08926" lon="4.71965">
        <ele>27</ele>
        <time>2017-02-18T13:16:35Z</time>
      </trkpt>
      <trkpt lat="44.08868" lon="4.71963">
        <ele>27</ele>
        <time>2017-02-18T13:17:04Z</time>
      </trkpt>
      <trkpt lat="44.08811" lon="4.71962">
        <ele>27</ele>
        <time>2017-02-18T13:17:33Z</time>
      </trkpt>
      <trkpt lat="44.08753" lon="4.71961">
        <ele>27</ele>
        <time>2017-02-18T13:18:02Z</time>
      </trkpt>
      <trkpt lat="44.08695" lon="4.7196">
        <ele>27</ele>
        <time>2017-02-18T13:18:30Z</time>
      </trkpt>
      <trkpt lat="44.08638" lon="4.71958">
        <ele>27</ele>
        <time>2017-02-18T13:18:59Z</time>
      </trkpt>
      <trkpt lat="44.0858" lon="4.71957">
        <ele>27</ele>
        <time>2017-02-18T13:19:28Z</time>
      </trkpt>
      <trkpt lat="44.08519" lon="4.71966">
        <ele>27</ele>
        <time>2017-02-18T13:19:59Z</time>
      </trkpt>
      <trkpt lat="44.08458" lon="4.71976">
        <ele>27</ele>
        <time>2017-02-18T13:20:30Z</time>
      </trkpt>
      <trkpt lat="44.08396" lon="4.71985">
        <ele>27</ele>
        <time>2017-02-18T13:21:00Z</time>
      </trkpt>
      <trkpt lat="44.08335" lon="4.71994">
        <ele>27</ele>
        <time>2017-02-18T13:21:31Z</time>
      </trkpt>
      <trkpt lat="44.08274" lon="4.72004">
        <ele>27</ele>
        <time>2017-02-18T13:22:02Z</time>
      </trkpt>
      <trkpt lat="44.08213" lon="4.72013">
        <ele>27</ele>
        <time>2017-02-18T13:22:33Z</time>
      </trkpt>
      <trkpt lat="44.08168" lon="4.72057">
        <ele>27</ele>
        <time>2017-02-18T13:23:00Z</time>
      </trkpt>
      <trkpt lat="44.08123" lon="4.72101">
        <ele>27</ele>
        <time>2017-02-18T13:23:28Z</time>
      </trkpt>
      <trkpt lat="44.08078" lon="4.72144">
        <ele>27</ele>
        <time>2017-02-18T13:23:55Z</time>
      </trkpt>
      <trkpt lat="44.08033" lon="4.72188">
        <ele>27</ele>
        <time>2017-02-18T13:24:23Z</time>
      </trkpt>
      <trkpt lat="44.07988" lon="4.72232">
        <ele>30</ele>
        <time>2017-02-18T13:24:50Z</time>
      </trkpt>
      <trkpt lat="44.07958" lon="4.72298">
        <ele>28</ele>
        <time>2017-02-18T13:25:18Z</time>
      </trkpt>
      <trkpt lat="44.07929" lon="4.72364">
        <ele>28</ele>
        <time>2017-02-18T13:25:46Z</time>
      </trkpt>
      <trkpt lat="44.07899" lon="4.7243">
        <ele>26</ele>
        <time>2017-02-18T13:26:14Z</time>
      </trkpt>
      <trkpt lat="44.07869" lon="4.72497">
        <ele>27</ele>
        <time>2017-02-18T13:26:42Z</time>
      </trkpt>
      <trkpt lat="44.0784" lon="4.72562">
        <ele>29</ele>
        <time>2017-02-18T13:27:10Z</time>
      </trkpt>
      <trkpt lat="44.07849" lon="4.72649">
        <ele>28</ele>
        <time>2017-02-18T13:27:42Z</time>
      </trkpt>
      <trkpt lat="44.07858" lon="4.72737">
        <ele>27</ele>
        <time>2017-02-18T13:28:14Z</time>
      </trkpt>
      <trkpt lat="44.07868" lon="4.72824">
        <ele>27</ele>
        <time>2017-02-18T13:28:45Z</time>
      </trkpt>
      <trkpt lat="44.07877" lon="4.7291">
        <ele>27</ele>
        <time>2017-02-18T13:29:17Z</time>
      </trkpt>
      <trkpt lat="44.07912" lon="4.72975">
        <ele>27</ele>
        <time>2017-02-18T13:29:46Z</time>
      </trkpt>
      <trkpt lat="44.07947" lon="4.7304">
        <ele>28</ele>
        <time>2017-02-18T13:30:15Z</time>
      </trkpt>
      <trkpt lat="44.07981" lon="4.73105">
        <ele>32</ele>
        <time>2017-02-18T13:30:45Z</time>
      </trkpt>
      <trkpt lat="44.08016" lon="4.7317">
        <ele>30</ele>
        <time>2017-02-18T13:31:14Z</time>
      </trkpt>
      <trkpt lat="44.08051" lon="4.73235">
        <ele>27</ele>
        <time>2017-02-18T13:31:43Z</time>
      </trkpt>
      <trkpt lat="44.08086" lon="4.733">
        <ele>27</ele>
        <time>2017-02-18T13:32:12Z</time>
      </trkpt>
      <trkpt lat="44.0812" lon="4.73365">
        <ele>27</ele>
        <time>2017-02-18T13:32:41Z</time>
      </trkpt>
      <trkpt lat="44.08162" lon="4.73429">
        <ele>27</ele>
        <time>2017-02-18T13:33:12Z</time>
      </trkpt>
      <trkpt lat="44.08203" lon="4.73492">
        <ele>27</ele>
        <time>2017-02-18T13:33:43Z</time>
      </trkpt>
      <trkpt lat="44.08244" lon="4.73556">
        <ele>27</ele>
        <time>2017-02-18T13:34:14Z</time>
      </trkpt>
      <trkpt lat="44.08285" lon="4.7362">
        <ele>27</ele>
        <time>2017-02-18T13:34:44Z</time>
      </trkpt>
      <trkpt lat="44.08326" lon="4.73683">
        <ele>27</ele>
        <time>2017-02-18T13:35:15Z</time>
      </trkpt>
      <trkpt lat="44.08367" lon="4.73747">
        <ele>27</ele>
        <time>2017-02-18T13:35:46Z</time>
      </trkpt>
      <trkpt lat="44.08386" lon="4.73826">
        <ele>27</ele>
        <time>2017-02-18T13:36:16Z</time>
      </trkpt>
      <trkpt lat="44.08405" lon="4.73905">
        <ele>27</ele>
        <time>2017-02-18T13:36:46Z</time>
      </trkpt>
      <trkpt lat="44.08424" lon="4.73984">
        <ele>27</ele>
        <time>2017-02-18T13:37:16Z</time>
      </trkpt>
      <trkpt lat="44.08444" lon="4.74063">
        <ele>27</ele>
        <time>2017-02-18T13:37:46Z</time>
      </trkpt>
      <trkpt lat="44.08463" lon="4.74142">
        <ele>27</ele>
        <time>2017-02-18T13:38:16Z</time>
      </trkpt>
      <trkpt lat="44.08469" lon="4.74217">
        <ele>27</ele>
        <time>2017-02-18T13:38:43Z</time>
      </trkpt>
      <trkpt lat="44.08475" lon="4.74292">
        <ele>27</ele>
        <time>2017-02-18T13:39:11Z</time>
      </trkpt>
      <trkpt lat="44.08481" lon="4.74367">
        <ele>26</ele>
        <time>2017-02-18T13:39:38Z</time>
      </trkpt>
      <trkpt lat="44.08487" lon="4.74442">
        <ele>26</ele>
        <time>2017-02-18T13:40:05Z</time>
      </trkpt>
      <trkpt lat="44.08478" lon="4.74521">
        <ele>26</ele>
        <time>2017-02-18T13:40:34Z</time>
      </trkpt>
      <trkpt lat="44.08469" lon="4.746">
        <ele>26</ele>
        <time>2017-02-18T13:41:03Z</time>
      </trkpt>
      <trkpt lat="44.08459" lon="4.74679">
        <ele>26</ele>
        <time>2017-02-18T13:41:32Z</time>
      </trkpt>
      <trkpt lat="44.0845" lon="4.74759">
        <ele>26</ele>
        <time>2017-02-18T13:42:00Z</time>
      </trkpt>
      <trkpt lat="44.08441" lon="4.74837">
        <ele>26</ele>
        <time>2017-02-18T13:42:29Z</time>
      </trkpt>
      <trkpt lat="44.08413" lon="4.74916">
        <ele>27</ele>
        <time>2017-02-18T13:43:01Z</time>
      </trkpt>
      <trkpt lat="44.08384" lon="4.74996">
        <ele>26</ele>
        <time>2017-02-18T13:43:33Z</time>
      </trkpt>
      <trkpt lat="44.08356" lon="4.75075">
        <ele>26</ele>
        <time>2017-02-18T13:44:05Z</time>
      </trkpt>
      <trkpt lat="44.08328" lon="4.75155">
        <ele>28</ele>
        <time>2017-02-18T13:44:37Z</time>
      </trkpt>
      <trkpt lat="44.08299" lon="4.75235">
        <ele>26</ele>
        <time>2017-02-18T13:45:09Z</time>
      </trkpt>
      <trkpt lat="44.08271" lon="4.75313">
        <ele>26</ele>
        <time>2017-02-18T13:45:41Z</time>
      </trkpt>
      <trkpt lat="44.08226" lon="4.75371">
        <ele>26</ele>
        <time>2017-02-18T13:46:11Z</time>
      </trkpt>
      <trkpt lat="44.08182" lon="4.75429">
        <ele>27</ele>
        <time>2017-02-18T13:46:42Z</time>
      </trkpt>
      <trkpt lat="44.08137" lon="4.75486">
        <ele>28</ele>
        <time>2017-02-18T13:47:13Z</time>
      </trkpt>
      <trkpt lat="44.08092" lon="4.75544">
        <ele>28</ele>
        <time>2017-02-18T13:47:43Z</time>
      </trkpt>
      <trkpt lat="44.08047" lon="4.75602">
        <ele>28</ele>
        <time>2017-02-18T13:48:14Z</time>
      </trkpt>
      <trkpt lat="44.08002" lon="4.75659">
        <ele>28</ele>
        <time>2017-02-18T13:48:44Z</time>
      </trkpt>
      <trkpt lat="44.07957" lon="4.75717">
        <ele>26</ele>
        <time>2017-02-18T13:49:15Z</time>
      </trkpt>
      <trkpt lat="44.07909" lon="4.75756">
        <ele>28</ele>
        <time>2017-02-18T13:49:43Z</time>
      </trkpt>
      <trkpt lat="44.07861" lon="4.75796">
        <ele>26</ele>
        <time>2017-02-18T13:50:11Z</time>
      </trkpt>
      <trkpt lat="44.07812" lon="4.75836">
        <ele>27</ele>
        <time>2017-02-18T13:50:39Z</time>
      </trkpt>
      <trkpt lat="44.07764" lon="4.75875">
        <ele>27</ele>
        <time>2017-02-18T13:51:07Z</time>
      </trkpt>
      <trkpt lat="44.07716" lon="4.75915">
        <ele>28</ele>
        <time>2017-02-18T13:51:35Z</time>
      </trkpt>
      <trkpt lat="44.07668" lon="4.75955">
        <ele>26</ele>
        <time>2017-02-18T13:52:03Z</time>
      </trkpt>
      <trkpt lat="44.0762" lon="4.75994">
        <ele>27</ele>
        <time>2017-02-18T13:52:31Z</time>
      </trkpt>
      <trkpt lat="44.07572" lon="4.76034">
        <ele>26</ele>
        <time>2017-02-18T13:52:59Z</time>
      </trkpt>
      <trkpt lat="44.07532" lon="4.76085">
        <ele>26</ele>
        <time>2017-02-18T13:53:26Z</time>
      </trkpt>
      <trkpt lat="44.07492" lon="4.76136">
        <ele>25</ele>
        <time>2017-02-18T13:53:53Z</time>
      </trkpt>
      <trkpt lat="44.07453" lon="4.76187">
        <ele>25</ele>
        <time>2017-02-18T13:54:20Z</time>
      </trkpt>
      <trkpt lat="44.07413" lon="4.76237">
        <ele>25</ele>
        <time>2017-02-18T13:54:47Z</time>
      </trkpt>
      <trkpt lat="44.07374" lon="4.76288">
        <ele>25</ele>
        <time>2017-02-18T13:55:14Z</time>
      </trkpt>
      <trkpt lat="44.07334" lon="4.76339">
        <ele>25</ele>
        <time>2017-02-18T13:55:41Z</time>
      </trkpt>
      <trkpt lat="44.07304" lon="4.76411">
        <ele>25</ele>
        <time>2017-02-18T13:56:11Z</time>
      </trkpt>
      <trkpt lat="44.07274" lon="4.76484">
        <ele>25</ele>
        <time>2017-02-18T13:56:41Z</time>
      </trkpt>
      <trkpt lat="44.07244" lon="4.76556">
        <ele>25</ele>
        <time>2017-02-18T13:57:11Z</time>
      </trkpt>
      <trkpt lat="44.07214" lon="4.76629">
        <ele>25</ele>
        <time>2017-02-18T13:57:41Z</time>
      </trkpt>
      <trkpt lat="44.07184" lon="4.76702">
        <ele>25</ele>
        <time>2017-02-18T13:58:11Z</time>
      </trkpt>
      <trkpt lat="44.07154" lon="4.76774">
        <ele>25</ele>
        <time>2017-02-18T13:58:42Z</time>
      </trkpt>
      <trkpt lat="44.07123" lon="4.76847">
        <ele>25</ele>
        <time>2017-02-18T13:59:12Z</time>
      </trkpt>
      <trkpt lat="44.07094" lon="4.76918">
        <ele>25</ele>
        <time>2017-02-18T13:59:42Z</time>
      </trkpt>
      <trkpt lat="44.07073" lon="4.77002">
        <ele>25</ele>
        <time>2017-02-18T14:00:14Z</time>
      </trkpt>
      <trkpt lat="44.07053" lon="4.77086">
        <ele>25</ele>
        <time>2017-02-18T14:00:46Z</time>
      </trkpt>
      <trkpt lat="44.07033" lon="4.7717">
        <ele>25</ele>
        <time>2017-02-18T14:01:17Z</time>
      </trkpt>
      <trkpt lat="44.07013" lon="4.77254">
        <ele>25</ele>
        <time>2017-02-18T14:01:49Z</time>
      </trkpt>
      <trkpt lat="44.06993" lon="4.77339">
        <ele>25</ele>
        <time>2017-02-18T14:02:21Z</time>
      </trkpt>
      <trkpt lat="44.06972" lon="4.77423">
        <ele>25</ele>
        <time>2017-02-18T14:02:53Z</time>
      </trkpt>
      <trkpt lat="44.06952" lon="4.77507">
        <ele>25</ele>
        <time>2017-02-18T14:03:25Z</time>
      </trkpt>
      <trkpt lat="44.06932" lon="4.77591">
        <ele>25</ele>
        <time>2017-02-18T14:03:57Z</time>
      </trkpt>
      <trkpt lat="44.06912" lon="4.77675">
        <ele>25</ele>
        <time>2017-02-18T14:04:29Z</time>
      </trkpt>
      <trkpt lat="44.06891" lon="4.77759">
        <ele>25</ele>
        <time>2017-02-18T14:05:01Z</time>
      </trkpt>
      <trkpt lat="44.06872" lon="4.77841">
        <ele>25</ele>
        <time>2017-02-18T14:05:32Z</time>
      </trkpt>
      <trkpt lat="44.06846" lon="4.77921">
        <ele>25</ele>
        <time>2017-02-18T14:06:04Z</time>
      </trkpt>
      <trkpt lat="44.06821" lon="4.78002">
        <ele>25</ele>
        <time>2017-02-18T14:06:36Z</time>
      </trkpt>
      <trkpt lat="44.06795" lon="4.78082">
        <ele>25</ele>
        <time>2017-02-18T14:07:07Z</time>
      </trkpt>
      <trkpt lat="44.06769" lon="4.78163">
        <ele>25</ele>
        <time>2017-02-18T14:07:39Z</time>
      </trkpt>
      <trkpt lat="44.06744" lon="4.78243">
        <ele>25</ele>
        <time>2017-02-18T14:08:11Z</time>
      </trkpt>
      <trkpt lat="44.06718" lon="4.78324">
        <ele>25</ele>
        <time>2017-02-18T14:08:42Z</time>
      </trkpt>
      <trkpt lat="44.06693" lon="4.78403">
        <ele>25</ele>
        <time>2017-02-18T14:09:14Z</time>
      </trkpt>
      <trkpt lat="44.06654" lon="4.78446">
        <ele>25</ele>
        <time>2017-02-18T14:09:39Z</time>
      </trkpt>
      <trkpt lat="44.06614" lon="4.78489">
        <ele>25</ele>
        <time>2017-02-18T14:10:04Z</time>
      </trkpt>
      <trkpt lat="44.06575" lon="4.78532">
        <ele>25</ele>
        <time>2017-02-18T14:10:29Z</time>
      </trkpt>
      <trkpt lat="44.06536" lon="4.78575">
        <ele>25</ele>
        <time>2017-02-18T14:10:54Z</time>
      </trkpt>
      <trkpt lat="44.06489" lon="4.78596">
        <ele>25</ele>
        <time>2017-02-18T14:11:19Z</time>
      </trkpt>
      <trkpt lat="44.06442" lon="4.78618">
        <ele>25</ele>
        <time>2017-02-18T14:11:44Z</time>
      </trkpt>
      <trkpt lat="44.06395" lon="4.78639">
        <ele>25</ele>
        <time>2017-02-18T14:12:08Z</time>
      </trkpt>
      <trkpt lat="44.06347" lon="4.78661">
        <ele>25</ele>
        <time>2017-02-18T14:12:33Z</time>
      </trkpt>
      <trkpt lat="44.06297" lon="4.78675">
        <ele>25</ele>
        <time>2017-02-18T14:12:59Z</time>
      </trkpt>
      <trkpt lat="44.06247" lon="4.78688">
        <ele>25</ele>
        <time>2017-02-18T14:13:24Z</time>
      </trkpt>
      <trkpt lat="44.06197" lon="4.78702">
        <ele>25</ele>
        <time>2017-02-18T14:13:50Z</time>
      </trkpt>
      <trkpt lat="44.06147" lon="4.78716">
        <ele>25</ele>
        <time>2017-02-18T14:14:15Z</time>
      </trkpt>
      <trkpt lat="44.06087" lon="4.78701">
        <ele>25</ele>
        <time>2017-02-18T14:14:46Z</time>
      </trkpt>
      <trkpt lat="44.06028" lon="4.78685">
        <ele>25</ele>
        <time>2017-02-18T14:15:16Z</time>
      </trkpt>
      <trkpt lat="44.05968" lon="4.78669">
        <ele>25</ele>
        <time>2017-02-18T14:15:46Z</time>
      </trkpt>
      <trkpt lat="44.05916" lon="4.78655">
        <ele>25</ele>
        <time>2017-02-18T14:16:13Z</time>
      </trkpt>
      <trkpt lat="44.05865" lon="4.78642">
        <ele>25</ele>
        <time>2017-02-18T14:16:39Z</time>
      </trkpt>
      <trkpt lat="44.05813" lon="4.78628">
        <ele>25</ele>
        <time>2017-02-18T14:17:05Z</time>
      </trkpt>
      <trkpt lat="44.05761" lon="4.78614">
        <ele>25</ele>
        <time>2017-02-18T14:17:32Z</time>
      </trkpt>
      <trkpt lat="44.05709" lon="4.786">
        <ele>25</ele>
        <time>2017-02-18T14:17:58Z</time>
      </trkpt>
      <trkpt lat="44.05653" lon="4.78594">
        <ele>25</ele>
        <time>2017-02-18T14:18:26Z</time>
      </trkpt>
      <trkpt lat="44.05597" lon="4.78588">
        <ele>25</ele>
        <time>2017-02-18T14:18:54Z</time>
      </trkpt>
      <trkpt lat="44.05541" lon="4.78582">
        <ele>25</ele>
        <time>2017-02-18T14:19:23Z</time>
      </trkpt>
      <trkpt lat="44.05485" lon="4.78576">
        <ele>25</ele>
        <time>2017-02-18T14:19:51Z</time>
      </trkpt>
      <trkpt lat="44.05428" lon="4.7857">
        <ele>25</ele>
        <time>2017-02-18T14:20:19Z</time>
      </trkpt>
      <trkpt lat="44.05373" lon="4.78605">
        <ele>25</ele>
        <time>2017-02-18T14:20:49Z</time>
      </trkpt>
      <trkpt lat="44.05317" lon="4.78639">
        <ele>25</ele>
        <time>2017-02-18T14:21:20Z</time>
      </trkpt>
      <trkpt lat="44.05262" lon="4.78673">
        <ele>25</ele>
        <time>2017-02-18T14:21:50Z</time>
      </trkpt>
      <trkpt lat="44.05206" lon="4.78708">
        <ele>25</ele>
        <time>2017-02-18T14:22:21Z</time>
      </trkpt>
      <trkpt lat="44.05169" lon="4.78763">
        <ele>25</ele>
        <time>2017-02-18T14:22:48Z</time>
      </trkpt>
      <trkpt lat="44.05131" lon="4.78818">
        <ele>25</ele>
        <time>2017-02-18T14:23:15Z</time>
      </trkpt>
      <trkpt lat="44.05094" lon="4.78873">
        <ele>25</ele>
        <time>2017-02-18T14:23:42Z</time>
      </trkpt>
      <trkpt lat="44.05056" lon="4.78928">
        <ele>25</ele>
        <time>2017-02-18T14:24:10Z</time>
      </trkpt>
      <trkpt lat="44.05019" lon="4.78983">
        <ele>25</ele>
        <time>2017-02-18T14:24:37Z</time>
      </trkpt>
      <trkpt lat="44.04981" lon="4.79038">
        <ele>25</ele>
        <time>2017-02-18T14:25:04Z</time>
      </trkpt>
      <trkpt lat="44.04941" lon="4.79103">
        <ele>25</ele>
        <time>2017-02-18T14:25:35Z</time>
      </trkpt>
      <trkpt lat="44.04901" lon="4.79169">
        <ele>25</ele>
        <time>2017-02-18T14:26:06Z</time>
      </trkpt>
      <trkpt lat="44.04862" lon="4.79234">
        <ele>25</ele>
        <time>2017-02-18T14:26:37Z</time>
      </trkpt>
      <trkpt lat="44.04822" lon="4.79299">
        <ele>25</ele>
        <time>2017-02-18T14:27:08Z</time>
      </trkpt>
      <trkpt lat="44.04782" lon="4.79364">
        <ele>25</ele>
        <time>2017-02-18T14:27:38Z</time>
      </trkpt>
      <trkpt lat="44.04742" lon="4.79429">
        <ele>24</ele>
        <time>2017-02-18T14:28:09Z</time>
      </trkpt>
      <trkpt lat="44.04702" lon="4.79494">
        <ele>25</ele>
        <time>2017-02-18T14:28:40Z</time>
      </trkpt>
      <trkpt lat="44.04662" lon="4.79559">
        <ele>25</ele>
        <time>2017-02-18T14:29:11Z</time>
      </trkpt>
      <trkpt lat="44.04622" lon="4.79624">
        <ele>25</ele>
        <time>2017-02-18T14:29:42Z</time>
      </trkpt>
      <trkpt lat="44.04582" lon="4.7969">
        <ele>25</ele>
        <time>2017-02-18T14:30:12Z</time>
      </trkpt>
      <trkpt lat="44.04542" lon="4.79755">
        <ele>25</ele>
        <time>2017-02-18T14:30:43Z</time>
      </trkpt>
      <trkpt lat="44.04503" lon="4.7982">
        <ele>25</ele>
        <time>2017-02-18T14:31:14Z</time>
      </trkpt>
      <trkpt lat="44.04463" lon="4.79885">
        <ele>25</ele>
        <time>2017-02-18T14:31:45Z</time>
      </trkpt>
      <trkpt lat="44.04423" lon="4.7995">
        <ele>25</ele>
        <time>2017-02-18T14:32:15Z</time>
      </trkpt>
      <trkpt lat="44.04383" lon="4.80015">
        <ele>25</ele>
        <time>2017-02-18T14:32:46Z</time>
      </trkpt>
      <trkpt lat="44.04343" lon="4.8008">
        <ele>25</ele>
        <time>2017-02-18T14:33:17Z</time>
      </trkpt>
      <trkpt lat="44.04303" lon="4.80146">
        <ele>25</ele>
        <time>2017-02-18T14:33:48Z</time>
      </trkpt>
      <trkpt lat="44.04263" lon="4.80211">
        <ele>25</ele>
        <time>2017-02-18T14:34:19Z</time>
      </trkpt>
      <trkpt lat="44.04223" lon="4.80276">
        <ele>25</ele>
        <time>2017-02-18T14:34:49Z</time>
      </trkpt>
      <trkpt lat="44.04183" lon="4.80341">
        <ele>25</ele>
        <time>2017-02-18T14:35:20Z</time>
      </trkpt>
      <trkpt lat="44.04143" lon="4.80406">
        <ele>25</ele>
        <time>2017-02-18T14:35:51Z</time>
      </trkpt>
      <trkpt lat="44.04104" lon="4.80471">
        <ele>25</ele>
        <time>2017-02-18T14:36:22Z</time>
      </trkpt>
      <trkpt lat="44.04064" lon="4.80536">
        <ele>25</ele>
        <time>2017-02-18T14:36:53Z</time>
      </trkpt>
      <trkpt lat="44.04024" lon="4.80601">
        <ele>25</ele>
        <time>2017-02-18T14:37:23Z</time>
      </trkpt>
      <trkpt lat="44.03985" lon="4.80665">
        <ele>24</ele>
        <time>2017-02-18T14:37:54Z</time>
      </trkpt>
      <trkpt lat="44.03938" lon="4.80719">
        <ele>24</ele>
        <time>2017-02-18T14:38:25Z</time>
      </trkpt>
      <trkpt lat="44.03891" lon="4.80773">
        <ele>24</ele>
        <time>2017-02-18T14:38:55Z</time>
      </trkpt>
      <trkpt lat="44.03844" lon="4.80827">
        <ele>24</ele>
        <time>2017-02-18T14:39:26Z</time>
      </trkpt>
      <trkpt lat="44.03797" lon="4.80881">
        <ele>24</ele>
        <time>2017-02-18T14:39:56Z</time>
      </trkpt>
      <trkpt lat="44.0375" lon="4.80935">
        <ele>24</ele>
        <time>2017-02-18T14:40:27Z</time>
      </trkpt>
      <trkpt lat="44.03702" lon="4.80989">
        <ele>24</ele>
        <time>2017-02-18T14:40:57Z</time>
      </trkpt>
      <trkpt lat="44.03655" lon="4.81043">
        <ele>24</ele>
        <time>2017-02-18T14:41:28Z</time>
      </trkpt>
      <trkpt lat="44.03608" lon="4.81097">
        <ele>24</ele>
        <time>2017-02-18T14:41:58Z</time>
      </trkpt>
      <trkpt lat="44.03561" lon="4.81151">
        <ele>24</ele>
        <time>2017-02-18T14:42:29Z</time>
      </trkpt>
      <trkpt lat="44.03514" lon="4.81205">
        <ele>24</ele>
        <time>2017-02-18T14:42:59Z</time>
      </trkpt>
      <trkpt lat="44.03467" lon="4.81259">
        <ele>24</ele>
        <time>2017-02-18T14:43:30Z</time>
      </trkpt>
      <trkpt lat="44.0342" lon="4.81313">
        <ele>24</ele>
        <time>2017-02-18T14:44:01Z</time>
      </trkpt>
      <trkpt lat="44.03367" lon="4.81343">
        <ele>24</ele>
        <time>2017-02-18T14:44:29Z</time>
      </trkpt>
      <trkpt lat="44.03315" lon="4.81373">
        <ele>24</ele>
        <time>2017-02-18T14:44:58Z</time>
      </trkpt>
      <trkpt lat="44.03262" lon="4.81403">
        <ele>24</ele>
        <time>2017-02-18T14:45:26Z</time>
      </trkpt>
      <trkpt lat="44.03209" lon="4.81433">
        <ele>24</ele>
        <time>2017-02-18T14:45:55Z</time>
      </trkpt>
      <trkpt lat="44.03156" lon="4.81463">
        <ele>24</ele>
        <time>2017-02-18T14:46:23Z</time>
      </trkpt>
      <trkpt lat="44.03103" lon="4.81493">
        <ele>24</ele>
        <time>2017-02-18T14:46:52Z</time>
      </trkpt>
      <trkpt lat="44.03051" lon="4.81523">
        <ele>24</ele>
        <time>2017-02-18T14:47:20Z</time>
      </trkpt>
      <trkpt lat="44.02998" lon="4.81553">
        <ele>24</ele>
        <time>2017-02-18T14:47:49Z</time>
      </trkpt>
      <trkpt lat="44.02936" lon="4.81568">
        <ele>24</ele>
        <time>2017-02-18T14:48:20Z</time>
      </trkpt>
      <trkpt lat="44.02874" lon="4.81583">
        <ele>24</ele>
        <time>2017-02-18T14:48:52Z</time>
      </trkpt>
      <trkpt lat="44.02813" lon="4.81598">
        <ele>24</ele>
        <time>2017-02-18T14:49:23Z</time>
      </trkpt>
      <trkpt lat="44.02751" lon="4.81614">
        <ele>24</ele>
        <time>2017-02-18T14:49:54Z</time>
      </trkpt>
      <trkpt lat="44.02689" lon="4.81629">
        <ele>24</ele>
        <time>2017-02-18T14:50:26Z</time>
      </trkpt>
      <trkpt lat="44.02628" lon="4.81644">
        <ele>24</ele>
        <time>2017-02-18T14:50:57Z</time>
      </trkpt>
      <trkpt lat="44.02566" lon="4.81659">
        <ele>24</ele>
        <time>2017-02-18T14:51:28Z</time>
      </trkpt>
      <trkpt lat="44.02504" lon="4.81674">
        <ele>24</ele>
        <time>2017-02-18T14:52:00Z</time>
      </trkpt>
      <trkpt lat="44.02443" lon="4.81689">
        <ele>23</ele>
        <time>2017-02-18T14:52:31Z</time>
      </trkpt>
      <trkpt lat="44.02381" lon="4.81704">
        <ele>23</ele>
        <time>2017-02-18T14:53:02Z</time>
      </trkpt>
      <trkpt lat="44.02319" lon="4.81719">
        <ele>23</ele>
        <time>2017-02-18T14:53:34Z</time>
      </trkpt>
      <trkpt lat="44.02258" lon="4.81735">
        <ele>23</ele>
        <time>2017-02-18T14:54:05Z</time>
      </trkpt>
      <trkpt lat="44.02196" lon="4.8175">
        <ele>23</ele>
        <time>2017-02-18T14:54:36Z</time>
      </trkpt>
      <trkpt lat="44.02134" lon="4.81765">
        <ele>23</ele>
        <time>2017-02-18T14:55:08Z</time>
      </trkpt>
      <trkpt lat="44.02073" lon="4.8178">
        <ele>23</ele>
        <time>2017-02-18T14:55:39Z</time>
      </trkpt>
      <trkpt lat="44.02011" lon="4.81795">
        <ele>22</ele>
        <time>2017-02-18T14:56:10Z</time>
      </trkpt>
      <trkpt lat="44.01949" lon="4.8181">
        <ele>22</ele>
        <time>2017-02-18T14:56:42Z</time>
      </trkpt>
      <trkpt lat="44.01888" lon="4.81825">
        <ele>22</ele>
        <time>2017-02-18T14:57:13Z</time>
      </trkpt>
      <trkpt lat="44.01825" lon="4.81841">
        <ele>22</ele>
        <time>2017-02-18T14:57:44Z</time>
      </trkpt>
      <trkpt lat="44.01787" lon="4.81903">
        <ele>22</ele>
        <time>2017-02-18T14:58:14Z</time>
      </trkpt>
      <trkpt lat="44.01748" lon="4.81966">
        <ele>22</ele>
        <time>2017-02-18T14:58:44Z</time>
      </trkpt>
      <trkpt lat="44.0171" lon="4.82029">
        <ele>22</ele>
        <time>2017-02-18T14:59:13Z</time>
      </trkpt>
      <trkpt lat="44.01672" lon="4.82091">
        <ele>22</ele>
        <time>2017-02-18T14:59:43Z</time>
      </trkpt>
      <trkpt lat="44.01634" lon="4.82154">
        <ele>22</ele>
        <time>2017-02-18T15:00:13Z</time>
      </trkpt>
      <trkpt lat="44.01602" lon="4.82224">
        <ele>22</ele>
        <time>2017-02-18T15:00:42Z</time>
      </trkpt>
      <trkpt lat="44.0157" lon="4.82294">
        <ele>22</ele>
        <time>2017-02-18T15:01:12Z</time>
      </trkpt>
      <trkpt lat="44.01538" lon="4.82364">
        <ele>22</ele>
        <time>2017-02-18T15:01:42Z</time>
      </trkpt>
      <trkpt lat="44.01506" lon="4.82435">
        <ele>23</ele>
        <time>2017-02-18T15:02:12Z</time>
      </trkpt>
      <trkpt lat="44.01474" lon="4.82505">
        <ele>23</ele>
        <time>2017-02-18T15:02:42Z</time>
      </trkpt>
      <trkpt lat="44.01442" lon="4.82574">
        <ele>22</ele>
        <time>2017-02-18T15:03:12Z</time>
      </trkpt>
      <trkpt lat="44.01425" lon="4.82659">
        <ele>21</ele>
        <time>2017-02-18T15:03:44Z</time>
      </trkpt>
      <trkpt lat="44.01408" lon="4.82744">
        <ele>21</ele>
        <time>2017-02-18T15:04:15Z</time>
      </trkpt>
      <trkpt lat="44.0139" lon="4.82829">
        <ele>21</ele>
        <time>2017-02-18T15:04:47Z</time>
      </trkpt>
      <trkpt lat="44.01373" lon="4.82913">
        <ele>21</ele>
        <time>2017-02-18T15:05:19Z</time>
      </trkpt>
      <trkpt lat="44.01356" lon="4.82998">
        <ele>21</ele>
        <time>2017-02-18T15:05:50Z</time>
      </trkpt>
      <trkpt lat="44.01338" lon="4.83083">
        <ele>21</ele>
        <time>2017-02-18T15:06:22Z</time>
      </trkpt>
      <trkpt lat="44.01321" lon="4.83168">
        <ele>20</ele>
        <time>2017-02-18T15:06:54Z</time>
      </trkpt>
      <trkpt lat="44.01304" lon="4.83252">
        <ele>20</ele>
        <time>2017-02-18T15:07:26Z</time>
      </trkpt>
      <trkpt lat="44.01286" lon="4.83337">
        <ele>21</ele>
        <time>2017-02-18T15:07:57Z</time>
      </trkpt>
      <trkpt lat="44.01269" lon="4.8342">
        <ele>21</ele>
        <time>2017-02-18T15:08:29Z</time>
      </trkpt>
      <trkpt lat="44.01257" lon="4.83501">
        <ele>21</ele>
        <time>2017-02-18T15:08:59Z</time>
      </trkpt>
      <trkpt lat="44.01245" lon="4.83581">
        <ele>24</ele>
        <time>2017-02-18T15:09:28Z</time>
      </trkpt>
      <trkpt lat="44.01232" lon="4.83662">
        <ele>23</ele>
        <time>2017-02-18T15:09:58Z</time>
      </trkpt>
      <trkpt lat="44.0122" lon="4.83743">
        <ele>23</ele>
        <time>2017-02-18T15:10:28Z</time>
      </trkpt>
      <trkpt lat="44.01208" lon="4.83824">
        <ele>22</ele>
        <time>2017-02-18T15:10:58Z</time>
      </trkpt>
      <trkpt lat="44.01195" lon="4.83905">
        <ele>21</ele>
        <time>2017-02-18T15:11:27Z</time>
      </trkpt>
      <trkpt lat="44.01183" lon="4.83985">
        <ele>20</ele>
        <time>2017-02-18T15:11:57Z</time>
      </trkpt>
      <trkpt lat="44.0117" lon="4.84066">
        <ele>21</ele>
        <time>2017-02-18T15:12:27Z</time>
      </trkpt>
      <trkpt lat="44.01158" lon="4.84145">
        <ele>21</ele>
        <time>2017-02-18T15:12:57Z</time>
      </trkpt>
      <trkpt lat="44.01114" lon="4.84178">
        <ele>21</ele>
        <time>2017-02-18T15:13:22Z</time>
      </trkpt>
      <trkpt lat="44.01069" lon="4.84212">
        <ele>21</ele>
        <time>2017-02-18T15:13:47Z</time>
      </trkpt>
      <trkpt lat="44.01024" lon="4.84245">
        <ele>22</ele>
        <time>2017-02-18T15:14:13Z</time>
      </trkpt>
      <trkpt lat="44.00979" lon="4.84278">
        <ele>20</ele>
        <time>2017-02-18T15:14:38Z</time>
      </trkpt>
      <trkpt lat="44.00934" lon="4.84294">
        <ele>18</ele>
        <time>2017-02-18T15:15:02Z</time>
      </trkpt>
      <trkpt lat="44.00888" lon="4.8431">
        <ele>20</ele>
        <time>2017-02-18T15:15:25Z</time>
      </trkpt>
      <trkpt lat="44.00842" lon="4.84325">
        <ele>20</ele>
        <time>2017-02-18T15:15:49Z</time>
      </trkpt>
      <trkpt lat="44.0078" lon="4.84335">
        <ele>20</ele>
        <time>2017-02-18T15:16:20Z</time>
      </trkpt>
      <trkpt lat="44.00719" lon="4.84345">
        <ele>20</ele>
        <time>2017-02-18T15:16:51Z</time>
      </trkpt>
      <trkpt lat="44.00657" lon="4.84355">
        <ele>20</ele>
        <time>2017-02-18T15:17:22Z</time>
      </trkpt>
      <trkpt lat="44.00595" lon="4.84365">
        <ele>20</ele>
        <time>2017-02-18T15:17:53Z</time>
      </trkpt>
      <trkpt lat="44.00533" lon="4.84375">
        <ele>20</ele>
        <time>2017-02-18T15:18:24Z</time>
      </trkpt>
      <trkpt lat="44.00473" lon="4.84376">
        <ele>20</ele>
        <time>2017-02-18T15:18:54Z</time>
      </trkpt>
      <trkpt lat="44.00414" lon="4.84377">
        <ele>20</ele>
        <time>2017-02-18T15:19:24Z</time>
      </trkpt>
      <trkpt lat="44.00354" lon="4.84378">
        <ele>20</ele>
        <time>2017-02-18T15:19:54Z</time>
      </trkpt>
      <trkpt lat="44.00294" lon="4.84379">
        <ele>22</ele>
        <time>2017-02-18T15:20:24Z</time>
      </trkpt>
      <trkpt lat="44.00234" lon="4.8438">
        <ele>21</ele>
        <time>2017-02-18T15:20:54Z</time>
      </trkpt>
      <trkpt lat="44.00174" lon="4.84381">
        <ele>20</ele>
        <time>2017-02-18T15:21:24Z</time>
      </trkpt>
      <trkpt lat="44.00121" lon="4.84389">
        <ele>21</ele>
        <time>2017-02-18T15:21:51Z</time>
      </trkpt>
      <trkpt lat="44.00068" lon="4.84397">
        <ele>20</ele>
        <time>2017-02-18T15:22:17Z</time>
      </trkpt>
      <trkpt lat="44.00015" lon="4.84406">
        <ele>20</ele>
        <time>2017-02-18T15:22:44Z</time>
      </trkpt>
      <trkpt lat="43.99963" lon="4.84414">
        <ele>19</ele>
        <time>2017-02-18T15:23:10Z</time>
      </trkpt>
      <trkpt lat="43.9991" lon="4.84422">
        <ele>19</ele>
        <time>2017-02-18T15:23:37Z</time>
      </trkpt>
      <trkpt lat="43.9985" lon="4.84448">
        <ele>19</ele>
        <time>2017-02-18T15:24:08Z</time>
      </trkpt>
      <trkpt lat="43.99791" lon="4.84473">
        <ele>19</ele>
        <time>2017-02-18T15:24:39Z</time>
      </trkpt>
      <trkpt lat="43.99731" lon="4.84499">
        <ele>19</ele>
        <time>2017-02-18T15:25:10Z</time>
      </trkpt>
      <trkpt lat="43.99672" lon="4.84525">
        <ele>19</ele>
        <time>2017-02-18T15:25:42Z</time>
      </trkpt>
      <trkpt lat="43.99612" lon="4.84551">
        <ele>19</ele>
        <time>2017-02-18T15:26:13Z</time>
      </trkpt>
      <trkpt lat="43.99559" lon="4.84596">
        <ele>20</ele>
        <time>2017-02-18T15:26:44Z</time>
      </trkpt>
      <trkpt lat="43.99507" lon="4.84641">
        <ele>20</ele>
        <time>2017-02-18T15:27:15Z</time>
      </trkpt>
      <trkpt lat="43.99454" lon="4.84687">
        <ele>19</ele>
        <time>2017-02-18T15:27:46Z</time>
      </trkpt>
      <trkpt lat="43.99402" lon="4.84732">
        <ele>19</ele>
        <time>2017-02-18T15:28:17Z</time>
      </trkpt>
      <trkpt lat="43.99349" lon="4.84778">
        <ele>18</ele>
        <time>2017-02-18T15:28:48Z</time>
      </trkpt>
      <trkpt lat="43.99297" lon="4.84823">
        <ele>18</ele>
        <time>2017-02-18T15:29:18Z</time>
      </trkpt>
      <trkpt lat="43.99244" lon="4.84868">
        <ele>18</ele>
        <time>2017-02-18T15:29:49Z</time>
      </trkpt>
      <trkpt lat="43.99191" lon="4.84909">
        <ele>19</ele>
        <time>2017-02-18T15:30:20Z</time>
      </trkpt>
      <trkpt lat="43.99137" lon="4.8495">
        <ele>18</ele>
        <time>2017-02-18T15:30:51Z</time>
      </trkpt>
      <trkpt lat="43.99083" lon="4.84991">
        <ele>18</ele>
        <time>2017-02-18T15:31:21Z</time>
      </trkpt>
      <trkpt lat="43.9903" lon="4.85031">
        <ele>18</ele>
        <time>2017-02-18T15:31:52Z</time>
      </trkpt>
      <trkpt lat="43.98976" lon="4.85072">
        <ele>18</ele>
        <time>2017-02-18T15:32:23Z</time>
      </trkpt>
      <trkpt lat="43.98919" lon="4.85112">
        <ele>18</ele>
        <time>2017-02-18T15:32:54Z</time>
      </trkpt>
      <trkpt lat="43.98862" lon="4.85152">
        <ele>17</ele>
        <time>2017-02-18T15:33:26Z</time>
      </trkpt>
      <trkpt lat="43.98805" lon="4.85191">
        <ele>17</ele>
        <time>2017-02-18T15:33:58Z</time>
      </trkpt>
      <trkpt lat="43.98748" lon="4.85231">
        <ele>19</ele>
        <time>2017-02-18T15:34:30Z</time>
      </trkpt>
      <trkpt lat="43.98692" lon="4.85271">
        <ele>18</ele>
        <time>2017-02-18T15:35:02Z</time>
      </trkpt>
      <trkpt lat="43.98635" lon="4.8531">
        <ele>18</ele>
        <time>2017-02-18T15:35:34Z</time>
      </trkpt>
      <trkpt lat="43.98583" lon="4.85335">
        <ele>18</ele>
        <time>2017-02-18T15:36:01Z</time>
      </trkpt>
      <trkpt lat="43.98532" lon="4.8536">
        <ele>18</ele>
        <time>2017-02-18T15:36:28Z</time>
      </trkpt>
      <trkpt lat="43.9848" lon="4.85385">
        <ele>19</ele>
        <time>2017-02-18T15:36:55Z</time>
      </trkpt>
      <trkpt lat="43.98428" lon="4.85395">
        <ele>20</ele>
        <time>2017-02-18T15:37:22Z</time>
      </trkpt>
      <trkpt lat="43.98376" lon="4.85404">
        <ele>20</ele>
        <time>2017-02-18T15:37:48Z</time>
      </trkpt>
      <trkpt lat="43.98324" lon="4.85414">
        <ele>20</ele>
        <time>2017-02-18T15:38:14Z</time>
      </trkpt>
      <trkpt lat="43.98272" lon="4.85423">
        <ele>19</ele>
        <time>2017-02-18T15:38:41Z</time>
      </trkpt>
      <trkpt lat="43.98219" lon="4.85433">
        <ele>18</ele>
        <time>2017-02-18T15:39:07Z</time>
      </trkpt>
      <trkpt lat="43.98165" lon="4.85434">
        <ele>20</ele>
        <time>2017-02-18T15:39:34Z</time>
      </trkpt>
      <trkpt lat="43.98111" lon="4.85436">
        <ele>20</ele>
        <time>2017-02-18T15:40:01Z</time>
      </trkpt>
      <trkpt lat="43.98057" lon="4.85438">
        <ele>20</ele>
        <time>2017-02-18T15:40:28Z</time>
      </trkpt>
      <trkpt lat="43.98003" lon="4.85439">
        <ele>18</ele>
        <time>2017-02-18T15:40:55Z</time>
      </trkpt>
      <trkpt lat="43.97949" lon="4.85441">
        <ele>18</ele>
        <time>2017-02-18T15:41:22Z</time>
      </trkpt>
      <trkpt lat="43.97888" lon="4.85422">
        <ele>21</ele>
        <time>2017-02-18T15:41:53Z</time>
      </trkpt>
      <trkpt lat="43.97827" lon="4.85403">
        <ele>19</ele>
        <time>2017-02-18T15:42:25Z</time>
      </trkpt>
      <trkpt lat="43.97766" lon="4.85383">
        <ele>17</ele>
        <time>2017-02-18T15:42:56Z</time>
      </trkpt>
      <trkpt lat="43.97705" lon="4.85364">
        <ele>18</ele>
        <time>2017-02-18T15:43:27Z</time>
      </trkpt>
      <trkpt lat="43.97642" lon="4.85361">
        <ele>18</ele>
        <time>2017-02-18T15:43:59Z</time>
      </trkpt>
      <trkpt lat="43.9758" lon="4.85359">
        <ele>18</ele>
        <time>2017-02-18T15:44:30Z</time>
      </trkpt>
      <trkpt lat="43.97517" lon="4.85356">
        <ele>18</ele>
        <time>2017-02-18T15:45:01Z</time>
      </trkpt>
      <trkpt lat="43.97454" lon="4.85353">
        <ele>18</ele>
        <time>2017-02-18T15:45:33Z</time>
      </trkpt>
      <trkpt lat="43.97392" lon="4.85351">
        <ele>18</ele>
        <time>2017-02-18T15:46:04Z</time>
      </trkpt>
      <trkpt lat="43.97329" lon="4.85348">
        <ele>17</ele>
        <time>2017-02-18T15:46:36Z</time>
      </trkpt>
      <trkpt lat="43.97266" lon="4.85345">
        <ele>17</ele>
        <time>2017-02-18T15:47:07Z</time>
      </trkpt>
      <trkpt lat="43.97203" lon="4.85342">
        <ele>18</ele>
        <time>2017-02-18T15:47:38Z</time>
      </trkpt>
      <trkpt lat="43.97143" lon="4.85341">
        <ele>19</ele>
        <time>2017-02-18T15:48:08Z</time>
      </trkpt>
      <trkpt lat="43.97083" lon="4.85339">
        <ele>19</ele>
        <time>2017-02-18T15:48:39Z</time>
      </trkpt>
      <trkpt lat="43.97023" lon="4.85338">
        <ele>20</ele>
        <time>2017-02-18T15:49:09Z</time>
      </trkpt>
      <trkpt lat="43.96962" lon="4.85336">
        <ele>19</ele>
        <time>2017-02-18T15:49:39Z</time>
      </trkpt>
      <trkpt lat="43.96905" lon="4.85325">
        <ele>19</ele>
        <time>2017-02-18T15:50:08Z</time>
      </trkpt>
      <trkpt lat="43.96848" lon="4.85313">
        <ele>18</ele>
        <time>2017-02-18T15:50:36Z</time>
      </trkpt>
      <trkpt lat="43.96791" lon="4.85302">
        <ele>17</ele>
        <time>2017-02-18T15:51:05Z</time>
      </trkpt>
      <trkpt lat="43.96746" lon="4.85277">
        <ele>18</ele>
        <time>2017-02-18T15:51:30Z</time>
      </trkpt>
      <trkpt lat="43.96701" lon="4.85251">
        <ele>19</ele>
        <time>2017-02-18T15:51:54Z</time>
      </trkpt>
      <trkpt lat="43.96657" lon="4.85226">
        <ele>18</ele>
        <time>2017-02-18T15:52:18Z</time>
      </trkpt>
      <trkpt lat="43.96612" lon="4.85201">
        <ele>17</ele>
        <time>2017-02-18T15:52:42Z</time>
      </trkpt>
      <trkpt lat="43.96573" lon="4.8516">
        <ele>17</ele>
        <time>2017-02-18T15:53:07Z</time>
      </trkpt>
      <trkpt lat="43.96534" lon="4.85118">
        <ele>17</ele>
        <time>2017-02-18T15:53:31Z</time>
      </trkpt>
      <trkpt lat="43.96495" lon="4.85077">
        <ele>18</ele>
        <time>2017-02-18T15:53:56Z</time>
      </trkpt>
      <trkpt lat="43.96456" lon="4.85036">
        <ele>18</ele>
        <time>2017-02-18T15:54:20Z</time>
      </trkpt>
      <trkpt lat="43.96411" lon="4.84987">
        <ele>17</ele>
        <time>2017-02-18T15:54:49Z</time>
      </trkpt>
      <trkpt lat="43.96366" lon="4.84939">
        <ele>17</ele>
        <time>2017-02-18T15:55:17Z</time>
      </trkpt>
      <trkpt lat="43.96321" lon="4.8489">
        <ele>17</ele>
        <time>2017-02-18T15:55:46Z</time>
      </trkpt>
      <trkpt lat="43.96276" lon="4.84841">
        <ele>17</ele>
        <time>2017-02-18T15:56:14Z</time>
      </trkpt>
      <trkpt lat="43.96231" lon="4.84793">
        <ele>17</ele>
        <time>2017-02-18T15:56:43Z</time>
      </trkpt>
      <trkpt lat="43.96186" lon="4.84744">
        <ele>17</ele>
        <time>2017-02-18T15:57:11Z</time>
      </trkpt>
      <trkpt lat="43.96141" lon="4.84696">
        <ele>17</ele>
        <time>2017-02-18T15:57:40Z</time>
      </trkpt>
      <trkpt lat="43.96096" lon="4.84647">
        <ele>17</ele>
        <time>2017-02-18T15:58:08Z</time>
      </trkpt>
      <trkpt lat="43.96065" lon="4.84582">
        <ele>17</ele>
        <time>2017-02-18T15:58:37Z</time>
      </trkpt>
      <trkpt lat="43.96034" lon="4.84517">
        <ele>17</ele>
        <time>2017-02-18T15:59:05Z</time>
      </trkpt>
      <trkpt lat="43.96003" lon="4.84452">
        <ele>17</ele>
        <time>2017-02-18T15:59:33Z</time>
      </trkpt>
      <trkpt lat="43.95998" lon="4.84377">
        <ele>17</ele>
        <time>2017-02-18T16:00:00Z</time>
      </trkpt>
      <trkpt lat="43.95993" lon="4.84301">
        <ele>17</ele>
        <time>2017-02-18T16:00:27Z</time>
      </trkpt>
      <trkpt lat="43.95988" lon="4.84226">
        <ele>17</ele>
        <time>2017-02-18T16:00:55Z</time>
      </trkpt>
      <trkpt lat="43.95983" lon="4.84151">
        <ele>17</ele>
        <time>2017-02-18T16:01:22Z</time>
      </trkpt>
      <trkpt lat="43.95977" lon="4.84076">
        <ele>17</ele>
        <time>2017-02-18T16:01:49Z</time>
      </trkpt>
      <trkpt lat="43.95972" lon="4.84001">
        <ele>17</ele>
        <time>2017-02-18T16:02:16Z</time>
      </trkpt>
      <trkpt lat="43.95977" lon="4.83914">
        <ele>17</ele>
        <time>2017-02-18T16:02:48Z</time>
      </trkpt>
      <trkpt lat="43.95981" lon="4.83827">
        <ele>17</ele>
        <time>2017-02-18T16:03:19Z</time>
      </trkpt>
      <trkpt lat="43.95986" lon="4.8374">
        <ele>17</ele>
        <time>2017-02-18T16:03:51Z</time>
      </trkpt>
      <trkpt lat="43.9599" lon="4.83653">
        <ele>19</ele>
        <time>2017-02-18T16:04:22Z</time>
      </trkpt>
      <trkpt lat="43.95995" lon="4.83566">
        <ele>21</ele>
        <time>2017-02-18T16:04:54Z</time>
      </trkpt>
      <trkpt lat="43.95999" lon="4.83479">
        <ele>20</ele>
        <time>2017-02-18T16:05:25Z</time>
      </trkpt>
      <trkpt lat="43.96004" lon="4.83392">
        <ele>19</ele>
        <time>2017-02-18T16:05:57Z</time>
      </trkpt>
      <trkpt lat="43.96008" lon="4.83306">
        <ele>17</ele>
        <time>2017-02-18T16:06:28Z</time>
      </trkpt>
      <trkpt lat="43.96001" lon="4.83224">
        <ele>20</ele>
        <time>2017-02-18T16:06:58Z</time>
      </trkpt>
      <trkpt lat="43.95994" lon="4.83142">
        <ele>19</ele>
        <time>2017-02-18T16:07:28Z</time>
      </trkpt>
      <trkpt lat="43.95987" lon="4.8306">
        <ele>17</ele>
        <time>2017-02-18T16:07:57Z</time>
      </trkpt>
      <trkpt lat="43.95981" lon="4.82977">
        <ele>17</ele>
        <time>2017-02-18T16:08:27Z</time>
      </trkpt>
      <trkpt lat="43.95974" lon="4.82896">
        <ele>17</ele>
        <time>2017-02-18T16:08:57Z</time>
      </trkpt>
      <trkpt lat="43.95943" lon="4.8283">
        <ele>17</ele>
        <time>2017-02-18T16:09:26Z</time>
      </trkpt>
      <trkpt lat="43.95912" lon="4.82763">
        <ele>17</ele>
        <time>2017-02-18T16:09:54Z</time>
      </trkpt>
      <trkpt lat="43.95881" lon="4.82696">
        <ele>18</ele>
        <time>2017-02-18T16:10:23Z</time>
      </trkpt>
      <trkpt lat="43.9585" lon="4.8263">
        <ele>17</ele>
        <time>2017-02-18T16:10:51Z</time>
      </trkpt>
      <trkpt lat="43.95819" lon="4.82572">
        <ele>17</ele>
        <time>2017-02-18T16:11:17Z</time>
      </trkpt>
      <trkpt lat="43.95788" lon="4.82513">
        <ele>17</ele>
        <time>2017-02-18T16:11:44Z</time>
      </trkpt>
      <trkpt lat="43.95758" lon="4.82455">
        <ele>17</ele>
        <time>2017-02-18T16:12:10Z</time>
      </trkpt>
      <trkpt lat="43.95727" lon="4.82396">
        <ele>18</ele>
        <time>2017-02-18T16:12:36Z</time>
      </trkpt>
      <trkpt lat="43.95684" lon="4.82344">
        <ele>18</ele>
        <time>2017-02-18T16:13:05Z</time>
      </trkpt>
      <trkpt lat="43.95641" lon="4.82292">
        <ele>19</ele>
        <time>2017-02-18T16:13:33Z</time>
      </trkpt>
      <trkpt lat="43.95598" lon="4.82239">
        <ele>19</ele>
        <time>2017-02-18T16:14:02Z</time>
      </trkpt>
      <trkpt lat="43.95555" lon="4.82187">
        <ele>19</ele>
        <time>2017-02-18T16:14:30Z</time>
      </trkpt>
      <trkpt lat="43.95512" lon="4.82135">
        <ele>17</ele>
        <time>2017-02-18T16:14:59Z</time>
      </trkpt>
      <trkpt lat="43.9549" lon="4.82055">
        <ele>18</ele>
        <time>2017-02-18T16:15:30Z</time>
      </trkpt>
      <trkpt lat="43.95467" lon="4.81975">
        <ele>18</ele>
        <time>2017-02-18T16:16:01Z</time>
      </trkpt>
      <trkpt lat="43.95445" lon="4.81895">
        <ele>17</ele>
        <time>2017-02-18T16:16:32Z</time>
      </trkpt>
      <trkpt lat="43.95423" lon="4.81815">
        <ele>19</ele>
        <time>2017-02-18T16:17:03Z</time>
      </trkpt>
      <trkpt lat="43.95401" lon="4.81735">
        <ele>19</ele>
        <time>2017-02-18T16:17:33Z</time>
      </trkpt>
      <trkpt lat="43.95408" lon="4.81653">
        <ele>18</ele>
        <time>2017-02-18T16:18:03Z</time>
      </trkpt>
      <trkpt lat="43.95416" lon="4.81572">
        <ele>17</ele>
        <time>2017-02-18T16:18:33Z</time>
      </trkpt>
      <trkpt lat="43.95423" lon="4.8149">
        <ele>17</ele>
        <time>2017-02-18T16:19:03Z</time>
      </trkpt>
      <trkpt lat="43.9543" lon="4.81408">
        <ele>17</ele>
        <time>2017-02-18T16:19:33Z</time>
      </trkpt>
      <trkpt lat="43.95438" lon="4.81326">
        <ele>17</ele>
        <time>2017-02-18T16:20:02Z</time>
      </trkpt>
      <trkpt lat="43.95445" lon="4.81244">
        <ele>17</ele>
        <time>2017-02-18T16:20:32Z</time>
      </trkpt>
      <trkpt lat="43.95453" lon="4.81162">
        <ele>18</ele>
        <time>2017-02-18T16:21:02Z</time>
      </trkpt>
      <trkpt lat="43.9546" lon="4.8108">
        <ele>19</ele>
        <time>2017-02-18T16:21:32Z</time>
      </trkpt>
      <trkpt lat="43.95467" lon="4.80999">
        <ele>19</ele>
        <time>2017-02-18T16:22:01Z</time>
      </trkpt>
      <trkpt lat="43.95467" lon="4.8092">
        <ele>18</ele>
        <time>2017-02-18T16:22:30Z</time>
      </trkpt>
      <trkpt lat="43.95466" lon="4.80841">
        <ele>17</ele>
        <time>2017-02-18T16:22:58Z</time>
      </trkpt>
      <trkpt lat="43.95465" lon="4.80762">
        <ele>17</ele>
        <time>2017-02-18T16:23:27Z</time>
      </trkpt>
      <trkpt lat="43.95465" lon="4.80683">
        <ele>17</ele>
        <time>2017-02-18T16:23:55Z</time>
      </trkpt>
      <trkpt lat="43.95464" lon="4.80605">
        <ele>18</ele>
        <time>2017-02-18T16:24:24Z</time>
      </trkpt>
      <trkpt lat="43.95451" lon="4.80525">
        <ele>18</ele>
        <time>2017-02-18T16:24:53Z</time>
      </trkpt>
      <trkpt lat="43.95438" lon="4.80446">
        <ele>17</ele>
        <time>2017-02-18T16:25:23Z</time>
      </trkpt>
      <trkpt lat="43.95412" lon="4.80389">
        <ele>17</ele>
        <time>2017-02-18T16:25:47Z</time>
      </trkpt>
      <trkpt lat="43.95386" lon="4.80333">
        <ele>17</ele>
        <time>2017-02-18T16:26:11Z</time>
      </trkpt>
      <trkpt lat="43.95361" lon="4.80276">
        <ele>18</ele>
        <time>2017-02-18T16:26:35Z</time>
      </trkpt>
      <trkpt lat="43.95334" lon="4.80229">
        <ele>19</ele>
        <time>2017-02-18T16:26:57Z</time>
      </trkpt>
      <trkpt lat="43.95308" lon="4.80182">
        <ele>19</ele>
        <time>2017-02-18T16:27:18Z</time>
      </trkpt>
      <trkpt lat="43.95282" lon="4.80135">
        <ele>17</ele>
        <time>2017-02-18T16:27:40Z</time>
      </trkpt>
      <trkpt lat="43.95244" lon="4.80093">
        <ele>17</ele>
        <time>2017-02-18T16:28:04Z</time>
      </trkpt>
      <trkpt lat="43.95207" lon="4.80052">
        <ele>17</ele>
        <time>2017-02-18T16:28:28Z</time>
      </trkpt>
      <trkpt lat="43.95169" lon="4.8001">
        <ele>17</ele>
        <time>2017-02-18T16:28:52Z</time>
      </trkpt>
      <trkpt lat="43.95118" lon="4.79978">
        <ele>17</ele>
        <time>2017-02-18T16:29:20Z</time>
      </trkpt>
      <trkpt lat="43.95067" lon="4.79945">
        <ele>17</ele>
        <time>2017-02-18T16:29:48Z</time>
      </trkpt>
      <trkpt lat="43.95016" lon="4.79912">
        <ele>18</ele>
        <time>2017-02-18T16:30:16Z</time>
      </trkpt>
      <trkpt lat="43.94965" lon="4.79879">
        <ele>17</ele>
        <time>2017-02-18T16:30:44Z</time>
      </trkpt>
      <trkpt lat="43.9491" lon="4.79836">
        <ele>17</ele>
        <time>2017-02-18T16:31:16Z</time>
      </trkpt>
      <trkpt lat="43.94856" lon="4.79792">
        <ele>17</ele>
        <time>2017-02-18T16:31:48Z</time>
      </trkpt>
      <trkpt lat="43.94801" lon="4.79748">
        <ele>17</ele>
        <time>2017-02-18T16:32:19Z</time>
      </trkpt>
      <trkpt lat="43.94746" lon="4.79704">
        <ele>17</ele>
        <time>2017-02-18T16:32:51Z</time>
      </trkpt>
      <trkpt lat="43.94691" lon="4.7966">
        <ele>17</ele>
        <time>2017-02-18T16:33:22Z</time>
      </trkpt>
      <trkpt lat="43.94637" lon="4.79616">
        <ele>17</ele>
        <time>2017-02-18T16:33:54Z</time>
      </trkpt>
      <trkpt lat="43.94582" lon="4.79572">
        <ele>17</ele>
        <time>2017-02-18T16:34:26Z</time>
      </trkpt>
      <trkpt lat="43.94527" lon="4.79528">
        <ele>17</ele>
        <time>2017-02-18T16:34:57Z</time>
      </trkpt>
      <trkpt lat="43.94472" lon="4.79485">
        <ele>17</ele>
        <time>2017-02-18T16:35:29Z</time>
      </trkpt>
      <trkpt lat="43.94437" lon="4.79423">
        <ele>17</ele>
        <time>2017-02-18T16:35:57Z</time>
      </trkpt>
      <trkpt lat="43.94402" lon="4.79361">
        <ele>17</ele>
        <time>2017-02-18T16:36:26Z</time>
      </trkpt>
      <trkpt lat="43.94367" lon="4.79299">
        <ele>17</ele>
        <time>2017-02-18T16:36:54Z</time>
      </trkpt>
      <trkpt lat="43.94331" lon="4.79237">
        <ele>17</ele>
        <time>2017-02-18T16:37:23Z</time>
      </trkpt>
      <trkpt lat="43.94296" lon="4.79176">
        <ele>17</ele>
        <time>2017-02-18T16:37:51Z</time>
      </trkpt>
      <trkpt lat="43.94269" lon="4.79108">
        <ele>17</ele>
        <time>2017-02-18T16:38:19Z</time>
      </trkpt>
      <trkpt lat="43.94241" lon="4.7904">
        <ele>17</ele>
        <time>2017-02-18T16:38:47Z</time>
      </trkpt>
      <trkpt lat="43.94214" lon="4.78973">
        <ele>17</ele>
        <time>2017-02-18T16:39:15Z</time>
      </trkpt>
      <trkpt lat="43.94187" lon="4.78905">
        <ele>17</ele>
        <time>2017-02-18T16:39:43Z</time>
      </trkpt>
      <trkpt lat="43.94159" lon="4.78838">
        <ele>17</ele>
        <time>2017-02-18T16:40:11Z</time>
      </trkpt>
      <trkpt lat="43.94132" lon="4.7877">
        <ele>16</ele>
        <time>2017-02-18T16:40:39Z</time>
      </trkpt>
      <trkpt lat="43.94105" lon="4.78703">
        <ele>17</ele>
        <time>2017-02-18T16:41:07Z</time>
      </trkpt>
      <trkpt lat="43.94082" lon="4.78621">
        <ele>17</ele>
        <time>2017-02-18T16:41:39Z</time>
      </trkpt>
      <trkpt lat="43.9406" lon="4.78538">
        <ele>17</ele>
        <time>2017-02-18T16:42:10Z</time>
      </trkpt>
      <trkpt lat="43.94038" lon="4.78456">
        <ele>17</ele>
        <time>2017-02-18T16:42:42Z</time>
      </trkpt>
      <trkpt lat="43.94015" lon="4.78373">
        <ele>17</ele>
        <time>2017-02-18T16:43:14Z</time>
      </trkpt>
      <trkpt lat="43.93993" lon="4.78292">
        <ele>17</ele>
        <time>2017-02-18T16:43:46Z</time>
      </trkpt>
      <trkpt lat="43.93976" lon="4.78209">
        <ele>17</ele>
        <time>2017-02-18T16:44:17Z</time>
      </trkpt>
      <trkpt lat="43.93959" lon="4.78126">
        <ele>17</ele>
        <time>2017-02-18T16:44:48Z</time>
      </trkpt>
      <trkpt lat="43.93942" lon="4.78044">
        <ele>16</ele>
        <time>2017-02-18T16:45:19Z</time>
      </trkpt>
      <trkpt lat="43.93925" lon="4.77961">
        <ele>16</ele>
        <time>2017-02-18T16:45:50Z</time>
      </trkpt>
      <trkpt lat="43.93908" lon="4.77879">
        <ele>16</ele>
        <time>2017-02-18T16:46:21Z</time>
      </trkpt>
      <trkpt lat="43.93891" lon="4.77796">
        <ele>16</ele>
        <time>2017-02-18T16:46:52Z</time>
      </trkpt>
      <trkpt lat="43.93873" lon="4.77713">
        <ele>16</ele>
        <time>2017-02-18T16:47:23Z</time>
      </trkpt>
      <trkpt lat="43.93856" lon="4.77631">
        <ele>16</ele>
        <time>2017-02-18T16:47:53Z</time>
      </trkpt>
      <trkpt lat="43.93839" lon="4.77548">
        <ele>16</ele>
        <time>2017-02-18T16:48:24Z</time>
      </trkpt>
      <trkpt lat="43.93822" lon="4.77466">
        <ele>16</ele>
        <time>2017-02-18T16:48:55Z</time>
      </trkpt>
      <trkpt lat="43.93805" lon="4.77383">
        <ele>16</ele>
        <time>2017-02-18T16:49:26Z</time>
      </trkpt>
      <trkpt lat="43.93788" lon="4.773">
        <ele>16</ele>
        <time>2017-02-18T16:49:57Z</time>
      </trkpt>
      <trkpt lat="43.93771" lon="4.77218">
        <ele>16</ele>
        <time>2017-02-18T16:50:28Z</time>
      </trkpt>
      <trkpt lat="43.93754" lon="4.77135">
        <ele>16</ele>
        <time>2017-02-18T16:50:59Z</time>
      </trkpt>
      <trkpt lat="43.93736" lon="4.77053">
        <ele>16</ele>
        <time>2017-02-18T16:51:30Z</time>
      </trkpt>
      <trkpt lat="43.93719" lon="4.7697">
        <ele>16</ele>
        <time>2017-02-18T16:52:01Z</time>
      </trkpt>
      <trkpt lat="43.93702" lon="4.76888">
        <ele>16</ele>
        <time>2017-02-18T16:52:32Z</time>
      </trkpt>
      <trkpt lat="43.93685" lon="4.76805">
        <ele>16</ele>
        <time>2017-02-18T16:53:03Z</time>
      </trkpt>
      <trkpt lat="43.93668" lon="4.76722">
        <ele>16</ele>
        <time>2017-02-18T16:53:34Z</time>
      </trkpt>
      <trkpt lat="43.93651" lon="4.7664">
        <ele>16</ele>
        <time>2017-02-18T16:54:05Z</time>
      </trkpt>
      <trkpt lat="43.93634" lon="4.76557">
        <ele>16</ele>
        <time>2017-02-18T16:54:36Z</time>
      </trkpt>
      <trkpt lat="43.93617" lon="4.76475">
        <ele>16</ele>
        <time>2017-02-18T16:55:07Z</time>
      </trkpt>
      <trkpt lat="43.93599" lon="4.76392">
        <ele>16</ele>
        <time>2017-02-18T16:55:38Z</time>
      </trkpt>
      <trkpt lat="43.93582" lon="4.76309">
        <ele>16</ele>
        <time>2017-02-18T16:56:09Z</time>
      </trkpt>
      <trkpt lat="43.93565" lon="4.76227">
        <ele>16</ele>
        <time>2017-02-18T16:56:40Z</time>
      </trkpt>
      <trkpt lat="43.93548" lon="4.76144">
        <ele>16</ele>
        <time>2017-02-18T16:57:11Z</time>
      </trkpt>
      <trkpt lat="43.93531" lon="4.76062">
        <ele>16</ele>
        <time>2017-02-18T16:57:42Z</time>
      </trkpt>
      <trkpt lat="43.93514" lon="4.75979">
        <ele>16</ele>
        <time>2017-02-18T16:58:13Z</time>
      </trkpt>
      <trkpt lat="43.93497" lon="4.75897">
        <ele>16</ele>
        <time>2017-02-18T16:58:44Z</time>
      </trkpt>
      <trkpt lat="43.9348" lon="4.7582">
        <ele>16</ele>
        <time>2017-02-18T16:59:15Z</time>
      </trkpt>
      <trkpt lat="43.93454" lon="4.75743">
        <ele>16</ele>
        <time>2017-02-18T16:59:46Z</time>
      </trkpt>
      <trkpt lat="43.93428" lon="4.75666">
        <ele>16</ele>
        <time>2017-02-18T17:00:16Z</time>
      </trkpt>
      <trkpt lat="43.93402" lon="4.75589">
        <ele>16</ele>
        <time>2017-02-18T17:00:47Z</time>
      </trkpt>
      <trkpt lat="43.93376" lon="4.75513">
        <ele>16</ele>
        <time>2017-02-18T17:01:17Z</time>
      </trkpt>
      <trkpt lat="43.93349" lon="4.75436">
        <ele>16</ele>
        <time>2017-02-18T17:01:48Z</time>
      </trkpt>
      <trkpt lat="43.93323" lon="4.75359">
        <ele>16</ele>
        <time>2017-02-18T17:02:19Z</time>
      </trkpt>
      <trkpt lat="43.93297" lon="4.75282">
        <ele>16</ele>
        <time>2017-02-18T17:02:49Z</time>
      </trkpt>
      <trkpt lat="43.93271" lon="4.75206">
        <ele>16</ele>
        <time>2017-02-18T17:03:20Z</time>
      </trkpt>
      <trkpt lat="43.93245" lon="4.75129">
        <ele>16</ele>
        <time>2017-02-18T17:03:50Z</time>
      </trkpt>
      <trkpt lat="43.93218" lon="4.75052">
        <ele>16</ele>
        <time>2017-02-18T17:04:21Z</time>
      </trkpt>
      <trkpt lat="43.93192" lon="4.74976">
        <ele>16</ele>
        <time>2017-02-18T17:04:52Z</time>
      </trkpt>
      <trkpt lat="43.93166" lon="4.74899">
        <ele>16</ele>
        <time>2017-02-18T17:05:22Z</time>
      </trkpt>
      <trkpt lat="43.9314" lon="4.74824">
        <ele>16</ele>
        <time>2017-02-18T17:05:53Z</time>
      </trkpt>
      <trkpt lat="43.93096" lon="4.74765">
        <ele>16</ele>
        <time>2017-02-18T17:06:24Z</time>
      </trkpt>
      <trkpt lat="43.93051" lon="4.74706">
        <ele>16</ele>
        <time>2017-02-18T17:06:54Z</time>
      </trkpt>
      <trkpt lat="43.93006" lon="4.74648">
        <ele>16</ele>
        <time>2017-02-18T17:07:25Z</time>
      </trkpt>
      <trkpt lat="43.92962" lon="4.74589">
        <ele>16</ele>
        <time>2017-02-18T17:07:56Z</time>
      </trkpt>
      <trkpt lat="43.92917" lon="4.7453">
        <ele>16</ele>
        <time>2017-02-18T17:08:27Z</time>
      </trkpt>
      <trkpt lat="43.92872" lon="4.74471">
        <ele>16</ele>
        <time>2017-02-18T17:08:58Z</time>
      </trkpt>
      <trkpt lat="43.92827" lon="4.74412">
        <ele>16</ele>
        <time>2017-02-18T17:09:29Z</time>
      </trkpt>
      <trkpt lat="43.92783" lon="4.74354">
        <ele>16</ele>
        <time>2017-02-18T17:09:59Z</time>
      </trkpt>
      <trkpt lat="43.92738" lon="4.74295">
        <ele>16</ele>
        <time>2017-02-18T17:10:30Z</time>
      </trkpt>
      <trkpt lat="43.92693" lon="4.74236">
        <ele>16</ele>
        <time>2017-02-18T17:11:01Z</time>
      </trkpt>
      <trkpt lat="43.92648" lon="4.74177">
        <ele>16</ele>
        <time>2017-02-18T17:11:32Z</time>
      </trkpt>
      <trkpt lat="43.92604" lon="4.74118">
        <ele>16</ele>
        <time>2017-02-18T17:12:03Z</time>
      </trkpt>
      <trkpt lat="43.92559" lon="4.7406">
        <ele>16</ele>
        <time>2017-02-18T17:12:34Z</time>
      </trkpt>
      <trkpt lat="43.92505" lon="4.74015">
        <ele>16</ele>
        <time>2017-02-18T17:13:05Z</time>
      </trkpt>
      <trkpt lat="43.92452" lon="4.73969">
        <ele>16</ele>
        <time>2017-02-18T17:13:37Z</time>
      </trkpt>
      <trkpt lat="43.92398" lon="4.73924">
        <ele>16</ele>
        <time>2017-02-18T17:14:08Z</time>
      </trkpt>
      <trkpt lat="43.92344" lon="4.73879">
        <ele>16</ele>
        <time>2017-02-18T17:14:40Z</time>
      </trkpt>
      <trkpt lat="43.9229" lon="4.73833">
        <ele>16</ele>
        <time>2017-02-18T17:15:11Z</time>
      </trkpt>
      <trkpt lat="43.92236" lon="4.73788">
        <ele>16</ele>
        <time>2017-02-18T17:15:43Z</time>
      </trkpt>
      <trkpt lat="43.92182" lon="4.73743">
        <ele>16</ele>
        <time>2017-02-18T17:16:14Z</time>
      </trkpt>
      <trkpt lat="43.92128" lon="4.73697">
        <ele>16</ele>
        <time>2017-02-18T17:16:46Z</time>
      </trkpt>
      <trkpt lat="43.92074" lon="4.73652">
        <ele>16</ele>
        <time>2017-02-18T17:17:17Z</time>
      </trkpt>
      <trkpt lat="43.9202" lon="4.73607">
        <ele>16</ele>
        <time>2017-02-18T17:17:49Z</time>
      </trkpt>
      <trkpt lat="43.91966" lon="4.73562">
        <ele>16</ele>
        <time>2017-02-18T17:18:21Z</time>
      </trkpt>
      <trkpt lat="43.91912" lon="4.73516">
        <ele>16</ele>
        <time>2017-02-18T17:18:52Z</time>
      </trkpt>
      <trkpt lat="43.91859" lon="4.73471">
        <ele>16</ele>
        <time>2017-02-18T17:19:24Z</time>
      </trkpt>
      <trkpt lat="43.91805" lon="4.73426">
        <ele>16</ele>
        <time>2017-02-18T17:19:55Z</time>
      </trkpt>
      <trkpt lat="43.91751" lon="4.7338">
        <ele>16</ele>
        <time>2017-02-18T17:20:27Z</time>
      </trkpt>
      <trkpt lat="43.91697" lon="4.73335">
        <ele>16</ele>
        <time>2017-02-18T17:20:58Z</time>
      </trkpt>
      <trkpt lat="43.91643" lon="4.7329">
        <ele>16</ele>
        <time>2017-02-18T17:21:30Z</time>
      </trkpt>
      <trkpt lat="43.91589" lon="4.73244">
        <ele>16</ele>
        <time>2017-02-18T17:22:01Z</time>
      </trkpt>
      <trkpt lat="43.91535" lon="4.73199">
        <ele>16</ele>
        <time>2017-02-18T17:22:33Z</time>
      </trkpt>
      <trkpt lat="43.91481" lon="4.73154">
        <ele>16</ele>
        <time>2017-02-18T17:23:04Z</time>
      </trkpt>
      <trkpt lat="43.91427" lon="4.73108">
        <ele>15</ele>
        <time>2017-02-18T17:23:36Z</time>
      </trkpt>
      <trkpt lat="43.91373" lon="4.73063">
        <ele>15</ele>
        <time>2017-02-18T17:24:08Z</time>
      </trkpt>
      <trkpt lat="43.9132" lon="4.73018">
        <ele>15</ele>
        <time>2017-02-18T17:24:39Z</time>
      </trkpt>
      <trkpt lat="43.91266" lon="4.72972">
        <ele>15</ele>
        <time>2017-02-18T17:25:11Z</time>
      </trkpt>
      <trkpt lat="43.91212" lon="4.72927">
        <ele>15</ele>
        <time>2017-02-18T17:25:42Z</time>
      </trkpt>
      <trkpt lat="43.91163" lon="4.72881">
        <ele>15</ele>
        <time>2017-02-18T17:26:12Z</time>
      </trkpt>
      <trkpt lat="43.91114" lon="4.72836">
        <ele>15</ele>
        <time>2017-02-18T17:26:41Z</time>
      </trkpt>
      <trkpt lat="43.91065" lon="4.7279">
        <ele>15</ele>
        <time>2017-02-18T17:27:11Z</time>
      </trkpt>
      <trkpt lat="43.91016" lon="4.72744">
        <ele>15</ele>
        <time>2017-02-18T17:27:40Z</time>
      </trkpt>
      <trkpt lat="43.90967" lon="4.72698">
        <ele>15</ele>
        <time>2017-02-18T17:28:10Z</time>
      </trkpt>
      <trkpt lat="43.90918" lon="4.72652">
        <ele>15</ele>
        <time>2017-02-18T17:28:39Z</time>
      </trkpt>
      <trkpt lat="43.90869" lon="4.72607">
        <ele>15</ele>
        <time>2017-02-18T17:29:09Z</time>
      </trkpt>
      <trkpt lat="43.9082" lon="4.72561">
        <ele>15</ele>
        <time>2017-02-18T17:29:38Z</time>
      </trkpt>
      <trkpt lat="43.90771" lon="4.72515">
        <ele>15</ele>
        <time>2017-02-18T17:30:08Z</time>
      </trkpt>
      <trkpt lat="43.90722" lon="4.72469">
        <ele>15</ele>
        <time>2017-02-18T17:30:38Z</time>
      </trkpt>
      <trkpt lat="43.90673" lon="4.72423">
        <ele>15</ele>
        <time>2017-02-18T17:31:07Z</time>
      </trkpt>
      <trkpt lat="43.90624" lon="4.72378">
        <ele>15</ele>
        <time>2017-02-18T17:31:37Z</time>
      </trkpt>
      <trkpt lat="43.90593" lon="4.72302">
        <ele>15</ele>
        <time>2017-02-18T17:32:08Z</time>
      </trkpt>
      <trkpt lat="43.90561" lon="4.72226">
        <ele>15</ele>
        <time>2017-02-18T17:32:40Z</time>
      </trkpt>
      <trkpt lat="43.9053" lon="4.7215">
        <ele>15</ele>
        <time>2017-02-18T17:33:11Z</time>
      </trkpt>
      <trkpt lat="43.90498" lon="4.72075">
        <ele>15</ele>
        <time>2017-02-18T17:33:43Z</time>
      </trkpt>
      <trkpt lat="43.90466" lon="4.71999">
        <ele>15</ele>
        <time>2017-02-18T17:34:15Z</time>
      </trkpt>
      <trkpt lat="43.90435" lon="4.71923">
        <ele>15</ele>
        <time>2017-02-18T17:34:46Z</time>
      </trkpt>
      <trkpt lat="43.90403" lon="4.71847">
        <ele>15</ele>
        <time>2017-02-18T17:35:18Z</time>
      </trkpt>
      <trkpt lat="43.90372" lon="4.71771">
        <ele>15</ele>
        <time>2017-02-18T17:35:49Z</time>
      </trkpt>
      <trkpt lat="43.9034" lon="4.71695">
        <ele>15</ele>
        <time>2017-02-18T17:36:21Z</time>
      </trkpt>
      <trkpt lat="43.90309" lon="4.7162">
        <ele>15</ele>
        <time>2017-02-18T17:36:52Z</time>
      </trkpt>
      <trkpt lat="43.90278" lon="4.71545">
        <ele>15</ele>
        <time>2017-02-18T17:37:24Z</time>
      </trkpt>
      <trkpt lat="43.90251" lon="4.71469">
        <ele>15</ele>
        <time>2017-02-18T17:37:54Z</time>
      </trkpt>
      <trkpt lat="43.90225" lon="4.71393">
        <ele>15</ele>
        <time>2017-02-18T17:38:25Z</time>
      </trkpt>
      <trkpt lat="43.90198" lon="4.71318">
        <ele>15</ele>
        <time>2017-02-18T17:38:55Z</time>
      </trkpt>
      <trkpt lat="43.90171" lon="4.71242">
        <ele>15</ele>
        <time>2017-02-18T17:39:26Z</time>
      </trkpt>
      <trkpt lat="43.90145" lon="4.71166">
        <ele>15</ele>
        <time>2017-02-18T17:39:56Z</time>
      </trkpt>
      <trkpt lat="43.90118" lon="4.7109">
        <ele>15</ele>
        <time>2017-02-18T17:40:26Z</time>
      </trkpt>
      <trkpt lat="43.90092" lon="4.71014">
        <ele>15</ele>
        <time>2017-02-18T17:40:57Z</time>
      </trkpt>
      <trkpt lat="43.90065" lon="4.70938">
        <ele>15</ele>
        <time>2017-02-18T17:41:27Z</time>
      </trkpt>
      <trkpt lat="43.90038" lon="4.70862">
        <ele>15</ele>
        <time>2017-02-18T17:41:58Z</time>
      </trkpt>
      <trkpt lat="43.90012" lon="4.70786">
        <ele>15</ele>
        <time>2017-02-18T17:42:28Z</time>
      </trkpt>
      <trkpt lat="43.89985" lon="4.70711">
        <ele>15</ele>
        <time>2017-02-18T17:42:59Z</time>
      </trkpt>
      <trkpt lat="43.89959" lon="4.70635">
        <ele>15</ele>
        <time>2017-02-18T17:43:29Z</time>
      </trkpt>
      <trkpt lat="43.89932" lon="4.70559">
        <ele>15</ele>
        <time>2017-02-18T17:43:59Z</time>
      </trkpt>
      <trkpt lat="43.89905" lon="4.70483">
        <ele>15</ele>
        <time>2017-02-18T17:44:30Z</time>
      </trkpt>
      <trkpt lat="43.89879" lon="4.70407">
        <ele>15</ele>
        <time>2017-02-18T17:45:00Z</time>
      </trkpt>
      <trkpt lat="43.89852" lon="4.70331">
        <ele>15</ele>
        <time>2017-02-18T17:45:31Z</time>
      </trkpt>
      <trkpt lat="43.89826" lon="4.70258">
        <ele>15</ele>
        <time>2017-02-18T17:46:01Z</time>
      </trkpt>
      <trkpt lat="43.89786" lon="4.70194">
        <ele>14</ele>
        <time>2017-02-18T17:46:32Z</time>
      </trkpt>
      <trkpt lat="43.89746" lon="4.7013">
        <ele>14</ele>
        <time>2017-02-18T17:47:02Z</time>
      </trkpt>
      <trkpt lat="43.89706" lon="4.70067">
        <ele>14</ele>
        <time>2017-02-18T17:47:33Z</time>
      </trkpt>
      <trkpt lat="43.89665" lon="4.70003">
        <ele>14</ele>
        <time>2017-02-18T17:48:03Z</time>
      </trkpt>
      <trkpt lat="43.89625" lon="4.69939">
        <ele>14</ele>
        <time>2017-02-18T17:48:34Z</time>
      </trkpt>
      <trkpt lat="43.89585" lon="4.69875">
        <ele>14</ele>
        <time>2017-02-18T17:49:05Z</time>
      </trkpt>
      <trkpt lat="43.89545" lon="4.69812">
        <ele>14</ele>
        <time>2017-02-18T17:49:35Z</time>
      </trkpt>
      <trkpt lat="43.89504" lon="4.69748">
        <ele>14</ele>
        <time>2017-02-18T17:50:06Z</time>
      </trkpt>
      <trkpt lat="43.89464" lon="4.69684">
        <ele>14</ele>
        <time>2017-02-18T17:50:36Z</time>
      </trkpt>
      <trkpt lat="43.89424" lon="4.69621">
        <ele>14</ele>
        <time>2017-02-18T17:51:07Z</time>
      </trkpt>
      <trkpt lat="43.89384" lon="4.69557">
        <ele>14</ele>
        <time>2017-02-18T17:51:37Z</time>
      </trkpt>
      <trkpt lat="43.89344" lon="4.69494">
        <ele>14</ele>
        <time>2017-02-18T17:52:08Z</time>
      </trkpt>
      <trkpt lat="43.89293" lon="4.69453">
        <ele>14</ele>
        <time>2017-02-18T17:52:38Z</time>
      </trkpt>
      <trkpt lat="43.89241" lon="4.69412">
        <ele>14</ele>
        <time>2017-02-18T17:53:07Z</time>
      </trkpt>
      <trkpt lat="43.8919" lon="4.69371">
        <ele>14</ele>
        <time>2017-02-18T17:53:37Z</time>
      </trkpt>
      <trkpt lat="43.89138" lon="4.6933">
        <ele>14</ele>
        <time>2017-02-18T17:54:07Z</time>
      </trkpt>
      <trkpt lat="43.89087" lon="4.69289">
        <ele>14</ele>
        <time>2017-02-18T17:54:36Z</time>
      </trkpt>
      <trkpt lat="43.89036" lon="4.69248">
        <ele>14</ele>
        <time>2017-02-18T17:55:06Z</time>
      </trkpt>
      <trkpt lat="43.88984" lon="4.69207">
        <ele>14</ele>
        <time>2017-02-18T17:55:35Z</time>
      </trkpt>
      <trkpt lat="43.88933" lon="4.69166">
        <ele>14</ele>
        <time>2017-02-18T17:56:05Z</time>
      </trkpt>
      <trkpt lat="43.88882" lon="4.69125">
        <ele>14</ele>
        <time>2017-02-18T17:56:35Z</time>
      </trkpt>
      <trkpt lat="43.8883" lon="4.69085">
        <ele>14</ele>
        <time>2017-02-18T17:57:04Z</time>
      </trkpt>
      <trkpt lat="43.88779" lon="4.69044">
        <ele>14</ele>
        <time>2017-02-18T17:57:34Z</time>
      </trkpt>
      <trkpt lat="43.88727" lon="4.69003">
        <ele>14</ele>
        <time>2017-02-18T17:58:04Z</time>
      </trkpt>
      <trkpt lat="43.88676" lon="4.68962">
        <ele>14</ele>
        <time>2017-02-18T17:58:33Z</time>
      </trkpt>
      <trkpt lat="43.88639" lon="4.68898">
        <ele>14</ele>
        <time>2017-02-18T17:59:03Z</time>
      </trkpt>
      <trkpt lat="43.88602" lon="4.68835">
        <ele>14</ele>
        <time>2017-02-18T17:59:32Z</time>
      </trkpt>
      <trkpt lat="43.88564" lon="4.68771">
        <ele>14</ele>
        <time>2017-02-18T18:00:02Z</time>
      </trkpt>
      <trkpt lat="43.88527" lon="4.68707">
        <ele>14</ele>
        <time>2017-02-18T18:00:31Z</time>
      </trkpt>
      <trkpt lat="43.8849" lon="4.68644">
        <ele>14</ele>
        <time>2017-02-18T18:01:01Z</time>
      </trkpt>
      <trkpt lat="43.88453" lon="4.6858">
        <ele>14</ele>
        <time>2017-02-18T18:01:31Z</time>
      </trkpt>
      <trkpt lat="43.88416" lon="4.68517">
        <ele>14</ele>
        <time>2017-02-18T18:02:00Z</time>
      </trkpt>
      <trkpt lat="43.88379" lon="4.68453">
        <ele>14</ele>
        <time>2017-02-18T18:02:30Z</time>
      </trkpt>
      <trkpt lat="43.88341" lon="4.68389">
        <ele>14</ele>
        <time>2017-02-18T18:02:59Z</time>
      </trkpt>
      <trkpt lat="43.88305" lon="4.68327">
        <ele>14</ele>
        <time>2017-02-18T18:03:29Z</time>
      </trkpt>
      <trkpt lat="43.88283" lon="4.68244">
        <ele>14</ele>
        <time>2017-02-18T18:04:00Z</time>
      </trkpt>
      <trkpt lat="43.88262" lon="4.68161">
        <ele>14</ele>
        <time>2017-02-18T18:04:32Z</time>
      </trkpt>
      <trkpt lat="43.8824" lon="4.68078">
        <ele>14</ele>
        <time>2017-02-18T18:05:04Z</time>
      </trkpt>
      <trkpt lat="43.88219" lon="4.67995">
        <ele>14</ele>
        <time>2017-02-18T18:05:36Z</time>
      </trkpt>
      <trkpt lat="43.88197" lon="4.67912">
        <ele>14</ele>
        <time>2017-02-18T18:06:08Z</time>
      </trkpt>
      <trkpt lat="43.88176" lon="4.67829">
        <ele>14</ele>
        <time>2017-02-18T18:06:39Z</time>
      </trkpt>
      <trkpt lat="43.88154" lon="4.67746">
        <ele>14</ele>
        <time>2017-02-18T18:07:11Z</time>
      </trkpt>
      <trkpt lat="43.88133" lon="4.67663">
        <ele>14</ele>
        <time>2017-02-18T18:07:43Z</time>
      </trkpt>
      <trkpt lat="43.88111" lon="4.6758">
        <ele>14</ele>
        <time>2017-02-18T18:08:15Z</time>
      </trkpt>
      <trkpt lat="43.8809" lon="4.67497">
        <ele>14</ele>
        <time>2017-02-18T18:08:47Z</time>
      </trkpt>
      <trkpt lat="43.88069" lon="4.67414">
        <ele>14</ele>
        <time>2017-02-18T18:09:18Z</time>
      </trkpt>
      <trkpt lat="43.88047" lon="4.67331">
        <ele>14</ele>
        <time>2017-02-18T18:09:50Z</time>
      </trkpt>
      <trkpt lat="43.88026" lon="4.67248">
        <ele>14</ele>
        <time>2017-02-18T18:10:22Z</time>
      </trkpt>
      <trkpt lat="43.88004" lon="4.67165">
        <ele>14</ele>
        <time>2017-02-18T18:10:54Z</time>
      </trkpt>
      <trkpt lat="43.87983" lon="4.67082">
        <ele>14</ele>
        <time>2017-02-18T18:11:26Z</time>
      </trkpt>
      <trkpt lat="43.87961" lon="4.66999">
        <ele>14</ele>
        <time>2017-02-18T18:11:57Z</time>
      </trkpt>
      <trkpt lat="43.8794" lon="4.66917">
        <ele>14</ele>
        <time>2017-02-18T18:12:29Z</time>
      </trkpt>
      <trkpt lat="43.87918" lon="4.66834">
        <ele>14</ele>
        <time>2017-02-18T18:13:01Z</time>
      </trkpt>
      <trkpt lat="43.87897" lon="4.66751">
        <ele>14</ele>
        <time>2017-02-18T18:13:33Z</time>
      </trkpt>
      <trkpt lat="43.87875" lon="4.66668">
        <ele>14</ele>
        <time>2017-02-18T18:14:05Z</time>
      </trkpt>
      <trkpt lat="43.87854" lon="4.66585">
        <ele>14</ele>
        <time>2017-02-18T18:14:36Z</time>
      </trkpt>
      <trkpt lat="43.87832" lon="4.66502">
        <ele>14</ele>
        <time>2017-02-18T18:15:08Z</time>
      </trkpt>
      <trkpt lat="43.87811" lon="4.66419">
        <ele>14</ele>
        <time>2017-02-18T18:15:40Z</time>
      </trkpt>
      <trkpt lat="43.87789" lon="4.66336">
        <ele>14</ele>
        <time>2017-02-18T18:16:12Z</time>
      </trkpt>
      <trkpt lat="43.87768" lon="4.66253">
        <ele>14</ele>
        <time>2017-02-18T18:16:44Z</time>
      </trkpt>
      <trkpt lat="43.87747" lon="4.6617">
        <ele>14</ele>
        <time>2017-02-18T18:17:15Z</time>
      </trkpt>
      <trkpt lat="43.87725" lon="4.66087">
        <ele>14</ele>
        <time>2017-02-18T18:17:47Z</time>
      </trkpt>
      <trkpt lat="43.87705" lon="4.66009">
        <ele>14</ele>
        <time>2017-02-18T18:18:19Z</time>
      </trkpt>
      <trkpt lat="43.87667" lon="4.6594">
        <ele>14</ele>
        <time>2017-02-18T18:18:50Z</time>
      </trkpt>
      <trkpt lat="43.87629" lon="4.65872">
        <ele>13</ele>
        <time>2017-02-18T18:19:21Z</time>
      </trkpt>
      <trkpt lat="43.87592" lon="4.65803">
        <ele>13</ele>
        <time>2017-02-18T18:19:52Z</time>
      </trkpt>
      <trkpt lat="43.87554" lon="4.65734">
        <ele>13</ele>
        <time>2017-02-18T18:20:23Z</time>
      </trkpt>
      <trkpt lat="43.87517" lon="4.65665">
        <ele>13</ele>
        <time>2017-02-18T18:20:55Z</time>
      </trkpt>
      <trkpt lat="43.87479" lon="4.65597">
        <ele>13</ele>
        <time>2017-02-18T18:21:26Z</time>
      </trkpt>
      <trkpt lat="43.87442" lon="4.65528">
        <ele>13</ele>
        <time>2017-02-18T18:21:57Z</time>
      </trkpt>
      <trkpt lat="43.87404" lon="4.65459">
        <ele>13</ele>
        <time>2017-02-18T18:22:28Z</time>
      </trkpt>
      <trkpt lat="43.87367" lon="4.6539">
        <ele>13</ele>
        <time>2017-02-18T18:22:59Z</time>
      </trkpt>
      <trkpt lat="43.87329" lon="4.65322">
        <ele>13</ele>
        <time>2017-02-18T18:23:30Z</time>
      </trkpt>
      <trkpt lat="43.87292" lon="4.65253">
        <ele>13</ele>
        <time>2017-02-18T18:24:01Z</time>
      </trkpt>
      <trkpt lat="43.87254" lon="4.65184">
        <ele>12</ele>
        <time>2017-02-18T18:24:32Z</time>
      </trkpt>
      <trkpt lat="43.87216" lon="4.65115">
        <ele>12</ele>
        <time>2017-02-18T18:25:03Z</time>
      </trkpt>
      <trkpt lat="43.87179" lon="4.65047">
        <ele>12</ele>
        <time>2017-02-18T18:25:35Z</time>
      </trkpt>
      <trkpt lat="43.87141" lon="4.64978">
        <ele>12</ele>
        <time>2017-02-18T18:26:06Z</time>
      </trkpt>
      <trkpt lat="43.87104" lon="4.6491">
        <ele>12</ele>
        <time>2017-02-18T18:26:37Z</time>
      </trkpt>
      <trkpt lat="43.87081" lon="4.64832">
        <ele>12</ele>
        <time>2017-02-18T18:27:07Z</time>
      </trkpt>
      <trkpt lat="43.87057" lon="4.64754">
        <ele>12</ele>
        <time>2017-02-18T18:27:38Z</time>
      </trkpt>
      <trkpt lat="43.87034" lon="4.64676">
        <ele>12</ele>
        <time>2017-02-18T18:28:09Z</time>
      </trkpt>
      <trkpt lat="43.8701" lon="4.64597">
        <ele>12</ele>
        <time>2017-02-18T18:28:39Z</time>
      </trkpt>
      <trkpt lat="43.86987" lon="4.64519">
        <ele>12</ele>
        <time>2017-02-18T18:29:10Z</time>
      </trkpt>
      <trkpt lat="43.86963" lon="4.64441">
        <ele>12</ele>
        <time>2017-02-18T18:29:40Z</time>
      </trkpt>
      <trkpt lat="43.8694" lon="4.64363">
        <ele>12</ele>
        <time>2017-02-18T18:30:11Z</time>
      </trkpt>
      <trkpt lat="43.86916" lon="4.64284">
        <ele>12</ele>
        <time>2017-02-18T18:30:42Z</time>
      </trkpt>
      <trkpt lat="43.86892" lon="4.64206">
        <ele>12</ele>
        <time>2017-02-18T18:31:12Z</time>
      </trkpt>
      <trkpt lat="43.86869" lon="4.64129">
        <ele>12</ele>
        <time>2017-02-18T18:31:43Z</time>
      </trkpt>
      <trkpt lat="43.86856" lon="4.64048">
        <ele>12</ele>
        <time>2017-02-18T18:32:13Z</time>
      </trkpt>
      <trkpt lat="43.86843" lon="4.63967">
        <ele>12</ele>
        <time>2017-02-18T18:32:43Z</time>
      </trkpt>
      <trkpt lat="43.8683" lon="4.63885">
        <ele>12</ele>
        <time>2017-02-18T18:33:13Z</time>
      </trkpt>
      <trkpt lat="43.86816" lon="4.63804">
        <ele>12</ele>
        <time>2017-02-18T18:33:43Z</time>
      </trkpt>
      <trkpt lat="43.86803" lon="4.63722">
        <ele>12</ele>
        <time>2017-02-18T18:34:13Z</time>
      </trkpt>
      <trkpt lat="43.8679" lon="4.63641">
        <ele>12</ele>
        <time>2017-02-18T18:34:44Z</time>
      </trkpt>
      <trkpt lat="43.86777" lon="4.63559">
        <ele>12</ele>
        <time>2017-02-18T18:35:14Z</time>
      </trkpt>
      <trkpt lat="43.86763" lon="4.63478">
        <ele>12</ele>
        <time>2017-02-18T18:35:44Z</time>
      </trkpt>
      <trkpt lat="43.8675" lon="4.63396">
        <ele>12</ele>
        <time>2017-02-18T18:36:14Z</time>
      </trkpt>
      <trkpt lat="43.86737" lon="4.63315">
        <ele>12</ele>
        <time>2017-02-18T18:36:44Z</time>
      </trkpt>
      <trkpt lat="43.86724" lon="4.63234">
        <ele>12</ele>
        <time>2017-02-18T18:37:14Z</time>
      </trkpt>
      <trkpt lat="43.86711" lon="4.63152">
        <ele>12</ele>
        <time>2017-02-18T18:37:44Z</time>
      </trkpt>
      <trkpt lat="43.86697" lon="4.63071">
        <ele>12</ele>
        <time>2017-02-18T18:38:14Z</time>
      </trkpt>
      <trkpt lat="43.86684" lon="4.62989">
        <ele>12</ele>
        <time>2017-02-18T18:38:45Z</time>
      </trkpt>
      <trkpt lat="43.86671" lon="4.62911">
        <ele>12</ele>
        <time>2017-02-18T18:39:15Z</time>
      </trkpt>
      <trkpt lat="43.86631" lon="4.62847">
        <ele>12</ele>
        <time>2017-02-18T18:39:45Z</time>
      </trkpt>
      <trkpt lat="43.86591" lon="4.62783">
        <ele>12</ele>
        <time>2017-02-18T18:40:16Z</time>
      </trkpt>
      <trkpt lat="43.86551" lon="4.6272">
        <ele>12</ele>
        <time>2017-02-18T18:40:46Z</time>
      </trkpt>
      <trkpt lat="43.8651" lon="4.62656">
        <ele>12</ele>
        <time>2017-02-18T18:41:17Z</time>
      </trkpt>
      <trkpt lat="43.8647" lon="4.62593">
        <ele>12</ele>
        <time>2017-02-18T18:41:47Z</time>
      </trkpt>
      <trkpt lat="43.8643" lon="4.62529">
        <ele>12</ele>
        <time>2017-02-18T18:42:18Z</time>
      </trkpt>
      <trkpt lat="43.86389" lon="4.62466">
        <ele>12</ele>
        <time>2017-02-18T18:42:48Z</time>
      </trkpt>
      <trkpt lat="43.86349" lon="4.62402">
        <ele>12</ele>
        <time>2017-02-18T18:43:19Z</time>
      </trkpt>
      <trkpt lat="43.86309" lon="4.62338">
        <ele>12</ele>
        <time>2017-02-18T18:43:50Z</time>
      </trkpt>
      <trkpt lat="43.86269" lon="4.62276">
        <ele>12</ele>
        <time>2017-02-18T18:44:20Z</time>
      </trkpt>
      <trkpt lat="43.86213" lon="4.62255">
        <ele>12</ele>
        <time>2017-02-18T18:44:49Z</time>
      </trkpt>
      <trkpt lat="43.86158" lon="4.62235">
        <ele>12</ele>
        <time>2017-02-18T18:45:18Z</time>
      </trkpt>
      <trkpt lat="43.86102" lon="4.62215">
        <ele>12</ele>
        <time>2017-02-18T18:45:46Z</time>
      </trkpt>
      <trkpt lat="43.86046" lon="4.62195">
        <ele>12</ele>
        <time>2017-02-18T18:46:15Z</time>
      </trkpt>
      <trkpt lat="43.85991" lon="4.62175">
        <ele>12</ele>
        <time>2017-02-18T18:46:44Z</time>
      </trkpt>
      <trkpt lat="43.85935" lon="4.62155">
        <ele>12</ele>
        <time>2017-02-18T18:47:13Z</time>
      </trkpt>
      <trkpt lat="43.8588" lon="4.62135">
        <ele>12</ele>
        <time>2017-02-18T18:47:41Z</time>
      </trkpt>
      <trkpt lat="43.85824" lon="4.62115">
        <ele>12</ele>
        <time>2017-02-18T18:48:10Z</time>
      </trkpt>
      <trkpt lat="43.85768" lon="4.62095">
        <ele>12</ele>
        <time>2017-02-18T18:48:39Z</time>
      </trkpt>
      <trkpt lat="43.85706" lon="4.62102">
        <ele>12</ele>
        <time>2017-02-18T18:49:10Z</time>
      </trkpt>
      <trkpt lat="43.85644" lon="4.62109">
        <ele>12</ele>
        <time>2017-02-18T18:49:41Z</time>
      </trkpt>
      <trkpt lat="43.85582" lon="4.62116">
        <ele>12</ele>
        <time>2017-02-18T18:50:12Z</time>
      </trkpt>
      <trkpt lat="43.8552" lon="4.62123">
        <ele>12</ele>
        <time>2017-02-18T18:50:43Z</time>
      </trkpt>
      <trkpt lat="43.85459" lon="4.6213">
        <ele>12</ele>
        <time>2017-02-18T18:51:14Z</time>
      </trkpt>
      <trkpt lat="43.85397" lon="4.62136">
        <ele>12</ele>
        <time>2017-02-18T18:51:45Z</time>
      </trkpt>
      <trkpt lat="43.85335" lon="4.62143">
        <ele>12</ele>
        <time>2017-02-18T18:52:16Z</time>
      </trkpt>
      <trkpt lat="43.85273" lon="4.6215">
        <ele>12</ele>
        <time>2017-02-18T18:52:47Z</time>
      </trkpt>
      <trkpt lat="43.85211" lon="4.62157">
        <ele>12</ele>
        <time>2017-02-18T18:53:18Z</time>
      </trkpt>
      <trkpt lat="43.85149" lon="4.62164">
        <ele>12</ele>
        <time>2017-02-18T18:53:49Z</time>
      </trkpt>
      <trkpt lat="43.85093" lon="4.62185">
        <ele>12</ele>
        <time>2017-02-18T18:54:19Z</time>
      </trkpt>
      <trkpt lat="43.85036" lon="4.62206">
        <ele>12</ele>
        <time>2017-02-18T18:54:48Z</time>
      </trkpt>
      <trkpt lat="43.8498" lon="4.62227">
        <ele>12</ele>
        <time>2017-02-18T18:55:17Z</time>
      </trkpt>
      <trkpt lat="43.84923" lon="4.62248">
        <ele>12</ele>
        <time>2017-02-18T18:55:46Z</time>
      </trkpt>
      <trkpt lat="43.84867" lon="4.62269">
        <ele>12</ele>
        <time>2017-02-18T18:56:16Z</time>
      </trkpt>
      <trkpt lat="43.84811" lon="4.6229">
        <ele>12</ele>
        <time>2017-02-18T18:56:45Z</time>
      </trkpt>
      <trkpt lat="43.84754" lon="4.62311">
        <ele>11</ele>
        <time>2017-02-18T18:57:14Z</time>
      </trkpt>
      <trkpt lat="43.84698" lon="4.62332">
        <ele>11</ele>
        <time>2017-02-18T18:57:43Z</time>
      </trkpt>
      <trkpt lat="43.84641" lon="4.62353">
        <ele>11</ele>
        <time>2017-02-18T18:58:12Z</time>
      </trkpt>
      <trkpt lat="43.8458" lon="4.62353">
        <ele>11</ele>
        <time>2017-02-18T18:58:43Z</time>
      </trkpt>
      <trkpt lat="43.84519" lon="4.62353">
        <ele>11</ele>
        <time>2017-02-18T18:59:13Z</time>
      </trkpt>
      <trkpt lat="43.84458" lon="4.62353">
        <ele>11</ele>
        <time>2017-02-18T18:59:44Z</time>
      </trkpt>
      <trkpt lat="43.84397" lon="4.62353">
        <ele>11</ele>
        <time>2017-02-18T19:00:14Z</time>
      </trkpt>
      <trkpt lat="43.84337" lon="4.62353">
        <ele>10</ele>
        <time>2017-02-18T19:00:45Z</time>
      </trkpt>
      <trkpt lat="43.84276" lon="4.62353">
        <ele>10</ele>
        <time>2017-02-18T19:01:15Z</time>
      </trkpt>
      <trkpt lat="43.84215" lon="4.62353">
        <ele>10</ele>
        <time>2017-02-18T19:01:46Z</time>
      </trkpt>
      <trkpt lat="43.84154" lon="4.62353">
        <ele>10</ele>
        <time>2017-02-18T19:02:16Z</time>
      </trkpt>
      <trkpt lat="43.84093" lon="4.62353">
        <ele>10</ele>
        <time>2017-02-18T19:02:47Z</time>
      </trkpt>
      <trkpt lat="43.84032" lon="4.62353">
        <ele>10</ele>
        <time>2017-02-18T19:03:17Z</time>
      </trkpt>
      <trkpt lat="43.83971" lon="4.62353">
        <ele>10</ele>
        <time>2017-02-18T19:03:48Z</time>
      </trkpt>
      <trkpt lat="43.8391" lon="4.62353">
        <ele>10</ele>
        <time>2017-02-18T19:04:18Z</time>
      </trkpt>
      <trkpt lat="43.83849" lon="4.62353">
        <ele>10</ele>
        <time>2017-02-18T19:04:49Z</time>
      </trkpt>
      <trkpt lat="43.83787" lon="4.62353">
        <ele>10</ele>
        <time>2017-02-18T19:05:19Z</time>
      </trkpt>
      <trkpt lat="43.83729" lon="4.62366">
        <ele>10</ele>
        <time>2017-02-18T19:05:49Z</time>
      </trkpt>
      <trkpt lat="43.83672" lon="4.6238">
        <ele>10</ele>
        <time>2017-02-18T19:06:18Z</time>
      </trkpt>
      <trkpt lat="43.83614" lon="4.62394">
        <ele>10</ele>
        <time>2017-02-18T19:06:47Z</time>
      </trkpt>
      <trkpt lat="43.83557" lon="4.62408">
        <ele>10</ele>
        <time>2017-02-18T19:07:16Z</time>
      </trkpt>
      <trkpt lat="43.83499" lon="4.62421">
        <ele>10</ele>
        <time>2017-02-18T19:07:46Z</time>
      </trkpt>
      <trkpt lat="43.83442" lon="4.62435">
        <ele>10</ele>
        <time>2017-02-18T19:08:15Z</time>
      </trkpt>
      <trkpt lat="43.83384" lon="4.62449">
        <ele>10</ele>
        <time>2017-02-18T19:08:44Z</time>
      </trkpt>
      <trkpt lat="43.83327" lon="4.62463">
        <ele>10</ele>
        <time>2017-02-18T19:09:13Z</time>
      </trkpt>
      <trkpt lat="43.83269" lon="4.62476">
        <ele>10</ele>
        <time>2017-02-18T19:09:42Z</time>
      </trkpt>
      <trkpt lat="43.83211" lon="4.6249">
        <ele>10</ele>
        <time>2017-02-18T19:10:12Z</time>
      </trkpt>
      <trkpt lat="43.83156" lon="4.62529">
        <ele>10</ele>
        <time>2017-02-18T19:10:43Z</time>
      </trkpt>
      <trkpt lat="43.83101" lon="4.62568">
        <ele>10</ele>
        <time>2017-02-18T19:11:13Z</time>
      </trkpt>
      <trkpt lat="43.83046" lon="4.62607">
        <ele>9</ele>
        <time>2017-02-18T19:11:44Z</time>
      </trkpt>
      <trkpt lat="43.82991" lon="4.62646">
        <ele>9</ele>
        <time>2017-02-18T19:12:15Z</time>
      </trkpt>
      <trkpt lat="43.82936" lon="4.62686">
        <ele>9</ele>
        <time>2017-02-18T19:12:46Z</time>
      </trkpt>
      <trkpt lat="43.82881" lon="4.62725">
        <ele>9</ele>
        <time>2017-02-18T19:13:17Z</time>
      </trkpt>
      <trkpt lat="43.82826" lon="4.62764">
        <ele>8</ele>
        <time>2017-02-18T19:13:48Z</time>
      </trkpt>
      <trkpt lat="43.82771" lon="4.62803">
        <ele>9</ele>
        <time>2017-02-18T19:14:19Z</time>
      </trkpt>
      <trkpt lat="43.82716" lon="4.62842">
        <ele>8</ele>
        <time>2017-02-18T19:14:50Z</time>
      </trkpt>
      <trkpt lat="43.82681" lon="4.62908">
        <ele>8</ele>
        <time>2017-02-18T19:15:19Z</time>
      </trkpt>
      <trkpt lat="43.82647" lon="4.62974">
        <ele>8</ele>
        <time>2017-02-18T19:15:49Z</time>
      </trkpt>
      <trkpt lat="43.82613" lon="4.6304">
        <ele>8</ele>
        <time>2017-02-18T19:16:18Z</time>
      </trkpt>
      <trkpt lat="43.82578" lon="4.63106">
        <ele>7</ele>
        <time>2017-02-18T19:16:48Z</time>
      </trkpt>
      <trkpt lat="43.82544" lon="4.63171">
        <ele>7</ele>
        <time>2017-02-18T19:17:17Z</time>
      </trkpt>
      <trkpt lat="43.82509" lon="4.63237">
        <ele>8</ele>
        <time>2017-02-18T19:17:46Z</time>
      </trkpt>
      <trkpt lat="43.82475" lon="4.63303">
        <ele>8</ele>
        <time>2017-02-18T19:18:16Z</time>
      </trkpt>
      <trkpt lat="43.8244" lon="4.63369">
        <ele>8</ele>
        <time>2017-02-18T19:18:45Z</time>
      </trkpt>
      <trkpt lat="43.82406" lon="4.63434">
        <ele>9</ele>
        <time>2017-02-18T19:19:15Z</time>
      </trkpt>
      <trkpt lat="43.82365" lon="4.63502">
        <ele>8</ele>
        <time>2017-02-18T19:19:46Z</time>
      </trkpt>
      <trkpt lat="43.82324" lon="4.6357">
        <ele>10</ele>
        <time>2017-02-18T19:20:18Z</time>
      </trkpt>
      <trkpt lat="43.82284" lon="4.63638">
        <ele>8</ele>
        <time>2017-02-18T19:20:50Z</time>
      </trkpt>
      <trkpt lat="43.82243" lon="4.63706">
        <ele>9</ele>
        <time>2017-02-18T19:21:22Z</time>
      </trkpt>
      <trkpt lat="43.82202" lon="4.63774">
        <ele>9</ele>
        <time>2017-02-18T19:21:54Z</time>
      </trkpt>
      <trkpt lat="43.82161" lon="4.63841">
        <ele>9</ele>
        <time>2017-02-18T19:22:26Z</time>
      </trkpt>
      <trkpt lat="43.8212" lon="4.63909">
        <ele>8</ele>
        <time>2017-02-18T19:22:58Z</time>
      </trkpt>
      <trkpt lat="43.82079" lon="4.63977">
        <ele>9</ele>
        <time>2017-02-18T19:23:30Z</time>
      </trkpt>
      <trkpt lat="43.82038" lon="4.64045">
        <ele>8</ele>
        <time>2017-02-18T19:24:02Z</time>
      </trkpt>
      <trkpt lat="43.81998" lon="4.64112">
        <ele>8</ele>
        <time>2017-02-18T19:24:34Z</time>
      </trkpt>
      <trkpt lat="43.81952" lon="4.64165">
        <ele>8</ele>
        <time>2017-02-18T19:25:04Z</time>
      </trkpt>
      <trkpt lat="43.81906" lon="4.64218">
        <ele>10</ele>
        <time>2017-02-18T19:25:34Z</time>
      </trkpt>
      <trkpt lat="43.81861" lon="4.64272">
        <ele>9</ele>
        <time>2017-02-18T19:26:03Z</time>
      </trkpt>
      <trkpt lat="43.81815" lon="4.64325">
        <ele>10</ele>
        <time>2017-02-18T19:26:33Z</time>
      </trkpt>
      <trkpt lat="43.81769" lon="4.64378">
        <ele>8</ele>
        <time>2017-02-18T19:27:03Z</time>
      </trkpt>
      <trkpt lat="43.81724" lon="4.64431">
        <ele>9</ele>
        <time>2017-02-18T19:27:33Z</time>
      </trkpt>
      <trkpt lat="43.81678" lon="4.64484">
        <ele>9</ele>
        <time>2017-02-18T19:28:03Z</time>
      </trkpt>
      <trkpt lat="43.81633" lon="4.64537">
        <ele>8</ele>
        <time>2017-02-18T19:28:32Z</time>
      </trkpt>
      <trkpt lat="43.81587" lon="4.6459">
        <ele>9</ele>
        <time>2017-02-18T19:29:02Z</time>
      </trkpt>
      <trkpt lat="43.81541" lon="4.64643">
        <ele>8</ele>
        <time>2017-02-18T19:29:32Z</time>
      </trkpt>
      <trkpt lat="43.81496" lon="4.64696">
        <ele>8</ele>
        <time>2017-02-18T19:30:02Z</time>
      </trkpt>
      <trkpt lat="43.81442" lon="4.64725">
        <ele>8</ele>
        <time>2017-02-18T19:30:31Z</time>
      </trkpt>
      <trkpt lat="43.81389" lon="4.64753">
        <ele>9</ele>
        <time>2017-02-18T19:30:59Z</time>
      </trkpt>
      <trkpt lat="43.81335" lon="4.64782">
        <ele>8</ele>
        <time>2017-02-18T19:31:28Z</time>
      </trkpt>
      <trkpt lat="43.81281" lon="4.6481">
        <ele>10</ele>
        <time>2017-02-18T19:31:57Z</time>
      </trkpt>
      <trkpt lat="43.81228" lon="4.64839">
        <ele>10</ele>
        <time>2017-02-18T19:32:26Z</time>
      </trkpt>
      <trkpt lat="43.81174" lon="4.64867">
        <ele>8</ele>
        <time>2017-02-18T19:32:54Z</time>
      </trkpt>
      <trkpt lat="43.8112" lon="4.64896">
        <ele>10</ele>
        <time>2017-02-18T19:33:23Z</time>
      </trkpt>
      <trkpt lat="43.81067" lon="4.64925">
        <ele>9</ele>
        <time>2017-02-18T19:33:52Z</time>
      </trkpt>
      <trkpt lat="43.81013" lon="4.64953">
        <ele>7</ele>
        <time>2017-02-18T19:34:21Z</time>
      </trkpt>
      <trkpt lat="43.80951" lon="4.64958">
        <ele>7</ele>
        <time>2017-02-18T19:34:52Z</time>
      </trkpt>
      <trkpt lat="43.80889" lon="4.64963">
        <ele>7</ele>
        <time>2017-02-18T19:35:23Z</time>
      </trkpt>
      <trkpt lat="43.80827" lon="4.64967">
        <ele>8</ele>
        <time>2017-02-18T19:35:54Z</time>
      </trkpt>
      <trkpt lat="43.80765" lon="4.64972">
        <ele>10</ele>
        <time>2017-02-18T19:36:25Z</time>
      </trkpt>
      <trkpt lat="43.80703" lon="4.64977">
        <ele>7</ele>
        <time>2017-02-18T19:36:56Z</time>
      </trkpt>
      <trkpt lat="43.80642" lon="4.64981">
        <ele>6</ele>
        <time>2017-02-18T19:37:27Z</time>
      </trkpt>
      <trkpt lat="43.8058" lon="4.64986">
        <ele>7</ele>
        <time>2017-02-18T19:37:58Z</time>
      </trkpt>
      <trkpt lat="43.80518" lon="4.64991">
        <ele>7</ele>
        <time>2017-02-18T19:38:29Z</time>
      </trkpt>
      <trkpt lat="43.80456" lon="4.64996">
        <ele>7</ele>
        <time>2017-02-18T19:39:00Z</time>
      </trkpt>
      <trkpt lat="43.80394" lon="4.65">
        <ele>7</ele>
        <time>2017-02-18T19:39:31Z</time>
      </trkpt>
      <trkpt lat="43.80331" lon="4.65005">
        <ele>7</ele>
        <time>2017-02-18T19:40:02Z</time>
      </trkpt>
      <trkpt lat="43.80275" lon="4.64987">
        <ele>7</ele>
        <time>2017-02-18T19:40:31Z</time>
      </trkpt>
      <trkpt lat="43.80218" lon="4.64968">
        <ele>7</ele>
        <time>2017-02-18T19:41:00Z</time>
      </trkpt>
      <trkpt lat="43.80162" lon="4.6495">
        <ele>7</ele>
        <time>2017-02-18T19:41:29Z</time>
      </trkpt>
      <trkpt lat="43.80106" lon="4.64932">
        <ele>8</ele>
        <time>2017-02-18T19:41:58Z</time>
      </trkpt>
      <trkpt lat="43.80049" lon="4.64914">
        <ele>7</ele>
        <time>2017-02-18T19:42:27Z</time>
      </trkpt>
      <trkpt lat="43.79993" lon="4.64896">
        <ele>7</ele>
        <time>2017-02-18T19:42:56Z</time>
      </trkpt>
      <trkpt lat="43.79936" lon="4.64877">
        <ele>7</ele>
        <time>2017-02-18T19:43:25Z</time>
      </trkpt>
      <trkpt lat="43.79879" lon="4.64859">
        <ele>7</ele>
        <time>2017-02-18T19:43:54Z</time>
      </trkpt>
      <trkpt lat="43.79824" lon="4.64854">
        <ele>7</ele>
        <time>2017-02-18T19:44:22Z</time>
      </trkpt>
      <trkpt lat="43.7977" lon="4.64849">
        <ele>7</ele>
        <time>2017-02-18T19:44:49Z</time>
      </trkpt>
      <trkpt lat="43.79715" lon="4.64844">
        <ele>7</ele>
        <time>2017-02-18T19:45:17Z</time>
      </trkpt>
      <trkpt lat="43.7966" lon="4.64839">
        <ele>8</ele>
        <time>2017-02-18T19:45:44Z</time>
      </trkpt>
      <trkpt lat="43.79605" lon="4.64835">
        <ele>8</ele>
        <time>2017-02-18T19:46:12Z</time>
      </trkpt>
      <trkpt lat="43.7955" lon="4.6483">
        <ele>8</ele>
        <time>2017-02-18T19:46:39Z</time>
      </trkpt>
      <trkpt lat="43.79495" lon="4.64825">
        <ele>8</ele>
        <time>2017-02-18T19:47:07Z</time>
      </trkpt>
      <trkpt lat="43.79435" lon="4.64836">
        <ele>8</ele>
        <time>2017-02-18T19:47:37Z</time>
      </trkpt>
      <trkpt lat="43.79375" lon="4.64848">
        <ele>8</ele>
        <time>2017-02-18T19:48:07Z</time>
      </trkpt>
      <trkpt lat="43.79316" lon="4.64859">
        <ele>7</ele>
        <time>2017-02-18T19:48:37Z</time>
      </trkpt>
      <trkpt lat="43.79256" lon="4.6487">
        <ele>7</ele>
        <time>2017-02-18T19:49:07Z</time>
      </trkpt>
      <trkpt lat="43.79196" lon="4.64882">
        <ele>7</ele>
        <time>2017-02-18T19:49:38Z</time>
      </trkpt>
      <trkpt lat="43.79136" lon="4.64893">
        <ele>7</ele>
        <time>2017-02-18T19:50:08Z</time>
      </trkpt>
      <trkpt lat="43.79076" lon="4.64905">
        <ele>6</ele>
        <time>2017-02-18T19:50:38Z</time>
      </trkpt>
      <trkpt lat="43.79016" lon="4.64916">
        <ele>6</ele>
        <time>2017-02-18T19:51:08Z</time>
      </trkpt>
      <trkpt lat="43.78957" lon="4.64928">
        <ele>5</ele>
        <time>2017-02-18T19:51:39Z</time>
      </trkpt>
      <trkpt lat="43.78897" lon="4.64939">
        <ele>6</ele>
        <time>2017-02-18T19:52:09Z</time>
      </trkpt>
      <trkpt lat="43.78837" lon="4.6495">
        <ele>5</ele>
        <time>2017-02-18T19:52:39Z</time>
      </trkpt>
      <trkpt lat="43.78776" lon="4.64962">
        <ele>2</ele>
        <time>2017-02-18T19:53:09Z</time>
      </trkpt>
      <trkpt lat="43.78717" lon="4.64953">
        <ele>11</ele>
        <time>2017-02-18T19:53:39Z</time>
      </trkpt>
      <trkpt lat="43.78658" lon="4.64945">
        <ele>13</ele>
        <time>2017-02-18T19:54:09Z</time>
      </trkpt>
      <trkpt lat="43.78598" lon="4.64936">
        <ele>6</ele>
        <time>2017-02-18T19:54:39Z</time>
      </trkpt>
      <trkpt lat="43.78539" lon="4.64928">
        <ele>6</ele>
        <time>2017-02-18T19:55:09Z</time>
      </trkpt>
      <trkpt lat="43.78479" lon="4.64919">
        <ele>6</ele>
        <time>2017-02-18T19:55:39Z</time>
      </trkpt>
      <trkpt lat="43.78426" lon="4.64885">
        <ele>6</ele>
        <time>2017-02-18T19:56:08Z</time>
      </trkpt>
      <trkpt lat="43.78374" lon="4.6485">
        <ele>6</ele>
        <time>2017-02-18T19:56:37Z</time>
      </trkpt>
      <trkpt lat="43.78321" lon="4.64816">
        <ele>6</ele>
        <time>2017-02-18T19:57:06Z</time>
      </trkpt>
      <trkpt lat="43.78268" lon="4.64782">
        <ele>6</ele>
        <time>2017-02-18T19:57:35Z</time>
      </trkpt>
      <trkpt lat="43.78216" lon="4.64747">
        <ele>6</ele>
        <time>2017-02-18T19:58:04Z</time>
      </trkpt>
      <trkpt lat="43.78163" lon="4.64713">
        <ele>6</ele>
        <time>2017-02-18T19:58:34Z</time>
      </trkpt>
      <trkpt lat="43.7811" lon="4.64679">
        <ele>6</ele>
        <time>2017-02-18T19:59:03Z</time>
      </trkpt>
      <trkpt lat="43.78058" lon="4.64644">
        <ele>6</ele>
        <time>2017-02-18T19:59:32Z</time>
      </trkpt>
      <trkpt lat="43.78007" lon="4.64591">
        <ele>6</ele>
        <time>2017-02-18T20:00:04Z</time>
      </trkpt>
      <trkpt lat="43.77956" lon="4.64539">
        <ele>6</ele>
        <time>2017-02-18T20:00:35Z</time>
      </trkpt>
      <trkpt lat="43.77906" lon="4.64486">
        <ele>6</ele>
        <time>2017-02-18T20:01:07Z</time>
      </trkpt>
      <trkpt lat="43.77855" lon="4.64433">
        <ele>6</ele>
        <time>2017-02-18T20:01:39Z</time>
      </trkpt>
      <trkpt lat="43.77804" lon="4.6438">
        <ele>6</ele>
        <time>2017-02-18T20:02:11Z</time>
      </trkpt>
      <trkpt lat="43.77754" lon="4.64327">
        <ele>7</ele>
        <time>2017-02-18T20:02:42Z</time>
      </trkpt>
      <trkpt lat="43.77703" lon="4.64274">
        <ele>7</ele>
        <time>2017-02-18T20:03:14Z</time>
      </trkpt>
      <trkpt lat="43.77653" lon="4.64221">
        <ele>6</ele>
        <time>2017-02-18T20:03:46Z</time>
      </trkpt>
      <trkpt lat="43.77602" lon="4.64168">
        <ele>7</ele>
        <time>2017-02-18T20:04:18Z</time>
      </trkpt>
      <trkpt lat="43.77551" lon="4.64115">
        <ele>7</ele>
        <time>2017-02-18T20:04:49Z</time>
      </trkpt>
      <trkpt lat="43.77501" lon="4.64062">
        <ele>5</ele>
        <time>2017-02-18T20:05:21Z</time>
      </trkpt>
      <trkpt lat="43.7745" lon="4.64009">
        <ele>5</ele>
        <time>2017-02-18T20:05:53Z</time>
      </trkpt>
      <trkpt lat="43.77402" lon="4.63952">
        <ele>5</ele>
        <time>2017-02-18T20:06:25Z</time>
      </trkpt>
      <trkpt lat="43.77354" lon="4.63895">
        <ele>5</ele>
        <time>2017-02-18T20:06:56Z</time>
      </trkpt>
      <trkpt lat="43.77306" lon="4.63838">
        <ele>5</ele>
        <time>2017-02-18T20:07:28Z</time>
      </trkpt>
      <trkpt lat="43.77258" lon="4.6378">
        <ele>5</ele>
        <time>2017-02-18T20:08:00Z</time>
      </trkpt>
      <trkpt lat="43.7721" lon="4.63723">
        <ele>5</ele>
        <time>2017-02-18T20:08:31Z</time>
      </trkpt>
      <trkpt lat="43.77163" lon="4.63666">
        <ele>5</ele>
        <time>2017-02-18T20:09:03Z</time>
      </trkpt>
      <trkpt lat="43.77115" lon="4.63609">
        <ele>5</ele>
        <time>2017-02-18T20:09:35Z</time>
      </trkpt>
      <trkpt lat="43.77067" lon="4.63551">
        <ele>4</ele>
        <time>2017-02-18T20:10:06Z</time>
      </trkpt>
      <trkpt lat="43.77019" lon="4.63494">
        <ele>4</ele>
        <time>2017-02-18T20:10:38Z</time>
      </trkpt>
      <trkpt lat="43.76971" lon="4.63437">
        <ele>4</ele>
        <time>2017-02-18T20:11:10Z</time>
      </trkpt>
      <trkpt lat="43.76923" lon="4.6338">
        <ele>4</ele>
        <time>2017-02-18T20:11:41Z</time>
      </trkpt>
      <trkpt lat="43.76875" lon="4.63322">
        <ele>4</ele>
        <time>2017-02-18T20:12:13Z</time>
      </trkpt>
      <trkpt lat="43.76827" lon="4.63265">
        <ele>4</ele>
        <time>2017-02-18T20:12:45Z</time>
      </trkpt>
      <trkpt lat="43.76779" lon="4.63208">
        <ele>4</ele>
        <time>2017-02-18T20:13:16Z</time>
      </trkpt>
      <trkpt lat="43.76731" lon="4.63151">
        <ele>4</ele>
        <time>2017-02-18T20:13:48Z</time>
      </trkpt>
      <trkpt lat="43.76678" lon="4.63109">
        <ele>4</ele>
        <time>2017-02-18T20:14:19Z</time>
      </trkpt>
      <trkpt lat="43.76625" lon="4.63068">
        <ele>4</ele>
        <time>2017-02-18T20:14:49Z</time>
      </trkpt>
      <trkpt lat="43.76572" lon="4.63026">
        <ele>4</ele>
        <time>2017-02-18T20:15:20Z</time>
      </trkpt>
      <trkpt lat="43.76519" lon="4.62984">
        <ele>4</ele>
        <time>2017-02-18T20:15:50Z</time>
      </trkpt>
      <trkpt lat="43.76466" lon="4.62943">
        <ele>4</ele>
        <time>2017-02-18T20:16:21Z</time>
      </trkpt>
      <trkpt lat="43.76413" lon="4.62901">
        <ele>4</ele>
        <time>2017-02-18T20:16:52Z</time>
      </trkpt>
      <trkpt lat="43.76359" lon="4.62859">
        <ele>4</ele>
        <time>2017-02-18T20:17:22Z</time>
      </trkpt>
      <trkpt lat="43.76303" lon="4.6283">
        <ele>4</ele>
        <time>2017-02-18T20:17:52Z</time>
      </trkpt>
      <trkpt lat="43.76246" lon="4.628">
        <ele>4</ele>
        <time>2017-02-18T20:18:23Z</time>
      </trkpt>
      <trkpt lat="43.76189" lon="4.6277">
        <ele>4</ele>
        <time>2017-02-18T20:18:53Z</time>
      </trkpt>
      <trkpt lat="43.76132" lon="4.62741">
        <ele>4</ele>
        <time>2017-02-18T20:19:24Z</time>
      </trkpt>
      <trkpt lat="43.76075" lon="4.62711">
        <ele>4</ele>
        <time>2017-02-18T20:19:54Z</time>
      </trkpt>
      <trkpt lat="43.76018" lon="4.62681">
        <ele>4</ele>
        <time>2017-02-18T20:20:25Z</time>
      </trkpt>
      <trkpt lat="43.75961" lon="4.62652">
        <ele>4</ele>
        <time>2017-02-18T20:20:55Z</time>
      </trkpt>
      <trkpt lat="43.75904" lon="4.62622">
        <ele>4</ele>
        <time>2017-02-18T20:21:25Z</time>
      </trkpt>
      <trkpt lat="43.75847" lon="4.62592">
        <ele>4</ele>
        <time>2017-02-18T20:21:56Z</time>
      </trkpt>
      <trkpt lat="43.75791" lon="4.62563">
        <ele>4</ele>
        <time>2017-02-18T20:22:26Z</time>
      </trkpt>
      <trkpt lat="43.75733" lon="4.62533">
        <ele>4</ele>
        <time>2017-02-18T20:22:57Z</time>
      </trkpt>
      <trkpt lat="43.75672" lon="4.62519">
        <ele>4</ele>
        <time>2017-02-18T20:23:28Z</time>
      </trkpt>
      <trkpt lat="43.75611" lon="4.62504">
        <ele>4</ele>
        <time>2017-02-18T20:23:59Z</time>
      </trkpt>
      <trkpt lat="43.75551" lon="4.6249">
        <ele>4</ele>
        <time>2017-02-18T20:24:29Z</time>
      </trkpt>
      <trkpt lat="43.7549" lon="4.62476">
        <ele>4</ele>
        <time>2017-02-18T20:25:00Z</time>
      </trkpt>
      <trkpt lat="43.75429" lon="4.62462">
        <ele>4</ele>
        <time>2017-02-18T20:25:31Z</time>
      </trkpt>
      <trkpt lat="43.75368" lon="4.62447">
        <ele>4</ele>
        <time>2017-02-18T20:26:02Z</time>
      </trkpt>
      <trkpt lat="43.75306" lon="4.6244">
        <ele>5</ele>
        <time>2017-02-18T20:26:33Z</time>
      </trkpt>
      <trkpt lat="43.75245" lon="4.62432">
        <ele>5</ele>
        <time>2017-02-18T20:27:04Z</time>
      </trkpt>
      <trkpt lat="43.75184" lon="4.62425">
        <ele>5</ele>
        <time>2017-02-18T20:27:34Z</time>
      </trkpt>
      <trkpt lat="43.75123" lon="4.62417">
        <ele>5</ele>
        <time>2017-02-18T20:28:05Z</time>
      </trkpt>
      <trkpt lat="43.75062" lon="4.6241">
        <ele>4</ele>
        <time>2017-02-18T20:28:36Z</time>
      </trkpt>
      <trkpt lat="43.75001" lon="4.62402">
        <ele>6</ele>
        <time>2017-02-18T20:29:07Z</time>
      </trkpt>
      <trkpt lat="43.74939" lon="4.62395">
        <ele>10</ele>
        <time>2017-02-18T20:29:37Z</time>
      </trkpt>
      <trkpt lat="43.74878" lon="4.62387">
        <ele>5</ele>
        <time>2017-02-18T20:30:08Z</time>
      </trkpt>
      <trkpt lat="43.74823" lon="4.6237">
        <ele>4</ele>
        <time>2017-02-18T20:30:36Z</time>
      </trkpt>
      <trkpt lat="43.74769" lon="4.62353">
        <ele>6</ele>
        <time>2017-02-18T20:31:04Z</time>
      </trkpt>
      <trkpt lat="43.74714" lon="4.62336">
        <ele>4</ele>
        <time>2017-02-18T20:31:32Z</time>
      </trkpt>
      <trkpt lat="43.7466" lon="4.62318">
        <ele>4</ele>
        <time>2017-02-18T20:32:00Z</time>
      </trkpt>
      <trkpt lat="43.74605" lon="4.62301">
        <ele>4</ele>
        <time>2017-02-18T20:32:28Z</time>
      </trkpt>
      <trkpt lat="43.74553" lon="4.62271">
        <ele>4</ele>
        <time>2017-02-18T20:32:56Z</time>
      </trkpt>
      <trkpt lat="43.74501" lon="4.62241">
        <ele>4</ele>
        <time>2017-02-18T20:33:24Z</time>
      </trkpt>
      <trkpt lat="43.74449" lon="4.62211">
        <ele>4</ele>
        <time>2017-02-18T20:33:52Z</time>
      </trkpt>
      <trkpt lat="43.74397" lon="4.62181">
        <ele>4</ele>
        <time>2017-02-18T20:34:21Z</time>
      </trkpt>
      <trkpt lat="43.74345" lon="4.62151">
        <ele>4</ele>
        <time>2017-02-18T20:34:49Z</time>
      </trkpt>
      <trkpt lat="43.74293" lon="4.62121">
        <ele>4</ele>
        <time>2017-02-18T20:35:17Z</time>
      </trkpt>
      <trkpt lat="43.74242" lon="4.62091">
        <ele>4</ele>
        <time>2017-02-18T20:35:45Z</time>
      </trkpt>
      <trkpt lat="43.74189" lon="4.62061">
        <ele>4</ele>
        <time>2017-02-18T20:36:13Z</time>
      </trkpt>
      <trkpt lat="43.74134" lon="4.62019">
        <ele>4</ele>
        <time>2017-02-18T20:36:45Z</time>
      </trkpt>
      <trkpt lat="43.74079" lon="4.61977">
        <ele>4</ele>
        <time>2017-02-18T20:37:16Z</time>
      </trkpt>
      <trkpt lat="43.74024" lon="4.61935">
        <ele>4</ele>
        <time>2017-02-18T20:37:47Z</time>
      </trkpt>
      <trkpt lat="43.73969" lon="4.61894">
        <ele>4</ele>
        <time>2017-02-18T20:38:19Z</time>
      </trkpt>
      <trkpt lat="43.73914" lon="4.61852">
        <ele>4</ele>
        <time>2017-02-18T20:38:50Z</time>
      </trkpt>
      <trkpt lat="43.73859" lon="4.6181">
        <ele>4</ele>
        <time>2017-02-18T20:39:22Z</time>
      </trkpt>
      <trkpt lat="43.73804" lon="4.61768">
        <ele>4</ele>
        <time>2017-02-18T20:39:53Z</time>
      </trkpt>
      <trkpt lat="43.73749" lon="4.61726">
        <ele>4</ele>
        <time>2017-02-18T20:40:25Z</time>
      </trkpt>
      <trkpt lat="43.73694" lon="4.61697">
        <ele>4</ele>
        <time>2017-02-18T20:40:54Z</time>
      </trkpt>
      <trkpt lat="43.73639" lon="4.61667">
        <ele>4</ele>
        <time>2017-02-18T20:41:24Z</time>
      </trkpt>
      <trkpt lat="43.73584" lon="4.61637">
        <ele>4</ele>
        <time>2017-02-18T20:41:53Z</time>
      </trkpt>
      <trkpt lat="43.73528" lon="4.61608">
        <ele>4</ele>
        <time>2017-02-18T20:42:23Z</time>
      </trkpt>
      <trkpt lat="43.73473" lon="4.61578">
        <ele>4</ele>
        <time>2017-02-18T20:42:53Z</time>
      </trkpt>
      <trkpt lat="43.73418" lon="4.61548">
        <ele>4</ele>
        <time>2017-02-18T20:43:22Z</time>
      </trkpt>
      <trkpt lat="43.73363" lon="4.61519">
        <ele>4</ele>
        <time>2017-02-18T20:43:52Z</time>
      </trkpt>
      <trkpt lat="43.73307" lon="4.61489">
        <ele>4</ele>
        <time>2017-02-18T20:44:22Z</time>
      </trkpt>
      <trkpt lat="43.73252" lon="4.61459">
        <ele>4</ele>
        <time>2017-02-18T20:44:51Z</time>
      </trkpt>
      <trkpt lat="43.73197" lon="4.6143">
        <ele>4</ele>
        <time>2017-02-18T20:45:21Z</time>
      </trkpt>
      <trkpt lat="43.73141" lon="4.614">
        <ele>4</ele>
        <time>2017-02-18T20:45:51Z</time>
      </trkpt>
      <trkpt lat="43.73079" lon="4.61383">
        <ele>4</ele>
        <time>2017-02-18T20:46:23Z</time>
      </trkpt>
      <trkpt lat="43.73016" lon="4.61366">
        <ele>4</ele>
        <time>2017-02-18T20:46:54Z</time>
      </trkpt>
      <trkpt lat="43.72954" lon="4.61349">
        <ele>4</ele>
        <time>2017-02-18T20:47:26Z</time>
      </trkpt>
      <trkpt lat="43.72891" lon="4.61331">
        <ele>4</ele>
        <time>2017-02-18T20:47:58Z</time>
      </trkpt>
      <trkpt lat="43.72828" lon="4.61314">
        <ele>4</ele>
        <time>2017-02-18T20:48:30Z</time>
      </trkpt>
      <trkpt lat="43.72766" lon="4.61297">
        <ele>4</ele>
        <time>2017-02-18T20:49:02Z</time>
      </trkpt>
      <trkpt lat="43.72703" lon="4.6128">
        <ele>4</ele>
        <time>2017-02-18T20:49:34Z</time>
      </trkpt>
      <trkpt lat="43.72641" lon="4.61263">
        <ele>4</ele>
        <time>2017-02-18T20:50:06Z</time>
      </trkpt>
      <trkpt lat="43.72578" lon="4.61246">
        <ele>4</ele>
        <time>2017-02-18T20:50:38Z</time>
      </trkpt>
      <trkpt lat="43.72515" lon="4.61228">
        <ele>4</ele>
        <time>2017-02-18T20:51:10Z</time>
      </trkpt>
      <trkpt lat="43.72452" lon="4.6123">
        <ele>4</ele>
        <time>2017-02-18T20:51:42Z</time>
      </trkpt>
      <trkpt lat="43.72389" lon="4.61231">
        <ele>4</ele>
        <time>2017-02-18T20:52:13Z</time>
      </trkpt>
      <trkpt lat="43.72326" lon="4.61233">
        <ele>4</ele>
        <time>2017-02-18T20:52:45Z</time>
      </trkpt>
      <trkpt lat="43.72263" lon="4.61235">
        <ele>4</ele>
        <time>2017-02-18T20:53:16Z</time>
      </trkpt>
      <trkpt lat="43.722" lon="4.61236">
        <ele>4</ele>
        <time>2017-02-18T20:53:48Z</time>
      </trkpt>
      <trkpt lat="43.72136" lon="4.61238">
        <ele>4</ele>
        <time>2017-02-18T20:54:19Z</time>
      </trkpt>
      <trkpt lat="43.72073" lon="4.61239">
        <ele>4</ele>
        <time>2017-02-18T20:54:51Z</time>
      </trkpt>
      <trkpt lat="43.7201" lon="4.61241">
        <ele>4</ele>
        <time>2017-02-18T20:55:23Z</time>
      </trkpt>
      <trkpt lat="43.71947" lon="4.61242">
        <ele>4</ele>
        <time>2017-02-18T20:55:54Z</time>
      </trkpt>
      <trkpt lat="43.71884" lon="4.61244">
        <ele>4</ele>
        <time>2017-02-18T20:56:26Z</time>
      </trkpt>
      <trkpt lat="43.7182" lon="4.61246">
        <ele>4</ele>
        <time>2017-02-18T20:56:57Z</time>
      </trkpt>
      <trkpt lat="43.71762" lon="4.6126">
        <ele>4</ele>
        <time>2017-02-18T20:57:27Z</time>
      </trkpt>
      <trkpt lat="43.71703" lon="4.61274">
        <ele>4</ele>
        <time>2017-02-18T20:57:57Z</time>
      </trkpt>
      <trkpt lat="43.71645" lon="4.61288">
        <ele>4</ele>
        <time>2017-02-18T20:58:26Z</time>
      </trkpt>
      <trkpt lat="43.71586" lon="4.61302">
        <ele>4</ele>
        <time>2017-02-18T20:58:56Z</time>
      </trkpt>
      <trkpt lat="43.71528" lon="4.61316">
        <ele>4</ele>
        <time>2017-02-18T20:59:26Z</time>
      </trkpt>
      <trkpt lat="43.7147" lon="4.6133">
        <ele>4</ele>
        <time>2017-02-18T20:59:55Z</time>
      </trkpt>
      <trkpt lat="43.71411" lon="4.61344">
        <ele>4</ele>
        <time>2017-02-18T21:00:25Z</time>
      </trkpt>
      <trkpt lat="43.71353" lon="4.61358">
        <ele>4</ele>
        <time>2017-02-18T21:00:55Z</time>
      </trkpt>
      <trkpt lat="43.71294" lon="4.61372">
        <ele>4</ele>
        <time>2017-02-18T21:01:25Z</time>
      </trkpt>
      <trkpt lat="43.71236" lon="4.61386">
        <ele>4</ele>
        <time>2017-02-18T21:01:54Z</time>
      </trkpt>
      <trkpt lat="43.71177" lon="4.61401">
        <ele>4</ele>
        <time>2017-02-18T21:02:24Z</time>
      </trkpt>
      <trkpt lat="43.71119" lon="4.61415">
        <ele>4</ele>
        <time>2017-02-18T21:02:54Z</time>
      </trkpt>
      <trkpt lat="43.71061" lon="4.61429">
        <ele>4</ele>
        <time>2017-02-18T21:03:23Z</time>
      </trkpt>
      <trkpt lat="43.71001" lon="4.61443">
        <ele>4</ele>
        <time>2017-02-18T21:03:53Z</time>
      </trkpt>
      <trkpt lat="43.70947" lon="4.61473">
        <ele>4</ele>
        <time>2017-02-18T21:04:22Z</time>
      </trkpt>
      <trkpt lat="43.70892" lon="4.61504">
        <ele>4</ele>
        <time>2017-02-18T21:04:52Z</time>
      </trkpt>
      <trkpt lat="43.70838" lon="4.61534">
        <ele>4</ele>
        <time>2017-02-18T21:05:21Z</time>
      </trkpt>
      <trkpt lat="43.70784" lon="4.61565">
        <ele>4</ele>
        <time>2017-02-18T21:05:51Z</time>
      </trkpt>
      <trkpt lat="43.70729" lon="4.61595">
        <ele>4</ele>
        <time>2017-02-18T21:06:20Z</time>
      </trkpt>
      <trkpt lat="43.70675" lon="4.61626">
        <ele>4</ele>
        <time>2017-02-18T21:06:49Z</time>
      </trkpt>
      <trkpt lat="43.7062" lon="4.61656">
        <ele>4</ele>
        <time>2017-02-18T21:07:19Z</time>
      </trkpt>
      <trkpt lat="43.70566" lon="4.61687">
        <ele>4</ele>
        <time>2017-02-18T21:07:48Z</time>
      </trkpt>
      <trkpt lat="43.70511" lon="4.61718">
        <ele>4</ele>
        <time>2017-02-18T21:08:18Z</time>
      </trkpt>
      <trkpt lat="43.70458" lon="4.61766">
        <ele>4</ele>
        <time>2017-02-18T21:08:49Z</time>
      </trkpt>
      <trkpt lat="43.70405" lon="4.61814">
        <ele>4</ele>
        <time>2017-02-18T21:09:21Z</time>
      </trkpt>
      <trkpt lat="43.70352" lon="4.61862">
        <ele>4</ele>
        <time>2017-02-18T21:09:53Z</time>
      </trkpt>
      <trkpt lat="43.70299" lon="4.6191">
        <ele>3</ele>
        <time>2017-02-18T21:10:24Z</time>
      </trkpt>
      <trkpt lat="43.70246" lon="4.61958">
        <ele>4</ele>
        <time>2017-02-18T21:10:56Z</time>
      </trkpt>
      <trkpt lat="43.70193" lon="4.62006">
        <ele>4</ele>
        <time>2017-02-18T21:11:28Z</time>
      </trkpt>
      <trkpt lat="43.70141" lon="4.62054">
        <ele>5</ele>
        <time>2017-02-18T21:11:59Z</time>
      </trkpt>
      <trkpt lat="43.70088" lon="4.62102">
        <ele>4</ele>
        <time>2017-02-18T21:12:31Z</time>
      </trkpt>
      <trkpt lat="43.70035" lon="4.6215">
        <ele>2</ele>
        <time>2017-02-18T21:13:03Z</time>
      </trkpt>
      <trkpt lat="43.69982" lon="4.62198">
        <ele>3</ele>
        <time>2017-02-18T21:13:35Z</time>
      </trkpt>
      <trkpt lat="43.69929" lon="4.62246">
        <ele>2</ele>
        <time>2017-02-18T21:14:06Z</time>
      </trkpt>
      <trkpt lat="43.69876" lon="4.62294">
        <ele>2</ele>
        <time>2017-02-18T21:14:38Z</time>
      </trkpt>
      <trkpt lat="43.69823" lon="4.62342">
        <ele>2</ele>
        <time>2017-02-18T21:15:10Z</time>
      </trkpt>
      <trkpt lat="43.6977" lon="4.62391">
        <ele>2</ele>
        <time>2017-02-18T21:15:41Z</time>
      </trkpt>
      <trkpt lat="43.69717" lon="4.62439">
        <ele>2</ele>
        <time>2017-02-18T21:16:13Z</time>
      </trkpt>
      <trkpt lat="43.6966" lon="4.62466">
        <ele>2</ele>
        <time>2017-02-18T21:16:43Z</time>
      </trkpt>
      <trkpt lat="43.69603" lon="4.62493">
        <ele>2</ele>
        <time>2017-02-18T21:17:13Z</time>
      </trkpt>
      <trkpt lat="43.69546" lon="4.6252">
        <ele>2</ele>
        <time>2017-02-18T21:17:43Z</time>
      </trkpt>
      <trkpt lat="43.6949" lon="4.62547">
        <ele>2</ele>
        <time>2017-02-18T21:18:13Z</time>
      </trkpt>
      <trkpt lat="43.69433" lon="4.62574">
        <ele>2</ele>
        <time>2017-02-18T21:18:44Z</time>
      </trkpt>
      <trkpt lat="43.69376" lon="4.62602">
        <ele>2</ele>
        <time>2017-02-18T21:19:14Z</time>
      </trkpt>
      <trkpt lat="43.69319" lon="4.62629">
        <ele>2</ele>
        <time>2017-02-18T21:19:44Z</time>
      </trkpt>
      <trkpt lat="43.69262" lon="4.62656">
        <ele>2</ele>
        <time>2017-02-18T21:20:14Z</time>
      </trkpt>
      <trkpt lat="43.69205" lon="4.62683">
        <ele>2</ele>
        <time>2017-02-18T21:20:44Z</time>
      </trkpt>
      <trkpt lat="43.69148" lon="4.6271">
        <ele>2</ele>
        <time>2017-02-18T21:21:14Z</time>
      </trkpt>
      <trkpt lat="43.69092" lon="4.62737">
        <ele>2</ele>
        <time>2017-02-18T21:21:44Z</time>
      </trkpt>
      <trkpt lat="43.69034" lon="4.62765">
        <ele>2</ele>
        <time>2017-02-18T21:22:14Z</time>
      </trkpt>
      <trkpt lat="43.68971" lon="4.6277">
        <ele>2</ele>
        <time>2017-02-18T21:22:46Z</time>
      </trkpt>
      <trkpt lat="43.68907" lon="4.62775">
        <ele>2</ele>
        <time>2017-02-18T21:23:18Z</time>
      </trkpt>
      <trkpt lat="43.68844" lon="4.62781">
        <ele>2</ele>
        <time>2017-02-18T21:23:50Z</time>
      </trkpt>
      <trkpt lat="43.68781" lon="4.62786">
        <ele>2</ele>
        <time>2017-02-18T21:24:21Z</time>
      </trkpt>
      <trkpt lat="43.68717" lon="4.62791">
        <ele>2</ele>
        <time>2017-02-18T21:24:53Z</time>
      </trkpt>
      <trkpt lat="43.68654" lon="4.62796">
        <ele>2</ele>
        <time>2017-02-18T21:25:25Z</time>
      </trkpt>
      <trkpt lat="43.6859" lon="4.62802">
        <ele>2</ele>
        <time>2017-02-18T21:25:57Z</time>
      </trkpt>
      <trkpt lat="43.68527" lon="4.62807">
        <ele>2</ele>
        <time>2017-02-18T21:26:29Z</time>
      </trkpt>
      <trkpt lat="43.68463" lon="4.62812">
        <ele>2</ele>
        <time>2017-02-18T21:27:01Z</time>
      </trkpt>
      <trkpt lat="43.684" lon="4.62818">
        <ele>2</ele>
        <time>2017-02-18T21:27:32Z</time>
      </trkpt>
      <trkpt lat="43.68337" lon="4.62823">
        <ele>2</ele>
        <time>2017-02-18T21:28:04Z</time>
      </trkpt>
      <trkpt lat="43.68273" lon="4.62828">
        <ele>2</ele>
        <time>2017-02-18T21:28:36Z</time>
      </trkpt>
      <trkpt lat="43.68209" lon="4.62833">
        <ele>2</ele>
        <time>2017-02-18T21:29:08Z</time>
      </trkpt>
      <trkpt lat="43.68153" lon="4.62802">
        <ele>2</ele>
        <time>2017-02-18T21:29:38Z</time>
      </trkpt>
      <trkpt lat="43.68097" lon="4.6277">
        <ele>2</ele>
        <time>2017-02-18T21:30:08Z</time>
      </trkpt>
      <trkpt lat="43.68041" lon="4.62739">
        <ele>2</ele>
        <time>2017-02-18T21:30:38Z</time>
      </trkpt>
      <trkpt lat="43.68011" lon="4.62667">
        <ele>2</ele>
        <time>2017-02-18T21:31:08Z</time>
      </trkpt>
      <trkpt lat="43.67982" lon="4.62596">
        <ele>2</ele>
        <time>2017-02-18T21:31:38Z</time>
      </trkpt>
      <trkpt lat="43.67952" lon="4.62524">
        <ele>3</ele>
        <time>2017-02-18T21:32:08Z</time>
      </trkpt>
      <trkpt lat="43.67922" lon="4.62452">
        <ele>4</ele>
        <time>2017-02-18T21:32:38Z</time>
      </trkpt>
      <trkpt lat="43.67893" lon="4.62381">
        <ele>5</ele>
        <time>2017-02-18T21:33:08Z</time>
      </trkpt>
      <trkpt lat="43.67863" lon="4.62309">
        <ele>3</ele>
        <time>2017-02-18T21:33:38Z</time>
      </trkpt>
      <trkpt lat="43.67833" lon="4.62238">
        <ele>4</ele>
        <time>2017-02-18T21:34:08Z</time>
      </trkpt>
      <trkpt lat="43.67804" lon="4.62166">
        <ele>3</ele>
        <time>2017-02-18T21:34:37Z</time>
      </trkpt>
      <trkpt lat="43.67774" lon="4.62095">
        <ele>3</ele>
        <time>2017-02-18T21:35:07Z</time>
      </trkpt>
      <trkpt lat="43.67734" lon="4.62032">
        <ele>3</ele>
        <time>2017-02-18T21:35:38Z</time>
      </trkpt>
      <trkpt lat="43.67694" lon="4.6197">
        <ele>2</ele>
        <time>2017-02-18T21:36:08Z</time>
      </trkpt>
      <trkpt lat="43.67655" lon="4.61907">
        <ele>3</ele>
        <time>2017-02-18T21:36:38Z</time>
      </trkpt>
      <trkpt lat="43.67615" lon="4.61844">
        <ele>3</ele>
        <time>2017-02-18T21:37:08Z</time>
      </trkpt>
      <trkpt lat="43.67575" lon="4.61781">
        <ele>3</ele>
        <time>2017-02-18T21:37:39Z</time>
      </trkpt>
      <trkpt lat="43.67535" lon="4.61718">
        <ele>2</ele>
        <time>2017-02-18T21:38:09Z</time>
      </trkpt>
      <trkpt lat="43.67495" lon="4.61655">
        <ele>2</ele>
        <time>2017-02-18T21:38:39Z</time>
      </trkpt>
      <trkpt lat="43.67455" lon="4.61592">
        <ele>2</ele>
        <time>2017-02-18T21:39:09Z</time>
      </trkpt>
      <trkpt lat="43.67415" lon="4.6153">
        <ele>2</ele>
        <time>2017-02-18T21:39:40Z</time>
      </trkpt>
      <trkpt lat="43.67375" lon="4.61467">
        <ele>2</ele>
        <time>2017-02-18T21:40:10Z</time>
      </trkpt>
      <trkpt lat="43.67335" lon="4.61404">
        <ele>2</ele>
        <time>2017-02-18T21:40:40Z</time>
      </trkpt>
      <trkpt lat="43.67295" lon="4.61341">
        <ele>2</ele>
        <time>2017-02-18T21:41:11Z</time>
      </trkpt>
      <trkpt lat="43.67256" lon="4.61278">
        <ele>2</ele>
        <time>2017-02-18T21:41:41Z</time>
      </trkpt>
      <trkpt lat="43.67216" lon="4.61215">
        <ele>2</ele>
        <time>2017-02-18T21:42:11Z</time>
      </trkpt>
      <trkpt lat="43.67176" lon="4.61152">
        <ele>2</ele>
        <time>2017-02-18T21:42:41Z</time>
      </trkpt>
      <trkpt lat="43.67136" lon="4.6109">
        <ele>1</ele>
        <time>2017-02-18T21:43:12Z</time>
      </trkpt>
      <trkpt lat="43.67096" lon="4.61027">
        <ele>1</ele>
        <time>2017-02-18T21:43:42Z</time>
      </trkpt>
      <trkpt lat="43.67056" lon="4.60964">
        <ele>1</ele>
        <time>2017-02-18T21:44:12Z</time>
      </trkpt>
      <trkpt lat="43.67017" lon="4.60902">
        <ele>1</ele>
        <time>2017-02-18T21:44:42Z</time>
      </trkpt>
      <trkpt lat="43.66971" lon="4.60843">
        <ele>1</ele>
        <time>2017-02-18T21:45:14Z</time>
      </trkpt>
      <trkpt lat="43.66924" lon="4.60784">
        <ele>1</ele>
        <time>2017-02-18T21:45:46Z</time>
      </trkpt>
      <trkpt lat="43.66878" lon="4.60725">
        <ele>1</ele>
        <time>2017-02-18T21:46:17Z</time>
      </trkpt>
      <trkpt lat="43.66832" lon="4.60666">
        <ele>1</ele>
        <time>2017-02-18T21:46:49Z</time>
      </trkpt>
      <trkpt lat="43.66786" lon="4.60606">
        <ele>1</ele>
        <time>2017-02-18T21:47:20Z</time>
      </trkpt>
      <trkpt lat="43.66739" lon="4.60547">
        <ele>1</ele>
        <time>2017-02-18T21:47:52Z</time>
      </trkpt>
      <trkpt lat="43.66693" lon="4.60488">
        <ele>1</ele>
        <time>2017-02-18T21:48:23Z</time>
      </trkpt>
      <trkpt lat="43.66647" lon="4.60429">
        <ele>1</ele>
        <time>2017-02-18T21:48:55Z</time>
      </trkpt>
      <trkpt lat="43.66601" lon="4.6037">
        <ele>1</ele>
        <time>2017-02-18T21:49:26Z</time>
      </trkpt>
      <trkpt lat="43.66544" lon="4.60332">
        <ele>1</ele>
        <time>2017-02-18T21:49:58Z</time>
      </trkpt>
      <trkpt lat="43.66487" lon="4.60295">
        <ele>1</ele>
        <time>2017-02-18T21:50:30Z</time>
      </trkpt>
      <trkpt lat="43.6643" lon="4.60257">
        <ele>1</ele>
        <time>2017-02-18T21:51:01Z</time>
      </trkpt>
      <trkpt lat="43.66372" lon="4.60219">
        <ele>1</ele>
        <time>2017-02-18T21:51:33Z</time>
      </trkpt>
      <trkpt lat="43.66315" lon="4.60181">
        <ele>1</ele>
        <time>2017-02-18T21:52:05Z</time>
      </trkpt>
      <trkpt lat="43.66258" lon="4.60144">
        <ele>1</ele>
        <time>2017-02-18T21:52:36Z</time>
      </trkpt>
      <trkpt lat="43.66201" lon="4.60106">
        <ele>1</ele>
        <time>2017-02-18T21:53:08Z</time>
      </trkpt>
      <trkpt lat="43.66144" lon="4.60068">
        <ele>1</ele>
        <time>2017-02-18T21:53:40Z</time>
      </trkpt>
      <trkpt lat="43.66087" lon="4.6003">
        <ele>1</ele>
        <time>2017-02-18T21:54:11Z</time>
      </trkpt>
      <trkpt lat="43.6603" lon="4.59992">
        <ele>1</ele>
        <time>2017-02-18T21:54:43Z</time>
      </trkpt>
      <trkpt lat="43.65969" lon="4.59972">
        <ele>1</ele>
        <time>2017-02-18T21:55:15Z</time>
      </trkpt>
      <trkpt lat="43.65908" lon="4.59951">
        <ele>1</ele>
        <time>2017-02-18T21:55:46Z</time>
      </trkpt>
      <trkpt lat="43.65847" lon="4.5993">
        <ele>1</ele>
        <time>2017-02-18T21:56:17Z</time>
      </trkpt>
      <trkpt lat="43.65786" lon="4.5991">
        <ele>1</ele>
        <time>2017-02-18T21:56:49Z</time>
      </trkpt>
      <trkpt lat="43.65725" lon="4.59889">
        <ele>1</ele>
        <time>2017-02-18T21:57:20Z</time>
      </trkpt>
      <trkpt lat="43.65664" lon="4.59868">
        <ele>1</ele>
        <time>2017-02-18T21:57:52Z</time>
      </trkpt>
      <trkpt lat="43.65603" lon="4.59847">
        <ele>1</ele>
        <time>2017-02-18T21:58:23Z</time>
      </trkpt>
      <trkpt lat="43.65542" lon="4.59827">
        <ele>1</ele>
        <time>2017-02-18T21:58:55Z</time>
      </trkpt>
      <trkpt lat="43.65481" lon="4.59806">
        <ele>1</ele>
        <time>2017-02-18T21:59:26Z</time>
      </trkpt>
      <trkpt lat="43.6542" lon="4.59785">
        <ele>1</ele>
        <time>2017-02-18T21:59:58Z</time>
      </trkpt>
      <trkpt lat="43.65359" lon="4.59764">
        <ele>1</ele>
        <time>2017-02-18T22:00:29Z</time>
      </trkpt>
      <trkpt lat="43.65297" lon="4.59743">
        <ele>1</ele>
        <time>2017-02-18T22:01:00Z</time>
      </trkpt>
      <trkpt lat="43.65241" lon="4.59755">
        <ele>1</ele>
        <time>2017-02-18T22:01:29Z</time>
      </trkpt>
      <trkpt lat="43.65185" lon="4.59766">
        <ele>1</ele>
        <time>2017-02-18T22:01:57Z</time>
      </trkpt>
      <trkpt lat="43.65129" lon="4.59777">
        <ele>1</ele>
        <time>2017-02-18T22:02:25Z</time>
      </trkpt>
      <trkpt lat="43.65074" lon="4.59788">
        <ele>1</ele>
        <time>2017-02-18T22:02:53Z</time>
      </trkpt>
      <trkpt lat="43.65018" lon="4.59799">
        <ele>1</ele>
        <time>2017-02-18T22:03:22Z</time>
      </trkpt>
      <trkpt lat="43.64962" lon="4.5981">
        <ele>1</ele>
        <time>2017-02-18T22:03:50Z</time>
      </trkpt>
      <trkpt lat="43.64906" lon="4.59821">
        <ele>1</ele>
        <time>2017-02-18T22:04:18Z</time>
      </trkpt>
      <trkpt lat="43.64851" lon="4.59858">
        <ele>1</ele>
        <time>2017-02-18T22:04:49Z</time>
      </trkpt>
      <trkpt lat="43.64796" lon="4.59895">
        <ele>1</ele>
        <time>2017-02-18T22:05:19Z</time>
      </trkpt>
      <trkpt lat="43.64741" lon="4.59932">
        <ele>1</ele>
        <time>2017-02-18T22:05:50Z</time>
      </trkpt>
      <trkpt lat="43.64685" lon="4.59969">
        <ele>1</ele>
        <time>2017-02-18T22:06:21Z</time>
      </trkpt>
      <trkpt lat="43.6463" lon="4.60007">
        <ele>1</ele>
        <time>2017-02-18T22:06:51Z</time>
      </trkpt>
      <trkpt lat="43.64575" lon="4.60044">
        <ele>1</ele>
        <time>2017-02-18T22:07:22Z</time>
      </trkpt>
      <trkpt lat="43.6452" lon="4.60081">
        <ele>1</ele>
        <time>2017-02-18T22:07:53Z</time>
      </trkpt>
      <trkpt lat="43.64465" lon="4.60118">
        <ele>1</ele>
        <time>2017-02-18T22:08:23Z</time>
      </trkpt>
      <trkpt lat="43.6441" lon="4.60155">
        <ele>1</ele>
        <time>2017-02-18T22:08:54Z</time>
      </trkpt>
      <trkpt lat="43.64355" lon="4.60193">
        <ele>1</ele>
        <time>2017-02-18T22:09:25Z</time>
      </trkpt>
      <trkpt lat="43.643" lon="4.6023">
        <ele>1</ele>
        <time>2017-02-18T22:09:55Z</time>
      </trkpt>
      <trkpt lat="43.64245" lon="4.60267">
        <ele>1</ele>
        <time>2017-02-18T22:10:26Z</time>
      </trkpt>
      <trkpt lat="43.6419" lon="4.60304">
        <ele>1</ele>
        <time>2017-02-18T22:10:57Z</time>
      </trkpt>
      <trkpt lat="43.64135" lon="4.60341">
        <ele>1</ele>
        <time>2017-02-18T22:11:27Z</time>
      </trkpt>
      <trkpt lat="43.6408" lon="4.60379">
        <ele>1</ele>
        <time>2017-02-18T22:11:58Z</time>
      </trkpt>
      <trkpt lat="43.64032" lon="4.60438">
        <ele>1</ele>
        <time>2017-02-18T22:12:30Z</time>
      </trkpt>
      <trkpt lat="43.63985" lon="4.60497">
        <ele>1</ele>
        <time>2017-02-18T22:13:02Z</time>
      </trkpt>
      <trkpt lat="43.63937" lon="4.60556">
        <ele>1</ele>
        <time>2017-02-18T22:13:34Z</time>
      </trkpt>
      <trkpt lat="43.6389" lon="4.60615">
        <ele>1</ele>
        <time>2017-02-18T22:14:06Z</time>
      </trkpt>
      <trkpt lat="43.63843" lon="4.60674">
        <ele>1</ele>
        <time>2017-02-18T22:14:38Z</time>
      </trkpt>
      <trkpt lat="43.63795" lon="4.60733">
        <ele>1</ele>
        <time>2017-02-18T22:15:10Z</time>
      </trkpt>
      <trkpt lat="43.63748" lon="4.60792">
        <ele>1</ele>
        <time>2017-02-18T22:15:42Z</time>
      </trkpt>
      <trkpt lat="43.637" lon="4.60851">
        <ele>1</ele>
        <time>2017-02-18T22:16:14Z</time>
      </trkpt>
      <trkpt lat="43.63653" lon="4.6091">
        <ele>1</ele>
        <time>2017-02-18T22:16:45Z</time>
      </trkpt>
      <trkpt lat="43.63606" lon="4.60969">
        <ele>1</ele>
        <time>2017-02-18T22:17:17Z</time>
      </trkpt>
      <trkpt lat="43.63558" lon="4.61028">
        <ele>1</ele>
        <time>2017-02-18T22:17:49Z</time>
      </trkpt>
      <trkpt lat="43.63511" lon="4.61087">
        <ele>1</ele>
        <time>2017-02-18T22:18:21Z</time>
      </trkpt>
      <trkpt lat="43.63464" lon="4.61146">
        <ele>1</ele>
        <time>2017-02-18T22:18:53Z</time>
      </trkpt>
      <trkpt lat="43.63416" lon="4.61205">
        <ele>1</ele>
        <time>2017-02-18T22:19:25Z</time>
      </trkpt>
      <trkpt lat="43.63369" lon="4.61264">
        <ele>1</ele>
        <time>2017-02-18T22:19:57Z</time>
      </trkpt>
      <trkpt lat="43.63322" lon="4.61323">
        <ele>1</ele>
        <time>2017-02-18T22:20:29Z</time>
      </trkpt>
      <trkpt lat="43.63299" lon="4.61403">
        <ele>1</ele>
        <time>2017-02-18T22:21:00Z</time>
      </trkpt>
      <trkpt lat="43.63276" lon="4.61483">
        <ele>1</ele>
        <time>2017-02-18T22:21:31Z</time>
      </trkpt>
      <trkpt lat="43.63254" lon="4.61563">
        <ele>1</ele>
        <time>2017-02-18T22:22:02Z</time>
      </trkpt>
      <trkpt lat="43.63231" lon="4.61643">
        <ele>1</ele>
        <time>2017-02-18T22:22:33Z</time>
      </trkpt>
      <trkpt lat="43.63208" lon="4.61722">
        <ele>1</ele>
        <time>2017-02-18T22:23:05Z</time>
      </trkpt>
      <trkpt lat="43.63186" lon="4.61802">
        <ele>1</ele>
        <time>2017-02-18T22:23:36Z</time>
      </trkpt>
      <trkpt lat="43.63163" lon="4.61882">
        <ele>1</ele>
        <time>2017-02-18T22:24:07Z</time>
      </trkpt>
      <trkpt lat="43.6314" lon="4.61962">
        <ele>1</ele>
        <time>2017-02-18T22:24:38Z</time>
      </trkpt>
      <trkpt lat="43.63117" lon="4.62042">
        <ele>1</ele>
        <time>2017-02-18T22:25:09Z</time>
      </trkpt>
      <trkpt lat="43.63095" lon="4.62122">
        <ele>1</ele>
        <time>2017-02-18T22:25:40Z</time>
      </trkpt>
      <trkpt lat="43.63072" lon="4.62202">
        <ele>1</ele>
        <time>2017-02-18T22:26:11Z</time>
      </trkpt>
      <trkpt lat="43.63049" lon="4.62282">
        <ele>1</ele>
        <time>2017-02-18T22:26:42Z</time>
      </trkpt>
      <trkpt lat="43.63027" lon="4.62362">
        <ele>1</ele>
        <time>2017-02-18T22:27:13Z</time>
      </trkpt>
      <trkpt lat="43.63004" lon="4.62442">
        <ele>1</ele>
        <time>2017-02-18T22:27:45Z</time>
      </trkpt>
      <trkpt lat="43.62981" lon="4.62522">
        <ele>1</ele>
        <time>2017-02-18T22:28:16Z</time>
      </trkpt>
      <trkpt lat="43.62959" lon="4.62602">
        <ele>1</ele>
        <time>2017-02-18T22:28:47Z</time>
      </trkpt>
      <trkpt lat="43.62937" lon="4.62679">
        <ele>1</ele>
        <time>2017-02-18T22:29:18Z</time>
      </trkpt>
      <trkpt lat="43.62912" lon="4.62759">
        <ele>1</ele>
        <time>2017-02-18T22:29:50Z</time>
      </trkpt>
      <trkpt lat="43.62887" lon="4.6284">
        <ele>1</ele>
        <time>2017-02-18T22:30:21Z</time>
      </trkpt>
      <trkpt lat="43.62862" lon="4.6292">
        <ele>1</ele>
        <time>2017-02-18T22:30:53Z</time>
      </trkpt>
      <trkpt lat="43.62837" lon="4.63001">
        <ele>3</ele>
        <time>2017-02-18T22:31:25Z</time>
      </trkpt>
      <trkpt lat="43.62812" lon="4.63081">
        <ele>3</ele>
        <time>2017-02-18T22:31:56Z</time>
      </trkpt>
      <trkpt lat="43.62787" lon="4.63162">
        <ele>3</ele>
        <time>2017-02-18T22:32:28Z</time>
      </trkpt>
      <trkpt lat="43.62762" lon="4.63242">
        <ele>1</ele>
        <time>2017-02-18T22:33:00Z</time>
      </trkpt>
      <trkpt lat="43.62737" lon="4.63323">
        <ele>2</ele>
        <time>2017-02-18T22:33:31Z</time>
      </trkpt>
      <trkpt lat="43.62713" lon="4.63403">
        <ele>1</ele>
        <time>2017-02-18T22:34:03Z</time>
      </trkpt>
      <trkpt lat="43.62688" lon="4.63484">
        <ele>1</ele>
        <time>2017-02-18T22:34:35Z</time>
      </trkpt>
      <trkpt lat="43.62663" lon="4.63564">
        <ele>1</ele>
        <time>2017-02-18T22:35:07Z</time>
      </trkpt>
      <trkpt lat="43.62638" lon="4.63645">
        <ele>1</ele>
        <time>2017-02-18T22:35:38Z</time>
      </trkpt>
      <trkpt lat="43.62613" lon="4.63725">
        <ele>1</ele>
        <time>2017-02-18T22:36:10Z</time>
      </trkpt>
      <trkpt lat="43.62589" lon="4.63803">
        <ele>1</ele>
        <time>2017-02-18T22:36:42Z</time>
      </trkpt>
      <trkpt lat="43.6255" lon="4.63869">
        <ele>1</ele>
        <time>2017-02-18T22:37:12Z</time>
      </trkpt>
      <trkpt lat="43.62512" lon="4.63934">
        <ele>1</ele>
        <time>2017-02-18T22:37:43Z</time>
      </trkpt>
      <trkpt lat="43.62473" lon="4.63999">
        <ele>1</ele>
        <time>2017-02-18T22:38:13Z</time>
      </trkpt>
      <trkpt lat="43.62434" lon="4.64064">
        <ele>1</ele>
        <time>2017-02-18T22:38:44Z</time>
      </trkpt>
      <trkpt lat="43.62396" lon="4.6413">
        <ele>1</ele>
        <time>2017-02-18T22:39:14Z</time>
      </trkpt>
      <trkpt lat="43.62357" lon="4.64195">
        <ele>1</ele>
        <time>2017-02-18T22:39:45Z</time>
      </trkpt>
      <trkpt lat="43.62319" lon="4.6426">
        <ele>1</ele>
        <time>2017-02-18T22:40:15Z</time>
      </trkpt>
      <trkpt lat="43.6228" lon="4.64326">
        <ele>1</ele>
        <time>2017-02-18T22:40:46Z</time>
      </trkpt>
      <trkpt lat="43.62242" lon="4.64391">
        <ele>1</ele>
        <time>2017-02-18T22:41:17Z</time>
      </trkpt>
      <trkpt lat="43.62203" lon="4.64456">
        <ele>1</ele>
        <time>2017-02-18T22:41:47Z</time>
      </trkpt>
      <trkpt lat="43.62162" lon="4.64516">
        <ele>1</ele>
        <time>2017-02-18T22:42:17Z</time>
      </trkpt>
      <trkpt lat="43.62121" lon="4.64577">
        <ele>1</ele>
        <time>2017-02-18T22:42:47Z</time>
      </trkpt>
      <trkpt lat="43.62079" lon="4.64638">
        <ele>1</ele>
        <time>2017-02-18T22:43:18Z</time>
      </trkpt>
      <trkpt lat="43.62038" lon="4.64698">
        <ele>1</ele>
        <time>2017-02-18T22:43:48Z</time>
      </trkpt>
      <trkpt lat="43.61997" lon="4.64759">
        <ele>2</ele>
        <time>2017-02-18T22:44:18Z</time>
      </trkpt>
      <trkpt lat="43.61955" lon="4.64819">
        <ele>1</ele>
        <time>2017-02-18T22:44:48Z</time>
      </trkpt>
      <trkpt lat="43.61914" lon="4.6488">
        <ele>4</ele>
        <time>2017-02-18T22:45:18Z</time>
      </trkpt>
      <trkpt lat="43.61873" lon="4.64941">
        <ele>3</ele>
        <time>2017-02-18T22:45:48Z</time>
      </trkpt>
      <trkpt lat="43.61831" lon="4.65001">
        <ele>3</ele>
        <time>2017-02-18T22:46:19Z</time>
      </trkpt>
      <trkpt lat="43.6179" lon="4.65062">
        <ele>5</ele>
        <time>2017-02-18T22:46:49Z</time>
      </trkpt>
      <trkpt lat="43.61749" lon="4.65123">
        <ele>2</ele>
        <time>2017-02-18T22:47:19Z</time>
      </trkpt>
      <trkpt lat="43.61707" lon="4.65183">
        <ele>2</ele>
        <time>2017-02-18T22:47:49Z</time>
      </trkpt>
      <trkpt lat="43.61666" lon="4.65244">
        <ele>2</ele>
        <time>2017-02-18T22:48:19Z</time>
      </trkpt>
      <trkpt lat="43.61625" lon="4.65305">
        <ele>3</ele>
        <time>2017-02-18T22:48:50Z</time>
      </trkpt>
      <trkpt lat="43.61583" lon="4.65365">
        <ele>2</ele>
        <time>2017-02-18T22:49:20Z</time>
      </trkpt>
      <trkpt lat="43.61542" lon="4.65426">
        <ele>2</ele>
        <time>2017-02-18T22:49:50Z</time>
      </trkpt>
      <trkpt lat="43.61501" lon="4.65486">
        <ele>1</ele>
        <time>2017-02-18T22:50:20Z</time>
      </trkpt>
      <trkpt lat="43.61441" lon="4.65514">
        <ele>1</ele>
        <time>2017-02-18T22:50:52Z</time>
      </trkpt>
      <trkpt lat="43.61381" lon="4.65542">
        <ele>1</ele>
        <time>2017-02-18T22:51:24Z</time>
      </trkpt>
      <trkpt lat="43.6132" lon="4.6557">
        <ele>1</ele>
        <time>2017-02-18T22:51:56Z</time>
      </trkpt>
      <trkpt lat="43.6126" lon="4.65598">
        <ele>1</ele>
        <time>2017-02-18T22:52:28Z</time>
      </trkpt>
      <trkpt lat="43.612" lon="4.65626">
        <ele>1</ele>
        <time>2017-02-18T22:52:59Z</time>
      </trkpt>
      <trkpt lat="43.61139" lon="4.65655">
        <ele>1</ele>
        <time>2017-02-18T22:53:31Z</time>
      </trkpt>
      <trkpt lat="43.61079" lon="4.65683">
        <ele>1</ele>
        <time>2017-02-18T22:54:03Z</time>
      </trkpt>
      <trkpt lat="43.61021" lon="4.65677">
        <ele>1</ele>
        <time>2017-02-18T22:54:32Z</time>
      </trkpt>
      <trkpt lat="43.60963" lon="4.65671">
        <ele>1</ele>
        <time>2017-02-18T22:55:01Z</time>
      </trkpt>
      <trkpt lat="43.60906" lon="4.65665">
        <ele>1</ele>
        <time>2017-02-18T22:55:30Z</time>
      </trkpt>
      <trkpt lat="43.60848" lon="4.65659">
        <ele>1</ele>
        <time>2017-02-18T22:55:59Z</time>
      </trkpt>
      <trkpt lat="43.6079" lon="4.65653">
        <ele>1</ele>
        <time>2017-02-18T22:56:28Z</time>
      </trkpt>
      <trkpt lat="43.60732" lon="4.65647">
        <ele>1</ele>
        <time>2017-02-18T22:56:57Z</time>
      </trkpt>
      <trkpt lat="43.60675" lon="4.65641">
        <ele>1</ele>
        <time>2017-02-18T22:57:26Z</time>
      </trkpt>
      <trkpt lat="43.60617" lon="4.65635">
        <ele>1</ele>
        <time>2017-02-18T22:57:55Z</time>
      </trkpt>
      <trkpt lat="43.60559" lon="4.65629">
        <ele>1</ele>
        <time>2017-02-18T22:58:24Z</time>
      </trkpt>
      <trkpt lat="43.60501" lon="4.65623">
        <ele>1</ele>
        <time>2017-02-18T22:58:53Z</time>
      </trkpt>
      <trkpt lat="43.60439" lon="4.65631">
        <ele>1</ele>
        <time>2017-02-18T22:59:24Z</time>
      </trkpt>
      <trkpt lat="43.60377" lon="4.6564">
        <ele>1</ele>
        <time>2017-02-18T22:59:55Z</time>
      </trkpt>
      <trkpt lat="43.60314" lon="4.65649">
        <ele>1</ele>
        <time>2017-02-18T23:00:27Z</time>
      </trkpt>
      <trkpt lat="43.60252" lon="4.65657">
        <ele>1</ele>
        <time>2017-02-18T23:00:58Z</time>
      </trkpt>
      <trkpt lat="43.6019" lon="4.65666">
        <ele>1</ele>
        <time>2017-02-18T23:01:29Z</time>
      </trkpt>
      <trkpt lat="43.60128" lon="4.65674">
        <ele>1</ele>
        <time>2017-02-18T23:02:00Z</time>
      </trkpt>
      <trkpt lat="43.60066" lon="4.65683">
        <ele>1</ele>
        <time>2017-02-18T23:02:32Z</time>
      </trkpt>
      <trkpt lat="43.60004" lon="4.65691">
        <ele>1</ele>
        <time>2017-02-18T23:03:03Z</time>
      </trkpt>
      <trkpt lat="43.59942" lon="4.657">
        <ele>1</ele>
        <time>2017-02-18T23:03:34Z</time>
      </trkpt>
      <trkpt lat="43.5988" lon="4.65709">
        <ele>1</ele>
        <time>2017-02-18T23:04:05Z</time>
      </trkpt>
      <trkpt lat="43.59818" lon="4.65717">
        <ele>1</ele>
        <time>2017-02-18T23:04:37Z</time>
      </trkpt>
      <trkpt lat="43.59755" lon="4.65726">
        <ele>1</ele>
        <time>2017-02-18T23:05:08Z</time>
      </trkpt>
      <trkpt lat="43.59698" lon="4.65757">
        <ele>1</ele>
        <time>2017-02-18T23:05:39Z</time>
      </trkpt>
      <trkpt lat="43.5964" lon="4.65788">
        <ele>1</ele>
        <time>2017-02-18T23:06:09Z</time>
      </trkpt>
      <trkpt lat="43.59583" lon="4.6582">
        <ele>1</ele>
        <time>2017-02-18T23:06:40Z</time>
      </trkpt>
      <trkpt lat="43.59526" lon="4.65851">
        <ele>1</ele>
        <time>2017-02-18T23:07:11Z</time>
      </trkpt>
      <trkpt lat="43.59469" lon="4.65882">
        <ele>1</ele>
        <time>2017-02-18T23:07:42Z</time>
      </trkpt>
      <trkpt lat="43.59411" lon="4.65913">
        <ele>1</ele>
        <time>2017-02-18T23:08:13Z</time>
      </trkpt>
      <trkpt lat="43.59354" lon="4.65945">
        <ele>1</ele>
        <time>2017-02-18T23:08:43Z</time>
      </trkpt>
      <trkpt lat="43.59297" lon="4.65976">
        <ele>1</ele>
        <time>2017-02-18T23:09:14Z</time>
      </trkpt>
      <trkpt lat="43.5924" lon="4.66007">
        <ele>1</ele>
        <time>2017-02-18T23:09:45Z</time>
      </trkpt>
      <trkpt lat="43.59182" lon="4.66038">
        <ele>1</ele>
        <time>2017-02-18T23:10:16Z</time>
      </trkpt>
      <trkpt lat="43.59125" lon="4.6607">
        <ele>1</ele>
        <time>2017-02-18T23:10:47Z</time>
      </trkpt>
      <trkpt lat="43.59068" lon="4.66101">
        <ele>1</ele>
        <time>2017-02-18T23:11:17Z</time>
      </trkpt>
      <trkpt lat="43.59011" lon="4.66132">
        <ele>1</ele>
        <time>2017-02-18T23:11:48Z</time>
      </trkpt>
      <trkpt lat="43.58953" lon="4.66164">
        <ele>1</ele>
        <time>2017-02-18T23:12:19Z</time>
      </trkpt>
      <trkpt lat="43.58902" lon="4.66213">
        <ele>1</ele>
        <time>2017-02-18T23:12:50Z</time>
      </trkpt>
      <trkpt lat="43.58851" lon="4.66262">
        <ele>1</ele>
        <time>2017-02-18T23:13:21Z</time>
      </trkpt>
      <trkpt lat="43.588" lon="4.66311">
        <ele>1</ele>
        <time>2017-02-18T23:13:52Z</time>
      </trkpt>
      <trkpt lat="43.5875" lon="4.6636">
        <ele>1</ele>
        <time>2017-02-18T23:14:23Z</time>
      </trkpt>
      <trkpt lat="43.58699" lon="4.66409">
        <ele>1</ele>
        <time>2017-02-18T23:14:54Z</time>
      </trkpt>
      <trkpt lat="43.58648" lon="4.66458">
        <ele>1</ele>
        <time>2017-02-18T23:15:25Z</time>
      </trkpt>
      <trkpt lat="43.58597" lon="4.66507">
        <ele>1</ele>
        <time>2017-02-18T23:15:56Z</time>
      </trkpt>
      <trkpt lat="43.58546" lon="4.66555">
        <ele>1</ele>
        <time>2017-02-18T23:16:27Z</time>
      </trkpt>
      <trkpt lat="43.58495" lon="4.66604">
        <ele>1</ele>
        <time>2017-02-18T23:16:58Z</time>
      </trkpt>
      <trkpt lat="43.58445" lon="4.66653">
        <ele>1</ele>
        <time>2017-02-18T23:17:29Z</time>
      </trkpt>
      <trkpt lat="43.58394" lon="4.66702">
        <ele>1</ele>
        <time>2017-02-18T23:18:00Z</time>
      </trkpt>
      <trkpt lat="43.58343" lon="4.66751">
        <ele>1</ele>
        <time>2017-02-18T23:18:31Z</time>
      </trkpt>
      <trkpt lat="43.58292" lon="4.668">
        <ele>1</ele>
        <time>2017-02-18T23:19:02Z</time>
      </trkpt>
      <trkpt lat="43.58241" lon="4.66849">
        <ele>1</ele>
        <time>2017-02-18T23:19:33Z</time>
      </trkpt>
      <trkpt lat="43.5819" lon="4.66898">
        <ele>1</ele>
        <time>2017-02-18T23:20:04Z</time>
      </trkpt>
      <trkpt lat="43.5814" lon="4.66947">
        <ele>1</ele>
        <time>2017-02-18T23:20:36Z</time>
      </trkpt>
      <trkpt lat="43.58089" lon="4.66996">
        <ele>1</ele>
        <time>2017-02-18T23:21:07Z</time>
      </trkpt>
      <trkpt lat="43.58043" lon="4.67056">
        <ele>1</ele>
        <time>2017-02-18T23:21:38Z</time>
      </trkpt>
      <trkpt lat="43.57998" lon="4.67116">
        <ele>1</ele>
        <time>2017-02-18T23:22:10Z</time>
      </trkpt>
      <trkpt lat="43.57952" lon="4.67177">
        <ele>1</ele>
        <time>2017-02-18T23:22:41Z</time>
      </trkpt>
      <trkpt lat="43.57906" lon="4.67237">
        <ele>1</ele>
        <time>2017-02-18T23:23:13Z</time>
      </trkpt>
      <trkpt lat="43.57861" lon="4.67297">
        <ele>1</ele>
        <time>2017-02-18T23:23:44Z</time>
      </trkpt>
      <trkpt lat="43.57815" lon="4.67357">
        <ele>1</ele>
        <time>2017-02-18T23:24:16Z</time>
      </trkpt>
      <trkpt lat="43.57769" lon="4.67417">
        <ele>1</ele>
        <time>2017-02-18T23:24:48Z</time>
      </trkpt>
      <trkpt lat="43.57724" lon="4.67477">
        <ele>1</ele>
        <time>2017-02-18T23:25:19Z</time>
      </trkpt>
      <trkpt lat="43.57678" lon="4.67537">
        <ele>1</ele>
        <time>2017-02-18T23:25:51Z</time>
      </trkpt>
      <trkpt lat="43.57633" lon="4.67597">
        <ele>1</ele>
        <time>2017-02-18T23:26:22Z</time>
      </trkpt>
      <trkpt lat="43.57587" lon="4.67658">
        <ele>1</ele>
        <time>2017-02-18T23:26:54Z</time>
      </trkpt>
      <trkpt lat="43.57541" lon="4.67718">
        <ele>1</ele>
        <time>2017-02-18T23:27:25Z</time>
      </trkpt>
      <trkpt lat="43.57496" lon="4.67778">
        <ele>1</ele>
        <time>2017-02-18T23:27:57Z</time>
      </trkpt>
      <trkpt lat="43.5745" lon="4.67838">
        <ele>1</ele>
        <time>2017-02-18T23:28:29Z</time>
      </trkpt>
      <trkpt lat="43.57405" lon="4.67897">
        <ele>1</ele>
        <time>2017-02-18T23:29:00Z</time>
      </trkpt>
      <trkpt lat="43.57364" lon="4.67964">
        <ele>1</ele>
        <time>2017-02-18T23:29:32Z</time>
      </trkpt>
      <trkpt lat="43.57323" lon="4.6803">
        <ele>1</ele>
        <time>2017-02-18T23:30:03Z</time>
      </trkpt>
      <trkpt lat="43.57282" lon="4.68096">
        <ele>1</ele>
        <time>2017-02-18T23:30:35Z</time>
      </trkpt>
      <trkpt lat="43.57241" lon="4.68163">
        <ele>1</ele>
        <time>2017-02-18T23:31:06Z</time>
      </trkpt>
      <trkpt lat="43.572" lon="4.68229">
        <ele>1</ele>
        <time>2017-02-18T23:31:38Z</time>
      </trkpt>
      <trkpt lat="43.57159" lon="4.68295">
        <ele>1</ele>
        <time>2017-02-18T23:32:10Z</time>
      </trkpt>
      <trkpt lat="43.57119" lon="4.68361">
        <ele>1</ele>
        <time>2017-02-18T23:32:41Z</time>
      </trkpt>
      <trkpt lat="43.57078" lon="4.68428">
        <ele>2</ele>
        <time>2017-02-18T23:33:13Z</time>
      </trkpt>
      <trkpt lat="43.57037" lon="4.68494">
        <ele>1</ele>
        <time>2017-02-18T23:33:44Z</time>
      </trkpt>
      <trkpt lat="43.56996" lon="4.6856">
        <ele>1</ele>
        <time>2017-02-18T23:34:16Z</time>
      </trkpt>
      <trkpt lat="43.56955" lon="4.68627">
        <ele>1</ele>
        <time>2017-02-18T23:34:47Z</time>
      </trkpt>
      <trkpt lat="43.56914" lon="4.68693">
        <ele>2</ele>
        <time>2017-02-18T23:35:19Z</time>
      </trkpt>
      <trkpt lat="43.56873" lon="4.68759">
        <ele>1</ele>
        <time>2017-02-18T23:35:51Z</time>
      </trkpt>
      <trkpt lat="43.56832" lon="4.68825">
        <ele>1</ele>
        <time>2017-02-18T23:36:22Z</time>
      </trkpt>
      <trkpt lat="43.56791" lon="4.68892">
        <ele>1</ele>
        <time>2017-02-18T23:36:54Z</time>
      </trkpt>
      <trkpt lat="43.5675" lon="4.68958">
        <ele>1</ele>
        <time>2017-02-18T23:37:25Z</time>
      </trkpt>
      <trkpt lat="43.5671" lon="4.69024">
        <ele>1</ele>
        <time>2017-02-18T23:37:57Z</time>
      </trkpt>
      <trkpt lat="43.56669" lon="4.69091">
        <ele>1</ele>
        <time>2017-02-18T23:38:28Z</time>
      </trkpt>
      <trkpt lat="43.56628" lon="4.69157">
        <ele>1</ele>
        <time>2017-02-18T23:39:00Z</time>
      </trkpt>
      <trkpt lat="43.56587" lon="4.69223">
        <ele>1</ele>
        <time>2017-02-18T23:39:32Z</time>
      </trkpt>
      <trkpt lat="43.56547" lon="4.69288">
        <ele>1</ele>
        <time>2017-02-18T23:40:03Z</time>
      </trkpt>
      <trkpt lat="43.56501" lon="4.69341">
        <ele>2</ele>
        <time>2017-02-18T23:40:33Z</time>
      </trkpt>
      <trkpt lat="43.56455" lon="4.69393">
        <ele>1</ele>
        <time>2017-02-18T23:41:03Z</time>
      </trkpt>
      <trkpt lat="43.56409" lon="4.69446">
        <ele>2</ele>
        <time>2017-02-18T23:41:33Z</time>
      </trkpt>
      <trkpt lat="43.56363" lon="4.69499">
        <ele>1</ele>
        <time>2017-02-18T23:42:03Z</time>
      </trkpt>
      <trkpt lat="43.56316" lon="4.69551">
        <ele>1</ele>
        <time>2017-02-18T23:42:33Z</time>
      </trkpt>
      <trkpt lat="43.5627" lon="4.69604">
        <ele>1</ele>
        <time>2017-02-18T23:43:03Z</time>
      </trkpt>
      <trkpt lat="43.56224" lon="4.69657">
        <ele>1</ele>
        <time>2017-02-18T23:43:33Z</time>
      </trkpt>
      <trkpt lat="43.56178" lon="4.69709">
        <ele>1</ele>
        <time>2017-02-18T23:44:03Z</time>
      </trkpt>
      <trkpt lat="43.56132" lon="4.69762">
        <ele>1</ele>
        <time>2017-02-18T23:44:33Z</time>
      </trkpt>
      <trkpt lat="43.56086" lon="4.69815">
        <ele>1</ele>
        <time>2017-02-18T23:45:02Z</time>
      </trkpt>
      <trkpt lat="43.5604" lon="4.69867">
        <ele>1</ele>
        <time>2017-02-18T23:45:32Z</time>
      </trkpt>
      <trkpt lat="43.55994" lon="4.6992">
        <ele>1</ele>
        <time>2017-02-18T23:46:02Z</time>
      </trkpt>
      <trkpt lat="43.55948" lon="4.69973">
        <ele>1</ele>
        <time>2017-02-18T23:46:32Z</time>
      </trkpt>
      <trkpt lat="43.55902" lon="4.70025">
        <ele>2</ele>
        <time>2017-02-18T23:47:02Z</time>
      </trkpt>
      <trkpt lat="43.55856" lon="4.70078">
        <ele>1</ele>
        <time>2017-02-18T23:47:32Z</time>
      </trkpt>
      <trkpt lat="43.55811" lon="4.70134">
        <ele>1</ele>
        <time>2017-02-18T23:48:03Z</time>
      </trkpt>
      <trkpt lat="43.55765" lon="4.70191">
        <ele>1</ele>
        <time>2017-02-18T23:48:34Z</time>
      </trkpt>
      <trkpt lat="43.55719" lon="4.70248">
        <ele>1</ele>
        <time>2017-02-18T23:49:04Z</time>
      </trkpt>
      <trkpt lat="43.55674" lon="4.70305">
        <ele>1</ele>
        <time>2017-02-18T23:49:35Z</time>
      </trkpt>
      <trkpt lat="43.55628" lon="4.70362">
        <ele>1</ele>
        <time>2017-02-18T23:50:06Z</time>
      </trkpt>
      <trkpt lat="43.55582" lon="4.70419">
        <ele>1</ele>
        <time>2017-02-18T23:50:37Z</time>
      </trkpt>
      <trkpt lat="43.55537" lon="4.70476">
        <ele>1</ele>
        <time>2017-02-18T23:51:08Z</time>
      </trkpt>
      <trkpt lat="43.55491" lon="4.70533">
        <ele>1</ele>
        <time>2017-02-18T23:51:38Z</time>
      </trkpt>
      <trkpt lat="43.55446" lon="4.7059">
        <ele>1</ele>
        <time>2017-02-18T23:52:09Z</time>
      </trkpt>
      <trkpt lat="43.554" lon="4.70647">
        <ele>1</ele>
        <time>2017-02-18T23:52:40Z</time>
      </trkpt>
      <trkpt lat="43.55354" lon="4.70703">
        <ele>1</ele>
        <time>2017-02-18T23:53:11Z</time>
      </trkpt>
      <trkpt lat="43.55309" lon="4.7076">
        <ele>1</ele>
        <time>2017-02-18T23:53:42Z</time>
      </trkpt>
      <trkpt lat="43.55263" lon="4.70817">
        <ele>1</ele>
        <time>2017-02-18T23:54:12Z</time>
      </trkpt>
      <trkpt lat="43.55217" lon="4.70874">
        <ele>1</ele>
        <time>2017-02-18T23:54:43Z</time>
      </trkpt>
      <trkpt lat="43.55172" lon="4.70931">
        <ele>1</ele>
        <time>2017-02-18T23:55:14Z</time>
      </trkpt>
      <trkpt lat="43.55126" lon="4.70988">
        <ele>1</ele>
        <time>2017-02-18T23:55:45Z</time>
      </trkpt>
      <trkpt lat="43.5508" lon="4.71045">
        <ele>1</ele>
        <time>2017-02-18T23:56:15Z</time>
      </trkpt>
      <trkpt lat="43.55035" lon="4.71102">
        <ele>1</ele>
        <time>2017-02-18T23:56:46Z</time>
      </trkpt>
      <trkpt lat="43.54989" lon="4.71159">
        <ele>1</ele>
        <time>2017-02-18T23:57:17Z</time>
      </trkpt>
      <trkpt lat="43.54944" lon="4.71215">
        <ele>1</ele>
        <time>2017-02-18T23:57:48Z</time>
      </trkpt>
      <trkpt lat="43.54898" lon="4.71272">
        <ele>1</ele>
        <time>2017-02-18T23:58:19Z</time>
      </trkpt>
      <trkpt lat="43.54852" lon="4.71329">
        <ele>1</ele>
        <time>2017-02-18T23:58:49Z</time>
      </trkpt>
      <trkpt lat="43.54807" lon="4.71386">
        <ele>1</ele>
        <time>2017-02-18T23:59:20Z</time>
      </trkpt>
      <trkpt lat="43.54761" lon="4.71442">
        <ele>1</ele>
        <time>2017-02-18T23:59:51Z</time>
      </trkpt>
      <trkpt lat="43.54703" lon="4.71477">
        <ele>1</ele>
        <time>2017-02-19T00:00:23Z</time>
      </trkpt>
      <trkpt lat="43.54644" lon="4.71512">
        <ele>1</ele>
        <time>2017-02-19T00:00:55Z</time>
      </trkpt>
      <trkpt lat="43.54586" lon="4.71548">
        <ele>1</ele>
        <time>2017-02-19T00:01:27Z</time>
      </trkpt>
      <trkpt lat="43.54527" lon="4.71583">
        <ele>1</ele>
        <time>2017-02-19T00:01:59Z</time>
      </trkpt>
      <trkpt lat="43.54469" lon="4.71618">
        <ele>1</ele>
        <time>2017-02-19T00:02:31Z</time>
      </trkpt>
      <trkpt lat="43.5441" lon="4.71653">
        <ele>3</ele>
        <time>2017-02-19T00:03:03Z</time>
      </trkpt>
      <trkpt lat="43.54352" lon="4.71688">
        <ele>2</ele>
        <time>2017-02-19T00:03:34Z</time>
      </trkpt>
      <trkpt lat="43.54293" lon="4.71723">
        <ele>5</ele>
        <time>2017-02-19T00:04:06Z</time>
      </trkpt>
      <trkpt lat="43.54235" lon="4.71758">
        <ele>3</ele>
        <time>2017-02-19T00:04:38Z</time>
      </trkpt>
      <trkpt lat="43.54176" lon="4.71793">
        <ele>1</ele>
        <time>2017-02-19T00:05:10Z</time>
      </trkpt>
      <trkpt lat="43.54118" lon="4.71828">
        <ele>1</ele>
        <time>2017-02-19T00:05:42Z</time>
      </trkpt>
      <trkpt lat="43.54059" lon="4.71863">
        <ele>1</ele>
        <time>2017-02-19T00:06:14Z</time>
      </trkpt>
      <trkpt lat="43.54001" lon="4.71899">
        <ele>1</ele>
        <time>2017-02-19T00:06:46Z</time>
      </trkpt>
      <trkpt lat="43.53942" lon="4.71934">
        <ele>1</ele>
        <time>2017-02-19T00:07:18Z</time>
      </trkpt>
      <trkpt lat="43.53884" lon="4.71969">
        <ele>1</ele>
        <time>2017-02-19T00:07:50Z</time>
      </trkpt>
      <trkpt lat="43.53825" lon="4.72004">
        <ele>1</ele>
        <time>2017-02-19T00:08:22Z</time>
      </trkpt>
      <trkpt lat="43.53767" lon="4.72039">
        <ele>1</ele>
        <time>2017-02-19T00:08:54Z</time>
      </trkpt>
      <trkpt lat="43.53708" lon="4.72074">
        <ele>1</ele>
        <time>2017-02-19T00:09:26Z</time>
      </trkpt>
      <trkpt lat="43.5365" lon="4.72109">
        <ele>1</ele>
        <time>2017-02-19T00:09:58Z</time>
      </trkpt>
      <trkpt lat="43.53591" lon="4.72144">
        <ele>1</ele>
        <time>2017-02-19T00:10:30Z</time>
      </trkpt>
      <trkpt lat="43.53533" lon="4.72179">
        <ele>1</ele>
        <time>2017-02-19T00:11:02Z</time>
      </trkpt>
      <trkpt lat="43.53474" lon="4.72215">
        <ele>1</ele>
        <time>2017-02-19T00:11:33Z</time>
      </trkpt>
      <trkpt lat="43.5342" lon="4.72258">
        <ele>1</ele>
        <time>2017-02-19T00:12:04Z</time>
      </trkpt>
      <trkpt lat="43.53367" lon="4.72302">
        <ele>1</ele>
        <time>2017-02-19T00:12:35Z</time>
      </trkpt>
      <trkpt lat="43.53314" lon="4.72346">
        <ele>1</ele>
        <time>2017-02-19T00:13:06Z</time>
      </trkpt>
      <trkpt lat="43.53261" lon="4.72389">
        <ele>1</ele>
        <time>2017-02-19T00:13:37Z</time>
      </trkpt>
      <trkpt lat="43.53208" lon="4.72433">
        <ele>1</ele>
        <time>2017-02-19T00:14:08Z</time>
      </trkpt>
      <trkpt lat="43.53155" lon="4.72476">
        <ele>1</ele>
        <time>2017-02-19T00:14:39Z</time>
      </trkpt>
      <trkpt lat="43.53102" lon="4.7252">
        <ele>1</ele>
        <time>2017-02-19T00:15:10Z</time>
      </trkpt>
      <trkpt lat="43.53048" lon="4.72564">
        <ele>1</ele>
        <time>2017-02-19T00:15:41Z</time>
      </trkpt>
      <trkpt lat="43.52995" lon="4.72607">
        <ele>1</ele>
        <time>2017-02-19T00:16:12Z</time>
      </trkpt>
      <trkpt lat="43.52942" lon="4.72651">
        <ele>1</ele>
        <time>2017-02-19T00:16:43Z</time>
      </trkpt>
      <trkpt lat="43.52889" lon="4.72695">
        <ele>1</ele>
        <time>2017-02-19T00:17:14Z</time>
      </trkpt>
      <trkpt lat="43.52836" lon="4.72738">
        <ele>1</ele>
        <time>2017-02-19T00:17:45Z</time>
      </trkpt>
      <trkpt lat="43.52783" lon="4.72782">
        <ele>1</ele>
        <time>2017-02-19T00:18:16Z</time>
      </trkpt>
      <trkpt lat="43.5273" lon="4.72826">
        <ele>1</ele>
        <time>2017-02-19T00:18:47Z</time>
      </trkpt>
      <trkpt lat="43.52676" lon="4.72869">
        <ele>1</ele>
        <time>2017-02-19T00:19:18Z</time>
      </trkpt>
      <trkpt lat="43.52623" lon="4.72913">
        <ele>1</ele>
        <time>2017-02-19T00:19:49Z</time>
      </trkpt>
      <trkpt lat="43.5257" lon="4.72956">
        <ele>1</ele>
        <time>2017-02-19T00:20:20Z</time>
      </trkpt>
      <trkpt lat="43.52517" lon="4.73">
        <ele>1</ele>
        <time>2017-02-19T00:20:51Z</time>
      </trkpt>
      <trkpt lat="43.52464" lon="4.73044">
        <ele>1</ele>
        <time>2017-02-19T00:21:22Z</time>
      </trkpt>
      <trkpt lat="43.52411" lon="4.73087">
        <ele>1</ele>
        <time>2017-02-19T00:21:53Z</time>
      </trkpt>
      <trkpt lat="43.52358" lon="4.73131">
        <ele>1</ele>
        <time>2017-02-19T00:22:24Z</time>
      </trkpt>
      <trkpt lat="43.52304" lon="4.73175">
        <ele>1</ele>
        <time>2017-02-19T00:22:54Z</time>
      </trkpt>
      <trkpt lat="43.52251" lon="4.73218">
        <ele>1</ele>
        <time>2017-02-19T00:23:25Z</time>
      </trkpt>
      <trkpt lat="43.52198" lon="4.73262">
        <ele>1</ele>
        <time>2017-02-19T00:23:56Z</time>
      </trkpt>
      <trkpt lat="43.52139" lon="4.73293">
        <ele>1</ele>
        <time>2017-02-19T00:24:28Z</time>
      </trkpt>
      <trkpt lat="43.52081" lon="4.73324">
        <ele>1</ele>
        <time>2017-02-19T00:24:59Z</time>
      </trkpt>
      <trkpt lat="43.52022" lon="4.73354">
        <ele>1</ele>
        <time>2017-02-19T00:25:30Z</time>
      </trkpt>
      <trkpt lat="43.51964" lon="4.73385">
        <ele>1</ele>
        <time>2017-02-19T00:26:02Z</time>
      </trkpt>
      <trkpt lat="43.51906" lon="4.73416">
        <ele>1</ele>
        <time>2017-02-19T00:26:33Z</time>
      </trkpt>
      <trkpt lat="43.51847" lon="4.73447">
        <ele>1</ele>
        <time>2017-02-19T00:27:04Z</time>
      </trkpt>
      <trkpt lat="43.51789" lon="4.73478">
        <ele>1</ele>
        <time>2017-02-19T00:27:36Z</time>
      </trkpt>
      <trkpt lat="43.5173" lon="4.73509">
        <ele>1</ele>
        <time>2017-02-19T00:28:07Z</time>
      </trkpt>
      <trkpt lat="43.51672" lon="4.7354">
        <ele>1</ele>
        <time>2017-02-19T00:28:38Z</time>
      </trkpt>
      <trkpt lat="43.51613" lon="4.73571">
        <ele>1</ele>
        <time>2017-02-19T00:29:10Z</time>
      </trkpt>
      <trkpt lat="43.51552" lon="4.73572">
        <ele>1</ele>
        <time>2017-02-19T00:29:40Z</time>
      </trkpt>
      <trkpt lat="43.5149" lon="4.73573">
        <ele>1</ele>
        <time>2017-02-19T00:30:11Z</time>
      </trkpt>
      <trkpt lat="43.51429" lon="4.73575">
        <ele>1</ele>
        <time>2017-02-19T00:30:42Z</time>
      </trkpt>
      <trkpt lat="43.51368" lon="4.73576">
        <ele>1</ele>
        <time>2017-02-19T00:31:12Z</time>
      </trkpt>
      <trkpt lat="43.51307" lon="4.73577">
        <ele>1</ele>
        <time>2017-02-19T00:31:43Z</time>
      </trkpt>
      <trkpt lat="43.51245" lon="4.73579">
        <ele>1</ele>
        <time>2017-02-19T00:32:14Z</time>
      </trkpt>
      <trkpt lat="43.51184" lon="4.7358">
        <ele>1</ele>
        <time>2017-02-19T00:32:44Z</time>
      </trkpt>
      <trkpt lat="43.51123" lon="4.73581">
        <ele>1</ele>
        <time>2017-02-19T00:33:15Z</time>
      </trkpt>
      <trkpt lat="43.51062" lon="4.73582">
        <ele>1</ele>
        <time>2017-02-19T00:33:46Z</time>
      </trkpt>
      <trkpt lat="43.51" lon="4.73584">
        <ele>1</ele>
        <time>2017-02-19T00:34:16Z</time>
      </trkpt>
      <trkpt lat="43.50939" lon="4.73585">
        <ele>1</ele>
        <time>2017-02-19T00:34:47Z</time>
      </trkpt>
      <trkpt lat="43.50878" lon="4.73586">
        <ele>1</ele>
        <time>2017-02-19T00:35:18Z</time>
      </trkpt>
      <trkpt lat="43.50817" lon="4.73588">
        <ele>1</ele>
        <time>2017-02-19T00:35:48Z</time>
      </trkpt>
      <trkpt lat="43.50755" lon="4.73589">
        <ele>1</ele>
        <time>2017-02-19T00:36:19Z</time>
      </trkpt>
      <trkpt lat="43.50694" lon="4.7359">
        <ele>1</ele>
        <time>2017-02-19T00:36:50Z</time>
      </trkpt>
      <trkpt lat="43.50633" lon="4.73591">
        <ele>1</ele>
        <time>2017-02-19T00:37:20Z</time>
      </trkpt>
      <trkpt lat="43.50572" lon="4.73593">
        <ele>1</ele>
        <time>2017-02-19T00:37:51Z</time>
      </trkpt>
      <trkpt lat="43.5051" lon="4.73594">
        <ele>1</ele>
        <time>2017-02-19T00:38:22Z</time>
      </trkpt>
      <trkpt lat="43.50449" lon="4.73595">
        <ele>1</ele>
        <time>2017-02-19T00:38:52Z</time>
      </trkpt>
      <trkpt lat="43.50387" lon="4.73597">
        <ele>1</ele>
        <time>2017-02-19T00:39:23Z</time>
      </trkpt>
      <trkpt lat="43.50326" lon="4.73614">
        <ele>1</ele>
        <time>2017-02-19T00:39:54Z</time>
      </trkpt>
      <trkpt lat="43.50265" lon="4.73631">
        <ele>1</ele>
        <time>2017-02-19T00:40:25Z</time>
      </trkpt>
      <trkpt lat="43.50204" lon="4.73648">
        <ele>1</ele>
        <time>2017-02-19T00:40:56Z</time>
      </trkpt>
      <trkpt lat="43.50143" lon="4.73665">
        <ele>1</ele>
        <time>2017-02-19T00:41:27Z</time>
      </trkpt>
      <trkpt lat="43.50082" lon="4.73682">
        <ele>1</ele>
        <time>2017-02-19T00:41:58Z</time>
      </trkpt>
      <trkpt lat="43.50021" lon="4.73699">
        <ele>1</ele>
        <time>2017-02-19T00:42:29Z</time>
      </trkpt>
      <trkpt lat="43.4996" lon="4.73717">
        <ele>1</ele>
        <time>2017-02-19T00:43:01Z</time>
      </trkpt>
      <trkpt lat="43.499" lon="4.73734">
        <ele>1</ele>
        <time>2017-02-19T00:43:32Z</time>
      </trkpt>
      <trkpt lat="43.49839" lon="4.73751">
        <ele>1</ele>
        <time>2017-02-19T00:44:03Z</time>
      </trkpt>
      <trkpt lat="43.49778" lon="4.73768">
        <ele>1</ele>
        <time>2017-02-19T00:44:34Z</time>
      </trkpt>
      <trkpt lat="43.49717" lon="4.73785">
        <ele>1</ele>
        <time>2017-02-19T00:45:05Z</time>
      </trkpt>
      <trkpt lat="43.49656" lon="4.73802">
        <ele>1</ele>
        <time>2017-02-19T00:45:36Z</time>
      </trkpt>
      <trkpt lat="43.49595" lon="4.7382">
        <ele>1</ele>
        <time>2017-02-19T00:46:07Z</time>
      </trkpt>
      <trkpt lat="43.49534" lon="4.73837">
        <ele>1</ele>
        <time>2017-02-19T00:46:38Z</time>
      </trkpt>
      <trkpt lat="43.49474" lon="4.73866">
        <ele>1</ele>
        <time>2017-02-19T00:47:10Z</time>
      </trkpt>
      <trkpt lat="43.49414" lon="4.73896">
        <ele>1</ele>
        <time>2017-02-19T00:47:42Z</time>
      </trkpt>
      <trkpt lat="43.49354" lon="4.73926">
        <ele>1</ele>
        <time>2017-02-19T00:48:14Z</time>
      </trkpt>
      <trkpt lat="43.49294" lon="4.73955">
        <ele>1</ele>
        <time>2017-02-19T00:48:45Z</time>
      </trkpt>
      <trkpt lat="43.49235" lon="4.73985">
        <ele>1</ele>
        <time>2017-02-19T00:49:17Z</time>
      </trkpt>
      <trkpt lat="43.49175" lon="4.74014">
        <ele>1</ele>
        <time>2017-02-19T00:49:49Z</time>
      </trkpt>
      <trkpt lat="43.49115" lon="4.74044">
        <ele>1</ele>
        <time>2017-02-19T00:50:21Z</time>
      </trkpt>
      <trkpt lat="43.49055" lon="4.74073">
        <ele>1</ele>
        <time>2017-02-19T00:50:53Z</time>
      </trkpt>
      <trkpt lat="43.48995" lon="4.74103">
        <ele>1</ele>
        <time>2017-02-19T00:51:24Z</time>
      </trkpt>
      <trkpt lat="43.48936" lon="4.74132">
        <ele>1</ele>
        <time>2017-02-19T00:51:56Z</time>
      </trkpt>
      <trkpt lat="43.48876" lon="4.74162">
        <ele>1</ele>
        <time>2017-02-19T00:52:28Z</time>
      </trkpt>
      <trkpt lat="43.48816" lon="4.74191">
        <ele>1</ele>
        <time>2017-02-19T00:53:00Z</time>
      </trkpt>
      <trkpt lat="43.48756" lon="4.74221">
        <ele>1</ele>
        <time>2017-02-19T00:53:32Z</time>
      </trkpt>
      <trkpt lat="43.48696" lon="4.74251">
        <ele>1</ele>
        <time>2017-02-19T00:54:03Z</time>
      </trkpt>
      <trkpt lat="43.48636" lon="4.7428">
        <ele>1</ele>
        <time>2017-02-19T00:54:35Z</time>
      </trkpt>
      <trkpt lat="43.48577" lon="4.7431">
        <ele>1</ele>
        <time>2017-02-19T00:55:07Z</time>
      </trkpt>
      <trkpt lat="43.48517" lon="4.74339">
        <ele>1</ele>
        <time>2017-02-19T00:55:39Z</time>
      </trkpt>
      <trkpt lat="43.48456" lon="4.74369">
        <ele>1</ele>
        <time>2017-02-19T00:56:11Z</time>
      </trkpt>
      <trkpt lat="43.48399" lon="4.74403">
        <ele>1</ele>
        <time>2017-02-19T00:56:42Z</time>
      </trkpt>
      <trkpt lat="43.48342" lon="4.74436">
        <ele>2</ele>
        <time>2017-02-19T00:57:13Z</time>
      </trkpt>
      <trkpt lat="43.48284" lon="4.7447">
        <ele>1</ele>
        <time>2017-02-19T00:57:44Z</time>
      </trkpt>
      <trkpt lat="43.48227" lon="4.74504">
        <ele>1</ele>
        <time>2017-02-19T00:58:15Z</time>
      </trkpt>
      <trkpt lat="43.4817" lon="4.74538">
        <ele>1</ele>
        <time>2017-02-19T00:58:47Z</time>
      </trkpt>
      <trkpt lat="43.48112" lon="4.74571">
        <ele>1</ele>
        <time>2017-02-19T00:59:18Z</time>
      </trkpt>
      <trkpt lat="43.48055" lon="4.74605">
        <ele>2</ele>
        <time>2017-02-19T00:59:49Z</time>
      </trkpt>
      <trkpt lat="43.47997" lon="4.74639">
        <ele>1</ele>
        <time>2017-02-19T01:00:20Z</time>
      </trkpt>
      <trkpt lat="43.4794" lon="4.74672">
        <ele>1</ele>
        <time>2017-02-19T01:00:51Z</time>
      </trkpt>
      <trkpt lat="43.47883" lon="4.74706">
        <ele>1</ele>
        <time>2017-02-19T01:01:23Z</time>
      </trkpt>
      <trkpt lat="43.47825" lon="4.7474">
        <ele>1</ele>
        <time>2017-02-19T01:01:54Z</time>
      </trkpt>
      <trkpt lat="43.47768" lon="4.74773">
        <ele>1</ele>
        <time>2017-02-19T01:02:25Z</time>
      </trkpt>
      <trkpt lat="43.47711" lon="4.74807">
        <ele>1</ele>
        <time>2017-02-19T01:02:56Z</time>
      </trkpt>
      <trkpt lat="43.47653" lon="4.74841">
        <ele>1</ele>
        <time>2017-02-19T01:03:27Z</time>
      </trkpt>
      <trkpt lat="43.47593" lon="4.74851">
        <ele>2</ele>
        <time>2017-02-19T01:03:58Z</time>
      </trkpt>
      <trkpt lat="43.47533" lon="4.74861">
        <ele>2</ele>
        <time>2017-02-19T01:04:28Z</time>
      </trkpt>
      <trkpt lat="43.47474" lon="4.7487">
        <ele>1</ele>
        <time>2017-02-19T01:04:58Z</time>
      </trkpt>
      <trkpt lat="43.47414" lon="4.7488">
        <ele>1</ele>
        <time>2017-02-19T01:05:28Z</time>
      </trkpt>
      <trkpt lat="43.47354" lon="4.7489">
        <ele>1</ele>
        <time>2017-02-19T01:05:58Z</time>
      </trkpt>
      <trkpt lat="43.47294" lon="4.74899">
        <ele>1</ele>
        <time>2017-02-19T01:06:28Z</time>
      </trkpt>
      <trkpt lat="43.47235" lon="4.74909">
        <ele>3</ele>
        <time>2017-02-19T01:06:58Z</time>
      </trkpt>
      <trkpt lat="43.47175" lon="4.74919">
        <ele>3</ele>
        <time>2017-02-19T01:07:28Z</time>
      </trkpt>
      <trkpt lat="43.47115" lon="4.74929">
        <ele>2</ele>
        <time>2017-02-19T01:07:58Z</time>
      </trkpt>
      <trkpt lat="43.47056" lon="4.74938">
        <ele>2</ele>
        <time>2017-02-19T01:08:28Z</time>
      </trkpt>
      <trkpt lat="43.46996" lon="4.74948">
        <ele>1</ele>
        <time>2017-02-19T01:08:59Z</time>
      </trkpt>
      <trkpt lat="43.46936" lon="4.74958">
        <ele>1</ele>
        <time>2017-02-19T01:09:29Z</time>
      </trkpt>
      <trkpt lat="43.46876" lon="4.74967">
        <ele>1</ele>
        <time>2017-02-19T01:09:59Z</time>
      </trkpt>
      <trkpt lat="43.46817" lon="4.74977">
        <ele>1</ele>
        <time>2017-02-19T01:10:29Z</time>
      </trkpt>
      <trkpt lat="43.46756" lon="4.74987">
        <ele>1</ele>
        <time>2017-02-19T01:10:59Z</time>
      </trkpt>
      <trkpt lat="43.46694" lon="4.74975">
        <ele>1</ele>
        <time>2017-02-19T01:11:30Z</time>
      </trkpt>
      <trkpt lat="43.46632" lon="4.74963">
        <ele>1</ele>
        <time>2017-02-19T01:12:02Z</time>
      </trkpt>
      <trkpt lat="43.4657" lon="4.74951">
        <ele>1</ele>
        <time>2017-02-19T01:12:33Z</time>
      </trkpt>
      <trkpt lat="43.46508" lon="4.74939">
        <ele>1</ele>
        <time>2017-02-19T01:13:04Z</time>
      </trkpt>
      <trkpt lat="43.46447" lon="4.74926">
        <ele>2</ele>
        <time>2017-02-19T01:13:35Z</time>
      </trkpt>
      <trkpt lat="43.46385" lon="4.74914">
        <ele>1</ele>
        <time>2017-02-19T01:14:07Z</time>
      </trkpt>
      <trkpt lat="43.46323" lon="4.74902">
        <ele>1</ele>
        <time>2017-02-19T01:14:38Z</time>
      </trkpt>
      <trkpt lat="43.46261" lon="4.7489">
        <ele>1</ele>
        <time>2017-02-19T01:15:09Z</time>
      </trkpt>
      <trkpt lat="43.46199" lon="4.74878">
        <ele>1</ele>
        <time>2017-02-19T01:15:40Z</time>
      </trkpt>
      <trkpt lat="43.46137" lon="4.74866">
        <ele>1</ele>
        <time>2017-02-19T01:16:12Z</time>
      </trkpt>
      <trkpt lat="43.46075" lon="4.74854">
        <ele>1</ele>
        <time>2017-02-19T01:16:43Z</time>
      </trkpt>
      <trkpt lat="43.46014" lon="4.74842">
        <ele>1</ele>
        <time>2017-02-19T01:17:14Z</time>
      </trkpt>
      <trkpt lat="43.45952" lon="4.7483">
        <ele>1</ele>
        <time>2017-02-19T01:17:46Z</time>
      </trkpt>
      <trkpt lat="43.4589" lon="4.74818">
        <ele>1</ele>
        <time>2017-02-19T01:18:17Z</time>
      </trkpt>
      <trkpt lat="43.45828" lon="4.74805">
        <ele>1</ele>
        <time>2017-02-19T01:18:48Z</time>
      </trkpt>
      <trkpt lat="43.45766" lon="4.74793">
        <ele>1</ele>
        <time>2017-02-19T01:19:19Z</time>
      </trkpt>
      <trkpt lat="43.45703" lon="4.74781">
        <ele>1</ele>
        <time>2017-02-19T01:19:51Z</time>
      </trkpt>
      <trkpt lat="43.45646" lon="4.74747">
        <ele>1</ele>
        <time>2017-02-19T01:20:22Z</time>
      </trkpt>
      <trkpt lat="43.4559" lon="4.74712">
        <ele>1</ele>
        <time>2017-02-19T01:20:53Z</time>
      </trkpt>
      <trkpt lat="43.45533" lon="4.74678">
        <ele>1</ele>
        <time>2017-02-19T01:21:24Z</time>
      </trkpt>
      <trkpt lat="43.45476" lon="4.74644">
        <ele>1</ele>
        <time>2017-02-19T01:21:55Z</time>
      </trkpt>
      <trkpt lat="43.45419" lon="4.74609">
        <ele>1</ele>
        <time>2017-02-19T01:22:26Z</time>
      </trkpt>
      <trkpt lat="43.45362" lon="4.74575">
        <ele>1</ele>
        <time>2017-02-19T01:22:57Z</time>
      </trkpt>
      <trkpt lat="43.45306" lon="4.74541">
        <ele>1</ele>
        <time>2017-02-19T01:23:28Z</time>
      </trkpt>
      <trkpt lat="43.45249" lon="4.74506">
        <ele>1</ele>
        <time>2017-02-19T01:23:59Z</time>
      </trkpt>
      <trkpt lat="43.45192" lon="4.74472">
        <ele>1</ele>
        <time>2017-02-19T01:24:30Z</time>
      </trkpt>
      <trkpt lat="43.45135" lon="4.74438">
        <ele>1</ele>
        <time>2017-02-19T01:25:01Z</time>
      </trkpt>
      <trkpt lat="43.45078" lon="4.74403">
        <ele>1</ele>
        <time>2017-02-19T01:25:32Z</time>
      </trkpt>
      <trkpt lat="43.45022" lon="4.74369">
        <ele>1</ele>
        <time>2017-02-19T01:26:03Z</time>
      </trkpt>
      <trkpt lat="43.44965" lon="4.74335">
        <ele>1</ele>
        <time>2017-02-19T01:26:34Z</time>
      </trkpt>
      <trkpt lat="43.44908" lon="4.74301">
        <ele>1</ele>
        <time>2017-02-19T01:27:05Z</time>
      </trkpt>
      <trkpt lat="43.44851" lon="4.74266">
        <ele>1</ele>
        <time>2017-02-19T01:27:36Z</time>
      </trkpt>
      <trkpt lat="43.44795" lon="4.74232">
        <ele>1</ele>
        <time>2017-02-19T01:28:07Z</time>
      </trkpt>
      <trkpt lat="43.44738" lon="4.74198">
        <ele>1</ele>
        <time>2017-02-19T01:28:38Z</time>
      </trkpt>
      <trkpt lat="43.44681" lon="4.74163">
        <ele>1</ele>
        <time>2017-02-19T01:29:09Z</time>
      </trkpt>
      <trkpt lat="43.44624" lon="4.74129">
        <ele>1</ele>
        <time>2017-02-19T01:29:40Z</time>
      </trkpt>
      <trkpt lat="43.44567" lon="4.74095">
        <ele>1</ele>
        <time>2017-02-19T01:30:11Z</time>
      </trkpt>
      <trkpt lat="43.44511" lon="4.7406">
        <ele>1</ele>
        <time>2017-02-19T01:30:42Z</time>
      </trkpt>
      <trkpt lat="43.44454" lon="4.74026">
        <ele>1</ele>
        <time>2017-02-19T01:31:14Z</time>
      </trkpt>
      <trkpt lat="43.44397" lon="4.73992">
        <ele>1</ele>
        <time>2017-02-19T01:31:45Z</time>
      </trkpt>
      <trkpt lat="43.4434" lon="4.73957">
        <ele>1</ele>
        <time>2017-02-19T01:32:16Z</time>
      </trkpt>
      <trkpt lat="43.44284" lon="4.73923">
        <ele>1</ele>
        <time>2017-02-19T01:32:47Z</time>
      </trkpt>
      <trkpt lat="43.44227" lon="4.73889">
        <ele>1</ele>
        <time>2017-02-19T01:33:18Z</time>
      </trkpt>
      <trkpt lat="43.4417" lon="4.73854">
        <ele>1</ele>
        <time>2017-02-19T01:33:49Z</time>
      </trkpt>
      <trkpt lat="43.44113" lon="4.7382">
        <ele>1</ele>
        <time>2017-02-19T01:34:20Z</time>
      </trkpt>
      <trkpt lat="43.44056" lon="4.73786">
        <ele>1</ele>
        <time>2017-02-19T01:34:51Z</time>
      </trkpt>
      <trkpt lat="43.44" lon="4.73751">
        <ele>1</ele>
        <time>2017-02-19T01:35:22Z</time>
      </trkpt>
      <trkpt lat="43.43943" lon="4.73717">
        <ele>1</ele>
        <time>2017-02-19T01:35:53Z</time>
      </trkpt>
      <trkpt lat="43.43886" lon="4.73683">
        <ele>1</ele>
        <time>2017-02-19T01:36:24Z</time>
      </trkpt>
      <trkpt lat="43.43829" lon="4.73648">
        <ele>1</ele>
        <time>2017-02-19T01:36:55Z</time>
      </trkpt>
      <trkpt lat="43.43771" lon="4.73614">
        <ele>1</ele>
        <time>2017-02-19T01:37:26Z</time>
      </trkpt>
      <trkpt lat="43.43722" lon="4.73581">
        <ele>1</ele>
        <time>2017-02-19T01:37:54Z</time>
      </trkpt>
      <trkpt lat="43.43672" lon="4.73548">
        <ele>1</ele>
        <time>2017-02-19T01:38:21Z</time>
      </trkpt>
      <trkpt lat="43.43622" lon="4.73514">
        <ele>1</ele>
        <time>2017-02-19T01:38:49Z</time>
      </trkpt>
      <trkpt lat="43.43572" lon="4.73481">
        <ele>1</ele>
        <time>2017-02-19T01:39:17Z</time>
      </trkpt>
      <trkpt lat="43.43522" lon="4.73448">
        <ele>1</ele>
        <time>2017-02-19T01:39:44Z</time>
      </trkpt>
      <trkpt lat="43.43472" lon="4.73415">
        <ele>1</ele>
        <time>2017-02-19T01:40:12Z</time>
      </trkpt>
      <trkpt lat="43.43422" lon="4.73382">
        <ele>1</ele>
        <time>2017-02-19T01:40:40Z</time>
      </trkpt>
      <trkpt lat="43.43359" lon="4.7338">
        <ele>1</ele>
        <time>2017-02-19T01:41:11Z</time>
      </trkpt>
      <trkpt lat="43.43297" lon="4.73379">
        <ele>1</ele>
        <time>2017-02-19T01:41:43Z</time>
      </trkpt>
      <trkpt lat="43.43234" lon="4.73377">
        <ele>1</ele>
        <time>2017-02-19T01:42:14Z</time>
      </trkpt>
      <trkpt lat="43.43171" lon="4.73375">
        <ele>1</ele>
        <time>2017-02-19T01:42:46Z</time>
      </trkpt>
      <trkpt lat="43.43108" lon="4.73373">
        <ele>1</ele>
        <time>2017-02-19T01:43:17Z</time>
      </trkpt>
      <trkpt lat="43.43045" lon="4.73372">
        <ele>1</ele>
        <time>2017-02-19T01:43:49Z</time>
      </trkpt>
      <trkpt lat="43.42982" lon="4.7337">
        <ele>1</ele>
        <time>2017-02-19T01:44:20Z</time>
      </trkpt>
      <trkpt lat="43.42919" lon="4.73368">
        <ele>1</ele>
        <time>2017-02-19T01:44:52Z</time>
      </trkpt>
      <trkpt lat="43.42856" lon="4.73367">
        <ele>1</ele>
        <time>2017-02-19T01:45:23Z</time>
      </trkpt>
      <trkpt lat="43.42793" lon="4.73365">
        <ele>1</ele>
        <time>2017-02-19T01:45:55Z</time>
      </trkpt>
      <trkpt lat="43.42753" lon="4.73429">
        <ele>1</ele>
        <time>2017-02-19T01:46:25Z</time>
      </trkpt>
      <trkpt lat="43.42714" lon="4.73494">
        <ele>1</ele>
        <time>2017-02-19T01:46:56Z</time>
      </trkpt>
      <trkpt lat="43.42674" lon="4.73558">
        <ele>1</ele>
        <time>2017-02-19T01:47:27Z</time>
      </trkpt>
      <trkpt lat="43.42635" lon="4.73623">
        <ele>1</ele>
        <time>2017-02-19T01:47:57Z</time>
      </trkpt>
      <trkpt lat="43.42595" lon="4.73687">
        <ele>1</ele>
        <time>2017-02-19T01:48:28Z</time>
      </trkpt>
      <trkpt lat="43.42556" lon="4.73751">
        <ele>1</ele>
        <time>2017-02-19T01:48:59Z</time>
      </trkpt>
      <trkpt lat="43.42509" lon="4.73801">
        <ele>1</ele>
        <time>2017-02-19T01:49:28Z</time>
      </trkpt>
      <trkpt lat="43.42462" lon="4.7385">
        <ele>2</ele>
        <time>2017-02-19T01:49:58Z</time>
      </trkpt>
      <trkpt lat="43.42414" lon="4.739">
        <ele>1</ele>
        <time>2017-02-19T01:50:28Z</time>
      </trkpt>
      <trkpt lat="43.42367" lon="4.7395">
        <ele>5</ele>
        <time>2017-02-19T01:50:57Z</time>
      </trkpt>
      <trkpt lat="43.4232" lon="4.73999">
        <ele>2</ele>
        <time>2017-02-19T01:51:27Z</time>
      </trkpt>
      <trkpt lat="43.42273" lon="4.74049">
        <ele>3</ele>
        <time>2017-02-19T01:51:57Z</time>
      </trkpt>
      <trkpt lat="43.42225" lon="4.74099">
        <ele>1</ele>
        <time>2017-02-19T01:52:27Z</time>
      </trkpt>
      <trkpt lat="43.42178" lon="4.74148">
        <ele>1</ele>
        <time>2017-02-19T01:52:56Z</time>
      </trkpt>
      <trkpt lat="43.42131" lon="4.74198">
        <ele>1</ele>
        <time>2017-02-19T01:53:26Z</time>
      </trkpt>
      <trkpt lat="43.42084" lon="4.74248">
        <ele>1</ele>
        <time>2017-02-19T01:53:56Z</time>
      </trkpt>
      <trkpt lat="43.42037" lon="4.74297">
        <ele>1</ele>
        <time>2017-02-19T01:54:26Z</time>
      </trkpt>
      <trkpt lat="43.41989" lon="4.74347">
        <ele>1</ele>
        <time>2017-02-19T01:54:55Z</time>
      </trkpt>
      <trkpt lat="43.41942" lon="4.74397">
        <ele>1</ele>
        <time>2017-02-19T01:55:25Z</time>
      </trkpt>
      <trkpt lat="43.41895" lon="4.74446">
        <ele>1</ele>
        <time>2017-02-19T01:55:55Z</time>
      </trkpt>
      <trkpt lat="43.4184" lon="4.74488">
        <ele>1</ele>
        <time>2017-02-19T01:56:26Z</time>
      </trkpt>
      <trkpt lat="43.41785" lon="4.7453">
        <ele>1</ele>
        <time>2017-02-19T01:56:58Z</time>
      </trkpt>
      <trkpt lat="43.4173" lon="4.74571">
        <ele>1</ele>
        <time>2017-02-19T01:57:29Z</time>
      </trkpt>
      <trkpt lat="43.41674" lon="4.74613">
        <ele>1</ele>
        <time>2017-02-19T01:58:01Z</time>
      </trkpt>
      <trkpt lat="43.41619" lon="4.74655">
        <ele>1</ele>
        <time>2017-02-19T01:58:32Z</time>
      </trkpt>
      <trkpt lat="43.41564" lon="4.74696">
        <ele>1</ele>
        <time>2017-02-19T01:59:04Z</time>
      </trkpt>
      <trkpt lat="43.41509" lon="4.74738">
        <ele>1</ele>
        <time>2017-02-19T01:59:35Z</time>
      </trkpt>
      <trkpt lat="43.41454" lon="4.7478">
        <ele>1</ele>
        <time>2017-02-19T02:00:07Z</time>
      </trkpt>
      <trkpt lat="43.41398" lon="4.74821">
        <ele>1</ele>
        <time>2017-02-19T02:00:38Z</time>
      </trkpt>
      <trkpt lat="43.41343" lon="4.74863">
        <ele>1</ele>
        <time>2017-02-19T02:01:10Z</time>
      </trkpt>
      <trkpt lat="43.41288" lon="4.74905">
        <ele>1</ele>
        <time>2017-02-19T02:01:42Z</time>
      </trkpt>
      <trkpt lat="43.41233" lon="4.74946">
        <ele>1</ele>
        <time>2017-02-19T02:02:13Z</time>
      </trkpt>
      <trkpt lat="43.41177" lon="4.74988">
        <ele>1</ele>
        <time>2017-02-19T02:02:45Z</time>
      </trkpt>
      <trkpt lat="43.41122" lon="4.7503">
        <ele>1</ele>
        <time>2017-02-19T02:03:16Z</time>
      </trkpt>
      <trkpt lat="43.41083" lon="4.75095">
        <ele>1</ele>
        <time>2017-02-19T02:03:47Z</time>
      </trkpt>
      <trkpt lat="43.41044" lon="4.75161">
        <ele>1</ele>
        <time>2017-02-19T02:04:18Z</time>
      </trkpt>
      <trkpt lat="43.41005" lon="4.75227">
        <ele>1</ele>
        <time>2017-02-19T02:04:48Z</time>
      </trkpt>
      <trkpt lat="43.40966" lon="4.75292">
        <ele>1</ele>
        <time>2017-02-19T02:05:19Z</time>
      </trkpt>
      <trkpt lat="43.40927" lon="4.75358">
        <ele>1</ele>
        <time>2017-02-19T02:05:50Z</time>
      </trkpt>
      <trkpt lat="43.40888" lon="4.75423">
        <ele>1</ele>
        <time>2017-02-19T02:06:21Z</time>
      </trkpt>
      <trkpt lat="43.40849" lon="4.75489">
        <ele>1</ele>
        <time>2017-02-19T02:06:52Z</time>
      </trkpt>
      <trkpt lat="43.4081" lon="4.75554">
        <ele>1</ele>
        <time>2017-02-19T02:07:22Z</time>
      </trkpt>
      <trkpt lat="43.40771" lon="4.7562">
        <ele>1</ele>
        <time>2017-02-19T02:07:53Z</time>
      </trkpt>
      <trkpt lat="43.40732" lon="4.75685">
        <ele>1</ele>
        <time>2017-02-19T02:08:24Z</time>
      </trkpt>
      <trkpt lat="43.40693" lon="4.75751">
        <ele>1</ele>
        <time>2017-02-19T02:08:55Z</time>
      </trkpt>
      <trkpt lat="43.40654" lon="4.75816">
        <ele>1</ele>
        <time>2017-02-19T02:09:26Z</time>
      </trkpt>
      <trkpt lat="43.40615" lon="4.75882">
        <ele>1</ele>
        <time>2017-02-19T02:09:56Z</time>
      </trkpt>
      <trkpt lat="43.40576" lon="4.75947">
        <ele>1</ele>
        <time>2017-02-19T02:10:27Z</time>
      </trkpt>
      <trkpt lat="43.40537" lon="4.76013">
        <ele>1</ele>
        <time>2017-02-19T02:10:58Z</time>
      </trkpt>
      <trkpt lat="43.40499" lon="4.76077">
        <ele>1</ele>
        <time>2017-02-19T02:11:29Z</time>
      </trkpt>
      <trkpt lat="43.4046" lon="4.76144">
        <ele>1</ele>
        <time>2017-02-19T02:12:00Z</time>
      </trkpt>
      <trkpt lat="43.40422" lon="4.76211">
        <ele>1</ele>
        <time>2017-02-19T02:12:31Z</time>
      </trkpt>
      <trkpt lat="43.40384" lon="4.76278">
        <ele>1</ele>
        <time>2017-02-19T02:13:02Z</time>
      </trkpt>
      <trkpt lat="43.40346" lon="4.76345">
        <ele>1</ele>
        <time>2017-02-19T02:13:33Z</time>
      </trkpt>
      <trkpt lat="43.40307" lon="4.76412">
        <ele>1</ele>
        <time>2017-02-19T02:14:04Z</time>
      </trkpt>
      <trkpt lat="43.40269" lon="4.76479">
        <ele>1</ele>
        <time>2017-02-19T02:14:35Z</time>
      </trkpt>
      <trkpt lat="43.40231" lon="4.76546">
        <ele>2</ele>
        <time>2017-02-19T02:15:06Z</time>
      </trkpt>
      <trkpt lat="43.40193" lon="4.76613">
        <ele>3</ele>
        <time>2017-02-19T02:15:37Z</time>
      </trkpt>
      <trkpt lat="43.40155" lon="4.7668">
        <ele>1</ele>
        <time>2017-02-19T02:16:08Z</time>
      </trkpt>
      <trkpt lat="43.40116" lon="4.76747">
        <ele>1</ele>
        <time>2017-02-19T02:16:39Z</time>
      </trkpt>
      <trkpt lat="43.40078" lon="4.76814">
        <ele>1</ele>
        <time>2017-02-19T02:17:10Z</time>
      </trkpt>
      <trkpt lat="43.4004" lon="4.76881">
        <ele>1</ele>
        <time>2017-02-19T02:17:41Z</time>
      </trkpt>
      <trkpt lat="43.40002" lon="4.76948">
        <ele>1</ele>
        <time>2017-02-19T02:18:12Z</time>
      </trkpt>
      <trkpt lat="43.39964" lon="4.77016">
        <ele>1</ele>
        <time>2017-02-19T02:18:43Z</time>
      </trkpt>
      <trkpt lat="43.39925" lon="4.77083">
        <ele>1</ele>
        <time>2017-02-19T02:19:14Z</time>
      </trkpt>
      <trkpt lat="43.39887" lon="4.7715">
        <ele>1</ele>
        <time>2017-02-19T02:19:45Z</time>
      </trkpt>
      <trkpt lat="43.39849" lon="4.77217">
        <ele>1</ele>
        <time>2017-02-19T02:20:16Z</time>
      </trkpt>
      <trkpt lat="43.39811" lon="4.77284">
        <ele>1</ele>
        <time>2017-02-19T02:20:47Z</time>
      </trkpt>
      <trkpt lat="43.39773" lon="4.77351">
        <ele>1</ele>
        <time>2017-02-19T02:21:17Z</time>
      </trkpt>
      <trkpt lat="43.39734" lon="4.77418">
        <ele>1</ele>
        <time>2017-02-19T02:21:48Z</time>
      </trkpt>
      <trkpt lat="43.39696" lon="4.77485">
        <ele>1</ele>
        <time>2017-02-19T02:22:19Z</time>
      </trkpt>
      <trkpt lat="43.39658" lon="4.77552">
        <ele>1</ele>
        <time>2017-02-19T02:22:50Z</time>
      </trkpt>
      <trkpt lat="43.3962" lon="4.77619">
        <ele>1</ele>
        <time>2017-02-19T02:23:21Z</time>
      </trkpt>
      <trkpt lat="43.39582" lon="4.77686">
        <ele>1</ele>
        <time>2017-02-19T02:23:52Z</time>
      </trkpt>
      <trkpt lat="43.39544" lon="4.77751">
        <ele>1</ele>
        <time>2017-02-19T02:24:23Z</time>
      </trkpt>
      <trkpt lat="43.39508" lon="4.77818">
        <ele>1</ele>
        <time>2017-02-19T02:24:54Z</time>
      </trkpt>
      <trkpt lat="43.39472" lon="4.77885">
        <ele>1</ele>
        <time>2017-02-19T02:25:24Z</time>
      </trkpt>
      <trkpt lat="43.39436" lon="4.77952">
        <ele>1</ele>
        <time>2017-02-19T02:25:54Z</time>
      </trkpt>
      <trkpt lat="43.394" lon="4.7802">
        <ele>1</ele>
        <time>2017-02-19T02:26:25Z</time>
      </trkpt>
      <trkpt lat="43.39364" lon="4.78087">
        <ele>1</ele>
        <time>2017-02-19T02:26:55Z</time>
      </trkpt>
      <trkpt lat="43.39328" lon="4.78154">
        <ele>1</ele>
        <time>2017-02-19T02:27:26Z</time>
      </trkpt>
      <trkpt lat="43.39292" lon="4.78221">
        <ele>1</ele>
        <time>2017-02-19T02:27:56Z</time>
      </trkpt>
      <trkpt lat="43.39256" lon="4.78289">
        <ele>1</ele>
        <time>2017-02-19T02:28:26Z</time>
      </trkpt>
      <trkpt lat="43.3922" lon="4.78356">
        <ele>1</ele>
        <time>2017-02-19T02:28:57Z</time>
      </trkpt>
      <trkpt lat="43.39184" lon="4.78423">
        <ele>1</ele>
        <time>2017-02-19T02:29:27Z</time>
      </trkpt>
      <trkpt lat="43.39148" lon="4.7849">
        <ele>1</ele>
        <time>2017-02-19T02:29:57Z</time>
      </trkpt>
      <trkpt lat="43.39112" lon="4.78558">
        <ele>1</ele>
        <time>2017-02-19T02:30:28Z</time>
      </trkpt>
      <trkpt lat="43.39076" lon="4.78625">
        <ele>1</ele>
        <time>2017-02-19T02:30:58Z</time>
      </trkpt>
      <trkpt lat="43.3904" lon="4.78692">
        <ele>1</ele>
        <time>2017-02-19T02:31:29Z</time>
      </trkpt>
      <trkpt lat="43.39004" lon="4.78759">
        <ele>1</ele>
        <time>2017-02-19T02:31:59Z</time>
      </trkpt>
      <trkpt lat="43.38968" lon="4.78827">
        <ele>1</ele>
        <time>2017-02-19T02:32:29Z</time>
      </trkpt>
      <trkpt lat="43.38933" lon="4.78892">
        <ele>1</ele>
        <time>2017-02-19T02:33:00Z</time>
      </trkpt>
      <trkpt lat="43.38898" lon="4.78966">
        <ele>1</ele>
        <time>2017-02-19T02:33:32Z</time>
      </trkpt>
      <trkpt lat="43.38863" lon="4.79039">
        <ele>1</ele>
        <time>2017-02-19T02:34:04Z</time>
      </trkpt>
      <trkpt lat="43.38828" lon="4.79112">
        <ele>1</ele>
        <time>2017-02-19T02:34:35Z</time>
      </trkpt>
      <trkpt lat="43.38793" lon="4.79185">
        <ele>1</ele>
        <time>2017-02-19T02:35:07Z</time>
      </trkpt>
      <trkpt lat="43.38758" lon="4.79259">
        <ele>1</ele>
        <time>2017-02-19T02:35:39Z</time>
      </trkpt>
      <trkpt lat="43.38723" lon="4.79332">
        <ele>1</ele>
        <time>2017-02-19T02:36:11Z</time>
      </trkpt>
      <trkpt lat="43.38688" lon="4.79405">
        <ele>1</ele>
        <time>2017-02-19T02:36:43Z</time>
      </trkpt>
      <trkpt lat="43.38653" lon="4.79478">
        <ele>1</ele>
        <time>2017-02-19T02:37:15Z</time>
      </trkpt>
      <trkpt lat="43.38618" lon="4.79552">
        <ele>1</ele>
        <time>2017-02-19T02:37:47Z</time>
      </trkpt>
      <trkpt lat="43.38583" lon="4.79625">
        <ele>1</ele>
        <time>2017-02-19T02:38:19Z</time>
      </trkpt>
      <trkpt lat="43.38548" lon="4.79698">
        <ele>1</ele>
        <time>2017-02-19T02:38:51Z</time>
      </trkpt>
      <trkpt lat="43.38513" lon="4.79771">
        <ele>1</ele>
        <time>2017-02-19T02:39:22Z</time>
      </trkpt>
      <trkpt lat="43.38478" lon="4.79845">
        <ele>1</ele>
        <time>2017-02-19T02:39:54Z</time>
      </trkpt>
      <trkpt lat="43.38443" lon="4.79918">
        <ele>1</ele>
        <time>2017-02-19T02:40:26Z</time>
      </trkpt>
      <trkpt lat="43.38408" lon="4.79991">
        <ele>1</ele>
        <time>2017-02-19T02:40:58Z</time>
      </trkpt>
      <trkpt lat="43.38373" lon="4.80064">
        <ele>1</ele>
        <time>2017-02-19T02:41:30Z</time>
      </trkpt>
      <trkpt lat="43.38338" lon="4.80138">
        <ele>1</ele>
        <time>2017-02-19T02:42:02Z</time>
      </trkpt>
      <trkpt lat="43.38303" lon="4.80211">
        <ele>1</ele>
        <time>2017-02-19T02:42:34Z</time>
      </trkpt>
      <trkpt lat="43.38268" lon="4.80284">
        <ele>1</ele>
        <time>2017-02-19T02:43:06Z</time>
      </trkpt>
      <trkpt lat="43.38233" lon="4.80357">
        <ele>1</ele>
        <time>2017-02-19T02:43:38Z</time>
      </trkpt>
      <trkpt lat="43.38198" lon="4.80431">
        <ele>1</ele>
        <time>2017-02-19T02:44:10Z</time>
      </trkpt>
      <trkpt lat="43.38162" lon="4.80504">
        <time>2017-02-19T02:44:41Z</time>
      </trkpt>
      <trkpt lat="43.38128" lon="4.80575">
        <time>2017-02-19T02:45:13Z</time>
      </trkpt>
      <trkpt lat="43.38087" lon="4.80636">
        <time>2017-02-19T02:45:44Z</time>
      </trkpt>
      <trkpt lat="43.38045" lon="4.80697">
        <time>2017-02-19T02:46:14Z</time>
      </trkpt>
      <trkpt lat="43.38004" lon="4.80759">
        <time>2017-02-19T02:46:45Z</time>
      </trkpt>
      <trkpt lat="43.37962" lon="4.8082">
        <time>2017-02-19T02:47:15Z</time>
      </trkpt>
      <trkpt lat="43.3792" lon="4.80881">
        <time>2017-02-19T02:47:46Z</time>
      </trkpt>
      <trkpt lat="43.37879" lon="4.80943">
        <time>2017-02-19T02:48:16Z</time>
      </trkpt>
      <trkpt lat="43.37837" lon="4.81004">
        <time>2017-02-19T02:48:47Z</time>
      </trkpt>
      <trkpt lat="43.37796" lon="4.81066">
        <time>2017-02-19T02:49:18Z</time>
      </trkpt>
      <trkpt lat="43.37754" lon="4.81127">
        <time>2017-02-19T02:49:48Z</time>
      </trkpt>
      <trkpt lat="43.37712" lon="4.81188">
        <time>2017-02-19T02:50:19Z</time>
      </trkpt>
      <trkpt lat="43.37671" lon="4.8125">
        <time>2017-02-19T02:50:49Z</time>
      </trkpt>
      <trkpt lat="43.37629" lon="4.81311">
        <time>2017-02-19T02:51:20Z</time>
      </trkpt>
      <trkpt lat="43.37587" lon="4.81372">
        <time>2017-02-19T02:51:50Z</time>
      </trkpt>
      <trkpt lat="43.37546" lon="4.81434">
        <time>2017-02-19T02:52:21Z</time>
      </trkpt>
      <trkpt lat="43.37504" lon="4.81495">
        <time>2017-02-19T02:52:51Z</time>
      </trkpt>
      <trkpt lat="43.37463" lon="4.81556">
        <time>2017-02-19T02:53:22Z</time>
      </trkpt>
      <trkpt lat="43.37421" lon="4.81618">
        <time>2017-02-19T02:53:52Z</time>
      </trkpt>
      <trkpt lat="43.37379" lon="4.81679">
        <time>2017-02-19T02:54:23Z</time>
      </trkpt>
      <trkpt lat="43.37338" lon="4.8174">
        <time>2017-02-19T02:54:53Z</time>
      </trkpt>
      <trkpt lat="43.37296" lon="4.81802">
        <time>2017-02-19T02:55:24Z</time>
      </trkpt>
      <trkpt lat="43.37255" lon="4.81862">
        <time>2017-02-19T02:55:54Z</time>
      </trkpt>
      <trkpt lat="43.37207" lon="4.81919">
        <time>2017-02-19T02:56:26Z</time>
      </trkpt>
      <trkpt lat="43.37159" lon="4.81977">
        <time>2017-02-19T02:56:58Z</time>
      </trkpt>
      <trkpt lat="43.37112" lon="4.82034">
        <time>2017-02-19T02:57:30Z</time>
      </trkpt>
      <trkpt lat="43.37064" lon="4.82091">
        <time>2017-02-19T02:58:01Z</time>
      </trkpt>
      <trkpt lat="43.37016" lon="4.82148">
        <ele>1</ele>
        <time>2017-02-19T02:58:33Z</time>
      </trkpt>
      <trkpt lat="43.36968" lon="4.82206">
        <ele>1</ele>
        <time>2017-02-19T02:59:05Z</time>
      </trkpt>
      <trkpt lat="43.3692" lon="4.82263">
        <ele>1</ele>
        <time>2017-02-19T02:59:37Z</time>
      </trkpt>
      <trkpt lat="43.36872" lon="4.8232">
        <ele>2</ele>
        <time>2017-02-19T03:00:08Z</time>
      </trkpt>
      <trkpt lat="43.36824" lon="4.82377">
        <ele>3</ele>
        <time>2017-02-19T03:00:40Z</time>
      </trkpt>
      <trkpt lat="43.36777" lon="4.82435">
        <ele>3</ele>
        <time>2017-02-19T03:01:12Z</time>
      </trkpt>
      <trkpt lat="43.36729" lon="4.82492">
        <ele>1</ele>
        <time>2017-02-19T03:01:44Z</time>
      </trkpt>
      <trkpt lat="43.36681" lon="4.82549">
        <time>2017-02-19T03:02:15Z</time>
      </trkpt>
      <trkpt lat="43.36633" lon="4.82606">
        <time>2017-02-19T03:02:47Z</time>
      </trkpt>
      <trkpt lat="43.36585" lon="4.82664">
        <time>2017-02-19T03:03:19Z</time>
      </trkpt>
      <trkpt lat="43.36537" lon="4.82721">
        <time>2017-02-19T03:03:51Z</time>
      </trkpt>
      <trkpt lat="43.36489" lon="4.82778">
        <time>2017-02-19T03:04:22Z</time>
      </trkpt>
      <trkpt lat="43.36442" lon="4.82835">
        <time>2017-02-19T03:04:54Z</time>
      </trkpt>
      <trkpt lat="43.36394" lon="4.82892">
        <time>2017-02-19T03:05:26Z</time>
      </trkpt>
      <trkpt lat="43.36341" lon="4.82929">
        <time>2017-02-19T03:05:56Z</time>
      </trkpt>
      <trkpt lat="43.36287" lon="4.82966">
        <time>2017-02-19T03:06:26Z</time>
      </trkpt>
      <trkpt lat="43.36234" lon="4.83004">
        <time>2017-02-19T03:06:56Z</time>
      </trkpt>
      <trkpt lat="43.36181" lon="4.83041">
        <time>2017-02-19T03:07:26Z</time>
      </trkpt>
      <trkpt lat="43.36127" lon="4.83078">
        <ele>1</ele>
        <time>2017-02-19T03:07:56Z</time>
      </trkpt>
      <trkpt lat="43.36074" lon="4.83115">
        <time>2017-02-19T03:08:25Z</time>
      </trkpt>
      <trkpt lat="43.3602" lon="4.83152">
        <time>2017-02-19T03:08:55Z</time>
      </trkpt>
      <trkpt lat="43.35967" lon="4.83189">
        <time>2017-02-19T03:09:25Z</time>
      </trkpt>
      <trkpt lat="43.35914" lon="4.83227">
        <time>2017-02-19T03:09:55Z</time>
      </trkpt>
      <trkpt lat="43.35851" lon="4.83224">
        <time>2017-02-19T03:10:27Z</time>
      </trkpt>
      <trkpt lat="43.35788" lon="4.83222">
        <time>2017-02-19T03:10:58Z</time>
      </trkpt>
      <trkpt lat="43.35725" lon="4.83219">
        <time>2017-02-19T03:11:30Z</time>
      </trkpt>
      <trkpt lat="43.35662" lon="4.83216">
        <time>2017-02-19T03:12:01Z</time>
      </trkpt>
      <trkpt lat="43.35599" lon="4.83214">
        <time>2017-02-19T03:12:33Z</time>
      </trkpt>
      <trkpt lat="43.35536" lon="4.83211">
        <time>2017-02-19T03:13:04Z</time>
      </trkpt>
      <trkpt lat="43.35473" lon="4.83209">
        <time>2017-02-19T03:13:36Z</time>
      </trkpt>
      <trkpt lat="43.3541" lon="4.83206">
        <time>2017-02-19T03:14:08Z</time>
      </trkpt>
      <trkpt lat="43.35347" lon="4.83204">
        <time>2017-02-19T03:14:39Z</time>
      </trkpt>
      <trkpt lat="43.35283" lon="4.83201">
        <time>2017-02-19T03:15:11Z</time>
      </trkpt>
      <trkpt lat="43.35221" lon="4.83198">
        <time>2017-02-19T03:15:42Z</time>
      </trkpt>
      <trkpt lat="43.3516" lon="4.83195">
        <time>2017-02-19T03:16:13Z</time>
      </trkpt>
      <trkpt lat="43.35098" lon="4.83192">
        <time>2017-02-19T03:16:43Z</time>
      </trkpt>
      <trkpt lat="43.35036" lon="4.8319">
        <time>2017-02-19T03:17:14Z</time>
      </trkpt>
      <trkpt lat="43.34974" lon="4.83187">
        <time>2017-02-19T03:17:45Z</time>
      </trkpt>
      <trkpt lat="43.34912" lon="4.83184">
        <time>2017-02-19T03:18:16Z</time>
      </trkpt>
      <trkpt lat="43.3485" lon="4.83181">
        <time>2017-02-19T03:18:47Z</time>
      </trkpt>
      <trkpt lat="43.34789" lon="4.83178">
        <time>2017-02-19T03:19:18Z</time>
      </trkpt>
      <trkpt lat="43.34727" lon="4.83175">
        <time>2017-02-19T03:19:49Z</time>
      </trkpt>
      <trkpt lat="43.34665" lon="4.83172">
        <time>2017-02-19T03:20:20Z</time>
      </trkpt>
      <trkpt lat="43.34603" lon="4.8317">
        <time>2017-02-19T03:20:51Z</time>
      </trkpt>
      <trkpt lat="43.3454" lon="4.83167">
        <time>2017-02-19T03:21:22Z</time>
      </trkpt>
      <trkpt lat="43.34491" lon="4.83216">
        <time>2017-02-19T03:21:53Z</time>
      </trkpt>
      <trkpt lat="43.34442" lon="4.83265">
        <time>2017-02-19T03:22:23Z</time>
      </trkpt>
      <trkpt lat="43.34393" lon="4.83313">
        <time>2017-02-19T03:22:53Z</time>
      </trkpt>
      <trkpt lat="43.34343" lon="4.83362">
        <time>2017-02-19T03:23:24Z</time>
      </trkpt>
      <trkpt lat="43.34294" lon="4.83411">
        <time>2017-02-19T03:23:54Z</time>
      </trkpt>
      <trkpt lat="43.34245" lon="4.8346">
        <time>2017-02-19T03:24:25Z</time>
      </trkpt>
      <trkpt lat="43.34195" lon="4.83509">
        <time>2017-02-19T03:24:55Z</time>
      </trkpt>
      <trkpt lat="43.34146" lon="4.83558">
        <time>2017-02-19T03:25:26Z</time>
      </trkpt>
      <trkpt lat="43.34097" lon="4.83607">
        <time>2017-02-19T03:25:56Z</time>
      </trkpt>
      <trkpt lat="43.34047" lon="4.83656">
        <time>2017-02-19T03:26:27Z</time>
      </trkpt>
      <trkpt lat="43.33998" lon="4.83705">
        <time>2017-02-19T03:26:57Z</time>
      </trkpt>
      <trkpt lat="43.33949" lon="4.83754">
        <time>2017-02-19T03:27:27Z</time>
      </trkpt>
      <trkpt lat="43.33899" lon="4.83803">
        <ele>1</ele>
        <time>2017-02-19T03:27:58Z</time>
      </trkpt>
      <trkpt lat="43.3385" lon="4.83852">
        <ele>1</ele>
        <time>2017-02-19T03:28:28Z</time>
      </trkpt>
      <trkpt lat="43.33801" lon="4.83901">
        <ele>1</ele>
        <time>2017-02-19T03:28:59Z</time>
      </trkpt>
      <trkpt lat="43.33751" lon="4.8395">
        <ele>1</ele>
        <time>2017-02-19T03:29:29Z</time>
      </trkpt>
      <trkpt lat="43.33702" lon="4.83999">
        <ele>1</ele>
        <time>2017-02-19T03:30:00Z</time>
      </trkpt>
      <trkpt lat="43.33653" lon="4.84047">
        <ele>1</ele>
        <time>2017-02-19T03:30:30Z</time>
      </trkpt>
      <trkpt lat="43.33603" lon="4.84096">
        <ele>1</ele>
        <time>2017-02-19T03:31:00Z</time>
      </trkpt>
      <trkpt lat="43.33554" lon="4.84145">
        <ele>1</ele>
        <time>2017-02-19T03:31:31Z</time>
      </trkpt>
      <trkpt lat="43.33519" lon="4.84211">
        <ele>1</ele>
        <time>2017-02-19T03:32:01Z</time>
      </trkpt>
      <trkpt lat="43.33484" lon="4.84277">
        <ele>1</ele>
        <time>2017-02-19T03:32:31Z</time>
      </trkpt>
      <trkpt lat="43.33449" lon="4.84343">
        <ele>1</ele>
        <time>2017-02-19T03:33:00Z</time>
      </trkpt>
      <trkpt lat="43.33414" lon="4.8441">
        <ele>1</ele>
        <time>2017-02-19T03:33:30Z</time>
      </trkpt>
      <trkpt lat="43.33379" lon="4.84476">
        <ele>-90</ele>
        <time>2017-02-19T03:34:00Z</time>
      </trkpt>
      <trkpt lat="43.33344" lon="4.84542">
        <ele>-90</ele>
        <time>2017-02-19T03:34:30Z</time>
      </trkpt>
      <trkpt lat="43.33308" lon="4.84608">
        <ele>-90</ele>
        <time>2017-02-19T03:34:59Z</time>
      </trkpt>
      <trkpt lat="43.33273" lon="4.84674">
        <ele>-90</ele>
        <time>2017-02-19T03:35:29Z</time>
      </trkpt>
      <trkpt lat="43.33238" lon="4.8474">
        <ele>-90</ele>
        <time>2017-02-19T03:35:59Z</time>
      </trkpt>
      <trkpt lat="43.33203" lon="4.84806">
        <ele>-90</ele>
        <time>2017-02-19T03:36:29Z</time>
      </trkpt>
      <trkpt lat="43.33168" lon="4.84872">
        <ele>-90</ele>
        <time>2017-02-19T03:36:59Z</time>
      </trkpt>
      <trkpt lat="43.33133" lon="4.84938">
        <ele>-90</ele>
        <time>2017-02-19T03:37:28Z</time>
      </trkpt>
      <trkpt lat="43.33098" lon="4.85003">
        <ele>-90</ele>
        <time>2017-02-19T03:37:58Z</time>
      </trkpt>
    </trkseg>
  </trk>
</gpx>